# Wetter Temperatur Luftdruck Luftfeuchtigkeit Sichtweite Windgeschwindigkeit Windrichtung Zeit
1 Clear 14 1018 57 10000 4.63 50 15:00 23.01.2022
2 Clear 13 1018 58 10000 5.66 50 14:25 23.01.2022
3 Clear 12 1019 60 10000 5.14 50 13:22 23.01.2022
4 Clear 11 1019 62 10000 6.17 50 12:36 23.01.2022
5 Clear 11 1018 61 10000 6.17 50 12:18 23.01.2022
6 Clear 9 1019 65 10000 5.14 60 11:23 23.01.2022
7 Clear 8 1017 66 10000 5.66 40 10:28 23.01.2022
8 Clear 8 1019 69 10000 4.12 50 09:51 23.01.2022
9 Clear 7 1018 69 10000 4.63 40 08:59 23.01.2022
10 Clear 8 1016 68 10000 4.12 50 05:58 23.01.2022
11 Clear 10 1015 61 10000 4.12 50 01:53 23.01.2022
12 Clear 10 1015 60 10000 4.63 50 01:33 23.01.2022
13 Clear 11 1016 59 10000 5.14 50 00:23 23.01.2022
14 Clear 10 1018 63 10000 4.63 40 23:57 22.01.2022
15 Clear 11 1016 58 10000 4.63 40 22:46 22.01.2022
16 Clear 12 1016 57 10000 3.6 50 21:38 22.01.2022
17 Clear 13 1017 56 10000 3.6 50 20:23 22.01.2022
18 Clear 13 1019 56 10000 3.09 50 19:21 22.01.2022
19 Clear 15 1019 51 10000 4.63 40 18:25 22.01.2022
20 Clear 16 1019 49 10000 3.09 40 17:41 22.01.2022
21 Clear 15 1019 48 10000 4.12 40 16:56 22.01.2022
22 Clear 15 1019 50 10000 3.6 60 15:55 22.01.2022
23 Clear 14 1019 51 10000 4.12 70 15:37 22.01.2022
24 Clear 12 1020 55 10000 5.66 50 13:59 22.01.2022
25 Clear 11 1021 58 10000 4.63 50 12:55 22.01.2022
26 Clear 11 1026 56 10000 5.66 50 12:30 22.01.2022
27 Clear 9 1021 60 10000 5.14 50 11:57 22.01.2022
28 Clear 8 1021 62 10000 4.12 50 10:38 22.01.2022
29 Clear 7 1021 65 10000 4.12 50 10:19 22.01.2022
30 Clear 6 1020 71 10000 4.12 50 08:54 22.01.2022
31 Clear 6 1020 71 10000 4.12 40 08:27 22.01.2022
32 Clear 7 1018 65 10000 3.6 50 05:20 22.01.2022
33 Clear 9 1018 64 10000 3.6 50 01:58 22.01.2022
34 Clear 10 1018 62 10000 2.57 50 23:48 21.01.2022
35 Clear 11 1017 55 10000 3.6 40 22:44 21.01.2022
36 Clear 12 1018 59 10000 4.12 30 20:45 21.01.2022
37 Clear 15 1022 53 10000 4.12 40 18:41 21.01.2022
38 Clear 16 1022 46 10000 4.63 40 17:45 21.01.2022
39 Clear 16 1017 44 10000 4.12 40 15:48 21.01.2022
40 Clear 15 1018 47 10000 3.6 50 14:37 21.01.2022
41 Clear 12 1025 43 10000 4.39 74 12:42 21.01.2022
42 Clear 11 1021 59 10000 4.12 50 11:29 21.01.2022
43 Clear 9 1020 63 10000 3.6 40 10:27 21.01.2022
44 Clear 7 1020 69 10000 2.57 20 08:50 21.01.2022
45 Clear 8 1016 64 10000 2.57 10 07:37 21.01.2022
46 Clear 11 1017 50 10000 2.06 320 01:48 21.01.2022
47 Clear 11 1019 54 10000 3.09 350 22:46 20.01.2022
48 Clear 12 1019 51 10000 3.09 350 21:48 20.01.2022
49 Clear 12 1021 51 10000 3.09 350 21:24 20.01.2022
50 Clear 13 1021 49 10000 3.09 350 19:46 20.01.2022
51 Clear 14 1021 49 10000 2.57 350 19:18 20.01.2022
52 Clear 16 1024 47 10000 3.6 40 17:36 20.01.2022
53 Clear 15 1021 43 10000 3.09 50 15:46 20.01.2022
54 Clear 16 1020 40 10000 3.09 50 15:26 20.01.2022
55 Clear 15 1017 37 10000 0.89 148 14:18 20.01.2022
56 Clear 12 1028 48 10000 3.6 60 12:44 20.01.2022
57 Clear 11 1022 57 10000 3.6 60 12:26 20.01.2022
58 Clouds 8 1023 68 10000 2.06 50 10:58 20.01.2022
59 Fog 6 1023 75 10000 1.03 0 09:44 20.01.2022
60 Clouds 6 1023 82 10000 2.57 360 08:37 20.01.2022
61 Clouds 7 1019 73 8000 0 0 06:19 20.01.2022
62 Fog 9 1023 70 10000 1.54 290 23:56 19.01.2022
63 Clear 10 1023 70 10000 3.09 310 22:38 19.01.2022
64 Clear 10 1021 64 10000 2.57 310 21:33 19.01.2022
65 Clear 11 1023 64 10000 1.03 280 20:55 19.01.2022
66 Clear 11 1023 64 10000 1.54 310 20:30 19.01.2022
67 Clear 13 1023 57 10000 1.54 50 18:49 19.01.2022
68 Clear 15 1028 56 10000 1.54 60 17:50 19.01.2022
69 Clear 15 1028 54 10000 1.54 70 17:18 19.01.2022
70 Clear 15 1028 54 10000 1.54 70 17:18 19.01.2022
71 Clear 16 1029 50 10000 1.54 0 15:31 19.01.2022
72 Clear 14 1021 51 10000 0.45 124 13:20 19.01.2022
73 Clear 10 1027 67 10000 2.06 80 11:58 19.01.2022
74 Clear 9 1027 70 10000 1.03 0 11:22 19.01.2022
75 Clear 7 1026 77 10000 1.54 30 09:35 19.01.2022
76 Clear 7 1026 77 10000 1.54 30 09:35 19.01.2022
77 Clear 6 1025 80 10000 0.51 36 08:33 19.01.2022
78 Clear 8 1023 76 10000 2.06 50 05:19 19.01.2022
79 Clear 10 1024 68 10000 2.06 350 00:18 19.01.2022
80 Clear 11 1024 68 10000 3.09 350 23:18 18.01.2022
81 Clear 11 1023 70 10000 2.57 350 21:44 18.01.2022
82 Clear 12 1024 68 10000 2.06 350 20:22 18.01.2022
83 Clear 13 1024 65 10000 1.54 350 19:45 18.01.2022
84 Clear 13 1024 64 10000 1.54 350 19:25 18.01.2022
85 Clear 15 1028 58 10000 2.57 40 18:19 18.01.2022
86 Clear 15 1028 58 10000 2.06 60 17:32 18.01.2022
87 Clear 15 1024 57 10000 1.54 50 16:20 18.01.2022
88 Clear 15 1024 58 10000 2.57 70 15:25 18.01.2022
89 Clear 13 1029 61 10000 2.06 50 14:22 18.01.2022
90 Clear 13 1029 61 10000 2.06 50 14:22 18.01.2022
91 Clear 10 1030 65 10000 4.12 50 11:37 18.01.2022
92 Clear 8 1023 71 10000 3.6 40 10:25 18.01.2022
93 Clear 7 1023 72 10000 3.6 40 08:29 18.01.2022
94 Clear 7 1023 76 10000 3.09 50 07:43 18.01.2022
95 Clear 10 1021 70 10000 2.06 50 00:39 18.01.2022
96 Clear 11 1023 71 10000 3.09 30 22:40 17.01.2022
97 Clear 12 1023 67 10000 2.57 360 21:42 17.01.2022
98 Clear 12 1024 68 10000 2.57 360 20:44 17.01.2022
99 Clear 14 1023 62 10000 2.06 40 18:51 17.01.2022
100 Clear 15 1023 58 10000 2.06 20 18:25 17.01.2022
101 Clear 16 1023 56 10000 3.09 40 17:22 17.01.2022
102 Clear 15 1025 55 10000 3.6 40 15:54 17.01.2022
103 Clear 15 1025 57 10000 3.09 60 14:58 17.01.2022
104 Clear 15 1025 57 10000 3.09 60 14:58 17.01.2022
105 Clear 15 1025 56 10000 4.12 50 14:31 17.01.2022
106 Clear 14 1026 63 10000 4.63 50 13:18 17.01.2022
107 Clear 14 1026 63 10000 4.63 50 13:18 17.01.2022
108 Clear 11 1027 72 10000 3.6 50 11:53 17.01.2022
109 Clear 10 1028 73 10000 2.06 50 10:52 17.01.2022
110 Clear 8 1027 79 10000 2.06 40 09:46 17.01.2022
111 Clear 8 1025 80 10000 1.03 310 08:43 17.01.2022
112 Clear 8 1024 81 10000 1.54 60 07:20 17.01.2022
113 Clear 12 1023 76 10000 2.57 50 00:59 17.01.2022
114 Clear 12 1023 78 10000 3.09 30 23:33 16.01.2022
115 Clear 13 1024 79 10000 1.54 10 20:51 16.01.2022
116 Clear 13 1026 79 10000 0 0 19:56 16.01.2022
117 Clear 15 1025 73 10000 1.54 0 18:45 16.01.2022
118 Clouds 16 1025 69 10000 1.54 60 17:47 16.01.2022
119 Clouds 16 1029 69 10000 2.06 60 16:53 16.01.2022
120 Clear 16 1023 67 10000 2.06 60 15:40 16.01.2022
121 Clouds 14 1025 74 10000 2.06 60 14:29 16.01.2022
122 Mist 13 1030 74 4000 4.63 10 13:21 16.01.2022
123 Fog 12 1030 74 200 2.57 60 11:56 16.01.2022
124 Mist 10 1027 80 10000 4.12 60 11:27 16.01.2022
125 Clouds 9 1024 82 10000 2.57 50 10:27 16.01.2022
126 Clouds 9 1024 83 10000 2.57 50 09:57 16.01.2022
127 Clear 9 1024 84 10000 2.57 50 09:23 16.01.2022
128 Clear 9 1024 87 10000 2.57 40 08:53 16.01.2022
129 Clouds 9 1022 86 9000 2.06 40 05:52 16.01.2022
130 Clouds 11 1022 80 10000 1.54 0 00:19 16.01.2022
131 Clouds 12 1019 77 10000 1.54 30 22:49 15.01.2022
132 Clouds 12 1020 75 10000 1.03 60 21:21 15.01.2022
133 Clear 12 1021 76 10000 2.57 30 20:44 15.01.2022
134 Clear 12 1022 76 10000 1.03 0 20:18 15.01.2022
135 Clouds 13 1022 74 10000 1.03 0 19:25 15.01.2022
136 Clouds 15 1022 66 10000 0.51 0 17:52 15.01.2022
137 Clouds 14 1022 66 10000 1.54 90 16:43 15.01.2022
138 Clear 13 1023 67 10000 2.57 70 14:32 15.01.2022
139 Clear 11 1024 70 10000 3.09 70 12:38 15.01.2022
140 Clear 10 1024 68 10000 3.09 60 11:20 15.01.2022
141 Clouds 8 1022 70 10000 2.57 60 09:35 15.01.2022
142 Clouds 11 1023 68 10000 2.57 50 01:25 15.01.2022
143 Clouds 11 1024 64 10000 2.57 50 22:40 14.01.2022
144 Clouds 12 1023 62 10000 2.57 50 20:54 14.01.2022
145 Clouds 12 1023 62 10000 2.57 50 20:23 14.01.2022
146 Clouds 12 1024 63 10000 3.09 40 19:49 14.01.2022
147 Clouds 14 1024 59 10000 2.57 30 18:33 14.01.2022
148 Clouds 15 1024 53 10000 3.6 50 16:57 14.01.2022
149 Clouds 15 1024 54 10000 3.09 50 16:38 14.01.2022
150 Clear 13 1024 57 10000 3.6 50 14:50 14.01.2022
151 Clear 13 1025 58 10000 4.12 60 14:20 14.01.2022
152 Clear 11 1025 63 10000 3.09 60 12:37 14.01.2022
153 Clear 9 1025 67 10000 3.6 60 11:34 14.01.2022
154 Clear 8 1024 70 10000 4.12 60 10:24 14.01.2022
155 Clear 7 1024 73 10000 3.09 50 08:52 14.01.2022
156 Clear 7 1023 71 10000 3.09 50 07:29 14.01.2022
157 Clear 10 1025 66 10000 2.57 50 01:43 14.01.2022
158 Clear 11 1025 64 10000 3.09 30 23:39 13.01.2022
159 Clear 12 1023 64 10000 2.57 50 21:45 13.01.2022
160 Clear 12 1024 64 10000 2.57 60 21:27 13.01.2022
161 Clear 13 1024 62 10000 3.09 90 19:44 13.01.2022
162 Clear 14 1023 60 10000 2.57 90 19:23 13.01.2022
163 Clear 15 1024 55 10000 2.57 90 18:33 13.01.2022
164 Clouds 16 1024 51 10000 2.57 60 16:48 13.01.2022
165 Clear 15 1024 52 10000 3.09 60 15:38 13.01.2022
166 Clear 14 1024 56 10000 4.12 50 14:50 13.01.2022
167 Clear 13 1025 61 10000 3.6 60 13:22 13.01.2022
168 Clear 9 1024 73 10000 4.12 50 10:29 13.01.2022
169 Clear 8 1023 76 10000 2.57 50 09:23 13.01.2022
170 Clear 8 1023 76 10000 3.09 40 08:28 13.01.2022
171 Clear 8 1021 79 10000 3.09 50 07:58 13.01.2022
172 Clear 8 1023 77 10000 2.57 50 07:18 13.01.2022
173 Clear 9 1023 74 10000 3.09 60 05:20 13.01.2022
174 Clear 10 1022 73 10000 3.09 60 03:33 13.01.2022
175 Clear 11 1022 77 10000 4.63 40 00:57 13.01.2022
176 Clear 13 1020 68 10000 2.57 60 23:53 12.01.2022
177 Clear 13 1020 67 10000 3.09 40 23:33 12.01.2022
178 Clear 13 1023 65 10000 3.09 40 21:59 12.01.2022
179 Clear 14 1021 63 10000 3.09 50 21:39 12.01.2022
180 Clear 14 1021 62 10000 3.09 50 21:18 12.01.2022
181 Clear 14 1022 65 10000 4.63 50 20:41 12.01.2022
182 Clear 16 1021 64 10000 4.12 40 18:48 12.01.2022
183 Clear 17 1021 58 10000 4.63 50 17:54 12.01.2022
184 Clear 18 1020 57 10000 4.12 50 16:43 12.01.2022
185 Clear 16 1022 63 10000 4.63 40 14:49 12.01.2022
186 Clear 15 1023 64 10000 4.12 50 13:40 12.01.2022
187 Clear 14 1023 66 10000 5.14 50 12:57 12.01.2022
188 Clear 10 1022 79 10000 3.6 50 09:26 12.01.2022
189 Clear 10 1021 82 10000 3.09 50 07:57 12.01.2022
190 Clear 11 1019 78 10000 2.57 60 07:33 12.01.2022
191 Clear 12 1021 88 10000 3.6 360 02:20 12.01.2022
192 Clear 14 1019 76 10000 3.09 320 23:26 11.01.2022
193 Clear 14 1025 77 10000 3.6 320 22:25 11.01.2022
194 Clear 14 1022 76 10000 4.12 320 21:58 11.01.2022
195 Clear 15 1022 74 10000 3.6 320 20:39 11.01.2022
196 Clear 15 1021 69 10000 1.03 350 19:31 11.01.2022
197 Clear 17 1023 64 10000 2.06 70 17:54 11.01.2022
198 Clear 18 1023 60 10000 3.09 70 16:40 11.01.2022
199 Clear 18 1023 60 10000 3.09 70 16:18 11.01.2022
200 Clear 18 1023 60 10000 3.09 70 16:18 11.01.2022
201 Clear 17 1021 59 10000 4.12 50 14:53 11.01.2022
202 Clear 17 1021 61 10000 3.09 50 14:34 11.01.2022
203 Clouds 17 1022 60 10000 2.57 60 13:52 11.01.2022
204 Clouds 16 1022 64 10000 2.57 60 13:28 11.01.2022
205 Fog 14 1023 74 10000 3.6 70 12:34 11.01.2022
206 Mist 11 1022 86 2500 3.09 50 10:32 11.01.2022
207 Clear 11 1019 82 10000 3.09 20 07:55 11.01.2022
208 Clear 11 1019 82 10000 4.12 330 04:28 11.01.2022
209 Clear 12 1021 76 10000 4.12 330 00:27 11.01.2022
210 Clouds 12 1021 77 10000 4.63 350 23:39 10.01.2022
211 Clouds 12 1021 77 10000 5.14 340 22:42 10.01.2022
212 Clouds 12 1021 77 10000 5.14 340 22:18 10.01.2022
213 Clouds 12 1022 78 10000 4.63 340 21:36 10.01.2022
214 Clouds 12 1022 78 10000 4.63 340 21:18 10.01.2022
215 Clouds 13 1021 77 10000 5.66 350 20:54 10.01.2022
216 Clouds 13 1021 77 10000 6.17 350 20:19 10.01.2022
217 Clouds 14 1021 77 10000 4.63 360 19:39 10.01.2022
218 Clouds 14 1021 76 10000 4.63 360 19:19 10.01.2022
219 Clouds 14 1021 76 10000 3.6 350 18:47 10.01.2022
220 Clouds 15 1021 72 10000 4.12 350 16:49 10.01.2022
221 Clouds 15 1022 73 10000 3.6 330 16:27 10.01.2022
222 Clouds 15 1022 73 10000 5.14 340 14:44 10.01.2022
223 Clouds 15 1023 75 10000 5.14 350 13:35 10.01.2022
224 Clouds 15 1023 75 10000 5.14 350 13:35 10.01.2022
225 Clouds 14 1024 80 10000 3.6 340 11:57 10.01.2022
226 Clouds 13 1024 84 10000 3.09 330 10:50 10.01.2022
227 Clouds 12 1024 86 10000 2.57 310 09:40 10.01.2022
228 Clouds 13 1023 82 10000 2.57 310 05:52 10.01.2022
229 Clouds 13 1024 81 10000 3.09 320 02:38 10.01.2022
230 Clouds 13 1024 80 10000 2.06 310 01:21 10.01.2022
231 Clouds 13 1024 80 10000 1.54 290 00:21 10.01.2022
232 Clouds 13 1025 78 10000 1.03 0 22:48 09.01.2022
233 Clouds 13 1024 76 10000 2.06 300 22:21 09.01.2022
234 Clouds 13 1025 76 10000 2.06 330 21:42 09.01.2022
235 Clouds 13 1025 76 10000 2.06 330 21:22 09.01.2022
236 Clouds 14 1028 75 10000 3.09 340 20:47 09.01.2022
237 Clouds 14 1026 74 10000 3.6 320 20:29 09.01.2022
238 Clouds 14 1025 74 10000 3.09 320 19:42 09.01.2022
239 Clouds 14 1025 73 10000 3.09 320 19:21 09.01.2022
240 Clouds 14 1028 72 10000 3.09 350 18:47 09.01.2022
241 Clouds 14 1026 73 10000 3.6 350 18:28 09.01.2022
242 Clouds 14 1026 72 10000 3.09 330 17:30 09.01.2022
243 Clouds 15 1026 70 10000 2.57 330 16:51 09.01.2022
244 Clouds 15 1026 67 10000 3.6 320 15:52 09.01.2022
245 Clouds 15 1026 63 10000 4.12 330 15:33 09.01.2022
246 Clouds 15 1027 64 10000 3.6 320 14:39 09.01.2022
247 Clouds 15 1027 65 10000 4.12 330 13:50 09.01.2022
248 Clouds 14 1028 66 10000 4.12 300 12:31 09.01.2022
249 Clouds 14 1028 66 10000 3.09 310 11:47 09.01.2022
250 Clouds 12 1027 72 10000 1.03 260 09:56 09.01.2022
251 Clouds 12 1027 72 10000 1.03 0 09:29 09.01.2022
252 Clouds 12 1027 72 10000 2.57 290 08:30 09.01.2022
253 Clouds 9 1026 79 10000 1.03 0 02:31 09.01.2022
254 Clear 9 1027 80 10000 1.54 320 01:20 09.01.2022
255 Clear 9 1027 77 10000 1.54 280 23:38 08.01.2022
256 Clear 10 1027 75 10000 0.51 0 22:59 08.01.2022
257 Clear 11 1028 73 10000 3.09 350 21:33 08.01.2022
258 Clear 11 1028 73 10000 4.63 360 20:45 08.01.2022
259 Clear 11 1028 73 10000 4.63 350 20:24 08.01.2022
260 Clear 11 1028 71 10000 4.12 340 19:58 08.01.2022
261 Clear 14 1028 55 10000 4.12 350 17:51 08.01.2022
262 Clear 15 1028 57 10000 2.57 30 17:21 08.01.2022
263 Clear 14 1029 58 10000 1.03 0 15:47 08.01.2022
264 Clear 14 1031 59 10000 2.57 70 14:41 08.01.2022
265 Clear 13 1030 59 10000 2.06 60 12:44 08.01.2022
266 Clear 11 1029 65 10000 1.54 70 10:59 08.01.2022
267 Clear 9 1030 76 10000 0.51 30 10:25 08.01.2022
268 Clear 8 1029 75 10000 0.51 0 09:47 08.01.2022
269 Clear 8 1028 76 10000 2.06 360 07:19 08.01.2022
270 Clear 10 1028 74 10000 2.06 340 02:39 08.01.2022
271 Clear 11 1028 72 10000 2.57 340 00:41 08.01.2022
272 Clear 11 1028 73 10000 3.6 340 22:47 07.01.2022
273 Clear 12 1028 73 10000 5.14 340 20:56 07.01.2022
274 Clear 13 1027 69 10000 5.14 340 19:56 07.01.2022
275 Clear 13 1027 69 10000 5.14 340 19:56 07.01.2022
276 Clear 14 1027 62 10000 4.63 350 18:58 07.01.2022
277 Clear 14 1026 59 10000 4.63 10 18:38 07.01.2022
278 Clouds 15 1026 52 10000 6.17 10 17:25 07.01.2022
279 Clouds 15 1026 52 10000 7.72 10 16:30 07.01.2022
280 Clouds 15 1027 59 10000 7.2 350 13:54 07.01.2022
281 Clouds 15 1027 62 10000 7.72 350 13:22 07.01.2022
282 Clouds 14 1027 65 10000 7.2 360 12:49 07.01.2022
283 Clouds 12 1025 77 10000 7.72 350 09:37 07.01.2022
284 Clouds 12 1022 81 10000 4.12 340 02:56 07.01.2022
285 Clouds 12 1023 81 10000 2.57 350 01:54 07.01.2022
286 Clouds 12 1023 80 10000 1.54 350 01:28 07.01.2022
287 Clouds 12 1023 80 10000 1.54 340 00:58 07.01.2022
288 Clouds 12 1023 80 10000 1.54 340 00:58 07.01.2022
289 Clouds 11 1022 81 10000 2.57 350 22:54 06.01.2022
290 Clouds 12 1021 78 10000 3.6 320 21:28 06.01.2022
291 Clouds 13 1021 75 10000 4.12 330 20:22 06.01.2022
292 Clouds 13 1021 74 10000 3.09 330 19:45 06.01.2022
293 Clouds 14 1020 67 10000 3.09 340 18:29 06.01.2022
294 Clouds 14 1020 64 10000 5.66 350 17:40 06.01.2022
295 Clouds 15 1021 65 10000 4.63 350 16:52 06.01.2022
296 Clouds 15 1021 62 10000 5.66 10 15:48 06.01.2022
297 Clouds 15 1021 62 10000 5.66 340 15:26 06.01.2022
298 Clouds 15 1021 65 10000 4.12 350 14:51 06.01.2022
299 Clouds 14 1021 67 10000 4.63 330 14:18 06.01.2022
300 Clouds 14 1022 69 10000 5.66 340 12:50 06.01.2022
301 Clouds 13 1021 75 10000 3.09 330 11:43 06.01.2022
302 Clouds 13 1021 76 10000 3.09 330 11:23 06.01.2022
303 Clouds 10 1020 83 10000 1.54 260 08:59 06.01.2022
304 Clouds 12 1018 73 10000 2.57 330 01:51 06.01.2022
305 Clouds 13 1018 80 10000 3.6 330 23:40 05.01.2022
306 Clouds 13 1018 82 10000 3.6 330 22:59 05.01.2022
307 Clouds 13 1017 84 10000 2.57 320 22:33 05.01.2022
308 Mist 13 1018 89 5000 4.12 340 21:52 05.01.2022
309 Drizzle 13 1017 90 10000 4.12 330 21:21 05.01.2022
310 Drizzle 14 1018 90 5000 5.66 300 20:19 05.01.2022
311 Mist 14 1018 88 2500 6.69 260 18:54 05.01.2022
312 Mist 14 1019 84 2500 5.66 250 17:50 05.01.2022
313 Clouds 15 1019 75 10000 6.69 270 16:56 05.01.2022
314 Clouds 16 1020 66 10000 6.17 270 15:46 05.01.2022
315 Clouds 15 1021 65 10000 6.69 290 14:28 05.01.2022
316 Clouds 15 1022 66 10000 5.14 270 13:32 05.01.2022
317 Clouds 14 1023 78 10000 3.09 250 11:46 05.01.2022
318 Clouds 11 1023 87 10000 2.06 230 08:20 05.01.2022
319 Clouds 11 1022 84 10000 2.06 230 06:36 05.01.2022
320 Clouds 12 1021 78 10000 4.12 300 00:59 05.01.2022
321 Clouds 12 1022 77 10000 3.09 300 23:38 04.01.2022
322 Clouds 12 1022 77 10000 3.09 300 23:18 04.01.2022
323 Clouds 12 1020 76 10000 2.06 300 21:31 04.01.2022
324 Clouds 12 1021 79 10000 2.06 280 19:55 04.01.2022
325 Rain 13 1020 71 10000 3.6 300 18:35 04.01.2022
326 Clouds 14 1019 66 10000 4.63 310 17:18 04.01.2022
327 Clouds 15 1018 64 10000 6.69 320 16:31 04.01.2022
328 Clouds 14 1017 76 10000 7.2 330 14:58 04.01.2022
329 Clouds 14 1017 77 10000 7.72 320 14:36 04.01.2022
330 Clouds 14 1016 78 10000 7.72 320 13:48 04.01.2022
331 Rain 13 1016 84 10000 3.09 260 10:59 04.01.2022
332 Rain 13 1016 82 10000 3.6 280 10:18 04.01.2022
333 Clouds 13 1014 86 10000 8.23 260 08:36 04.01.2022
334 Clouds 15 1014 91 10000 4.12 190 04:24 04.01.2022
335 Fog 15 1017 89 10000 3.6 240 00:42 04.01.2022
336 Fog 14 1018 90 10000 5.66 220 23:44 03.01.2022
337 Clouds 14 1018 90 9000 5.14 220 22:21 03.01.2022
338 Fog 14 1020 91 9000 4.12 220 21:38 03.01.2022
339 Clouds 14 1021 91 9000 3.09 220 20:34 03.01.2022
340 Clouds 14 1021 91 9000 3.09 220 18:55 03.01.2022
341 Clouds 14 1021 91 9000 2.57 220 18:30 03.01.2022
342 Fog 14 1024 94 8000 2.06 220 17:20 03.01.2022
343 Fog 14 1024 95 3000 1.54 120 16:31 03.01.2022
344 Fog 16 1023 91 1000 1.03 0 14:31 03.01.2022
345 Fog 14 1027 96 300 1.54 60 12:52 03.01.2022
346 Fog 13 1027 99 100 1.54 60 11:50 03.01.2022
347 Fog 12 1026 99 100 2.57 50 10:38 03.01.2022
348 Fog 12 1024 93 100 2.06 70 09:28 03.01.2022
349 Fog 12 1023 92 150 2.06 60 07:53 03.01.2022
350 Fog 13 1025 91 150 0 0 02:56 03.01.2022
351 Fog 14 1026 91 150 1.03 0 23:23 02.01.2022
352 Fog 14 1026 90 150 1.03 350 22:56 02.01.2022
353 Fog 14 1025 88 200 1.54 330 21:58 02.01.2022
354 Fog 15 1027 91 500 1.03 0 20:50 02.01.2022
355 Mist 15 1027 91 1800 1.03 0 20:30 02.01.2022
356 Mist 15 1026 89 4000 1.54 70 19:31 02.01.2022
357 Fog 15 1027 89 2500 1.03 0 18:56 02.01.2022
358 Mist 16 1027 86 1500 1.54 40 17:57 02.01.2022
359 Mist 16 1026 86 1500 1.54 0 17:39 02.01.2022
360 Clouds 17 1026 83 6000 2.57 360 17:20 02.01.2022
361 Fog 17 1026 84 2200 1.54 80 16:28 02.01.2022
362 Mist 17 1027 84 3500 2.57 70 14:44 02.01.2022
363 Mist 16 1028 87 3000 1.54 100 13:37 02.01.2022
364 Fog 16 1030 87 800 2.06 50 12:32 02.01.2022
365 Mist 15 1028 91 2500 2.06 70 11:49 02.01.2022
366 Mist 14 1027 92 2500 1.54 70 10:54 02.01.2022
367 Mist 14 1027 92 2000 1.54 70 09:57 02.01.2022
368 Clouds 14 1025 90 6000 1.03 350 07:35 02.01.2022
369 Clouds 16 1024 89 7000 2.06 230 02:56 02.01.2022
370 Clear 15 1023 85 10000 2.57 220 23:45 01.01.2022
371 Clear 15 1023 83 10000 2.57 230 23:24 01.01.2022
372 Clear 15 1023 81 10000 2.57 250 22:25 01.01.2022
373 Clear 15 1023 80 10000 1.54 260 21:46 01.01.2022
374 Clear 15 1023 79 10000 0.51 0 21:28 01.01.2022
375 Clear 16 1022 76 10000 1.03 280 20:27 01.01.2022
376 Clear 16 1022 71 10000 2.06 260 19:36 01.01.2022
377 Clear 17 1023 69 10000 0 0 18:51 01.01.2022
378 Clear 18 1025 64 10000 2.06 360 17:38 01.01.2022
379 Clear 19 1025 58 10000 1.03 0 16:35 01.01.2022
380 Clear 19 1025 58 10000 0.51 0 15:37 01.01.2022
381 Clear 17 1023 65 10000 2.57 60 14:25 01.01.2022
382 Clear 18 1024 60 10000 2.06 80 13:41 01.01.2022
383 Clear 16 1025 69 10000 2.57 60 12:25 01.01.2022
384 Clear 14 1024 74 10000 2.06 60 11:25 01.01.2022
385 Clear 14 1023 73 10000 2.06 60 10:56 01.01.2022
386 Clear 13 1022 75 10000 2.06 70 09:48 01.01.2022
387 Clear 13 1022 77 10000 2.06 60 08:35 01.01.2022
388 Clear 12 1022 80 10000 2.57 50 07:57 01.01.2022
389 Clear 13 1020 77 10000 2.06 60 07:38 01.01.2022
390 Clear 13 1021 80 10000 2.06 40 06:44 01.01.2022
391 Clear 13 1022 78 10000 2.06 50 04:40 01.01.2022
392 Clear 14 1021 75 10000 2.06 40 03:52 01.01.2022
393 Clear 16 1022 74 10000 2.06 0 23:55 31.12.2021
394 Clear 16 1021 71 10000 1.54 10 22:25 31.12.2021
395 Clear 16 1021 73 10000 0 0 21:47 31.12.2021
396 Clear 17 1022 72 10000 1.03 0 19:48 31.12.2021
397 Clear 18 1021 66 10000 1.54 90 19:28 31.12.2021
398 Clear 19 1020 61 10000 1.03 0 17:56 31.12.2021
399 Clear 19 1020 60 10000 0 0 17:26 31.12.2021
400 Clear 20 1020 59 10000 0 0 16:52 31.12.2021
401 Clear 20 1021 62 10000 1.03 0 16:18 31.12.2021
402 Clear 20 1020 60 10000 2.06 70 15:50 31.12.2021
403 Clear 19 1021 64 10000 2.06 70 15:26 31.12.2021
404 Clear 19 1021 63 10000 2.57 60 14:39 31.12.2021
405 Clear 18 1021 64 10000 2.57 70 13:51 31.12.2021
406 Clear 16 1023 72 10000 3.09 70 12:51 31.12.2021
407 Clear 15 1023 78 10000 3.09 70 12:21 31.12.2021
408 Clear 15 1025 73 10000 3.6 50 11:42 31.12.2021
409 Clear 13 1022 84 10000 2.06 60 10:56 31.12.2021
410 Clear 12 1022 85 10000 2.06 50 10:28 31.12.2021
411 Clouds 11 1022 89 9000 2.06 50 09:35 31.12.2021
412 Clouds 11 1021 90 10000 1.54 50 08:54 31.12.2021
413 Clouds 11 1020 90 8000 2.06 60 07:59 31.12.2021
414 Mist 12 1019 89 1000 2.06 60 04:55 31.12.2021
415 Clear 13 1021 88 10000 1.03 0 23:19 30.12.2021
416 Clear 14 1019 86 10000 1.54 20 22:32 30.12.2021
417 Clear 14 1020 87 10000 1.54 40 21:40 30.12.2021
418 Clear 14 1020 86 10000 1.54 40 21:20 30.12.2021
419 Clear 15 1020 84 10000 2.57 110 20:40 30.12.2021
420 Clear 15 1020 85 10000 3.09 100 19:58 30.12.2021
421 Clear 15 1020 84 10000 1.54 120 19:34 30.12.2021
422 Clear 15 1019 81 10000 2.57 110 18:29 30.12.2021
423 Clear 16 1021 78 10000 3.09 110 17:34 30.12.2021
424 Clouds 16 1021 78 10000 3.09 100 15:54 30.12.2021
425 Clouds 16 1019 78 10000 1.54 0 15:22 30.12.2021
426 Clouds 15 1019 81 10000 3.09 110 14:36 30.12.2021
427 Clouds 14 1022 86 9000 3.6 100 13:31 30.12.2021
428 Clouds 12 1020 89 10000 3.6 120 11:58 30.12.2021
429 Clouds 12 1019 88 10000 4.12 110 10:44 30.12.2021
430 Mist 12 1020 90 10000 2.57 120 09:50 30.12.2021
431 Clouds 12 1022 90 6000 4.12 90 07:42 30.12.2021
432 Clouds 12 1019 90 10000 3.6 110 06:38 30.12.2021
433 Mist 13 1020 92 1500 2.57 80 03:41 30.12.2021
434 Fog 13 1023 91 400 3.6 70 02:38 30.12.2021
435 Clouds 14 1021 89 10000 2.06 50 23:41 29.12.2021
436 Clouds 14 1021 89 10000 2.06 50 23:21 29.12.2021
437 Clouds 14 1021 88 10000 1.03 90 22:19 29.12.2021
438 Clouds 15 1020 86 10000 0 0 21:27 29.12.2021
439 Clouds 15 1022 86 10000 0 0 20:34 29.12.2021
440 Clouds 16 1022 84 10000 2.57 180 19:48 29.12.2021
441 Clouds 17 1022 81 10000 2.06 140 18:47 29.12.2021
442 Clouds 18 1024 74 10000 2.57 140 17:54 29.12.2021
443 Clouds 18 1024 74 10000 2.57 130 17:27 29.12.2021
444 Clouds 18 1022 73 10000 2.57 140 16:24 29.12.2021
445 Fog 18 1022 77 10000 2.57 140 15:48 29.12.2021
446 Clouds 18 1023 80 10000 3.09 150 14:19 29.12.2021
447 Clouds 17 1024 87 10000 2.57 170 12:39 29.12.2021
448 Clouds 16 1024 91 10000 1.54 130 11:43 29.12.2021
449 Clouds 16 1023 93 10000 2.06 210 09:59 29.12.2021
450 Clouds 16 1022 92 10000 2.06 220 07:52 29.12.2021
451 Clouds 16 1022 92 10000 2.57 210 06:40 29.12.2021
452 Clouds 16 1022 92 10000 2.57 210 06:22 29.12.2021
453 Drizzle 16 1022 92 10000 2.57 220 05:39 29.12.2021
454 Mist 16 1023 92 3000 2.06 180 02:48 29.12.2021
455 Mist 16 1023 92 2200 2.57 220 00:23 29.12.2021
456 Mist 16 1023 92 1500 3.09 210 23:35 28.12.2021
457 Drizzle 16 1023 91 8000 4.12 230 22:42 28.12.2021
458 Drizzle 16 1024 92 8000 4.12 230 22:24 28.12.2021
459 Mist 16 1023 93 4500 2.57 230 21:38 28.12.2021
460 Mist 16 1023 91 10000 2.57 230 20:40 28.12.2021
461 Fog 16 1023 91 10000 3.6 240 19:31 28.12.2021
462 Clouds 17 1023 90 10000 3.6 230 18:41 28.12.2021
463 Clouds 17 1022 88 10000 4.63 230 18:19 28.12.2021
464 Clouds 18 1022 89 10000 4.12 240 16:35 28.12.2021
465 Clouds 18 1022 89 10000 4.63 230 15:51 28.12.2021
466 Clouds 18 1022 89 10000 4.12 230 15:23 28.12.2021
467 Clouds 18 1022 90 10000 4.12 240 14:50 28.12.2021
468 Clouds 18 1022 89 10000 4.63 220 14:21 28.12.2021
469 Clouds 18 1022 89 10000 4.63 220 14:21 28.12.2021
470 Clouds 18 1023 90 10000 4.12 220 13:51 28.12.2021
471 Fog 18 1023 90 10000 4.63 220 13:27 28.12.2021
472 Fog 17 1023 93 10000 4.63 230 12:49 28.12.2021
473 Drizzle 17 1023 92 10000 4.12 230 11:51 28.12.2021
474 Drizzle 16 1022 92 7000 3.09 230 09:27 28.12.2021
475 Clouds 16 1020 89 10000 3.09 230 07:28 28.12.2021
476 Clouds 16 1017 89 10000 5.14 240 00:59 28.12.2021
477 Clouds 16 1019 90 10000 4.12 240 23:26 27.12.2021
478 Clouds 17 1019 89 10000 5.66 240 21:54 27.12.2021
479 Clouds 16 1018 89 10000 4.63 240 21:26 27.12.2021
480 Clouds 16 1018 90 10000 4.63 240 20:24 27.12.2021
481 Clouds 17 1018 89 10000 5.66 240 19:45 27.12.2021
482 Clouds 17 1017 90 10000 6.17 240 18:54 27.12.2021
483 Clouds 17 1016 87 10000 6.69 220 17:50 27.12.2021
484 Clouds 17 1016 86 10000 7.2 230 17:18 27.12.2021
485 Clouds 18 1016 87 10000 6.17 230 15:53 27.12.2021
486 Drizzle 17 1016 87 10000 6.69 220 14:34 27.12.2021
487 Fog 18 1016 84 10000 5.66 230 13:58 27.12.2021
488 Fog 17 1017 87 10000 4.63 220 12:49 27.12.2021
489 Fog 16 1015 90 8000 4.12 230 10:37 27.12.2021
490 Fog 16 1015 91 8000 4.12 230 10:18 27.12.2021
491 Fog 16 1015 91 10000 2.57 240 08:42 27.12.2021
492 Clouds 16 1014 88 10000 4.12 260 07:34 27.12.2021
493 Clouds 16 1012 88 10000 5.66 240 02:29 27.12.2021
494 Drizzle 16 1011 89 7000 6.69 240 00:57 27.12.2021
495 Clouds 16 1011 91 10000 6.17 230 23:43 26.12.2021
496 Clouds 16 1011 91 10000 5.14 220 23:18 26.12.2021
497 Clouds 16 1011 91 6000 5.14 230 21:33 26.12.2021
498 Drizzle 16 1011 92 3500 6.17 220 19:54 26.12.2021
499 Mist 16 1010 92 2000 6.17 220 18:39 26.12.2021
500 Mist 16 1010 92 2000 6.17 220 18:19 26.12.2021
501 Clouds 17 1010 90 6000 6.69 230 15:35 26.12.2021
502 Drizzle 17 1011 91 4500 7.2 230 13:43 26.12.2021
503 Clouds 17 1011 91 10000 6.69 240 13:21 26.12.2021
504 Mist 17 1011 91 4000 6.17 230 12:35 26.12.2021
505 Mist 16 1011 92 3000 6.17 230 11:18 26.12.2021
506 Mist 16 1010 93 3000 6.69 230 09:30 26.12.2021
507 Mist 16 1010 93 3000 6.69 210 08:45 26.12.2021
508 Mist 15 1009 93 2000 6.69 200 08:26 26.12.2021
509 Clouds 14 1010 89 10000 2.06 230 01:50 26.12.2021
510 Clouds 14 1009 88 10000 3.09 220 00:39 26.12.2021
511 Clouds 14 1009 87 10000 2.57 200 23:35 25.12.2021
512 Clouds 14 1009 90 10000 2.57 180 22:38 25.12.2021
513 Clouds 14 1009 87 10000 2.57 180 22:20 25.12.2021
514 Clouds 14 1008 83 10000 3.09 300 20:26 25.12.2021
515 Clouds 15 1007 81 10000 2.57 300 19:19 25.12.2021
516 Clouds 15 1007 82 10000 3.6 300 18:37 25.12.2021
517 Clouds 16 1005 80 10000 4.63 310 16:50 25.12.2021
518 Mist 16 1004 82 10000 6.69 300 15:38 25.12.2021
519 Clouds 16 1002 83 10000 6.17 300 14:23 25.12.2021
520 Mist 16 1001 88 5000 7.2 270 12:40 25.12.2021
521 Mist 15 1001 88 3500 6.17 240 10:49 25.12.2021
522 Mist 16 1000 86 5000 7.72 230 09:49 25.12.2021
523 Clouds 15 996 91 8000 10.29 210 07:28 25.12.2021
524 Rain 14 1005 83 10000 7.2 190 01:43 25.12.2021
525 Rain 15 1003 87 10000 6.69 210 00:23 25.12.2021
526 Rain 15 1004 87 10000 3.09 230 22:26 24.12.2021
527 Clouds 14 1007 79 10000 3.6 240 19:29 24.12.2021
528 Clouds 15 1008 76 10000 6.69 240 18:57 24.12.2021
529 Clouds 16 1006 79 10000 6.17 220 16:49 24.12.2021
530 Clouds 15 1006 86 10000 7.2 220 15:53 24.12.2021
531 Clouds 15 1006 87 10000 4.63 230 15:34 24.12.2021
532 Clouds 15 1007 86 10000 8.75 200 14:36 24.12.2021
533 Rain 15 1007 84 10000 8.75 200 14:18 24.12.2021
534 Rain 16 1010 79 10000 8.75 200 13:33 24.12.2021
535 Rain 16 1008 81 10000 7.72 190 12:47 24.12.2021
536 Clouds 15 1009 87 10000 5.14 170 11:47 24.12.2021
537 Clouds 15 1009 90 10000 5.14 170 11:24 24.12.2021
538 Clouds 15 1009 90 10000 5.66 180 10:46 24.12.2021
539 Fog 14 1009 92 10000 3.6 160 09:32 24.12.2021
540 Fog 14 1010 92 10000 3.09 160 08:23 24.12.2021
541 Clouds 14 1009 91 10000 4.12 160 07:46 24.12.2021
542 Clouds 13 1011 90 10000 1.03 0 01:30 24.12.2021
543 Clouds 14 1012 90 10000 2.06 180 23:55 23.12.2021
544 Clouds 14 1011 88 10000 2.57 200 22:56 23.12.2021
545 Clouds 14 1011 88 10000 3.6 180 22:37 23.12.2021
546 Clouds 14 1011 88 10000 3.6 180 22:18 23.12.2021
547 Clouds 14 1012 89 10000 4.63 210 20:56 23.12.2021
548 Clouds 15 1013 89 10000 3.6 210 19:47 23.12.2021
549 Clouds 15 1013 87 10000 4.63 220 18:35 23.12.2021
550 Clouds 16 1013 85 10000 4.12 220 17:56 23.12.2021
551 Clouds 16 1011 76 10000 4.12 240 16:43 23.12.2021
552 Clouds 17 1011 75 10000 4.12 230 16:23 23.12.2021
553 Clouds 17 1015 76 10000 3.6 240 15:31 23.12.2021
554 Clouds 17 1012 78 10000 3.6 230 14:49 23.12.2021
555 Clouds 17 1012 79 10000 3.09 240 14:30 23.12.2021
556 Clouds 16 1014 87 10000 4.12 270 12:54 23.12.2021
557 Fog 15 1014 92 10000 3.09 250 10:44 23.12.2021
558 Fog 16 1015 91 10000 3.6 230 09:42 23.12.2021
559 Fog 15 1013 92 10000 4.12 220 08:59 23.12.2021
560 Rain 15 1012 91 6000 3.6 190 06:55 23.12.2021
561 Drizzle 16 1013 90 10000 5.14 180 04:30 23.12.2021
562 Drizzle 15 1013 89 10000 5.14 170 23:20 22.12.2021
563 Drizzle 15 1013 88 9000 4.63 180 22:42 22.12.2021
564 Clouds 16 1013 87 10000 4.63 170 21:56 22.12.2021
565 Clouds 16 1013 87 10000 4.63 180 21:29 22.12.2021
566 Clouds 16 1014 88 10000 4.63 170 20:47 22.12.2021
567 Clouds 16 1014 88 10000 5.14 190 20:26 22.12.2021
568 Clouds 15 1013 85 10000 6.17 180 19:21 22.12.2021
569 Clouds 16 1013 85 10000 5.66 180 17:42 22.12.2021
570 Clouds 17 1013 83 10000 5.66 180 16:39 22.12.2021
571 Clouds 17 1013 82 10000 5.66 180 15:39 22.12.2021
572 Clouds 16 1016 85 10000 1.54 110 13:33 22.12.2021
573 Mist 15 1014 90 3000 1.54 60 12:40 22.12.2021
574 Mist 13 1014 90 3500 2.57 70 10:19 22.12.2021
575 Fog 13 1013 90 800 3.6 0 09:38 22.12.2021
576 Mist 14 1012 89 5000 1.54 100 07:30 22.12.2021
577 Clouds 14 1012 89 10000 1.54 120 05:50 22.12.2021
578 Clouds 14 1012 89 10000 2.57 170 05:26 22.12.2021
579 Clouds 14 1012 89 10000 2.57 180 04:50 22.12.2021
580 Clouds 14 1012 88 10000 3.6 170 04:29 22.12.2021
581 Clouds 14 1011 83 10000 2.57 180 03:33 22.12.2021
582 Clouds 15 1010 82 10000 4.12 160 00:50 22.12.2021
583 Clouds 15 1010 84 10000 3.6 130 23:25 21.12.2021
584 Clouds 15 1010 84 10000 3.6 150 22:28 21.12.2021
585 Clouds 15 1010 83 10000 3.6 140 21:44 21.12.2021
586 Clouds 15 1010 85 10000 3.6 170 21:23 21.12.2021
587 Clouds 15 1010 85 6000 4.63 130 20:22 21.12.2021
588 Clouds 16 1010 83 10000 4.12 130 19:43 21.12.2021
589 Rain 16 1010 83 10000 4.63 140 18:48 21.12.2021
590 Clouds 16 1010 83 10000 3.6 130 18:21 21.12.2021
591 Clouds 16 1009 85 10000 5.14 140 17:47 21.12.2021
592 Clouds 17 1009 82 8000 7.2 170 16:35 21.12.2021
593 Clouds 17 1010 80 10000 5.14 150 15:25 21.12.2021
594 Rain 18 1011 75 10000 4.63 130 13:51 21.12.2021
595 Clouds 18 1011 77 10000 4.63 130 13:31 21.12.2021
596 Clouds 17 1012 82 9000 3.6 120 11:57 21.12.2021
597 Mist 15 1012 87 5000 4.63 110 10:25 21.12.2021
598 Mist 15 1012 87 5000 5.66 110 09:33 21.12.2021
599 Clouds 15 1012 87 8000 5.14 130 08:28 21.12.2021
600 Clouds 14 1011 86 10000 5.14 130 07:32 21.12.2021
601 Clouds 15 1011 86 10000 4.12 120 06:50 21.12.2021
602 Clouds 16 1011 83 10000 5.66 160 03:18 21.12.2021
603 Clouds 17 1012 85 10000 7.72 180 00:46 21.12.2021
604 Clouds 17 1012 83 10000 6.69 170 23:34 20.12.2021
605 Clouds 17 1012 82 10000 7.72 170 22:34 20.12.2021
606 Clouds 17 1013 86 10000 8.75 170 21:48 20.12.2021
607 Clouds 17 1013 86 10000 8.75 180 21:24 20.12.2021
608 Clouds 17 1012 87 10000 7.72 180 20:48 20.12.2021
609 Clouds 16 1012 90 10000 8.23 170 19:55 20.12.2021
610 Clouds 16 1012 91 10000 8.75 170 19:32 20.12.2021
611 Clouds 16 1012 88 10000 7.72 180 18:55 20.12.2021
612 Clouds 16 1012 87 2000 5.14 170 17:56 20.12.2021
613 Clouds 16 1012 87 10000 3.6 150 17:37 20.12.2021
614 Clouds 16 1012 85 10000 2.57 140 16:43 20.12.2021
615 Clouds 16 1013 84 10000 7.72 180 15:52 20.12.2021
616 Clouds 15 1013 89 1500 8.23 180 14:56 20.12.2021
617 Rain 16 1013 90 8000 4.63 130 13:24 20.12.2021
618 Rain 15 1016 87 7000 3.6 130 11:27 20.12.2021
619 Clouds 15 1016 88 10000 4.63 130 09:51 20.12.2021
620 Clouds 15 1016 88 8000 4.63 130 09:31 20.12.2021
621 Clouds 15 1016 88 9000 3.6 130 08:42 20.12.2021
622 Drizzle 14 1012 90 7000 4.12 150 07:55 20.12.2021
623 Drizzle 14 1012 90 7000 5.14 130 07:31 20.12.2021
624 Rain 14 1013 88 8000 6.69 140 04:36 20.12.2021
625 Rain 15 1013 73 10000 2.06 100 00:19 20.12.2021
626 Rain 16 1014 67 10000 2.06 120 22:55 19.12.2021
627 Clear 16 1014 63 10000 3.6 100 21:55 19.12.2021
628 Clear 16 1014 62 10000 3.6 110 21:31 19.12.2021
629 Clear 16 1014 60 10000 4.12 90 20:34 19.12.2021
630 Clear 16 1014 58 10000 4.63 80 19:52 19.12.2021
631 Clear 16 1014 58 10000 3.6 90 19:32 19.12.2021
632 Clear 17 1013 56 10000 4.12 90 18:30 19.12.2021
633 Clear 17 1013 55 10000 4.63 100 17:53 19.12.2021
634 Clear 18 1013 54 10000 4.63 110 17:21 19.12.2021
635 Clear 18 1013 55 10000 5.66 100 16:27 19.12.2021
636 Clear 18 1014 55 10000 6.17 100 15:50 19.12.2021
637 Clear 18 1014 55 10000 5.14 100 15:23 19.12.2021
638 Clear 17 1015 58 10000 4.63 100 14:44 19.12.2021
639 Clear 15 1016 62 10000 5.14 80 13:26 19.12.2021
640 Clear 14 1019 62 10000 5.66 70 12:47 19.12.2021
641 Clear 13 1017 68 10000 5.14 60 12:28 19.12.2021
642 Clear 12 1020 65 10000 3.09 20 11:30 19.12.2021
643 Clear 10 1018 74 10000 4.12 60 10:30 19.12.2021
644 Clear 10 1017 74 10000 4.63 70 09:53 19.12.2021
645 Clear 9 1018 74 10000 3.6 60 08:45 19.12.2021
646 Clear 10 1018 72 10000 4.63 60 04:45 19.12.2021
647 Clear 11 1018 70 10000 4.63 60 01:39 19.12.2021
648 Clear 12 1019 69 10000 4.63 60 00:53 19.12.2021
649 Clear 13 1020 67 10000 4.12 50 22:50 18.12.2021
650 Clear 13 1019 64 10000 3.6 50 22:20 18.12.2021
651 Clear 13 1020 65 10000 3.6 60 21:41 18.12.2021
652 Clear 14 1020 65 10000 3.6 60 21:22 18.12.2021
653 Clear 14 1021 64 10000 2.57 80 20:25 18.12.2021
654 Clear 15 1020 60 10000 3.6 90 19:27 18.12.2021
655 Clear 16 1020 58 10000 3.09 90 18:23 18.12.2021
656 Clear 17 1020 56 10000 2.57 70 17:49 18.12.2021
657 Clear 17 1020 55 10000 3.6 60 16:27 18.12.2021
658 Clear 17 1020 57 10000 4.12 60 15:48 18.12.2021
659 Clear 16 1023 61 10000 4.12 50 14:51 18.12.2021
660 Clear 15 1021 60 10000 4.12 50 13:42 18.12.2021
661 Clear 12 1022 71 10000 4.12 70 11:48 18.12.2021
662 Clouds 10 1021 78 10000 4.63 60 09:53 18.12.2021
663 Clouds 10 1021 79 10000 5.14 60 09:30 18.12.2021
664 Clouds 10 1021 80 10000 3.6 60 08:35 18.12.2021
665 Clouds 10 1020 75 10000 4.12 70 06:27 18.12.2021
666 Clear 12 1021 69 10000 2.57 50 00:42 18.12.2021
667 Clouds 12 1020 66 10000 2.06 80 23:47 17.12.2021
668 Clouds 13 1021 65 10000 3.6 60 22:37 17.12.2021
669 Clouds 14 1021 61 10000 3.09 50 21:28 17.12.2021
670 Clouds 14 1021 60 10000 3.09 50 20:42 17.12.2021
671 Clouds 14 1020 60 10000 2.57 50 19:51 17.12.2021
672 Clear 15 1020 59 10000 2.57 80 18:39 17.12.2021
673 Clouds 16 1019 57 10000 2.57 80 17:47 17.12.2021
674 Clouds 16 1020 56 10000 2.57 80 16:50 17.12.2021
675 Clouds 16 1020 56 10000 3.6 90 16:27 17.12.2021
676 Clouds 16 1020 55 10000 4.12 70 15:27 17.12.2021
677 Clouds 15 1020 57 10000 4.63 70 14:42 17.12.2021
678 Clouds 14 1021 59 10000 5.14 70 13:45 17.12.2021
679 Clear 12 1022 65 10000 4.63 60 12:36 17.12.2021
680 Clear 10 1022 70 10000 6.17 60 10:42 17.12.2021
681 Clear 9 1021 73 10000 4.63 50 09:47 17.12.2021
682 Clear 9 1020 71 10000 3.6 50 08:32 17.12.2021
683 Clear 10 1019 69 10000 4.12 60 07:30 17.12.2021
684 Clear 10 1019 67 10000 3.6 50 04:40 17.12.2021
685 Clear 12 1019 60 10000 3.6 50 00:22 17.12.2021
686 Clear 13 1019 62 10000 2.57 50 22:25 16.12.2021
687 Clear 13 1019 63 10000 2.57 50 21:54 16.12.2021
688 Clear 13 1019 63 10000 3.09 40 21:36 16.12.2021
689 Clouds 14 1019 61 10000 2.57 50 20:40 16.12.2021
690 Clouds 14 1019 62 10000 3.09 50 19:52 16.12.2021
691 Clouds 15 1019 58 10000 2.06 0 18:45 16.12.2021
692 Clouds 16 1019 57 10000 1.54 70 18:26 16.12.2021
693 Clouds 17 1021 56 10000 2.57 90 17:35 16.12.2021
694 Clouds 17 1021 55 10000 4.12 50 16:23 16.12.2021
695 Clear 16 1021 57 10000 2.57 60 15:22 16.12.2021
696 Clear 15 1020 59 10000 3.09 50 13:45 16.12.2021
697 Clear 12 1021 63 10000 4.63 50 11:48 16.12.2021
698 Clear 11 1020 63 10000 4.12 60 11:18 16.12.2021
699 Clear 10 1021 67 10000 3.6 50 10:39 16.12.2021
700 Clear 9 1021 72 10000 3.6 30 09:42 16.12.2021
701 Clear 9 1019 73 10000 2.57 40 06:23 16.12.2021
702 Clear 10 1019 76 10000 1.54 40 03:54 16.12.2021
703 Clear 11 1019 71 10000 1.54 360 23:36 15.12.2021
704 Clear 12 1019 69 10000 1.03 340 22:49 15.12.2021
705 Clear 12 1019 68 10000 2.06 350 22:20 15.12.2021
706 Clear 13 1019 67 10000 2.57 350 21:31 15.12.2021
707 Clear 14 1019 63 10000 2.57 350 20:36 15.12.2021
708 Clear 14 1019 63 10000 2.57 10 19:53 15.12.2021
709 Clear 15 1019 58 10000 3.6 30 18:41 15.12.2021
710 Clear 16 1019 57 10000 3.6 30 18:18 15.12.2021
711 Clear 17 1018 54 10000 2.06 50 17:40 15.12.2021
712 Clear 17 1021 53 10000 3.09 50 16:59 15.12.2021
713 Clear 17 1018 54 10000 2.57 0 15:47 15.12.2021
714 Clear 16 1021 57 10000 2.57 80 15:29 15.12.2021
715 Clear 16 1019 58 10000 2.06 70 14:44 15.12.2021
716 Clear 15 1019 59 10000 3.09 80 13:27 15.12.2021
717 Clear 12 1023 63 10000 4.12 60 11:40 15.12.2021
718 Clear 9 1020 76 10000 2.57 60 09:38 15.12.2021
719 Clear 10 1018 71 10000 2.57 60 07:52 15.12.2021
720 Clear 12 1018 71 10000 3.6 50 04:22 15.12.2021
721 Clear 13 1019 71 10000 3.09 40 23:53 14.12.2021
722 Clear 13 1019 71 10000 3.6 30 22:55 14.12.2021
723 Clear 14 1018 67 10000 2.57 10 22:37 14.12.2021
724 Clear 14 1018 67 10000 3.6 30 21:38 14.12.2021
725 Clear 15 1019 68 10000 2.06 20 20:20 14.12.2021
726 Clear 15 1019 67 10000 0.51 0 19:21 14.12.2021
727 Clear 16 1019 66 10000 2.57 60 18:38 14.12.2021
728 Clear 17 1019 63 10000 3.09 90 17:51 14.12.2021
729 Clouds 18 1020 61 10000 4.12 70 16:43 14.12.2021
730 Clouds 17 1020 60 10000 4.12 50 15:54 14.12.2021
731 Clear 15 1021 68 10000 3.6 60 13:58 14.12.2021
732 Clouds 14 1022 71 10000 4.12 60 12:48 14.12.2021
733 Clouds 12 1022 78 10000 5.14 60 11:25 14.12.2021
734 Clouds 11 1022 80 10000 4.12 70 10:45 14.12.2021
735 Clouds 11 1021 82 10000 4.12 60 09:54 14.12.2021
736 Clouds 11 1021 86 10000 3.6 70 08:48 14.12.2021
737 Clouds 11 1021 86 10000 3.6 70 08:21 14.12.2021
738 Clouds 11 1020 88 10000 3.6 70 06:40 14.12.2021
739 Clouds 15 1020 75 10000 2.57 110 23:51 13.12.2021
740 Clouds 15 1019 74 10000 1.54 80 22:24 13.12.2021
741 Clouds 16 1019 74 10000 1.54 110 21:39 13.12.2021
742 Clouds 16 1019 72 10000 1.54 100 20:51 13.12.2021
743 Clouds 16 1019 72 10000 1.54 100 20:21 13.12.2021
744 Clouds 16 1019 71 10000 2.06 70 19:49 13.12.2021
745 Clouds 16 1019 69 10000 2.06 70 17:27 13.12.2021
746 Clouds 16 1019 66 10000 1.54 70 16:32 13.12.2021
747 Clouds 16 1019 65 10000 2.06 0 15:43 13.12.2021
748 Clouds 16 1020 64 10000 2.06 0 14:30 13.12.2021
749 Clouds 15 1020 65 10000 2.57 110 13:36 13.12.2021
750 Clouds 14 1021 71 10000 2.57 0 12:39 13.12.2021
751 Clear 14 1022 71 10000 3.09 60 11:50 13.12.2021
752 Clear 13 1021 76 10000 3.6 70 11:29 13.12.2021
753 Clear 12 1020 79 10000 3.6 80 10:21 13.12.2021
754 Clear 11 1020 81 10000 3.09 70 08:43 13.12.2021
755 Clear 11 1020 81 10000 3.09 60 08:43 13.12.2021
756 Clear 12 1019 81 10000 2.57 60 06:54 13.12.2021
757 Clear 12 1019 81 10000 2.57 60 04:52 13.12.2021
758 Clear 15 1021 74 10000 2.06 50 23:55 12.12.2021
759 Clear 17 1020 69 10000 2.57 50 21:58 12.12.2021
760 Clear 16 1020 71 10000 2.57 20 20:50 12.12.2021
761 Clear 17 1020 71 10000 2.57 10 19:35 12.12.2021
762 Clear 18 1020 67 10000 2.57 40 18:22 12.12.2021
763 Clear 19 1021 63 10000 3.6 50 16:32 12.12.2021
764 Clear 19 1020 60 10000 3.6 50 15:55 12.12.2021
765 Clear 19 1021 63 10000 3.09 70 15:28 12.12.2021
766 Clear 19 1021 59 10000 3.09 70 14:46 12.12.2021
767 Clear 18 1022 63 10000 3.09 60 13:56 12.12.2021
768 Clouds 16 1023 68 10000 3.09 70 12:48 12.12.2021
769 Clouds 15 1025 72 10000 3.6 70 11:45 12.12.2021
770 Clouds 13 1023 80 10000 4.12 60 11:27 12.12.2021
771 Clouds 12 1025 84 10000 3.09 50 10:44 12.12.2021
772 Fog 12 1023 88 10000 3.09 50 10:20 12.12.2021
773 Fog 10 1022 89 400 2.06 80 08:46 12.12.2021
774 Fog 11 1022 87 10000 2.06 30 07:25 12.12.2021
775 Clear 11 1021 85 10000 2.06 50 05:29 12.12.2021
776 Clear 11 1022 87 10000 3.09 50 04:51 12.12.2021
777 Clear 12 1023 81 10000 0 0 00:57 12.12.2021
778 Clear 13 1023 77 10000 3.09 320 22:56 11.12.2021
779 Clear 13 1023 77 10000 3.6 320 22:20 11.12.2021
780 Clear 13 1023 79 10000 4.12 330 21:35 11.12.2021
781 Clear 14 1023 81 10000 5.14 330 20:19 11.12.2021
782 Clouds 15 1023 79 10000 5.14 340 19:21 11.12.2021
783 Clouds 15 1023 79 10000 5.14 350 18:45 11.12.2021
784 Clouds 17 1023 74 10000 5.14 350 17:54 11.12.2021
785 Clouds 18 1023 71 10000 5.66 340 16:37 11.12.2021
786 Clouds 19 1023 67 10000 4.63 340 15:41 11.12.2021
787 Clouds 18 1024 68 10000 5.66 350 14:36 11.12.2021
788 Clouds 17 1026 73 10000 5.66 30 12:31 11.12.2021
789 Clouds 15 1026 78 10000 3.6 350 10:50 11.12.2021
790 Clouds 13 1025 82 10000 4.63 340 09:43 11.12.2021
791 Clouds 14 1024 81 10000 3.6 340 03:58 11.12.2021
792 Clouds 14 1025 82 10000 3.09 340 00:48 11.12.2021
793 Clouds 15 1025 83 10000 3.6 340 23:44 10.12.2021
794 Clouds 15 1026 84 10000 4.12 350 22:47 10.12.2021
795 Mist 15 1026 85 5000 5.14 340 21:41 10.12.2021
796 Drizzle 16 1026 84 10000 6.17 330 20:32 10.12.2021
797 Drizzle 15 1025 85 10000 4.63 330 19:19 10.12.2021
798 Drizzle 16 1025 85 10000 3.09 300 17:50 10.12.2021
799 Clouds 16 1026 79 10000 3.6 300 16:39 10.12.2021
800 Clouds 16 1026 79 10000 3.09 300 15:45 10.12.2021
801 Clouds 16 1026 80 10000 4.12 300 15:27 10.12.2021
802 Clouds 16 1027 79 10000 4.63 310 14:49 10.12.2021
803 Clouds 16 1027 79 10000 4.12 310 13:50 10.12.2021
804 Clouds 16 1028 80 10000 3.09 310 12:56 10.12.2021
805 Clouds 15 1028 81 10000 2.57 300 11:43 10.12.2021
806 Clouds 15 1028 82 10000 2.57 300 11:19 10.12.2021
807 Clouds 14 1027 85 10000 3.6 290 09:49 10.12.2021
808 Clouds 14 1026 81 10000 4.12 300 07:49 10.12.2021
809 Clouds 14 1025 83 10000 2.57 290 04:58 10.12.2021
810 Clouds 13 1025 84 10000 2.57 270 02:44 10.12.2021
811 Clouds 14 1026 82 10000 3.09 310 23:43 09.12.2021
812 Clouds 14 1026 80 10000 3.09 310 22:44 09.12.2021
813 Clouds 14 1027 80 10000 3.09 300 22:23 09.12.2021
814 Clouds 15 1027 78 10000 2.06 280 21:40 09.12.2021
815 Clouds 15 1027 77 10000 1.54 280 20:38 09.12.2021
816 Clouds 15 1027 76 10000 2.06 310 19:46 09.12.2021
817 Clouds 15 1027 76 10000 2.06 310 19:21 09.12.2021
818 Clouds 15 1027 73 10000 4.63 330 18:24 09.12.2021
819 Clouds 15 1027 71 10000 3.09 310 17:51 09.12.2021
820 Clouds 15 1027 73 10000 4.12 310 17:25 09.12.2021
821 Clouds 16 1027 72 10000 3.6 320 16:43 09.12.2021
822 Clouds 16 1027 70 10000 5.66 310 15:31 09.12.2021
823 Clouds 16 1027 70 10000 5.14 310 14:43 09.12.2021
824 Clouds 16 1028 75 10000 4.63 320 13:18 09.12.2021
825 Clouds 16 1028 76 10000 6.17 300 12:31 09.12.2021
826 Drizzle 14 1028 85 10000 4.12 290 10:50 09.12.2021
827 Clouds 13 1027 85 10000 2.06 280 08:38 09.12.2021
828 Clouds 12 1026 81 10000 2.57 320 05:54 09.12.2021
829 Clouds 12 1025 79 10000 3.09 330 02:49 09.12.2021
830 Clear 12 1025 78 10000 1.54 300 23:42 08.12.2021
831 Clouds 12 1025 79 10000 2.57 320 23:20 08.12.2021
832 Clear 12 1024 77 10000 3.6 330 22:45 08.12.2021
833 Clouds 13 1024 77 10000 4.63 330 21:40 08.12.2021
834 Clouds 13 1025 75 10000 3.09 300 20:59 08.12.2021
835 Clouds 13 1025 75 10000 2.06 300 19:58 08.12.2021
836 Clouds 13 1025 75 10000 2.57 300 19:33 08.12.2021
837 Clouds 13 1023 74 10000 4.63 320 18:31 08.12.2021
838 Clouds 14 1022 66 10000 6.17 320 17:26 08.12.2021
839 Clouds 15 1022 62 10000 5.14 310 15:47 08.12.2021
840 Clouds 16 1022 61 10000 6.17 310 15:26 08.12.2021
841 Clouds 15 1022 64 10000 4.12 320 14:28 08.12.2021
842 Clouds 13 1021 73 10000 2.06 300 10:54 08.12.2021
843 Rain 13 1021 73 10000 1.54 290 10:28 08.12.2021
844 Clouds 13 1020 73 10000 2.06 290 08:54 08.12.2021
845 Clouds 13 1019 76 10000 2.57 300 07:21 08.12.2021
846 Clouds 13 1018 74 10000 3.09 290 02:30 08.12.2021
847 Clouds 14 1018 86 10000 2.06 310 23:33 07.12.2021
848 Mist 15 1018 90 2800 5.66 250 21:40 07.12.2021
849 Mist 16 1018 90 2800 5.66 250 21:18 07.12.2021
850 Rain 16 1018 86 10000 5.66 230 20:19 07.12.2021
851 Drizzle 16 1018 86 10000 6.17 240 18:43 07.12.2021
852 Clouds 16 1018 83 10000 6.69 240 17:48 07.12.2021
853 Clouds 16 1019 81 10000 6.17 240 17:19 07.12.2021
854 Clouds 17 1019 78 10000 6.69 240 16:28 07.12.2021
855 Clouds 17 1020 79 10000 6.17 250 15:23 07.12.2021
856 Clouds 17 1021 84 10000 4.12 250 14:18 07.12.2021
857 Mist 16 1022 87 5000 4.63 220 12:49 07.12.2021
858 Clouds 15 1023 85 10000 4.12 220 11:27 07.12.2021
859 Clouds 15 1022 85 10000 2.57 230 10:33 07.12.2021
860 Clouds 15 1022 84 10000 2.57 260 07:57 07.12.2021
861 Clouds 14 1023 89 10000 3.09 230 06:18 07.12.2021
862 Clouds 14 1023 89 10000 3.6 230 05:33 07.12.2021
863 Clouds 14 1025 88 10000 1.54 240 23:47 06.12.2021
864 Clouds 14 1025 88 10000 1.54 240 23:47 06.12.2021
865 Clouds 14 1025 85 10000 2.57 260 22:57 06.12.2021
866 Clouds 14 1025 86 10000 3.09 260 22:35 06.12.2021
867 Clouds 14 1026 84 10000 4.12 240 21:51 06.12.2021
868 Clouds 14 1026 85 10000 1.03 0 20:33 06.12.2021
869 Clouds 14 1027 84 10000 1.54 270 19:55 06.12.2021
870 Clouds 15 1026 82 10000 2.06 280 19:20 06.12.2021
871 Clouds 15 1026 76 10000 4.12 300 18:28 06.12.2021
872 Clouds 16 1026 70 10000 2.57 310 17:40 06.12.2021
873 Clouds 16 1026 70 10000 2.57 310 17:40 06.12.2021
874 Clouds 17 1028 68 10000 2.57 300 16:48 06.12.2021
875 Clouds 17 1027 64 10000 3.6 330 15:39 06.12.2021
876 Clouds 16 1029 62 10000 3.6 310 13:46 06.12.2021
877 Clouds 16 1029 67 10000 1.54 300 12:39 06.12.2021
878 Clouds 15 1029 72 10000 2.06 330 11:38 06.12.2021
879 Clouds 12 1028 80 10000 0 0 08:51 06.12.2021
880 Clouds 12 1027 75 10000 1.54 290 06:42 06.12.2021
881 Clouds 13 1028 76 10000 2.57 340 23:38 05.12.2021
882 Clouds 12 1028 74 10000 2.57 330 21:52 05.12.2021
883 Clouds 13 1028 74 10000 2.06 330 21:19 05.12.2021
884 Clouds 13 1028 76 10000 2.57 330 20:19 05.12.2021
885 Clouds 13 1028 74 10000 5.14 350 19:33 05.12.2021
886 Clouds 14 1029 72 10000 6.17 350 18:55 05.12.2021
887 Clouds 14 1028 70 10000 6.17 340 18:20 05.12.2021
888 Clouds 15 1028 69 10000 6.17 340 17:48 05.12.2021
889 Clouds 15 1027 63 10000 7.72 330 16:50 05.12.2021
890 Clouds 15 1027 59 10000 6.69 10 16:27 05.12.2021
891 Clouds 16 1027 56 10000 7.2 330 15:49 05.12.2021
892 Clouds 16 1028 55 10000 6.69 340 14:43 05.12.2021
893 Clouds 16 1028 56 10000 7.2 340 14:25 05.12.2021
894 Clouds 15 1028 62 10000 5.66 340 13:22 05.12.2021
895 Clouds 15 1029 62 10000 7.2 330 12:40 05.12.2021
896 Clouds 15 1029 63 10000 7.2 330 12:18 05.12.2021
897 Clouds 15 1028 58 10000 4.12 310 11:34 05.12.2021
898 Clouds 14 1027 63 10000 3.6 340 10:18 05.12.2021
899 Clouds 12 1027 66 10000 2.57 0 08:29 05.12.2021
900 Clouds 11 1026 81 10000 0.51 0 04:56 05.12.2021
901 Clear 12 1027 78 10000 1.03 0 00:48 05.12.2021
902 Clouds 12 1027 76 10000 3.09 330 22:18 04.12.2021
903 Clouds 12 1026 75 10000 3.6 330 21:20 04.12.2021
904 Clouds 13 1025 77 10000 2.06 330 20:27 04.12.2021
905 Clouds 14 1025 82 10000 3.6 330 19:32 04.12.2021
906 Clouds 15 1025 84 10000 4.12 330 18:23 04.12.2021
907 Clouds 16 1025 84 10000 4.63 310 17:45 04.12.2021
908 Clouds 16 1025 84 10000 4.63 310 17:20 04.12.2021
909 Clouds 16 1025 86 10000 4.63 300 16:42 04.12.2021
910 Clouds 17 1025 85 10000 4.63 300 16:24 04.12.2021
911 Clouds 15 1027 83 10000 3.6 250 11:56 04.12.2021
912 Clouds 15 1027 83 10000 3.09 250 11:33 04.12.2021
913 Clouds 15 1026 88 10000 3.6 250 10:57 04.12.2021
914 Fog 13 1026 87 10000 3.09 240 08:53 04.12.2021
915 Fog 13 1026 87 10000 3.09 240 08:27 04.12.2021
916 Clouds 12 1025 85 10000 1.03 0 04:42 04.12.2021
917 Clouds 13 1026 76 10000 1.03 0 00:49 04.12.2021
918 Clouds 12 1026 77 10000 2.06 320 23:33 03.12.2021
919 Clouds 12 1026 77 10000 2.57 320 22:51 03.12.2021
920 Clouds 12 1026 78 10000 2.57 300 21:54 03.12.2021
921 Clouds 12 1026 78 10000 4.63 320 21:22 03.12.2021
922 Clouds 12 1026 77 10000 4.63 320 20:42 03.12.2021
923 Clouds 13 1025 73 10000 4.63 330 19:21 03.12.2021
924 Clouds 14 1025 67 10000 3.09 300 18:23 03.12.2021
925 Clear 15 1025 59 10000 4.63 330 17:31 03.12.2021
926 Clear 15 1026 54 10000 5.66 350 13:38 03.12.2021
927 Clear 13 1026 58 10000 4.63 340 12:30 03.12.2021
928 Clear 12 1027 62 10000 4.63 10 11:19 03.12.2021
929 Clear 10 1025 71 10000 4.12 350 09:22 03.12.2021
930 Clear 9 1025 73 10000 5.14 350 08:18 03.12.2021
931 Clear 10 1023 78 10000 5.14 350 06:41 03.12.2021
932 Clear 11 1023 75 10000 5.14 350 00:49 03.12.2021
933 Clouds 11 1024 77 10000 5.66 360 00:21 03.12.2021
934 Clouds 11 1023 76 10000 7.72 360 23:38 02.12.2021
935 Clouds 11 1023 74 10000 5.66 350 21:41 02.12.2021
936 Clouds 11 1022 72 10000 7.2 330 20:46 02.12.2021
937 Clouds 11 1022 71 10000 4.63 330 20:26 02.12.2021
938 Clouds 11 1021 68 10000 6.69 330 19:23 02.12.2021
939 Clouds 13 1019 59 10000 9.26 350 17:30 02.12.2021
940 Clouds 15 1019 53 10000 7.72 340 15:41 02.12.2021
941 Clouds 15 1019 54 10000 9.77 340 14:57 02.12.2021
942 Clouds 15 1020 54 10000 8.23 350 13:45 02.12.2021
943 Clouds 14 1020 58 10000 9.26 350 12:52 02.12.2021
944 Clouds 13 1020 66 10000 7.72 340 11:55 02.12.2021
945 Clouds 11 1018 82 10000 5.14 340 09:29 02.12.2021
946 Clouds 11 1018 89 10000 4.63 350 08:27 02.12.2021
947 Clouds 13 1018 82 10000 2.57 300 03:33 02.12.2021
948 Clear 13 1020 82 10000 2.57 320 00:51 02.12.2021
949 Clear 13 1021 80 10000 3.09 340 22:51 01.12.2021
950 Clouds 13 1022 77 10000 4.12 340 22:23 01.12.2021
951 Clouds 14 1021 79 10000 5.14 330 20:36 01.12.2021
952 Clouds 14 1021 82 10000 5.14 340 19:53 01.12.2021
953 Clouds 14 1021 84 3500 4.63 300 19:25 01.12.2021
954 Clouds 15 1022 81 10000 4.12 290 17:45 01.12.2021
955 Clouds 15 1022 81 10000 4.12 290 17:45 01.12.2021
956 Clouds 16 1022 80 10000 3.6 300 16:42 01.12.2021
957 Clouds 15 1023 80 10000 5.14 260 14:52 01.12.2021
958 Clouds 15 1024 73 10000 4.12 270 13:44 01.12.2021
959 Clouds 15 1025 74 10000 1.03 0 12:37 01.12.2021
960 Clouds 13 1025 77 10000 1.54 270 10:42 01.12.2021
961 Clouds 8 1025 88 10000 1.03 0 09:19 01.12.2021
962 Clouds 8 1025 85 10000 0 0 08:26 01.12.2021
963 Clouds 8 1026 82 10000 0 0 07:33 01.12.2021
964 Clouds 9 1026 80 10000 0 0 05:51 01.12.2021
965 Clouds 9 1025 79 10000 0 0 03:44 01.12.2021
966 Clouds 10 1026 81 10000 1.03 340 00:56 01.12.2021
967 Clouds 11 1026 82 10000 1.54 310 23:53 30.11.2021
968 Clear 11 1026 81 10000 1.03 330 23:23 30.11.2021
969 Clouds 13 1026 74 10000 1.54 60 21:30 30.11.2021
970 Clouds 13 1026 74 10000 2.57 340 20:44 30.11.2021
971 Clouds 14 1025 73 10000 2.06 350 19:53 30.11.2021
972 Clouds 14 1025 71 10000 0 0 19:34 30.11.2021
973 Clouds 15 1025 69 10000 1.03 100 18:36 30.11.2021
974 Clouds 16 1025 63 10000 2.06 110 16:50 30.11.2021
975 Clouds 16 1025 63 10000 2.06 80 15:38 30.11.2021
976 Clouds 16 1027 65 10000 2.57 70 14:20 30.11.2021
977 Clouds 16 1026 67 10000 2.06 90 13:26 30.11.2021
978 Clouds 15 1026 70 10000 2.57 0 12:45 30.11.2021
979 Clouds 14 1026 75 10000 2.57 70 11:49 30.11.2021
980 Clouds 13 1026 76 10000 2.06 70 11:19 30.11.2021
981 Clouds 12 1025 82 10000 1.03 0 10:32 30.11.2021
982 Clouds 11 1024 84 10000 0 0 08:52 30.11.2021
983 Clouds 11 1024 83 10000 0.51 0 08:22 30.11.2021
984 Clouds 11 1023 84 10000 0 0 07:47 30.11.2021
985 Clouds 13 1024 77 10000 1.03 280 02:41 30.11.2021
986 Clouds 13 1024 75 10000 1.03 270 01:42 30.11.2021
987 Clouds 13 1024 74 10000 2.06 230 00:33 30.11.2021
988 Clouds 13 1024 73 10000 0 0 23:24 29.11.2021
989 Clouds 13 1024 71 10000 0 0 22:57 29.11.2021
990 Clouds 13 1024 69 10000 1.03 210 22:34 29.11.2021
991 Clouds 14 1025 69 10000 1.03 0 21:39 29.11.2021
992 Clouds 14 1025 69 10000 1.03 0 21:18 29.11.2021
993 Clouds 14 1024 67 10000 1.03 0 20:40 29.11.2021
994 Clouds 14 1024 65 10000 1.03 0 19:56 29.11.2021
995 Clouds 14 1024 64 10000 2.57 310 19:36 29.11.2021
996 Clouds 14 1024 64 10000 2.57 310 19:36 29.11.2021
997 Clouds 14 1024 63 10000 4.12 320 18:52 29.11.2021
998 Clouds 14 1025 68 10000 5.42 332 18:26 29.11.2021
999 Clouds 15 1025 65 10000 6.13 333 17:20 29.11.2021
1000 Clouds 15 1025 65 10000 6.13 333 16:32 29.11.2021
1001 Clouds 16 1025 62 10000 6.65 330 15:52 29.11.2021
1002 Clouds 16 1025 59 10000 6.62 327 14:43 29.11.2021
1003 Clouds 16 1025 57 10000 6.61 327 13:36 29.11.2021
1004 Clouds 16 1026 58 10000 6.61 330 12:42 29.11.2021
1005 Clouds 16 1027 61 10000 6.47 331 11:41 29.11.2021
1006 Clouds 15 1027 67 10000 6.08 328 10:59 29.11.2021
1007 Clouds 13 1026 79 10000 6.17 320 09:50 29.11.2021
1008 Clouds 14 1025 82 10000 4.12 330 06:22 29.11.2021
1009 Clouds 14 1025 88 10000 4.12 300 03:46 29.11.2021
1010 Clouds 15 1025 82 10000 4.12 310 00:43 29.11.2021
1011 Clouds 14 1025 88 10000 4.63 320 23:44 28.11.2021
1012 Clouds 14 1025 88 10000 4.12 320 23:25 28.11.2021
1013 Clouds 13 1025 94 10000 3.6 320 21:53 28.11.2021
1014 Drizzle 13 1025 94 9000 5.14 330 21:26 28.11.2021
1015 Clouds 13 1025 91 10000 3.09 290 20:35 28.11.2021
1016 Drizzle 13 1024 79 10000 4.12 300 19:28 28.11.2021
1017 Clouds 14 1024 69 10000 3.09 300 18:35 28.11.2021
1018 Clouds 14 1024 67 10000 4.12 320 17:56 28.11.2021
1019 Clouds 15 1024 62 10000 5.66 320 17:32 28.11.2021
1020 Clouds 14 1024 63 10000 6.17 310 16:44 28.11.2021
1021 Clouds 15 1024 60 10000 5.66 330 16:22 28.11.2021
1022 Clouds 14 1024 62 10000 6.17 330 15:33 28.11.2021
1023 Clouds 14 1025 65 10000 5.66 320 14:49 28.11.2021
1024 Clouds 15 1025 58 10000 7.2 340 13:49 28.11.2021
1025 Clouds 13 1025 62 10000 5.66 340 12:52 28.11.2021
1026 Clear 12 1025 69 10000 3.09 350 11:18 28.11.2021
1027 Clouds 11 1024 71 10000 3.09 330 10:22 28.11.2021
1028 Clouds 10 1023 74 10000 4.63 330 09:40 28.11.2021
1029 Clear 9 1023 82 10000 4.12 330 08:19 28.11.2021
1030 Clear 8 1021 70 10000 2.57 340 00:39 28.11.2021
1031 Clear 11 1020 62 10000 6.17 350 21:40 27.11.2021
1032 Clouds 11 1018 60 10000 6.17 350 19:49 27.11.2021
1033 Clouds 13 1017 53 10000 10.29 340 17:57 27.11.2021
1034 Clouds 14 1016 60 10000 9.26 350 15:59 27.11.2021
1035 Clouds 14 1016 72 10000 7.72 340 14:30 27.11.2021
1036 Clouds 14 1016 77 10000 5.66 340 12:58 27.11.2021
1037 Clouds 14 1015 83 10000 5.66 320 10:52 27.11.2021
1038 Clouds 12 1014 91 10000 4.12 320 09:54 27.11.2021
1039 Clouds 11 1014 90 10000 2.57 310 08:45 27.11.2021
1040 Clouds 11 1014 93 10000 2.06 310 06:35 27.11.2021
1041 Clouds 11 1016 81 10000 1.54 310 02:25 27.11.2021
1042 Clouds 11 1017 71 10000 5.14 340 23:40 26.11.2021
1043 Clouds 11 1017 71 10000 5.14 350 22:41 26.11.2021
1044 Clouds 11 1017 71 10000 5.14 350 22:19 26.11.2021
1045 Clear 11 1017 69 10000 5.14 350 21:22 26.11.2021
1046 Clear 12 1016 66 10000 6.69 330 20:40 26.11.2021
1047 Clear 12 1016 66 10000 8.23 340 19:55 26.11.2021
1048 Clouds 12 1016 65 10000 6.17 340 18:45 26.11.2021
1049 Clouds 13 1015 61 10000 8.23 330 17:27 26.11.2021
1050 Clouds 14 1015 59 10000 6.69 340 16:50 26.11.2021
1051 Clouds 14 1015 58 10000 6.17 330 14:57 26.11.2021
1052 Clouds 14 1014 53 10000 5.66 360 13:35 26.11.2021
1053 Clouds 11 1014 62 10000 3.6 340 10:44 26.11.2021
1054 Clouds 10 1013 64 10000 2.57 330 09:53 26.11.2021
1055 Clear 9 1013 67 10000 3.09 330 08:53 26.11.2021
1056 Clear 9 1012 67 10000 4.63 340 08:20 26.11.2021
1057 Clear 9 1011 71 10000 4.12 330 06:37 26.11.2021
1058 Clear 9 1011 71 10000 4.12 330 06:37 26.11.2021
1059 Clear 10 1011 71 10000 4.12 330 06:19 26.11.2021
1060 Clear 10 1011 73 10000 4.63 330 03:41 26.11.2021
1061 Clear 10 1011 73 10000 3.6 340 00:47 26.11.2021
1062 Clear 10 1010 75 10000 3.6 330 22:36 25.11.2021
1063 Clouds 10 1011 76 10000 2.57 330 21:19 25.11.2021
1064 Clouds 10 1009 76 10000 2.57 340 19:54 25.11.2021
1065 Clouds 11 1009 71 10000 3.6 330 18:38 25.11.2021
1066 Clouds 12 1008 66 10000 4.63 310 17:28 25.11.2021
1067 Clouds 12 1008 66 10000 3.6 310 16:56 25.11.2021
1068 Clouds 13 1008 66 10000 4.63 340 16:28 25.11.2021
1069 Rain 13 1010 68 10000 4.12 310 14:56 25.11.2021
1070 Clouds 12 1011 74 10000 3.6 320 13:25 25.11.2021
1071 Rain 10 1010 78 10000 5.14 320 12:19 25.11.2021
1072 Clouds 11 1011 81 10000 9.26 340 11:48 25.11.2021
1073 Clouds 12 1011 79 10000 1.54 270 09:25 25.11.2021
1074 Clouds 13 1013 69 10000 7.72 330 04:24 25.11.2021
1075 Clear 12 1014 66 10000 5.66 330 02:45 25.11.2021
1076 Clouds 13 1016 70 10000 7.2 330 22:45 24.11.2021
1077 Clouds 13 1014 71 10000 7.2 330 22:23 24.11.2021
1078 Clouds 13 1014 70 10000 6.69 330 21:28 24.11.2021
1079 Clouds 13 1015 68 10000 6.69 340 20:46 24.11.2021
1080 Clouds 13 1015 68 10000 6.69 340 20:46 24.11.2021
1081 Clouds 13 1014 68 10000 6.69 340 20:18 24.11.2021
1082 Clouds 13 1015 66 10000 5.66 340 18:30 24.11.2021
1083 Clouds 14 1015 61 10000 6.17 340 17:24 24.11.2021
1084 Clouds 15 1015 56 10000 6.69 340 15:23 24.11.2021
1085 Clouds 15 1015 57 10000 6.69 340 14:47 24.11.2021
1086 Clouds 15 1016 58 10000 7.2 350 14:19 24.11.2021
1087 Clouds 15 1016 58 10000 7.2 350 14:19 24.11.2021
1088 Clouds 13 1016 68 10000 6.17 350 12:28 24.11.2021
1089 Clouds 13 1016 70 10000 4.12 330 11:20 24.11.2021
1090 Clouds 13 1016 73 10000 3.09 310 10:47 24.11.2021
1091 Clouds 13 1017 74 10000 1.54 310 10:21 24.11.2021
1092 Clouds 11 1014 81 10000 2.06 270 07:52 24.11.2021
1093 Clouds 10 1014 79 10000 2.06 250 06:54 24.11.2021
1094 Clouds 12 1014 77 10000 3.09 340 03:51 24.11.2021
1095 Clouds 11 1015 76 10000 2.06 280 00:43 24.11.2021
1096 Clear 12 1014 71 10000 3.6 320 22:40 23.11.2021
1097 Clear 12 1014 70 10000 3.6 320 22:18 23.11.2021
1098 Clear 12 1014 68 10000 2.57 340 21:44 23.11.2021
1099 Clear 12 1014 64 10000 1.03 0 19:43 23.11.2021
1100 Clouds 13 1013 57 10000 2.57 330 18:42 23.11.2021
1101 Clouds 14 1013 54 10000 5.14 360 18:20 23.11.2021
1102 Clouds 15 1012 51 10000 8.23 350 16:58 23.11.2021
1103 Clouds 16 1012 52 10000 7.72 340 16:20 23.11.2021
1104 Clouds 16 1012 51 10000 6.17 340 15:22 23.11.2021
1105 Clouds 16 1012 53 10000 5.66 330 14:22 23.11.2021
1106 Clouds 14 1012 62 10000 6.17 320 11:42 23.11.2021
1107 Clouds 12 1012 69 10000 3.6 330 09:59 23.11.2021
1108 Clouds 11 1012 72 10000 3.6 320 09:18 23.11.2021
1109 Clouds 11 1010 72 10000 3.6 310 06:45 23.11.2021
1110 Clouds 11 1011 70 10000 1.03 0 03:52 23.11.2021
1111 Clouds 11 1011 70 10000 4.63 330 01:49 23.11.2021
1112 Clouds 12 1011 70 10000 2.06 310 23:21 22.11.2021
1113 Clouds 12 1011 68 10000 4.12 310 22:52 22.11.2021
1114 Clouds 11 1011 68 10000 4.12 330 22:25 22.11.2021
1115 Clouds 12 1011 66 10000 6.17 330 21:41 22.11.2021
1116 Clouds 12 1011 66 10000 6.17 340 20:52 22.11.2021
1117 Clouds 12 1011 64 10000 4.63 330 19:57 22.11.2021
1118 Clouds 12 1011 64 10000 3.09 340 19:19 22.11.2021
1119 Clouds 12 1011 61 10000 6.69 330 18:39 22.11.2021
1120 Clouds 13 1011 57 10000 7.2 340 17:43 22.11.2021
1121 Clouds 15 1011 51 10000 7.72 330 16:19 22.11.2021
1122 Clouds 15 1011 53 10000 6.69 330 14:18 22.11.2021
1123 Clouds 15 1012 56 10000 6.69 340 12:18 22.11.2021
1124 Clouds 14 1012 73 10000 4.12 330 10:43 22.11.2021
1125 Clouds 13 1012 78 10000 4.12 330 09:43 22.11.2021
1126 Clouds 13 1012 81 10000 2.06 320 08:40 22.11.2021
1127 Clouds 14 1011 85 10000 2.06 290 06:22 22.11.2021
1128 Clouds 14 1014 86 10000 1.03 0 23:30 21.11.2021
1129 Clouds 14 1014 85 10000 2.57 300 22:50 21.11.2021
1130 Clouds 14 1013 83 10000 2.57 310 22:18 21.11.2021
1131 Clouds 14 1014 85 10000 3.6 300 20:42 21.11.2021
1132 Clouds 14 1014 84 10000 2.06 300 19:59 21.11.2021
1133 Clouds 16 1014 81 10000 2.06 260 18:25 21.11.2021
1134 Clouds 17 1014 77 10000 1.54 290 17:39 21.11.2021
1135 Clouds 18 1014 73 10000 1.03 0 16:46 21.11.2021
1136 Clouds 17 1014 72 10000 1.54 0 14:46 21.11.2021
1137 Clouds 17 1015 75 10000 2.06 60 13:49 21.11.2021
1138 Clouds 16 1016 81 10000 2.06 60 12:38 21.11.2021
1139 Fog 15 1016 85 10000 1.54 0 11:57 21.11.2021
1140 Fog 14 1016 86 10000 2.57 50 11:35 21.11.2021
1141 Fog 13 1016 89 10000 2.57 50 10:19 21.11.2021
1142 Fog 13 1015 88 10000 2.57 70 09:20 21.11.2021
1143 Fog 13 1014 87 10000 2.06 40 08:30 21.11.2021
1144 Clouds 13 1014 88 10000 2.57 60 07:50 21.11.2021
1145 Clouds 13 1011 83 10000 1.34 123 06:20 21.11.2021
1146 Clouds 13 1014 87 10000 2.06 40 05:37 21.11.2021
1147 Clouds 13 1014 86 10000 2.57 60 03:20 21.11.2021
1148 Clouds 13 1015 87 10000 2.06 50 02:53 21.11.2021
1149 Clouds 13 1015 85 10000 2.57 50 01:23 21.11.2021
1150 Clouds 14 1015 87 10000 2.57 50 00:23 21.11.2021
1151 Clouds 14 1015 86 10000 1.54 50 21:51 20.11.2021
1152 Clouds 14 1015 86 10000 2.57 50 21:30 20.11.2021
1153 Clouds 16 1015 84 10000 3.09 80 19:24 20.11.2021
1154 Rain 16 1015 78 6000 2.57 130 18:45 20.11.2021
1155 Clouds 17 1015 70 10000 3.6 80 18:19 20.11.2021
1156 Clouds 18 1015 65 10000 3.09 0 17:19 20.11.2021
1157 Clouds 18 1015 64 10000 3.6 100 14:50 20.11.2021
1158 Clouds 18 1015 64 10000 4.63 100 14:28 20.11.2021
1159 Clouds 18 1016 64 10000 5.14 110 13:35 20.11.2021
1160 Clouds 16 1016 70 10000 4.12 60 11:25 20.11.2021
1161 Clouds 14 1016 72 10000 3.09 70 09:55 20.11.2021
1162 Clear 14 1015 69 10000 5.14 60 08:32 20.11.2021
1163 Clouds 13 1015 73 10000 2.06 60 05:30 20.11.2021
1164 Clouds 13 1015 72 10000 1.03 0 04:51 20.11.2021
1165 Clouds 14 1015 66 10000 4.12 60 03:54 20.11.2021
1166 Clear 15 1015 60 10000 4.63 70 00:42 20.11.2021
1167 Clear 15 1016 61 10000 5.14 60 23:45 19.11.2021
1168 Clear 16 1015 59 10000 4.63 60 22:53 19.11.2021
1169 Clear 17 1015 53 10000 3.6 50 21:24 19.11.2021
1170 Clear 17 1015 52 10000 5.14 60 20:40 19.11.2021
1171 Clear 17 1015 51 10000 5.14 60 20:22 19.11.2021
1172 Clear 18 1015 51 10000 4.12 60 19:43 19.11.2021
1173 Clear 18 1016 51 10000 4.12 80 18:45 19.11.2021
1174 Clear 19 1015 49 10000 4.63 60 17:44 19.11.2021
1175 Clear 20 1015 45 10000 5.14 70 16:40 19.11.2021
1176 Clear 19 1016 47 10000 5.66 50 14:51 19.11.2021
1177 Clear 14 1018 64 10000 7.72 60 11:32 19.11.2021
1178 Clear 13 1018 66 10000 7.2 60 10:24 19.11.2021
1179 Clear 12 1017 69 10000 5.66 60 08:35 19.11.2021
1180 Clear 13 1017 65 10000 5.14 60 05:36 19.11.2021
1181 Clear 13 1017 65 10000 5.14 60 03:37 19.11.2021
1182 Clear 15 1018 58 10000 4.63 50 23:54 18.11.2021
1183 Clear 15 1018 57 10000 4.12 40 23:18 18.11.2021
1184 Clear 16 1019 55 10000 5.66 40 21:18 18.11.2021
1185 Clear 16 1018 53 10000 6.69 40 20:44 18.11.2021
1186 Clear 16 1018 52 10000 5.14 30 20:23 18.11.2021
1187 Clear 17 1018 50 10000 6.17 40 19:36 18.11.2021
1188 Clear 18 1017 45 10000 6.17 50 18:38 18.11.2021
1189 Clear 19 1017 42 10000 5.66 40 17:52 18.11.2021
1190 Clear 19 1017 41 10000 5.14 50 17:22 18.11.2021
1191 Clear 19 1017 41 10000 6.17 50 16:42 18.11.2021
1192 Clear 19 1018 42 10000 5.66 60 15:23 18.11.2021
1193 Clear 15 1020 50 10000 7.2 70 12:56 18.11.2021
1194 Clear 14 1020 51 10000 6.69 60 11:45 18.11.2021
1195 Clear 13 1020 55 10000 7.2 60 11:26 18.11.2021
1196 Clear 13 1020 55 10000 7.2 60 10:44 18.11.2021
1197 Clear 11 1019 59 10000 5.66 60 08:49 18.11.2021
1198 Clear 11 1019 62 10000 6.17 60 07:19 18.11.2021
1199 Clear 12 1019 61 10000 6.17 50 05:46 18.11.2021
1200 Clear 13 1019 60 10000 4.63 60 02:35 18.11.2021
1201 Clear 13 1019 58 10000 4.63 50 01:21 18.11.2021
1202 Clear 14 1019 52 10000 5.14 30 22:41 17.11.2021
1203 Clear 15 1019 51 10000 5.14 30 22:20 17.11.2021
1204 Clear 15 1019 49 10000 5.66 50 21:36 17.11.2021
1205 Clear 15 1018 50 10000 6.69 40 20:18 17.11.2021
1206 Clear 18 1017 45 10000 6.69 30 17:44 17.11.2021
1207 Clear 18 1017 44 10000 7.2 30 16:59 17.11.2021
1208 Clear 17 1018 49 10000 5.14 50 13:59 17.11.2021
1209 Clear 15 1019 54 10000 6.69 50 12:39 17.11.2021
1210 Clear 14 1019 55 10000 5.14 60 11:37 17.11.2021
1211 Clear 13 1018 56 10000 5.14 50 10:28 17.11.2021
1212 Clear 12 1018 61 10000 5.14 40 09:23 17.11.2021
1213 Clear 11 1017 64 10000 5.14 50 07:41 17.11.2021
1214 Clear 12 1017 67 10000 2.57 350 03:35 17.11.2021
1215 Clear 12 1017 68 10000 3.09 340 00:47 17.11.2021
1216 Clear 14 1018 68 10000 5.14 340 22:44 16.11.2021
1217 Clear 15 1017 58 10000 4.63 330 20:20 16.11.2021
1218 Clear 15 1016 58 10000 4.63 330 19:59 16.11.2021
1219 Clear 17 1016 55 10000 3.09 20 18:53 16.11.2021
1220 Clear 17 1016 52 10000 3.09 30 18:30 16.11.2021
1221 Clear 19 1017 45 10000 2.06 350 17:34 16.11.2021
1222 Clear 20 1016 40 10000 3.09 60 16:35 16.11.2021
1223 Clear 19 1017 42 10000 2.57 60 15:49 16.11.2021
1224 Clear 18 1017 45 10000 5.14 60 14:39 16.11.2021
1225 Clear 14 1018 57 10000 6.17 50 11:28 16.11.2021
1226 Clear 12 1017 61 10000 3.6 40 09:46 16.11.2021
1227 Clear 11 1016 63 10000 2.06 20 08:27 16.11.2021
1228 Clear 12 1015 62 10000 3.09 10 07:32 16.11.2021
1229 Clear 13 1017 69 10000 3.6 30 01:44 16.11.2021
1230 Clear 14 1017 70 10000 4.12 330 23:20 15.11.2021
1231 Clear 14 1017 69 10000 2.57 320 22:33 15.11.2021
1232 Clear 14 1016 67 10000 3.09 340 21:53 15.11.2021
1233 Clear 14 1017 68 10000 4.12 320 21:28 15.11.2021
1234 Clear 15 1017 65 10000 3.09 320 19:42 15.11.2021
1235 Clear 17 1016 60 10000 4.12 330 18:33 15.11.2021
1236 Clear 20 1016 53 10000 4.63 340 16:20 15.11.2021
1237 Clear 19 1018 52 10000 2.57 0 15:41 15.11.2021
1238 Clear 19 1018 52 10000 2.57 0 15:23 15.11.2021
1239 Clear 18 1019 58 10000 1.54 90 13:32 15.11.2021
1240 Clouds 14 1019 72 10000 2.06 80 11:21 15.11.2021
1241 Clouds 12 1018 76 10000 1.54 30 09:28 15.11.2021
1242 Clear 12 1017 69 10000 3.09 340 07:52 15.11.2021
1243 Clear 13 1017 61 10000 3.09 340 05:21 15.11.2021
1244 Clear 15 1018 59 10000 2.57 330 23:54 14.11.2021
1245 Clear 15 1018 56 10000 4.12 320 22:35 14.11.2021
1246 Clear 16 1017 54 10000 3.09 320 19:57 14.11.2021
1247 Clear 17 1017 52 10000 4.63 330 19:18 14.11.2021
1248 Clear 18 1016 51 10000 3.09 310 18:54 14.11.2021
1249 Clear 18 1016 52 10000 3.6 330 18:36 14.11.2021
1250 Clear 19 1016 51 10000 3.6 330 18:18 14.11.2021
1251 Clear 20 1018 46 10000 1.54 80 17:56 14.11.2021
1252 Clear 20 1018 45 10000 2.06 110 17:38 14.11.2021
1253 Clear 21 1018 44 10000 2.06 110 17:20 14.11.2021
1254 Clear 21 1018 46 10000 2.06 70 16:47 14.11.2021
1255 Clear 21 1018 46 10000 2.06 70 16:47 14.11.2021
1256 Clear 20 1018 48 10000 2.06 80 16:20 14.11.2021
1257 Clear 20 1017 51 10000 3.09 60 15:23 14.11.2021
1258 Clear 20 1017 51 10000 4.12 60 14:49 14.11.2021
1259 Clear 19 1017 52 10000 4.12 60 14:29 14.11.2021
1260 Clear 19 1017 54 10000 4.63 60 13:57 14.11.2021
1261 Clear 19 1017 55 10000 3.09 60 13:39 14.11.2021
1262 Clear 17 1018 58 10000 4.63 50 12:28 14.11.2021
1263 Clear 17 1018 59 10000 4.63 60 11:52 14.11.2021
1264 Clear 15 1018 60 10000 3.6 50 10:45 14.11.2021
1265 Clear 15 1018 60 10000 1.54 50 10:26 14.11.2021
1266 Clouds 13 1017 70 10000 2.06 30 08:56 14.11.2021
1267 Clear 12 1016 73 10000 2.57 340 07:24 14.11.2021
1268 Clear 15 1016 64 10000 3.09 320 01:24 14.11.2021
1269 Clear 15 1017 69 10000 3.6 310 22:27 13.11.2021
1270 Clear 15 1017 69 10000 3.6 310 22:27 13.11.2021
1271 Clear 16 1017 69 10000 4.12 310 21:57 13.11.2021
1272 Clear 16 1017 69 10000 3.6 320 21:25 13.11.2021
1273 Clear 17 1016 66 10000 3.09 320 19:48 13.11.2021
1274 Clear 19 1016 54 10000 0 0 18:33 13.11.2021
1275 Clear 21 1016 49 10000 1.54 90 17:56 13.11.2021
1276 Clear 21 1018 50 10000 3.09 50 16:40 13.11.2021
1277 Clear 21 1017 49 10000 2.57 70 15:37 13.11.2021
1278 Clear 20 1017 52 10000 2.57 70 14:33 13.11.2021
1279 Clear 20 1017 53 10000 2.57 70 13:38 13.11.2021
1280 Clear 18 1018 59 10000 3.09 0 12:33 13.11.2021
1281 Clear 17 1018 63 10000 3.09 70 11:38 13.11.2021
1282 Clear 16 1018 67 10000 2.57 60 10:45 13.11.2021
1283 Fog 13 1019 80 10000 2.06 50 10:23 13.11.2021
1284 Fog 11 1018 86 8000 1.54 30 09:38 13.11.2021
1285 Mist 11 1017 84 6000 2.57 90 08:56 13.11.2021
1286 Mist 11 1017 82 10000 1.54 10 08:31 13.11.2021
1287 Fog 12 1018 82 10000 1.54 340 05:59 13.11.2021
1288 Fog 12 1016 81 10000 2.06 10 04:30 13.11.2021
1289 Clear 12 1016 79 10000 2.57 330 01:54 13.11.2021
1290 Clear 14 1017 74 10000 3.6 310 22:59 12.11.2021
1291 Clear 14 1017 72 10000 4.12 310 21:50 12.11.2021
1292 Clear 15 1016 72 10000 4.12 330 20:18 12.11.2021
1293 Clear 16 1016 72 10000 4.12 340 19:28 12.11.2021
1294 Clear 16 1015 69 10000 4.63 330 18:46 12.11.2021
1295 Clear 20 1015 53 10000 3.09 60 16:40 12.11.2021
1296 Clear 20 1016 60 10000 2.06 0 15:34 12.11.2021
1297 Clouds 17 1017 70 10000 3.09 100 13:21 12.11.2021
1298 Clouds 14 1018 77 10000 2.06 80 10:58 12.11.2021
1299 Clouds 14 1017 79 10000 1.54 360 09:45 12.11.2021
1300 Clear 13 1016 80 10000 4.12 340 08:40 12.11.2021
1301 Clouds 14 1016 79 10000 3.09 340 03:27 12.11.2021
1302 Clouds 14 1018 81 10000 1.03 0 23:43 11.11.2021
1303 Clear 14 1018 80 10000 4.12 310 22:40 11.11.2021
1304 Clear 15 1018 79 10000 3.6 310 21:29 11.11.2021
1305 Clear 15 1018 80 10000 4.63 320 20:48 11.11.2021
1306 Clear 16 1017 76 10000 4.12 320 19:24 11.11.2021
1307 Clear 17 1017 70 10000 4.12 310 18:22 11.11.2021
1308 Clear 18 1018 65 10000 1.03 0 17:37 11.11.2021
1309 Clouds 19 1018 62 10000 1.03 0 15:19 11.11.2021
1310 Clouds 18 1019 61 10000 2.57 110 14:30 11.11.2021
1311 Clouds 18 1018 64 10000 2.57 80 13:40 11.11.2021
1312 Clouds 17 1019 71 10000 3.6 80 12:52 11.11.2021
1313 Clouds 15 1019 76 10000 1.54 0 11:30 11.11.2021
1314 Mist 14 1017 85 4500 0 0 09:49 11.11.2021
1315 Clouds 12 1018 87 7000 1.54 60 08:19 11.11.2021
1316 Clear 14 1016 82 10000 3.6 310 06:18 11.11.2021
1317 Clear 14 1017 81 10000 3.6 330 00:36 11.11.2021
1318 Clear 15 1017 69 10000 3.6 320 22:32 10.11.2021
1319 Clear 16 1016 62 10000 3.6 310 21:33 10.11.2021
1320 Clear 16 1017 63 10000 3.6 310 20:51 10.11.2021
1321 Clear 16 1016 61 10000 3.6 320 19:48 10.11.2021
1322 Clear 17 1016 59 10000 2.06 320 19:30 10.11.2021
1323 Clear 20 1017 51 10000 2.06 100 16:40 10.11.2021
1324 Clear 19 1017 51 10000 2.06 110 15:46 10.11.2021
1325 Clear 19 1018 52 10000 2.57 60 14:23 10.11.2021
1326 Clear 18 1017 53 10000 3.09 70 13:27 10.11.2021
1327 Clear 16 1019 56 10000 4.12 70 11:39 10.11.2021
1328 Clear 13 1014 67 10000 3.6 40 09:18 10.11.2021
1329 Clear 12 1013 69 10000 3.6 60 08:40 10.11.2021
1330 Clear 13 1009 62 10000 2.57 30 06:44 10.11.2021
1331 Clear 13 1011 70 10000 3.6 30 05:56 10.11.2021
1332 Clear 15 1011 75 10000 2.57 320 01:44 10.11.2021
1333 Clear 16 1012 69 10000 4.63 320 21:59 09.11.2021
1334 Clear 16 1012 71 10000 5.14 310 20:34 09.11.2021
1335 Clear 17 1012 68 10000 5.14 320 19:28 09.11.2021
1336 Clear 18 1012 62 10000 4.12 320 18:47 09.11.2021
1337 Clear 22 1011 52 10000 5.14 350 16:40 09.11.2021
1338 Clear 21 1010 55 10000 4.12 330 15:20 09.11.2021
1339 Clouds 20 1013 60 10000 5.14 350 13:31 09.11.2021
1340 Clouds 19 1014 66 10000 5.14 330 12:28 09.11.2021
1341 Clouds 16 1014 70 10000 6.17 320 10:55 09.11.2021
1342 Clouds 15 1013 77 10000 3.09 340 09:44 09.11.2021
1343 Clouds 14 1013 74 10000 3.09 340 08:53 09.11.2021
1344 Clear 15 1011 66 10000 4.12 330 06:59 09.11.2021
1345 Clear 15 1012 58 10000 3.6 320 02:32 09.11.2021
1346 Clear 15 1012 58 10000 3.6 310 01:50 09.11.2021
1347 Clear 15 1014 62 10000 3.6 330 00:30 09.11.2021
1348 Clear 15 1015 61 10000 4.63 320 23:29 08.11.2021
1349 Clear 15 1015 57 10000 3.6 340 22:36 08.11.2021
1350 Clear 16 1016 56 10000 5.66 330 21:22 08.11.2021
1351 Clear 16 1016 53 10000 3.6 350 20:31 08.11.2021
1352 Clear 17 1016 49 10000 4.63 340 19:18 08.11.2021
1353 Clear 20 1016 47 10000 4.12 330 17:39 08.11.2021
1354 Clear 20 1016 47 10000 4.12 330 17:39 08.11.2021
1355 Clear 20 1020 48 10000 4.63 350 15:48 08.11.2021
1356 Clear 20 1015 48 10000 2.57 80 14:55 08.11.2021
1357 Clear 19 1021 52 10000 3.09 90 14:24 08.11.2021
1358 Clear 18 1018 52 10000 5.14 40 12:59 08.11.2021
1359 Clear 17 1017 54 10000 3.09 50 11:54 08.11.2021
1360 Clear 15 1018 60 10000 2.06 30 10:41 08.11.2021
1361 Clouds 11 1016 66 10000 0.51 0 08:56 08.11.2021
1362 Clear 11 1017 66 10000 2.57 330 08:18 08.11.2021
1363 Clear 11 1016 64 10000 1.03 0 06:55 08.11.2021
1364 Clear 12 1015 66 10000 2.06 320 03:35 08.11.2021
1365 Clear 12 1018 70 10000 3.6 310 00:20 08.11.2021
1366 Clear 13 1018 65 10000 4.12 310 22:57 07.11.2021
1367 Clear 13 1019 60 10000 5.14 320 21:25 07.11.2021
1368 Clear 14 1019 59 10000 4.63 330 20:18 07.11.2021
1369 Clear 17 1019 42 10000 3.6 310 18:30 07.11.2021
1370 Clear 18 1023 37 10000 3.6 360 17:42 07.11.2021
1371 Clear 20 1019 32 10000 4.63 60 16:22 07.11.2021
1372 Clear 19 1020 31 10000 5.14 60 14:54 07.11.2021
1373 Clear 18 1020 35 10000 5.14 50 14:27 07.11.2021
1374 Clear 18 1020 33 10000 5.14 60 12:50 07.11.2021
1375 Clear 15 1022 42 10000 3.6 50 11:41 07.11.2021
1376 Clear 9 1025 65 10000 1.54 80 08:59 07.11.2021
1377 Clear 11 1026 60 10000 3.09 320 02:56 07.11.2021
1378 Clear 11 1027 59 10000 3.09 320 02:18 07.11.2021
1379 Clear 12 1027 60 10000 4.12 330 22:56 06.11.2021
1380 Clear 12 1027 60 10000 3.6 320 21:58 06.11.2021
1381 Clear 13 1027 52 10000 3.09 340 20:59 06.11.2021
1382 Clear 13 1027 44 10000 2.57 360 20:18 06.11.2021
1383 Clear 16 1026 35 10000 6.17 30 17:31 06.11.2021
1384 Clear 17 1027 34 10000 6.17 30 16:32 06.11.2021
1385 Clear 15 1025 44 10000 5.66 50 13:41 06.11.2021
1386 Clear 14 1025 44 10000 5.66 50 12:56 06.11.2021
1387 Clear 13 1023 45 10000 8.23 50 11:18 06.11.2021
1388 Clear 11 1024 57 10000 3.09 10 08:48 06.11.2021
1389 Clear 11 1020 61 10000 2.06 330 04:50 06.11.2021
1390 Clear 12 1022 62 10000 3.6 350 00:36 06.11.2021
1391 Clear 13 1022 58 10000 5.14 350 23:29 05.11.2021
1392 Clear 13 1021 58 10000 5.14 330 22:33 05.11.2021
1393 Clear 13 1022 60 10000 5.66 330 20:32 05.11.2021
1394 Clear 14 1022 59 10000 5.66 330 19:51 05.11.2021
1395 Clear 15 1021 55 10000 5.14 330 18:51 05.11.2021
1396 Clear 16 1021 50 10000 5.66 350 18:29 05.11.2021
1397 Clear 18 1024 41 10000 4.63 60 16:45 05.11.2021
1398 Clear 17 1023 37 10000 5.66 60 14:22 05.11.2021
1399 Clear 15 1024 44 10000 5.14 40 12:27 05.11.2021
1400 Clear 13 1023 57 10000 3.09 10 09:47 05.11.2021
1401 Clear 10 1022 66 10000 2.57 350 08:31 05.11.2021
1402 Clear 11 1020 67 10000 4.63 340 06:22 05.11.2021
1403 Clear 12 1020 71 10000 5.14 340 02:38 05.11.2021
1404 Clear 12 1020 71 10000 5.14 340 02:19 05.11.2021
1405 Clear 13 1020 70 10000 3.6 360 23:58 04.11.2021
1406 Clear 13 1020 69 10000 5.14 350 22:36 04.11.2021
1407 Clear 13 1019 69 10000 5.14 350 22:18 04.11.2021
1408 Clear 13 1019 68 10000 6.17 340 21:28 04.11.2021
1409 Clear 13 1019 66 10000 5.66 340 20:29 04.11.2021
1410 Clouds 14 1018 62 10000 5.14 340 19:49 04.11.2021
1411 Clouds 14 1018 61 10000 5.14 340 19:28 04.11.2021
1412 Clouds 15 1017 56 10000 7.2 350 18:29 04.11.2021
1413 Clouds 16 1016 52 10000 6.69 340 17:26 04.11.2021
1414 Clouds 17 1018 52 10000 6.69 350 16:23 04.11.2021
1415 Clouds 17 1016 53 10000 6.69 360 13:50 04.11.2021
1416 Clouds 15 1016 69 10000 3.6 360 10:48 04.11.2021
1417 Clouds 11 1014 82 10000 1.03 0 08:41 04.11.2021
1418 Clear 11 1013 76 10000 1.54 280 07:49 04.11.2021
1419 Clear 11 1013 76 10000 1.03 0 07:31 04.11.2021
1420 Clear 13 1014 72 10000 1.54 310 23:18 03.11.2021
1421 Clear 12 1014 75 10000 1.03 300 22:26 03.11.2021
1422 Clear 13 1014 72 10000 1.54 320 21:37 03.11.2021
1423 Clear 13 1014 71 10000 2.57 320 20:44 03.11.2021
1424 Clouds 13 1014 70 10000 3.09 330 20:25 03.11.2021
1425 Clouds 13 1013 68 10000 2.57 320 19:37 03.11.2021
1426 Clouds 15 1015 66 10000 3.09 310 18:27 03.11.2021
1427 Clouds 15 1015 66 10000 3.09 310 18:27 03.11.2021
1428 Clouds 15 1015 64 10000 3.6 320 17:48 03.11.2021
1429 Clouds 16 1013 63 10000 5.14 330 16:49 03.11.2021
1430 Clouds 17 1012 51 10000 5.66 320 15:49 03.11.2021
1431 Clouds 17 1013 50 10000 5.66 310 15:30 03.11.2021
1432 Clouds 16 1014 62 10000 4.12 340 13:42 03.11.2021
1433 Clouds 15 1014 71 10000 3.6 340 11:37 03.11.2021
1434 Clouds 15 1013 74 10000 2.06 290 10:50 03.11.2021
1435 Clouds 14 1013 77 10000 1.54 290 09:47 03.11.2021
1436 Clouds 13 1012 77 10000 2.06 270 08:58 03.11.2021
1437 Rain 14 1012 74 10000 1.54 310 07:59 03.11.2021
1438 Rain 14 1012 74 10000 2.57 310 07:35 03.11.2021
1439 Clouds 14 1011 76 10000 1.54 280 04:23 03.11.2021
1440 Clouds 15 1011 83 10000 4.12 330 01:32 03.11.2021
1441 Clouds 15 1011 84 6000 5.66 310 23:30 02.11.2021
1442 Clouds 16 1011 86 10000 2.57 320 21:59 02.11.2021
1443 Clouds 16 1011 89 10000 3.6 250 20:45 02.11.2021
1444 Clouds 16 1011 89 10000 4.12 230 20:21 02.11.2021
1445 Clouds 16 1013 86 4500 2.57 290 19:31 02.11.2021
1446 Clouds 16 1013 86 4500 2.57 290 19:31 02.11.2021
1447 Clouds 17 1011 81 10000 4.12 240 18:36 02.11.2021
1448 Clouds 17 1011 81 10000 4.12 240 18:36 02.11.2021
1449 Clouds 17 1011 81 10000 4.12 240 17:47 02.11.2021
1450 Rain 17 1012 82 10000 4.63 250 17:25 02.11.2021
1451 Rain 17 1014 79 10000 4.12 240 16:19 02.11.2021
1452 Rain 18 1013 73 10000 5.66 270 14:57 02.11.2021
1453 Clouds 18 1014 69 10000 4.12 270 13:32 02.11.2021
1454 Rain 18 1014 68 10000 3.6 280 12:59 02.11.2021
1455 Clouds 18 1014 67 10000 2.06 280 12:18 02.11.2021
1456 Clouds 18 1015 71 10000 3.09 230 11:26 02.11.2021
1457 Clouds 17 1015 76 10000 5.14 250 10:38 02.11.2021
1458 Clouds 16 1015 77 10000 5.14 250 10:18 02.11.2021
1459 Clouds 16 1014 83 10000 1.54 250 07:47 02.11.2021
1460 Clouds 16 1014 85 10000 2.57 230 06:29 02.11.2021
1461 Clouds 16 1015 79 10000 1.03 0 03:27 02.11.2021
1462 Clouds 15 1017 83 10000 0 0 00:19 02.11.2021
1463 Clouds 16 1017 77 10000 1.03 300 22:19 01.11.2021
1464 Clouds 17 1016 76 10000 2.06 320 20:46 01.11.2021
1465 Clouds 17 1016 76 10000 2.06 320 20:26 01.11.2021
1466 Clouds 17 1016 74 10000 2.06 310 19:42 01.11.2021
1467 Clouds 18 1016 73 10000 3.09 330 18:50 01.11.2021
1468 Clouds 19 1015 70 10000 4.12 340 17:49 01.11.2021
1469 Clouds 19 1017 69 10000 4.63 340 16:57 01.11.2021
1470 Clouds 20 1015 70 10000 4.63 340 16:32 01.11.2021
1471 Clouds 20 1015 71 10000 3.09 330 15:39 01.11.2021
1472 Clouds 20 1015 70 10000 3.09 330 15:19 01.11.2021
1473 Clouds 20 1015 75 10000 3.6 350 14:38 01.11.2021
1474 Clouds 20 1015 74 10000 3.6 350 14:19 01.11.2021
1475 Clouds 19 1016 82 10000 2.06 360 12:41 01.11.2021
1476 Clouds 18 1016 83 10000 2.06 360 11:39 01.11.2021
1477 Clouds 18 1015 87 10000 3.09 350 10:20 01.11.2021
1478 Clouds 17 1014 89 10000 3.09 330 08:19 01.11.2021
1479 Clouds 18 1013 90 8000 3.09 310 07:46 01.11.2021
1480 Drizzle 19 1012 91 8000 2.57 300 03:55 01.11.2021
1481 Clouds 20 1011 90 2000 7.2 250 01:44 01.11.2021
1482 Clouds 20 1013 90 10000 7.2 250 23:30 31.10.2021
1483 Clouds 20 1013 92 10000 8.23 240 20:58 31.10.2021
1484 Mist 20 1013 93 10000 6.69 230 19:49 31.10.2021
1485 Mist 20 1013 94 10000 6.17 230 18:43 31.10.2021
1486 Clouds 20 1013 93 9000 4.12 240 18:20 31.10.2021
1487 Mist 20 1013 92 6000 7.72 230 16:41 31.10.2021
1488 Mist 20 1013 91 1800 7.72 220 14:45 31.10.2021
1489 Mist 20 1013 91 7000 7.2 230 12:55 31.10.2021
1490 Clouds 20 1013 92 6000 8.75 220 11:44 31.10.2021
1491 Mist 20 1013 92 3000 6.69 230 10:48 31.10.2021
1492 Drizzle 20 1013 92 5000 6.69 230 09:26 31.10.2021
1493 Drizzle 20 1013 90 4500 5.14 220 08:44 31.10.2021
1494 Drizzle 20 1011 90 10000 6.17 250 02:52 31.10.2021
1495 Clouds 20 1009 91 7000 8.23 220 00:32 31.10.2021
1496 Clouds 20 1009 93 8000 7.72 240 22:20 30.10.2021
1497 Rain 20 1008 92 9000 9.26 230 21:27 30.10.2021
1498 Mist 20 1006 90 4000 4.47 305 19:42 30.10.2021
1499 Mist 20 1007 92 4000 6.69 220 17:49 30.10.2021
1500 Rain 20 1007 90 10000 3.6 250 15:42 30.10.2021
1501 Rain 20 1008 88 10000 5.14 230 13:59 30.10.2021
1502 Rain 20 1008 88 10000 5.14 230 13:59 30.10.2021
1503 Clouds 20 1008 89 10000 5.14 230 13:38 30.10.2021
1504 Clouds 20 1008 89 10000 5.14 230 13:20 30.10.2021
1505 Mist 20 1007 88 10000 3.6 230 11:49 30.10.2021
1506 Clouds 20 1006 90 10000 3.09 230 10:56 30.10.2021
1507 Clouds 19 1005 91 7000 4.63 250 08:57 30.10.2021
1508 Drizzle 19 1003 91 5000 7.2 240 07:56 30.10.2021
1509 Clouds 20 1003 89 7000 8.23 240 05:46 30.10.2021
1510 Clouds 20 1003 87 10000 10.8 230 02:59 30.10.2021
1511 Mist 20 1004 88 3000 11.83 220 23:21 29.10.2021
1512 Mist 19 1007 86 3000 10.8 220 22:35 29.10.2021
1513 Clouds 20 1005 87 9000 14.4 210 21:18 29.10.2021
1514 Clouds 19 1005 90 6000 11.83 200 20:32 29.10.2021
1515 Clouds 19 1006 91 6000 10.8 200 19:26 29.10.2021
1516 Rain 19 1007 83 10000 8.23 210 17:43 29.10.2021
1517 Rain 19 1008 80 10000 6.17 210 15:42 29.10.2021
1518 Clouds 19 1010 78 10000 4.12 220 12:50 29.10.2021
1519 Clouds 18 1010 88 10000 3.09 240 10:49 29.10.2021
1520 Clouds 18 1010 89 10000 2.57 250 10:30 29.10.2021
1521 Rain 18 1010 85 10000 7.72 210 02:46 29.10.2021
1522 Clouds 18 1011 80 10000 7.72 210 00:32 29.10.2021
1523 Clouds 18 1012 82 10000 5.66 220 22:32 28.10.2021
1524 Clouds 18 1014 80 10000 4.63 220 20:59 28.10.2021
1525 Clouds 18 1012 81 10000 5.14 210 19:57 28.10.2021
1526 Clouds 19 1012 79 10000 5.14 220 18:47 28.10.2021
1527 Clouds 20 1013 76 10000 5.14 250 17:42 28.10.2021
1528 Clouds 20 1013 65 10000 5.66 220 16:38 28.10.2021
1529 Clear 20 1014 67 10000 5.66 230 14:42 28.10.2021
1530 Clear 19 1015 65 10000 1.54 0 13:33 28.10.2021
1531 Fog 19 1015 59 10000 2.06 90 12:50 28.10.2021
1532 Clear 18 1014 58 10000 1.54 50 11:50 28.10.2021
1533 Fog 16 1015 66 10000 0 0 10:38 28.10.2021
1534 Fog 12 1017 75 10000 0.51 0 09:37 28.10.2021
1535 Clear 14 1014 65 10000 0.51 0 08:36 28.10.2021
1536 Clear 14 1014 69 10000 1.03 0 07:41 28.10.2021
1537 Clear 16 1015 58 10000 2.06 310 02:33 28.10.2021
1538 Clear 19 1017 50 10000 2.57 330 22:57 27.10.2021
1539 Clear 19 1017 49 10000 4.12 310 22:26 27.10.2021
1540 Clear 19 1017 51 10000 5.14 310 21:32 27.10.2021
1541 Clear 20 1017 49 10000 4.63 310 20:46 27.10.2021
1542 Clear 21 1017 49 10000 3.09 310 19:48 27.10.2021
1543 Clear 23 1019 44 10000 1.54 0 18:56 27.10.2021
1544 Clear 23 1019 42 10000 1.03 0 18:36 27.10.2021
1545 Clear 24 1019 41 10000 2.57 90 16:25 27.10.2021
1546 Clear 23 1018 39 10000 2.06 70 15:28 27.10.2021
1547 Clear 23 1018 40 10000 2.57 60 14:28 27.10.2021
1548 Clear 18 1019 51 10000 3.09 60 11:18 27.10.2021
1549 Clear 17 1019 54 10000 3.6 50 10:56 27.10.2021
1550 Clear 15 1018 58 10000 1.54 60 09:28 27.10.2021
1551 Clear 16 1017 59 10000 2.06 30 07:47 27.10.2021
1552 Clear 17 1016 53 10000 2.06 10 06:34 27.10.2021
1553 Clear 17 1018 62 10000 3.09 330 01:26 27.10.2021
1554 Clear 18 1018 59 10000 3.6 330 00:55 27.10.2021
1555 Clear 19 1018 57 10000 3.6 320 23:56 26.10.2021
1556 Clear 19 1018 54 10000 3.6 320 22:55 26.10.2021
1557 Clear 19 1018 54 10000 3.09 310 22:27 26.10.2021
1558 Clear 19 1018 54 10000 3.09 320 21:51 26.10.2021
1559 Clear 21 1018 51 10000 2.06 270 19:59 26.10.2021
1560 Clear 22 1018 45 10000 1.54 40 19:25 26.10.2021
1561 Clear 24 1019 41 10000 2.06 90 18:30 26.10.2021
1562 Clear 23 1018 42 10000 3.6 50 15:53 26.10.2021
1563 Clear 22 1019 49 10000 4.12 60 14:18 26.10.2021
1564 Clear 18 1019 64 10000 3.09 360 11:31 26.10.2021
1565 Clear 15 1019 79 10000 3.09 320 09:28 26.10.2021
1566 Clear 15 1018 79 10000 4.63 320 07:23 26.10.2021
1567 Clear 16 1019 72 10000 6.17 330 00:50 26.10.2021
1568 Clear 16 1019 71 10000 6.17 330 23:48 25.10.2021
1569 Clear 17 1019 67 10000 7.2 340 22:36 25.10.2021
1570 Clear 17 1019 65 10000 7.72 340 21:49 25.10.2021
1571 Clear 17 1019 65 10000 7.2 330 21:25 25.10.2021
1572 Clouds 19 1018 64 10000 6.69 330 19:45 25.10.2021
1573 Clouds 20 1018 60 10000 6.69 350 19:24 25.10.2021
1574 Clouds 21 1018 56 10000 6.17 330 18:50 25.10.2021
1575 Clouds 22 1018 48 10000 6.17 330 17:42 25.10.2021
1576 Clouds 22 1019 50 10000 4.63 330 15:38 25.10.2021
1577 Clouds 22 1020 53 10000 5.14 350 13:54 25.10.2021
1578 Clouds 18 1020 68 10000 4.12 360 11:58 25.10.2021
1579 Clouds 16 1020 83 10000 1.03 0 09:58 25.10.2021
1580 Clouds 14 1019 85 10000 1.54 330 07:40 25.10.2021
1581 Clouds 15 1019 82 10000 2.06 350 05:55 25.10.2021
1582 Clear 15 1020 71 10000 1.03 0 00:53 25.10.2021
1583 Clear 15 1020 70 10000 2.06 10 00:35 25.10.2021
1584 Clear 16 1020 67 10000 3.6 330 23:45 24.10.2021
1585 Clear 17 1020 64 10000 4.63 320 22:40 24.10.2021
1586 Clear 17 1020 64 10000 4.63 320 22:20 24.10.2021
1587 Clear 17 1020 63 10000 5.14 310 21:37 24.10.2021
1588 Clear 18 1020 59 10000 4.12 310 20:42 24.10.2021
1589 Clear 20 1019 47 10000 3.09 290 19:49 24.10.2021
1590 Clear 22 1022 42 10000 3.6 300 18:30 24.10.2021
1591 Clear 23 1022 40 10000 3.6 300 17:48 24.10.2021
1592 Clouds 23 1022 41 10000 3.6 0 16:32 24.10.2021
1593 Clouds 23 1020 48 10000 2.57 0 15:20 24.10.2021
1594 Clear 20 1021 56 10000 2.06 90 13:43 24.10.2021
1595 Clear 19 1021 58 10000 2.06 80 12:29 24.10.2021
1596 Clear 17 1023 58 10000 2.57 360 11:36 24.10.2021
1597 Clear 15 1022 69 10000 0 0 10:40 24.10.2021
1598 Clear 14 1020 70 10000 2.06 340 08:50 24.10.2021
1599 Clear 16 1019 59 10000 3.09 310 03:30 24.10.2021
1600 Clear 17 1019 55 10000 4.12 330 23:56 23.10.2021
1601 Clear 18 1019 55 10000 4.12 320 22:55 23.10.2021
1602 Clear 19 1019 51 10000 4.63 310 21:20 23.10.2021
1603 Clear 23 1020 39 10000 1.03 0 19:37 23.10.2021
1604 Clear 24 1020 32 10000 1.03 0 18:44 23.10.2021
1605 Clear 24 1020 33 10000 2.06 110 17:46 23.10.2021
1606 Clear 24 1020 37 10000 2.06 110 17:18 23.10.2021
1607 Clear 23 1018 42 10000 2.57 70 15:57 23.10.2021
1608 Clear 20 1019 48 10000 4.63 70 13:35 23.10.2021
1609 Clear 16 1018 60 10000 4.12 330 00:45 23.10.2021
1610 Clear 17 1018 57 10000 5.66 330 23:41 22.10.2021
1611 Clear 17 1018 56 10000 6.69 330 21:37 22.10.2021
1612 Clear 19 1017 51 10000 7.2 330 19:33 22.10.2021
1613 Clear 21 1017 47 10000 7.2 340 18:25 22.10.2021
1614 Clear 22 1017 43 10000 7.2 330 16:44 22.10.2021
1615 Clear 22 1017 41 10000 6.69 360 14:45 22.10.2021
1616 Clouds 19 1018 54 10000 7.72 340 12:41 22.10.2021
1617 Clouds 17 1018 65 10000 6.17 320 10:56 22.10.2021
1618 Clouds 16 1018 67 10000 4.12 310 10:33 22.10.2021
1619 Clouds 15 1018 74 10000 0.51 0 09:34 22.10.2021
1620 Clouds 15 1017 74 10000 5.14 350 07:40 22.10.2021
1621 Clouds 15 1017 74 10000 5.14 350 07:21 22.10.2021
1622 Clouds 15 1017 74 10000 5.14 350 07:21 22.10.2021
1623 Clear 16 1022 73 10000 3.6 330 01:41 22.10.2021
1624 Clear 16 1019 71 10000 3.6 330 23:50 21.10.2021
1625 Clouds 16 1020 67 10000 4.12 340 22:43 21.10.2021
1626 Clouds 17 1020 68 10000 3.6 360 21:38 21.10.2021
1627 Clouds 17 1019 64 10000 6.17 350 20:24 21.10.2021
1628 Clouds 18 1018 61 10000 6.17 350 19:55 21.10.2021
1629 Clouds 19 1019 60 10000 7.72 330 19:25 21.10.2021
1630 Clouds 20 1019 53 10000 7.2 330 18:33 21.10.2021
1631 Clouds 21 1019 51 10000 6.17 320 17:51 21.10.2021
1632 Clouds 21 1018 50 10000 5.66 320 16:50 21.10.2021
1633 Clouds 22 1019 53 10000 6.69 340 15:33 21.10.2021
1634 Clouds 21 1020 59 10000 5.14 340 14:56 21.10.2021
1635 Clouds 21 1020 59 10000 5.66 350 14:37 21.10.2021
1636 Clouds 21 1020 59 10000 5.66 350 14:37 21.10.2021
1637 Clouds 19 1021 73 10000 4.63 360 11:59 21.10.2021
1638 Clouds 18 1020 84 10000 1.03 0 09:42 21.10.2021
1639 Clouds 18 1019 84 10000 1.54 310 07:54 21.10.2021
1640 Clouds 18 1019 85 10000 1.54 310 06:54 21.10.2021
1641 Clouds 19 1019 82 10000 1.54 350 00:51 21.10.2021
1642 Clouds 19 1020 79 10000 4.63 340 22:36 20.10.2021
1643 Clouds 19 1020 79 10000 4.12 330 21:50 20.10.2021
1644 Clouds 20 1019 76 10000 3.09 330 20:59 20.10.2021
1645 Clouds 20 1019 76 10000 4.12 310 20:39 20.10.2021
1646 Clouds 20 1019 76 10000 4.12 310 20:19 20.10.2021
1647 Clouds 22 1020 74 10000 3.6 300 19:26 20.10.2021
1648 Clouds 22 1020 75 10000 4.12 320 18:45 20.10.2021
1649 Clouds 23 1020 70 10000 4.63 280 17:36 20.10.2021
1650 Clouds 23 1020 69 10000 4.12 210 14:56 20.10.2021
1651 Fog 18 1020 89 8000 0 0 09:57 20.10.2021
1652 Fog 18 1018 87 9000 0 0 06:57 20.10.2021
1653 Clear 20 1019 77 10000 0 0 02:38 20.10.2021
1654 Clear 21 1019 74 10000 4.63 260 00:34 20.10.2021
1655 Clear 21 1020 73 10000 6.17 260 22:58 19.10.2021
1656 Clear 21 1019 69 10000 5.66 260 21:38 19.10.2021
1657 Clear 22 1019 65 10000 5.66 260 20:29 19.10.2021
1658 Clouds 23 1019 61 10000 6.17 250 19:59 19.10.2021
1659 Clouds 23 1019 59 10000 5.66 250 19:37 19.10.2021
1660 Clear 25 1019 53 10000 5.66 250 18:45 19.10.2021
1661 Clear 26 1018 52 10000 4.63 240 17:52 19.10.2021
1662 Clear 26 1019 49 10000 5.14 240 15:30 19.10.2021
1663 Clear 26 1020 49 10000 5.14 240 14:44 19.10.2021
1664 Clear 25 1020 52 10000 4.12 240 13:56 19.10.2021
1665 Clear 23 1020 70 10000 2.06 80 12:24 19.10.2021
1666 Clear 22 1020 74 10000 3.09 50 11:30 19.10.2021
1667 Clear 19 1019 86 10000 2.06 50 09:55 19.10.2021
1668 Clear 18 1018 86 10000 1.03 60 08:57 19.10.2021
1669 Clear 20 1018 76 10000 0 0 02:38 19.10.2021
1670 Clear 20 1019 75 10000 0 0 00:20 19.10.2021
1671 Clear 21 1017 70 10000 0.51 0 23:41 18.10.2021
1672 Clear 22 1018 70 10000 2.57 320 22:57 18.10.2021
1673 Clear 22 1018 70 10000 2.06 310 22:31 18.10.2021
1674 Clear 22 1018 70 10000 2.06 310 22:31 18.10.2021
1675 Clear 23 1018 66 10000 0 0 20:53 18.10.2021
1676 Clear 23 1018 63 10000 0 0 20:32 18.10.2021
1677 Clear 24 1020 63 10000 0.51 0 19:49 18.10.2021
1678 Clear 25 1020 59 10000 1.54 0 19:22 18.10.2021
1679 Clear 25 1020 61 10000 2.06 0 18:49 18.10.2021
1680 Fog 25 1019 69 10000 2.06 0 14:58 18.10.2021
1681 Fog 22 1019 78 10000 2.06 50 12:41 18.10.2021
1682 Fog 18 1019 92 5000 1.54 60 10:26 18.10.2021
1683 Mist 17 1019 91 5000 0 0 09:26 18.10.2021
1684 Fog 18 1018 90 10000 1.03 0 01:35 18.10.2021
1685 Clear 19 1018 86 10000 1.54 310 23:20 17.10.2021
1686 Fog 20 1018 84 10000 1.03 0 21:45 17.10.2021
1687 Clouds 20 1017 83 10000 2.06 280 20:59 17.10.2021
1688 Clouds 21 1017 80 10000 2.06 280 20:31 17.10.2021
1689 Clouds 22 1017 77 10000 3.6 260 19:39 17.10.2021
1690 Clouds 22 1011 72 10000 1.34 258 18:54 17.10.2021
1691 Clouds 22 1017 72 10000 4.63 250 17:27 17.10.2021
1692 Fog 21 1017 79 10000 4.63 230 14:58 17.10.2021
1693 Fog 21 1017 81 10000 4.63 220 14:24 17.10.2021
1694 Mist 21 1017 83 9000 3.6 230 13:34 17.10.2021
1695 Mist 20 1017 89 9000 4.12 250 11:54 17.10.2021
1696 Fog 19 1017 91 6000 2.57 260 10:23 17.10.2021
1697 Mist 19 1016 91 7000 4.12 230 09:28 17.10.2021
1698 Drizzle 18 1015 90 5000 0 0 06:58 17.10.2021
1699 Clouds 18 1015 83 10000 1.03 0 00:52 17.10.2021
1700 Clouds 18 1015 81 10000 0 0 00:21 17.10.2021
1701 Clear 19 1016 78 10000 1.54 300 21:38 16.10.2021
1702 Rain 20 1016 72 10000 3.09 310 20:31 16.10.2021
1703 Rain 21 1016 62 10000 2.06 270 19:45 16.10.2021
1704 Rain 21 1016 57 10000 3.09 260 19:21 16.10.2021
1705 Clear 21 1016 55 10000 3.09 250 18:54 16.10.2021
1706 Clear 22 1016 52 10000 3.09 270 18:36 16.10.2021
1707 Clear 22 1016 47 10000 3.09 270 18:18 16.10.2021
1708 Clear 22 1016 48 10000 2.57 270 17:23 16.10.2021
1709 Clear 23 1017 47 10000 4.63 330 14:52 16.10.2021
1710 Clear 21 1019 55 10000 3.09 300 11:52 16.10.2021
1711 Clear 19 1016 59 10000 0 0 10:36 16.10.2021
1712 Clear 17 1014 65 10000 2.57 310 08:20 16.10.2021
1713 Clear 19 1017 49 10000 3.09 310 01:25 16.10.2021
1714 Clear 19 1017 45 10000 4.12 320 23:55 15.10.2021
1715 Clear 19 1016 46 10000 4.12 310 23:20 15.10.2021
1716 Clear 20 1017 47 10000 4.12 330 22:19 15.10.2021
1717 Clear 21 1017 45 10000 3.6 320 21:26 15.10.2021
1718 Clear 21 1016 41 10000 3.09 320 20:47 15.10.2021
1719 Clear 24 1017 33 10000 5.14 340 19:31 15.10.2021
1720 Clear 24 1018 35 10000 5.14 340 18:40 15.10.2021
1721 Clear 25 1017 35 10000 4.12 200 16:29 15.10.2021
1722 Clear 25 1017 38 10000 3.09 170 15:36 15.10.2021
1723 Clear 24 1019 44 10000 2.06 100 13:29 15.10.2021
1724 Clear 21 1018 47 10000 0.51 0 11:36 15.10.2021
1725 Clear 20 1018 49 10000 0.51 0 10:57 15.10.2021
1726 Clear 17 1018 53 10000 0 0 09:49 15.10.2021
1727 Clear 18 1015 47 10000 1.03 290 05:32 15.10.2021
1728 Clear 18 1017 51 10000 1.54 70 01:47 15.10.2021
1729 Clear 20 1018 47 10000 2.57 340 00:22 15.10.2021
1730 Clear 21 1018 39 10000 5.14 310 22:52 14.10.2021
1731 Clear 21 1018 45 10000 4.63 310 21:45 14.10.2021
1732 Clear 21 1018 45 10000 4.12 300 20:49 14.10.2021
1733 Clear 22 1018 44 10000 3.6 300 20:19 14.10.2021
1734 Clear 23 1017 44 10000 3.09 310 19:35 14.10.2021
1735 Clear 26 1017 39 10000 3.09 160 17:31 14.10.2021
1736 Clear 27 1017 35 10000 3.09 110 16:51 14.10.2021
1737 Clear 27 1017 34 10000 2.06 100 16:20 14.10.2021
1738 Clear 25 1020 40 10000 2.06 100 14:43 14.10.2021
1739 Clear 25 1020 41 10000 2.06 110 14:21 14.10.2021
1740 Clear 21 1020 52 10000 3.09 0 11:44 14.10.2021
1741 Clear 18 1017 55 10000 0 0 09:55 14.10.2021
1742 Clear 18 1017 55 10000 0 0 09:55 14.10.2021
1743 Clouds 19 1018 44 10000 1.55 43 06:56 14.10.2021
1744 Clouds 23 1010 29 10000 0.89 39 00:59 14.10.2021
1745 Clouds 23 1010 28 10000 0.89 1 00:28 14.10.2021
1746 Clear 23 1015 46 10000 3.09 320 21:58 13.10.2021
1747 Clear 23 1015 44 10000 3.6 300 21:32 13.10.2021
1748 Clear 24 1015 45 10000 3.6 320 19:59 13.10.2021
1749 Clear 26 1016 44 10000 3.6 270 18:57 13.10.2021
1750 Clear 26 1016 44 10000 2.57 270 18:35 13.10.2021
1751 Clear 27 1015 40 10000 2.57 0 15:32 13.10.2021
1752 Clear 26 1018 42 10000 2.57 110 14:45 13.10.2021
1753 Clear 26 1015 43 10000 3.09 80 14:21 13.10.2021
1754 Clear 24 1016 49 10000 3.09 50 12:22 13.10.2021
1755 Clear 22 1015 52 10000 2.57 60 11:35 13.10.2021
1756 Clear 19 1014 62 10000 0 0 08:42 13.10.2021
1757 Clear 19 1013 61 10000 1.54 30 06:51 13.10.2021
1758 Clear 20 1013 62 10000 2.57 350 02:28 13.10.2021
1759 Clear 21 1013 58 10000 2.57 330 01:43 13.10.2021
1760 Clear 22 1013 53 10000 3.09 320 23:30 12.10.2021
1761 Clear 22 1013 53 10000 3.09 320 23:30 12.10.2021
1762 Clear 22 1014 51 10000 4.12 320 22:46 12.10.2021
1763 Clear 23 1013 50 10000 5.66 310 21:52 12.10.2021
1764 Clear 23 1013 47 10000 5.66 310 20:41 12.10.2021
1765 Clear 23 1013 47 10000 5.66 310 20:18 12.10.2021
1766 Clear 25 1013 45 10000 4.63 310 18:36 12.10.2021
1767 Clear 27 1013 42 10000 2.57 0 17:57 12.10.2021
1768 Clear 28 1015 39 10000 2.57 0 16:39 12.10.2021
1769 Clear 27 1016 43 10000 3.09 70 15:58 12.10.2021
1770 Clear 26 1014 43 10000 4.12 60 14:46 12.10.2021
1771 Clear 25 1014 45 10000 4.63 50 13:44 12.10.2021
1772 Clear 23 1014 49 10000 4.12 60 12:39 12.10.2021
1773 Clear 20 1014 59 10000 3.6 50 09:59 12.10.2021
1774 Clear 19 1013 60 10000 4.12 50 08:44 12.10.2021
1775 Clear 20 1012 57 10000 2.57 50 07:36 12.10.2021
1776 Clear 21 1012 52 10000 3.09 30 05:31 12.10.2021
1777 Clear 22 1012 50 10000 4.63 40 04:33 12.10.2021
1778 Clear 24 1012 44 10000 4.63 50 00:28 12.10.2021
1779 Clear 24 1012 42 10000 5.14 50 23:41 11.10.2021
1780 Clear 24 1013 45 10000 5.14 50 22:57 11.10.2021
1781 Clear 24 1013 50 10000 6.17 40 21:46 11.10.2021
1782 Clear 24 1013 48 10000 6.69 40 21:18 11.10.2021
1783 Clear 27 1015 40 10000 6.69 40 19:46 11.10.2021
1784 Clear 28 1015 41 10000 6.69 40 18:43 11.10.2021
1785 Clouds 29 1013 36 10000 5.66 40 17:54 11.10.2021
1786 Clear 29 1013 37 10000 4.63 60 16:39 11.10.2021
1787 Clear 28 1013 38 10000 4.63 30 15:51 11.10.2021
1788 Clear 28 1014 38 10000 4.12 40 15:23 11.10.2021
1789 Clear 27 1014 40 10000 4.63 60 14:42 11.10.2021
1790 Clear 25 1015 46 10000 4.12 60 13:37 11.10.2021
1791 Clear 23 1014 51 10000 6.17 50 11:51 11.10.2021
1792 Clear 21 1014 56 10000 4.12 50 10:34 11.10.2021
1793 Clear 20 1013 62 10000 3.09 50 09:37 11.10.2021
1794 Clear 21 1012 59 10000 4.12 50 07:27 11.10.2021
1795 Clear 21 1012 53 10000 3.6 340 01:41 11.10.2021
1796 Clear 22 1013 50 10000 4.12 330 00:48 11.10.2021
1797 Clear 22 1013 50 10000 4.12 320 00:28 11.10.2021
1798 Clear 21 1014 60 10000 5.14 310 21:54 10.10.2021
1799 Clear 21 1014 60 10000 3.6 320 21:32 10.10.2021
1800 Clear 22 1013 58 10000 2.57 310 20:47 10.10.2021
1801 Clear 23 1013 55 10000 2.57 300 20:21 10.10.2021
1802 Clear 24 1013 51 10000 4.12 250 19:59 10.10.2021
1803 Clear 24 1013 51 10000 4.63 250 19:36 10.10.2021
1804 Clear 25 1013 49 10000 4.63 230 18:36 10.10.2021
1805 Clear 26 1014 48 10000 3.09 230 16:46 10.10.2021
1806 Clear 26 1014 49 10000 3.09 0 15:46 10.10.2021
1807 Clear 24 1014 55 10000 1.54 110 14:42 10.10.2021
1808 Clear 23 1015 56 10000 3.09 60 13:34 10.10.2021
1809 Clear 23 1018 55 10000 4.63 70 12:35 10.10.2021
1810 Clear 18 1017 75 10000 2.57 50 10:44 10.10.2021
1811 Clear 17 1016 83 10000 2.06 30 09:31 10.10.2021
1812 Clear 15 1016 92 10000 1.54 360 08:54 10.10.2021
1813 Clear 15 1016 86 10000 0 0 07:28 10.10.2021
1814 Clear 17 1017 77 10000 2.57 320 03:20 10.10.2021
1815 Clear 18 1014 76 10000 4.63 320 00:58 10.10.2021
1816 Clear 18 1014 78 10000 5.14 310 00:29 10.10.2021
1817 Clear 18 1015 81 10000 5.14 310 22:53 09.10.2021
1818 Clouds 18 1015 80 10000 5.66 310 21:47 09.10.2021
1819 Clouds 18 1017 78 10000 6.17 310 21:28 09.10.2021
1820 Clear 21 1014 66 10000 4.63 310 19:45 09.10.2021
1821 Clear 22 1014 62 10000 4.63 320 19:20 09.10.2021
1822 Clear 23 1014 59 10000 5.66 330 18:33 09.10.2021
1823 Clear 25 1015 53 10000 4.12 310 17:20 09.10.2021
1824 Clear 24 1015 57 10000 4.63 310 16:19 09.10.2021
1825 Clear 24 1016 54 10000 5.14 350 13:45 09.10.2021
1826 Clouds 22 1017 62 10000 4.63 320 12:40 09.10.2021
1827 Clouds 20 1020 67 10000 5.66 320 11:48 09.10.2021
1828 Clouds 19 1017 73 10000 6.69 330 10:42 09.10.2021
1829 Clouds 18 1016 78 10000 6.17 310 09:52 09.10.2021
1830 Clouds 17 1016 80 10000 7.2 310 08:30 09.10.2021
1831 Clouds 17 1015 81 10000 6.69 310 07:49 09.10.2021
1832 Clear 18 1014 76 10000 3.09 320 05:29 09.10.2021
1833 Clear 18 1015 71 10000 5.14 350 02:59 09.10.2021
1834 Clear 18 1015 69 10000 3.09 40 02:40 09.10.2021
1835 Clear 19 1015 69 10000 3.09 40 23:51 08.10.2021
1836 Clear 20 1016 68 10000 5.66 320 22:55 08.10.2021
1837 Clear 20 1016 67 10000 5.14 320 22:24 08.10.2021
1838 Clear 22 1015 63 10000 6.17 310 20:55 08.10.2021
1839 Clear 26 1015 44 10000 6.69 330 18:59 08.10.2021
1840 Clear 28 1015 45 10000 6.69 330 17:36 08.10.2021
1841 Clear 28 1015 37 10000 6.17 340 16:51 08.10.2021
1842 Clear 28 1015 35 10000 5.14 340 16:23 08.10.2021
1843 Clear 25 1019 49 10000 2.57 0 13:57 08.10.2021
1844 Clear 24 1017 51 10000 1.54 0 12:56 08.10.2021
1845 Clear 22 1019 64 10000 2.06 70 11:33 08.10.2021
1846 Clear 19 1018 70 10000 0 0 10:41 08.10.2021
1847 Clear 17 1016 76 10000 0 0 09:25 08.10.2021
1848 Clear 22 1015 50 10000 4.12 320 23:59 07.10.2021
1849 Clear 23 1016 49 10000 4.12 310 23:19 07.10.2021
1850 Clear 24 1015 46 10000 5.14 330 21:46 07.10.2021
1851 Clear 24 1015 45 10000 5.14 330 21:23 07.10.2021
1852 Clear 25 1015 44 10000 5.14 330 20:22 07.10.2021
1853 Clear 28 1015 41 10000 6.17 330 19:29 07.10.2021
1854 Clear 29 1018 41 10000 4.12 60 18:24 07.10.2021
1855 Clear 29 1016 39 10000 4.63 70 17:24 07.10.2021
1856 Clear 28 1017 43 10000 4.12 80 15:50 07.10.2021
1857 Clear 26 1018 49 10000 3.09 80 13:52 07.10.2021
1858 Clear 26 1018 49 10000 3.09 80 13:34 07.10.2021
1859 Clear 24 1018 54 10000 3.6 80 12:40 07.10.2021
1860 Clear 22 1018 61 10000 3.6 50 10:52 07.10.2021
1861 Clear 22 1018 61 10000 3.6 50 10:52 07.10.2021
1862 Clear 21 1018 65 10000 3.6 40 10:19 07.10.2021
1863 Clear 19 1018 74 10000 2.06 10 09:33 07.10.2021
1864 Clear 18 1017 76 10000 2.57 350 08:41 07.10.2021
1865 Clear 19 1016 75 10000 2.57 360 07:43 07.10.2021
1866 Clear 19 1016 75 10000 2.06 340 07:19 07.10.2021
1867 Clear 20 1017 69 10000 2.06 320 02:26 07.10.2021
1868 Clear 21 1018 69 10000 4.12 320 00:29 07.10.2021
1869 Clear 22 1018 65 10000 3.6 310 22:51 06.10.2021
1870 Clear 23 1018 63 10000 3.6 310 21:53 06.10.2021
1871 Clear 25 1018 59 10000 4.63 330 20:38 06.10.2021
1872 Clear 26 1020 53 10000 4.63 340 19:53 06.10.2021
1873 Clear 28 1020 43 10000 3.6 70 18:40 06.10.2021
1874 Clear 27 1018 44 10000 4.63 90 16:56 06.10.2021
1875 Clear 26 1019 49 10000 4.63 60 15:30 06.10.2021
1876 Clear 25 1020 53 10000 5.14 60 14:22 06.10.2021
1877 Clear 23 1021 61 10000 5.14 60 12:59 06.10.2021
1878 Clear 22 1021 64 10000 3.6 50 12:41 06.10.2021
1879 Clear 22 1021 63 10000 3.6 50 12:21 06.10.2021
1880 Clear 18 1020 73 10000 2.06 90 10:21 06.10.2021
1881 Clear 17 1020 80 10000 1.54 330 09:39 06.10.2021
1882 Clear 16 1020 79 10000 2.06 320 08:42 06.10.2021
1883 Clear 16 1020 79 10000 2.06 330 07:48 06.10.2021
1884 Clear 17 1019 80 10000 2.57 360 05:26 06.10.2021
1885 Clear 19 1021 80 10000 4.63 320 00:29 06.10.2021
1886 Clear 19 1021 79 10000 4.12 320 23:58 05.10.2021
1887 Clouds 19 1021 80 10000 5.14 340 23:39 05.10.2021
1888 Clouds 19 1021 80 10000 5.14 340 23:20 05.10.2021
1889 Clouds 19 1021 81 10000 4.12 320 22:28 05.10.2021
1890 Clouds 20 1021 80 10000 3.09 330 21:49 05.10.2021
1891 Clouds 20 1021 78 10000 3.09 320 20:42 05.10.2021
1892 Clouds 21 1020 76 10000 3.6 330 20:24 05.10.2021
1893 Clouds 21 1020 74 10000 4.12 310 19:43 05.10.2021
1894 Clouds 22 1020 71 10000 3.6 320 18:54 05.10.2021
1895 Clouds 22 1021 73 10000 3.6 320 16:48 05.10.2021
1896 Clouds 22 1022 71 10000 3.6 290 14:38 05.10.2021
1897 Drizzle 21 1021 74 10000 3.09 310 13:35 05.10.2021
1898 Clouds 21 1022 74 10000 3.6 290 12:47 05.10.2021
1899 Clouds 21 1022 73 10000 3.09 310 12:18 05.10.2021
1900 Clouds 20 1022 75 10000 2.57 280 11:19 05.10.2021
1901 Clouds 17 1021 81 10000 1.54 270 09:26 05.10.2021
1902 Clouds 16 1020 81 10000 2.06 220 05:25 05.10.2021
1903 Clear 17 1022 73 10000 1.54 300 23:54 04.10.2021
1904 Clear 17 1021 71 10000 2.57 310 22:38 04.10.2021
1905 Clear 19 1021 62 10000 4.63 310 20:29 04.10.2021
1906 Clouds 22 1020 52 10000 4.63 310 18:34 04.10.2021
1907 Clouds 22 1020 50 10000 2.57 140 16:34 04.10.2021
1908 Clouds 21 1021 50 10000 2.06 0 15:31 04.10.2021
1909 Clouds 21 1021 50 10000 2.06 0 15:31 04.10.2021
1910 Clouds 21 1021 56 10000 3.09 140 14:43 04.10.2021
1911 Clouds 21 1021 56 10000 3.09 140 14:43 04.10.2021
1912 Clouds 20 1021 58 10000 3.09 110 13:57 04.10.2021
1913 Clouds 20 1022 60 10000 3.09 130 13:27 04.10.2021
1914 Clouds 19 1022 63 10000 3.6 340 12:28 04.10.2021
1915 Clouds 19 1024 68 10000 2.57 0 11:31 04.10.2021
1916 Clouds 18 1024 71 10000 0 0 10:34 04.10.2021
1917 Clear 15 1021 80 10000 0 0 08:45 04.10.2021
1918 Clear 15 1020 76 10000 0 0 07:43 04.10.2021
1919 Clear 15 1019 70 10000 4.12 310 01:56 04.10.2021
1920 Clear 16 1019 67 10000 3.09 30 22:44 03.10.2021
1921 Clear 17 1018 64 10000 4.12 350 21:43 03.10.2021
1922 Clear 17 1018 63 10000 4.63 350 21:24 03.10.2021
1923 Clouds 18 1018 57 10000 6.69 330 20:25 03.10.2021
1924 Clouds 19 1017 55 10000 8.23 330 19:31 03.10.2021
1925 Clouds 20 1017 53 10000 6.69 320 18:28 03.10.2021
1926 Clouds 21 1016 47 10000 7.2 300 17:30 03.10.2021
1927 Clouds 21 1015 46 10000 7.72 350 14:49 03.10.2021
1928 Clouds 21 1015 47 10000 7.2 350 14:27 03.10.2021
1929 Clouds 20 1015 56 10000 7.72 350 13:34 03.10.2021
1930 Clouds 19 1014 61 10000 6.69 350 12:41 03.10.2021
1931 Clouds 18 1013 74 10000 6.17 330 10:57 03.10.2021
1932 Clouds 17 1011 82 10000 6.69 330 09:34 03.10.2021
1933 Clouds 20 1010 87 10000 6.69 230 03:36 03.10.2021
1934 Clouds 19 1013 83 10000 3.09 240 22:46 02.10.2021
1935 Clouds 20 1013 80 10000 3.6 250 21:35 02.10.2021
1936 Clouds 21 1013 73 10000 4.12 270 19:54 02.10.2021
1937 Clouds 21 1012 69 10000 3.6 280 18:56 02.10.2021
1938 Clouds 22 1013 69 10000 4.63 290 18:18 02.10.2021
1939 Clouds 22 1014 69 10000 4.63 290 17:36 02.10.2021
1940 Clouds 23 1015 66 10000 3.09 290 15:53 02.10.2021
1941 Clouds 18 1015 83 10000 4.12 330 06:39 02.10.2021
1942 Clear 27 1023 42 10000 2.57 0 15:37 30.09.2021
1943 Clear 25 1022 47 10000 3.09 320 13:51 30.09.2021
1944 Clear 21 1022 63 10000 4.12 330 11:42 30.09.2021
1945 Clear 19 1022 69 10000 3.09 340 10:46 30.09.2021
1946 Clouds 17 1021 78 10000 3.6 330 09:44 30.09.2021
1947 Clear 16 1022 81 10000 3.6 310 08:30 30.09.2021
1948 Clear 17 1021 78 10000 4.63 310 07:34 30.09.2021
1949 Clear 17 1021 72 10000 6.17 320 05:23 30.09.2021
1950 Clear 18 1022 72 10000 6.69 330 01:36 30.09.2021
1951 Clear 19 1022 69 10000 6.69 330 00:23 30.09.2021
1952 Clear 19 1023 69 10000 6.69 330 22:37 29.09.2021
1953 Clear 19 1022 67 10000 7.2 330 21:25 29.09.2021
1954 Clear 21 1022 61 10000 5.14 320 20:27 29.09.2021
1955 Clear 22 1024 57 10000 6.69 330 19:54 29.09.2021
1956 Clear 24 1022 48 10000 7.2 340 18:50 29.09.2021
1957 Clear 25 1022 41 10000 6.69 360 17:41 29.09.2021
1958 Clear 26 1022 37 10000 7.2 350 16:48 29.09.2021
1959 Clear 26 1023 36 10000 6.69 10 15:58 29.09.2021
1960 Clear 25 1024 38 10000 7.2 360 14:39 29.09.2021
1961 Clear 24 1024 40 10000 7.2 10 13:58 29.09.2021
1962 Clear 23 1024 42 10000 6.69 360 13:18 29.09.2021
1963 Clear 22 1024 48 10000 6.69 10 12:19 29.09.2021
1964 Clear 18 1024 60 10000 8.23 350 10:49 29.09.2021
1965 Clouds 17 1024 69 10000 7.72 360 09:51 29.09.2021
1966 Clouds 16 1023 70 10000 6.17 360 09:24 29.09.2021
1967 Clouds 16 1023 70 10000 7.2 360 07:32 29.09.2021
1968 Clear 16 1022 72 10000 6.17 350 04:19 29.09.2021
1969 Clear 17 1023 65 10000 5.14 350 23:27 28.09.2021
1970 Clear 18 1023 64 10000 7.72 350 22:24 28.09.2021
1971 Clear 18 1023 61 10000 7.72 350 21:44 28.09.2021
1972 Clear 19 1023 54 10000 8.23 350 20:43 28.09.2021
1973 Clouds 20 1022 50 10000 8.23 350 19:46 28.09.2021
1974 Clouds 21 1022 45 10000 8.75 350 18:50 28.09.2021
1975 Clear 22 1021 42 10000 8.23 360 18:18 28.09.2021
1976 Clouds 22 1021 49 10000 7.2 340 16:38 28.09.2021
1977 Clouds 22 1022 45 10000 7.72 350 14:30 28.09.2021
1978 Clouds 21 1022 53 10000 7.72 350 12:50 28.09.2021
1979 Clouds 21 1022 55 10000 7.72 350 12:21 28.09.2021
1980 Clouds 20 1022 58 10000 7.2 350 11:46 28.09.2021
1981 Clouds 19 1022 64 10000 5.66 350 11:22 28.09.2021
1982 Clouds 18 1021 71 10000 5.66 350 10:21 28.09.2021
1983 Clouds 18 1021 71 10000 5.66 350 10:21 28.09.2021
1984 Rain 17 1020 78 10000 4.63 350 09:18 28.09.2021
1985 Clear 17 1020 78 10000 3.09 350 08:39 28.09.2021
1986 Clear 17 1019 76 10000 2.57 340 07:48 28.09.2021
1987 Clear 17 1019 69 10000 4.63 350 05:31 28.09.2021
1988 Clouds 19 1020 81 10000 4.63 310 01:25 28.09.2021
1989 Clouds 20 1020 83 10000 5.14 310 00:26 28.09.2021
1990 Clouds 20 1020 82 10000 4.63 310 23:42 27.09.2021
1991 Clouds 20 1020 81 10000 4.63 300 23:22 27.09.2021
1992 Clouds 20 1020 79 10000 4.63 310 21:55 27.09.2021
1993 Clouds 22 1020 74 10000 4.63 300 20:45 27.09.2021
1994 Clouds 23 1019 67 10000 4.12 300 19:57 27.09.2021
1995 Clouds 24 1020 61 10000 4.12 300 19:29 27.09.2021
1996 Clouds 24 1020 59 10000 4.12 310 18:51 27.09.2021
1997 Clouds 25 1020 55 10000 3.09 0 17:30 27.09.2021
1998 Clouds 25 1019 56 10000 3.09 80 16:51 27.09.2021
1999 Clouds 25 1021 62 10000 2.57 90 15:45 27.09.2021
2000 Clouds 24 1020 61 10000 2.57 170 15:19 27.09.2021
2001 Clouds 23 1024 67 10000 3.09 100 13:32 27.09.2021
2002 Fog 20 1024 75 10000 2.06 80 11:59 27.09.2021
2003 Fog 19 1023 84 10000 2.06 100 10:38 27.09.2021
2004 Clouds 17 1020 86 10000 0 0 09:28 27.09.2021
2005 Clear 16 1019 86 10000 0 0 06:30 27.09.2021
2006 Clear 17 1020 84 10000 0 0 03:29 27.09.2021
2007 Clear 19 1020 75 10000 3.6 310 22:39 26.09.2021
2008 Clear 20 1019 76 10000 4.12 300 21:53 26.09.2021
2009 Clouds 20 1019 74 10000 3.6 300 21:26 26.09.2021
2010 Clouds 21 1019 70 10000 3.09 300 20:24 26.09.2021
2011 Clouds 22 1019 68 10000 4.12 240 19:53 26.09.2021
2012 Clouds 23 1019 66 10000 5.66 230 18:52 26.09.2021
2013 Clouds 23 1019 68 10000 6.17 210 17:59 26.09.2021
2014 Clouds 23 1018 67 10000 5.66 220 17:36 26.09.2021
2015 Clouds 23 1018 66 10000 5.66 220 17:18 26.09.2021
2016 Clouds 23 1019 65 10000 4.63 210 16:22 26.09.2021
2017 Clouds 23 1020 66 10000 1.54 0 15:22 26.09.2021
2018 Clouds 22 1020 68 10000 3.09 100 14:18 26.09.2021
2019 Clouds 22 1021 68 10000 2.57 110 13:42 26.09.2021
2020 Clouds 22 1021 69 10000 1.54 0 12:26 26.09.2021
2021 Clouds 20 1022 76 10000 1.54 300 11:52 26.09.2021
2022 Clouds 19 1020 80 8000 0 0 10:52 26.09.2021
2023 Mist 16 1019 88 3000 1.03 0 09:37 26.09.2021
2024 Fog 16 1019 86 10000 1.03 0 08:30 26.09.2021
2025 Clear 19 1018 77 10000 1.03 280 00:28 26.09.2021
2026 Clouds 19 1018 75 10000 2.06 260 23:41 25.09.2021
2027 Clouds 19 1018 74 10000 1.54 280 22:39 25.09.2021
2028 Clouds 19 1018 74 10000 1.54 280 22:18 25.09.2021
2029 Clouds 20 1017 71 10000 3.09 270 21:36 25.09.2021
2030 Clouds 20 1017 70 10000 3.09 300 20:52 25.09.2021
2031 Clouds 22 1018 63 10000 6.17 240 19:33 25.09.2021
2032 Clouds 23 1016 58 10000 6.69 230 18:28 25.09.2021
2033 Clouds 23 1015 57 10000 6.17 240 17:21 25.09.2021
2034 Clouds 23 1016 61 10000 5.66 260 14:30 25.09.2021
2035 Clouds 22 1016 64 10000 5.14 230 13:54 25.09.2021
2036 Clouds 21 1015 72 10000 4.12 240 12:37 25.09.2021
2037 Clouds 19 1014 86 10000 4.12 240 10:42 25.09.2021
2038 Clouds 19 1014 87 10000 4.12 240 10:18 25.09.2021
2039 Clouds 18 1013 90 10000 0 0 08:55 25.09.2021
2040 Clouds 18 1012 88 10000 0 0 07:47 25.09.2021
2041 Clouds 19 1012 81 10000 3.6 220 00:52 25.09.2021
2042 Clouds 19 1012 78 10000 5.14 220 22:18 24.09.2021
2043 Clouds 20 1012 78 10000 5.66 210 21:32 24.09.2021
2044 Clouds 20 1012 74 10000 6.17 220 20:32 24.09.2021
2045 Clouds 21 1011 69 10000 6.17 240 19:31 24.09.2021
2046 Clouds 23 1010 63 10000 5.66 230 18:20 24.09.2021
2047 Clouds 23 1010 61 10000 5.66 230 17:50 24.09.2021
2048 Clouds 23 1010 63 10000 5.66 220 17:31 24.09.2021
2049 Clouds 22 1011 69 10000 5.66 240 15:39 24.09.2021
2050 Clouds 21 1013 71 10000 3.09 100 13:21 24.09.2021
2051 Clouds 21 1013 71 10000 3.09 100 13:21 24.09.2021
2052 Clouds 21 1011 73 10000 3.09 90 12:43 24.09.2021
2053 Clouds 21 1011 74 10000 2.57 100 12:25 24.09.2021
2054 Clouds 18 1013 82 9000 2.06 90 10:53 24.09.2021
2055 Fog 18 1012 83 10000 0.51 0 09:37 24.09.2021
2056 Clouds 17 1012 82 10000 0 0 07:57 24.09.2021
2057 Clouds 17 1011 81 10000 2.06 340 06:59 24.09.2021
2058 Clear 18 1011 81 10000 0 0 05:57 24.09.2021
2059 Thunderstorm 18 1012 81 10000 3.09 60 03:56 24.09.2021
2060 Clouds 21 1012 60 10000 4.63 350 22:37 23.09.2021
2061 Clouds 22 1012 59 10000 4.12 340 21:58 23.09.2021
2062 Clouds 22 1012 58 10000 4.63 330 20:54 23.09.2021
2063 Clouds 23 1011 55 10000 4.63 360 20:31 23.09.2021
2064 Clouds 24 1011 49 10000 5.14 60 18:32 23.09.2021
2065 Clouds 24 1012 52 10000 2.06 0 15:53 23.09.2021
2066 Clouds 24 1013 55 10000 2.06 0 15:19 23.09.2021
2067 Clouds 23 1013 55 10000 3.09 40 14:25 23.09.2021
2068 Clouds 21 1014 63 10000 4.63 50 13:27 23.09.2021
2069 Clouds 21 1014 67 10000 5.14 40 12:55 23.09.2021
2070 Clouds 20 1014 68 10000 5.66 60 12:26 23.09.2021
2071 Clouds 19 1013 70 10000 5.14 30 11:57 23.09.2021
2072 Clouds 18 1013 75 10000 3.6 40 10:31 23.09.2021
2073 Clouds 18 1012 75 10000 5.14 30 09:54 23.09.2021
2074 Clouds 18 1012 72 10000 5.66 50 08:56 23.09.2021
2075 Clouds 18 1013 56 10000 4.63 30 05:32 23.09.2021
2076 Thunderstorm 21 1014 51 10000 6.17 20 23:50 22.09.2021
2077 Thunderstorm 22 1013 50 10000 5.66 20 22:52 22.09.2021
2078 Clear 22 1013 51 10000 5.14 350 22:20 22.09.2021
2079 Clear 22 1013 51 10000 5.14 330 21:42 22.09.2021
2080 Clear 23 1013 46 10000 6.17 340 20:57 22.09.2021
2081 Clear 25 1013 40 10000 6.69 330 19:48 22.09.2021
2082 Clear 25 1013 42 10000 7.2 340 19:26 22.09.2021
2083 Clear 27 1013 33 10000 2.06 0 18:30 22.09.2021
2084 Clear 26 1012 31 10000 4.33 4 17:33 22.09.2021
2085 Clear 25 1014 40 10000 3.44 24 15:51 22.09.2021
2086 Clouds 26 1016 42 10000 4.63 60 14:28 22.09.2021
2087 Clear 23 1016 48 10000 5.14 50 13:19 22.09.2021
2088 Clear 21 1017 44 10000 5.66 50 11:20 22.09.2021
2089 Clear 19 1016 50 10000 6.17 40 09:30 22.09.2021
2090 Clear 19 1016 50 10000 6.17 40 08:45 22.09.2021
2091 Clear 19 1016 48 10000 5.66 40 07:33 22.09.2021
2092 Clear 20 1016 45 10000 5.66 40 06:51 22.09.2021
2093 Clear 21 1016 43 10000 5.66 40 05:48 22.09.2021
2094 Clear 21 1017 47 10000 6.69 30 04:20 22.09.2021
2095 Clear 21 1017 46 10000 4.63 30 02:56 22.09.2021
2096 Clear 22 1018 45 10000 3.6 340 23:54 21.09.2021
2097 Clear 22 1017 45 10000 4.12 330 22:26 21.09.2021
2098 Clear 25 1016 38 10000 4.27 15 20:43 21.09.2021
2099 Clear 26 1016 34 10000 4.73 21 19:37 21.09.2021
2100 Clear 27 1016 29 10000 6.69 30 19:18 21.09.2021
2101 Clear 27 1017 30 10000 7.2 40 16:48 21.09.2021
2102 Clear 27 1018 28 10000 7.72 40 15:57 21.09.2021
2103 Clear 27 1018 28 10000 7.72 30 15:24 21.09.2021
2104 Clear 26 1018 28 10000 7.72 20 14:43 21.09.2021
2105 Clear 24 1019 33 10000 7.72 40 13:40 21.09.2021
2106 Clear 23 1019 37 10000 8.23 40 12:45 21.09.2021
2107 Clear 19 1018 46 10000 8.75 50 10:44 21.09.2021
2108 Clear 19 1018 45 10000 8.23 30 09:53 21.09.2021
2109 Clear 20 1018 39 10000 8.23 40 07:44 21.09.2021
2110 Clear 21 1018 45 10000 8.23 30 05:42 21.09.2021
2111 Clear 21 1019 60 10000 7.72 330 23:52 20.09.2021
2112 Clear 21 1019 62 10000 6.17 320 21:53 20.09.2021
2113 Clear 21 1018 62 10000 7.72 330 21:32 20.09.2021
2114 Clear 23 1018 57 10000 7.2 330 20:26 20.09.2021
2115 Clear 23 1018 53 10000 6.17 320 19:20 20.09.2021
2116 Clear 25 1019 47 10000 6.69 350 17:31 20.09.2021
2117 Clouds 25 1019 48 10000 6.17 330 16:26 20.09.2021
2118 Clouds 25 1019 48 10000 5.66 350 15:47 20.09.2021
2119 Clear 25 1020 50 10000 5.66 340 14:59 20.09.2021
2120 Clear 24 1020 53 10000 7.2 350 13:42 20.09.2021
2121 Clouds 22 1021 58 10000 7.72 340 12:34 20.09.2021
2122 Clouds 21 1021 66 10000 7.72 330 11:18 20.09.2021
2123 Clouds 18 1020 75 10000 7.72 330 09:53 20.09.2021
2124 Clouds 18 1020 75 10000 7.2 330 09:34 20.09.2021
2125 Clouds 18 1020 77 10000 7.72 340 08:56 20.09.2021
2126 Clouds 18 1020 76 10000 6.69 350 06:46 20.09.2021
2127 Clear 19 1020 69 10000 7.72 320 23:44 19.09.2021
2128 Clear 19 1020 65 10000 7.72 330 21:56 19.09.2021
2129 Clear 19 1020 62 10000 7.72 320 21:34 19.09.2021
2130 Clear 20 1019 60 10000 9.77 330 20:33 19.09.2021
2131 Clear 22 1019 53 10000 8.75 330 19:18 19.09.2021
2132 Clear 24 1019 47 10000 7.72 330 18:25 19.09.2021
2133 Clear 24 1019 42 10000 7.2 330 17:22 19.09.2021
2134 Clear 25 1020 36 10000 6.69 350 15:52 19.09.2021
2135 Clear 25 1020 40 10000 6.17 340 14:50 19.09.2021
2136 Clear 24 1020 41 10000 6.69 360 14:29 19.09.2021
2137 Clear 23 1021 47 10000 7.72 350 13:20 19.09.2021
2138 Clear 22 1021 48 10000 7.72 350 12:47 19.09.2021
2139 Clouds 20 1021 58 10000 8.23 340 11:27 19.09.2021
2140 Clouds 19 1020 66 10000 8.23 340 10:24 19.09.2021
2141 Clouds 18 1020 72 10000 6.69 330 09:28 19.09.2021
2142 Clear 17 1019 74 10000 5.66 340 07:31 19.09.2021
2143 Clear 18 1019 72 10000 7.72 330 04:21 19.09.2021
2144 Clear 18 1020 69 10000 4.12 320 23:36 18.09.2021
2145 Clouds 19 1019 66 10000 7.2 340 21:59 18.09.2021
2146 Clouds 20 1018 60 10000 9.26 340 20:48 18.09.2021
2147 Clouds 21 1018 57 10000 9.26 350 20:27 18.09.2021
2148 Clouds 22 1018 49 10000 8.75 340 19:39 18.09.2021
2149 Clouds 22 1018 49 10000 8.75 340 19:39 18.09.2021
2150 Clouds 22 1018 49 10000 8.75 340 19:20 18.09.2021
2151 Clear 23 1018 46 10000 9.26 350 18:31 18.09.2021
2152 Clouds 24 1018 45 10000 9.26 330 17:25 18.09.2021
2153 Clouds 24 1019 46 10000 8.75 340 15:48 18.09.2021
2154 Clouds 23 1019 46 10000 8.23 340 13:46 18.09.2021
2155 Clouds 23 1019 47 10000 10.29 340 13:27 18.09.2021
2156 Clouds 22 1019 50 10000 9.26 350 12:49 18.09.2021
2157 Clouds 20 1019 59 10000 5.66 350 11:38 18.09.2021
2158 Clouds 19 1019 69 10000 2.57 350 10:31 18.09.2021
2159 Clouds 17 1018 76 10000 2.57 330 09:27 18.09.2021
2160 Clouds 17 1018 77 10000 2.06 330 08:48 18.09.2021
2161 Clear 19 1018 75 10000 5.74 348 02:50 18.09.2021
2162 Clouds 19 1018 72 10000 6.37 356 00:41 18.09.2021
2163 Clear 19 1018 71 10000 6.73 355 23:47 17.09.2021
2164 Clear 20 1018 72 10000 5.47 344 22:33 17.09.2021
2165 Clouds 20 1017 78 10000 5.14 320 21:55 17.09.2021
2166 Clouds 22 1017 72 10000 4.63 310 20:25 17.09.2021
2167 Clouds 24 1016 64 10000 6.17 310 18:54 17.09.2021
2168 Clouds 25 1017 56 10000 6.69 340 16:51 17.09.2021
2169 Clouds 25 1017 56 10000 5.66 330 16:18 17.09.2021
2170 Clouds 22 1019 63 10000 4.12 320 12:37 17.09.2021
2171 Clouds 20 1018 75 10000 4.63 340 10:41 17.09.2021
2172 Clouds 19 1018 81 10000 5.66 320 08:25 17.09.2021
2173 Clouds 19 1017 80 10000 5.66 320 06:49 17.09.2021
2174 Clouds 20 1020 77 10000 4.63 360 00:59 17.09.2021
2175 Clouds 20 1019 76 10000 7.2 330 22:54 16.09.2021
2176 Clouds 20 1019 75 10000 8.75 320 22:24 16.09.2021
2177 Clouds 21 1018 74 10000 7.72 320 21:40 16.09.2021
2178 Clouds 21 1018 72 10000 7.72 320 20:50 16.09.2021
2179 Clouds 22 1018 69 10000 9.26 330 20:18 16.09.2021
2180 Clouds 24 1018 61 10000 6.69 320 18:19 16.09.2021
2181 Clouds 26 1018 57 10000 5.14 320 17:29 16.09.2021
2182 Clouds 26 1019 58 10000 3.6 320 14:55 16.09.2021
2183 Clouds 25 1019 61 10000 5.14 340 13:55 16.09.2021
2184 Clouds 24 1019 64 10000 4.12 330 12:48 16.09.2021
2185 Clouds 24 1019 67 10000 4.63 330 12:28 16.09.2021
2186 Clouds 23 1019 73 10000 6.17 340 11:25 16.09.2021
2187 Clouds 22 1018 76 10000 5.14 330 10:31 16.09.2021
2188 Clouds 21 1018 80 10000 5.14 330 09:53 16.09.2021
2189 Clouds 20 1018 83 10000 4.63 330 08:42 16.09.2021
2190 Clouds 20 1017 82 10000 3.09 320 07:22 16.09.2021
2191 Clouds 20 1017 83 10000 3.6 330 06:39 16.09.2021
2192 Clouds 20 1018 82 10000 5.14 340 04:34 16.09.2021
2193 Clouds 21 1018 80 10000 2.57 310 01:26 16.09.2021
2194 Clouds 21 1018 80 10000 2.57 310 01:26 16.09.2021
2195 Clouds 21 1018 79 10000 2.57 340 23:37 15.09.2021
2196 Clouds 21 1017 81 10000 3.09 340 22:47 15.09.2021
2197 Clouds 21 1016 76 10000 5.14 310 21:44 15.09.2021
2198 Clouds 22 1016 74 10000 4.12 310 21:25 15.09.2021
2199 Clouds 23 1016 66 10000 5.14 310 19:52 15.09.2021
2200 Clouds 23 1015 65 10000 3.09 270 19:19 15.09.2021
2201 Clouds 24 1015 61 10000 2.57 290 17:49 15.09.2021
2202 Clouds 23 1016 73 10000 3.6 240 16:54 15.09.2021
2203 Clouds 22 1015 82 10000 4.12 280 15:33 15.09.2021
2204 Rain 22 1016 80 2000 1.54 150 14:44 15.09.2021
2205 Rain 22 1016 79 10000 3.09 90 13:51 15.09.2021
2206 Clouds 22 1016 78 10000 3.6 70 13:29 15.09.2021
2207 Clouds 22 1016 79 10000 3.6 60 12:42 15.09.2021
2208 Clouds 21 1015 82 10000 2.57 0 11:51 15.09.2021
2209 Clouds 21 1015 83 10000 2.06 90 11:19 15.09.2021
2210 Clouds 20 1015 83 10000 2.06 90 10:50 15.09.2021
2211 Fog 19 1014 87 10000 0 0 09:28 15.09.2021
2212 Clouds 18 1012 86 10000 0 0 07:43 15.09.2021
2213 Clouds 19 1012 85 10000 0 0 04:24 15.09.2021
2214 Clouds 20 1010 83 10000 2.57 100 22:59 14.09.2021
2215 Clouds 21 1010 80 10000 3.6 80 21:40 14.09.2021
2216 Clouds 21 1009 79 10000 5.14 60 20:38 14.09.2021
2217 Thunderstorm 23 1008 72 10000 4.12 220 19:41 14.09.2021
2218 Clouds 24 1008 70 10000 6.17 240 17:34 14.09.2021
2219 Clouds 24 1008 69 10000 6.69 240 16:58 14.09.2021
2220 Clouds 23 1008 67 10000 3.09 110 15:30 14.09.2021
2221 Clouds 23 1008 65 10000 1.54 0 14:31 14.09.2021
2222 Clouds 21 1009 82 10000 3.6 120 11:52 14.09.2021
2223 Clouds 20 1008 83 10000 1.54 310 10:54 14.09.2021
2224 Clouds 20 1007 85 10000 2.06 170 09:50 14.09.2021
2225 Clouds 20 1008 85 10000 2.57 150 08:39 14.09.2021
2226 Clouds 21 1008 85 10000 2.57 150 06:24 14.09.2021
2227 Clouds 22 1010 83 10000 4.63 220 23:57 13.09.2021
2228 Clouds 22 1009 84 10000 5.66 220 22:46 13.09.2021
2229 Clouds 22 1009 84 10000 6.69 230 22:23 13.09.2021
2230 Clouds 22 1009 82 10000 7.72 220 21:45 13.09.2021
2231 Clouds 23 1009 79 10000 7.72 200 20:50 13.09.2021
2232 Clouds 24 1009 77 10000 9.26 210 18:46 13.09.2021
2233 Clouds 25 1009 71 10000 7.72 210 17:42 13.09.2021
2234 Clouds 25 1009 67 10000 6.69 180 16:50 13.09.2021
2235 Clouds 25 1009 70 10000 6.69 150 15:22 13.09.2021
2236 Clouds 21 1010 85 10000 3.09 70 11:55 13.09.2021
2237 Clouds 21 1010 87 10000 4.12 110 10:58 13.09.2021
2238 Clouds 21 1009 86 10000 2.57 140 09:35 13.09.2021
2239 Clouds 21 1010 86 5000 5.14 160 04:38 13.09.2021
2240 Clouds 21 1010 80 10000 3.6 220 23:32 12.09.2021
2241 Clouds 22 1010 77 10000 6.17 230 22:25 12.09.2021
2242 Clouds 23 1010 71 10000 2.06 230 21:36 12.09.2021
2243 Rain 23 1009 69 10000 4.63 150 20:28 12.09.2021
2244 Rain 23 1009 69 10000 4.63 150 20:28 12.09.2021
2245 Clear 23 1009 67 10000 4.12 190 19:50 12.09.2021
2246 Clear 24 1010 68 10000 1.54 240 19:19 12.09.2021
2247 Clear 24 1011 68 10000 6.17 240 18:20 12.09.2021
2248 Clouds 24 1011 65 10000 6.17 230 16:30 12.09.2021
2249 Clouds 24 1011 65 10000 6.17 230 16:30 12.09.2021
2250 Clouds 25 1011 65 10000 6.17 230 16:30 12.09.2021
2251 Clouds 24 1012 67 10000 3.09 80 14:50 12.09.2021
2252 Clouds 23 1013 69 10000 3.6 80 12:47 12.09.2021
2253 Clouds 21 1014 85 10000 2.57 130 10:35 12.09.2021
2254 Clouds 20 1013 87 10000 0 0 08:59 12.09.2021
2255 Clouds 20 1013 87 10000 1.03 0 08:36 12.09.2021
2256 Clear 21 1015 79 10000 1.03 240 00:56 12.09.2021
2257 Clear 22 1015 78 10000 2.06 290 23:18 11.09.2021
2258 Clouds 22 1015 76 10000 3.09 280 21:41 11.09.2021
2259 Clouds 25 1014 61 10000 3.6 210 20:18 11.09.2021
2260 Clouds 25 1014 61 10000 3.6 210 20:18 11.09.2021
2261 Clouds 26 1015 54 10000 3.6 240 18:32 11.09.2021
2262 Clouds 27 1015 53 10000 4.63 210 17:29 11.09.2021
2263 Clouds 26 1016 56 10000 3.09 240 15:39 11.09.2021
2264 Clouds 25 1018 64 10000 2.06 0 13:30 11.09.2021
2265 Clear 23 1018 68 10000 2.06 0 11:47 11.09.2021
2266 Clouds 21 1018 81 10000 1.54 10 10:51 11.09.2021
2267 Rain 20 1018 83 10000 2.06 50 09:31 11.09.2021
2268 Clouds 20 1018 84 10000 1.03 90 07:44 11.09.2021
2269 Clouds 20 1017 83 10000 2.06 40 06:31 11.09.2021
2270 Clear 22 1019 73 10000 4.63 310 22:48 10.09.2021
2271 Clear 22 1019 73 10000 4.63 310 22:48 10.09.2021
2272 Clear 22 1019 71 10000 4.63 300 22:22 10.09.2021
2273 Clear 23 1019 68 10000 3.6 290 21:46 10.09.2021
2274 Clouds 25 1019 58 10000 5.14 310 19:41 10.09.2021
2275 Clouds 26 1018 58 10000 4.12 310 18:20 10.09.2021
2276 Clouds 26 1019 58 10000 4.12 300 16:40 10.09.2021
2277 Clouds 25 1020 62 10000 2.57 0 13:54 10.09.2021
2278 Clouds 23 1020 69 10000 1.03 0 11:46 10.09.2021
2279 Clouds 20 1018 88 10000 1.03 230 08:29 10.09.2021
2280 Clouds 20 1018 85 10000 1.54 260 07:45 10.09.2021
2281 Clouds 21 1020 81 10000 2.06 270 00:42 10.09.2021
2282 Clouds 21 1019 78 10000 2.06 260 22:24 09.09.2021
2283 Clouds 22 1019 72 10000 3.09 300 21:28 09.09.2021
2284 Clouds 23 1019 70 10000 3.6 300 20:42 09.09.2021
2285 Clouds 24 1019 65 10000 4.12 310 18:55 09.09.2021
2286 Clouds 24 1019 66 10000 4.12 300 17:56 09.09.2021
2287 Clouds 25 1019 63 10000 4.63 280 16:40 09.09.2021
2288 Clouds 25 1019 64 10000 5.14 320 15:27 09.09.2021
2289 Clouds 23 1019 68 10000 3.09 330 12:48 09.09.2021
2290 Clouds 23 1019 68 10000 3.09 330 12:48 09.09.2021
2291 Clouds 23 1019 73 10000 2.57 340 11:33 09.09.2021
2292 Clouds 21 1018 81 10000 2.06 330 09:39 09.09.2021
2293 Clouds 21 1018 83 10000 1.54 330 08:32 09.09.2021
2294 Clouds 21 1018 85 10000 2.06 280 06:24 09.09.2021
2295 Clouds 21 1018 81 10000 2.06 280 02:18 09.09.2021
2296 Clouds 21 1017 80 10000 3.6 270 22:39 08.09.2021
2297 Clouds 22 1017 77 10000 5.14 270 21:22 08.09.2021
2298 Clouds 23 1017 75 10000 5.14 250 19:56 08.09.2021
2299 Clouds 24 1017 75 10000 5.14 250 18:55 08.09.2021
2300 Clouds 23 1017 75 10000 4.63 240 18:28 08.09.2021
2301 Clouds 23 1017 76 10000 4.63 250 17:55 08.09.2021
2302 Clouds 24 1017 72 10000 7.2 210 16:28 08.09.2021
2303 Clouds 24 1018 73 10000 6.17 210 14:23 08.09.2021
2304 Clouds 23 1018 75 10000 5.66 220 12:43 08.09.2021
2305 Clouds 23 1018 75 10000 5.66 220 12:25 08.09.2021
2306 Clouds 23 1017 80 10000 4.63 230 11:29 08.09.2021
2307 Clouds 22 1017 86 10000 3.09 250 10:33 08.09.2021
2308 Clouds 21 1017 88 10000 3.6 230 09:59 08.09.2021
2309 Clouds 21 1016 88 10000 2.57 240 07:55 08.09.2021
2310 Clouds 21 1016 88 10000 2.06 220 07:32 08.09.2021
2311 Clouds 21 1016 88 10000 4.12 240 03:41 08.09.2021
2312 Clouds 22 1015 83 10000 3.09 240 22:38 07.09.2021
2313 Clouds 22 1015 83 10000 3.6 230 21:46 07.09.2021
2314 Clouds 23 1015 78 10000 6.69 230 19:47 07.09.2021
2315 Clouds 25 1015 74 10000 6.69 230 18:40 07.09.2021
2316 Clouds 25 1015 75 10000 6.69 230 17:47 07.09.2021
2317 Clouds 24 1016 76 10000 5.66 220 15:59 07.09.2021
2318 Clouds 25 1016 77 10000 6.17 230 15:35 07.09.2021
2319 Clouds 24 1016 77 10000 7.2 220 14:41 07.09.2021
2320 Clouds 22 1016 86 10000 4.12 230 12:38 07.09.2021
2321 Mist 22 1015 84 10000 6.69 200 11:36 07.09.2021
2322 Mist 21 1015 87 10000 5.14 210 10:40 07.09.2021
2323 Clouds 21 1013 89 10000 4.63 210 08:23 07.09.2021
2324 Clouds 21 1013 87 6000 4.63 210 06:45 07.09.2021
2325 Clouds 21 1013 83 6000 5.14 180 05:24 07.09.2021
2326 Clouds 22 1014 80 10000 7.2 200 02:32 07.09.2021
2327 Clouds 22 1014 75 10000 6.69 200 00:40 07.09.2021
2328 Clear 22 1014 74 10000 6.69 210 23:31 06.09.2021
2329 Clouds 22 1013 75 10000 6.69 210 22:53 06.09.2021
2330 Clouds 22 1013 75 10000 6.17 230 22:32 06.09.2021
2331 Clear 23 1013 71 10000 7.2 220 20:55 06.09.2021
2332 Clouds 24 1012 68 10000 6.69 210 19:22 06.09.2021
2333 Clouds 26 1012 61 10000 6.17 210 18:46 06.09.2021
2334 Clouds 26 1013 61 10000 5.66 210 18:23 06.09.2021
2335 Clouds 26 1013 61 10000 6.17 210 17:36 06.09.2021
2336 Clouds 25 1014 63 10000 5.14 190 15:49 06.09.2021
2337 Clouds 24 1014 69 10000 5.14 190 13:47 06.09.2021
2338 Clouds 23 1014 72 10000 3.6 170 12:47 06.09.2021
2339 Clouds 21 1013 86 9000 2.57 200 10:44 06.09.2021
2340 Clear 20 1012 85 10000 2.57 210 07:59 06.09.2021
2341 Clear 21 1012 78 10000 2.06 160 04:45 06.09.2021
2342 Clear 22 1013 67 10000 2.57 260 23:34 05.09.2021
2343 Clear 22 1013 67 10000 3.09 260 22:48 05.09.2021
2344 Clear 23 1012 67 10000 3.6 290 21:58 05.09.2021
2345 Clear 23 1011 69 10000 3.6 280 21:30 05.09.2021
2346 Clear 23 1011 70 10000 4.12 40 20:33 05.09.2021
2347 Clear 25 1012 66 10000 7.2 220 18:46 05.09.2021
2348 Clear 26 1012 52 10000 7.2 230 17:34 05.09.2021
2349 Clear 28 1013 43 10000 4.12 190 15:28 05.09.2021
2350 Clear 28 1013 45 10000 3.6 150 14:19 05.09.2021
2351 Clear 24 1014 60 10000 2.57 0 12:29 05.09.2021
2352 Fog 20 1014 90 10000 2.06 70 10:55 05.09.2021
2353 Fog 19 1014 91 10000 1.54 90 10:31 05.09.2021
2354 Fog 18 1013 88 10000 1.54 70 09:22 05.09.2021
2355 Fog 19 1013 84 10000 1.03 70 08:21 05.09.2021
2356 Clear 20 1013 72 10000 2.06 50 02:36 05.09.2021
2357 Clear 22 1013 64 10000 0.51 0 00:30 05.09.2021
2358 Clear 22 1013 64 10000 0.51 0 00:30 05.09.2021
2359 Clear 23 1013 59 10000 4.12 310 23:42 04.09.2021
2360 Clear 23 1013 61 10000 4.63 310 22:36 04.09.2021
2361 Clear 24 1013 62 10000 4.12 320 21:58 04.09.2021
2362 Clear 28 1013 39 10000 3.09 230 19:42 04.09.2021
2363 Clear 28 1013 47 10000 3.09 260 18:44 04.09.2021
2364 Clear 27 1014 53 10000 3.6 180 16:23 04.09.2021
2365 Clear 24 1016 66 10000 2.06 0 13:30 04.09.2021
2366 Clouds 22 1016 72 10000 2.06 340 11:20 04.09.2021
2367 Clouds 18 1015 85 10000 1.03 340 09:25 04.09.2021
2368 Clear 19 1016 82 10000 2.57 330 05:53 04.09.2021
2369 Clear 20 1017 75 10000 4.63 320 00:27 04.09.2021
2370 Clear 21 1017 70 10000 5.14 320 23:32 03.09.2021
2371 Clear 21 1017 69 10000 4.63 310 22:39 03.09.2021
2372 Clouds 23 1017 68 10000 4.63 320 21:35 03.09.2021
2373 Clouds 24 1017 63 10000 4.63 320 20:43 03.09.2021
2374 Clouds 24 1017 61 10000 5.14 310 19:55 03.09.2021
2375 Clouds 25 1016 60 10000 4.63 310 19:20 03.09.2021
2376 Clouds 26 1017 56 10000 4.63 310 17:53 03.09.2021
2377 Clouds 26 1017 55 10000 5.14 300 16:38 03.09.2021
2378 Clouds 25 1018 58 10000 3.09 0 14:59 03.09.2021
2379 Clouds 24 1019 70 10000 3.09 0 12:26 03.09.2021
2380 Clouds 21 1018 78 10000 2.57 340 10:32 03.09.2021
2381 Clouds 19 1018 83 10000 2.06 330 08:59 03.09.2021
2382 Clouds 19 1018 81 10000 1.54 320 07:47 03.09.2021
2383 Clouds 19 1018 81 10000 1.54 320 05:24 03.09.2021
2384 Clouds 21 1018 76 10000 5.66 310 23:21 02.09.2021
2385 Clouds 22 1017 70 10000 5.66 310 21:38 02.09.2021
2386 Clouds 24 1017 62 10000 6.17 310 19:56 02.09.2021
2387 Clouds 26 1017 53 10000 5.14 310 17:33 02.09.2021
2388 Clouds 25 1017 60 10000 3.09 320 15:54 02.09.2021
2389 Clouds 25 1018 65 10000 3.09 120 13:59 02.09.2021
2390 Clouds 24 1018 68 10000 1.54 0 12:56 02.09.2021
2391 Clouds 22 1018 73 10000 3.09 10 11:36 02.09.2021
2392 Clouds 20 1017 81 10000 3.09 340 09:47 02.09.2021
2393 Clouds 19 1017 85 10000 3.6 310 08:20 02.09.2021
2394 Clouds 19 1016 83 10000 4.12 310 07:18 02.09.2021
2395 Clouds 20 1016 83 10000 3.09 310 02:57 02.09.2021
2396 Clouds 20 1017 82 10000 4.12 330 02:33 02.09.2021
2397 Clouds 20 1017 81 10000 3.6 320 01:32 02.09.2021
2398 Clouds 21 1016 78 10000 3.6 310 23:40 01.09.2021
2399 Clouds 21 1016 74 10000 3.09 300 22:42 01.09.2021
2400 Clouds 22 1015 71 10000 3.6 310 21:40 01.09.2021
2401 Clouds 23 1015 65 10000 4.12 320 20:45 01.09.2021
2402 Clouds 24 1014 62 10000 4.12 290 19:22 01.09.2021
2403 Clouds 25 1015 63 10000 5.14 230 17:41 01.09.2021
2404 Clouds 24 1014 63 10000 4.12 250 16:47 01.09.2021
2405 Clouds 25 1015 63 10000 4.63 230 15:52 01.09.2021
2406 Clouds 23 1015 74 10000 1.54 0 12:41 01.09.2021
2407 Fog 22 1015 78 10000 3.6 20 11:45 01.09.2021
2408 Clouds 19 1014 86 10000 3.09 240 08:56 01.09.2021
2409 Clouds 19 1014 83 10000 2.57 230 07:52 01.09.2021
2410 Clouds 20 1014 82 10000 0.51 0 05:39 01.09.2021
2411 Clouds 22 1014 76 10000 5.14 300 22:43 31.08.2021
2412 Clouds 22 1013 72 10000 4.63 300 21:40 31.08.2021
2413 Clouds 24 1013 63 10000 4.63 260 19:48 31.08.2021
2414 Clouds 26 1013 58 10000 4.12 280 18:37 31.08.2021
2415 Clouds 26 1014 57 10000 4.12 270 17:38 31.08.2021
2416 Clouds 26 1014 58 10000 4.12 270 17:20 31.08.2021
2417 Clouds 27 1014 60 10000 4.63 290 16:24 31.08.2021
2418 Clouds 27 1014 60 10000 4.63 290 16:24 31.08.2021
2419 Clouds 26 1015 63 10000 2.57 0 13:46 31.08.2021
2420 Clear 23 1015 76 10000 1.54 0 11:36 31.08.2021
2421 Clouds 21 1015 80 10000 1.03 0 10:55 31.08.2021
2422 Clouds 20 1015 86 10000 2.06 330 09:45 31.08.2021
2423 Clouds 19 1015 87 10000 2.06 310 08:40 31.08.2021
2424 Clouds 20 1015 86 10000 0.51 0 07:38 31.08.2021
2425 Clouds 20 1015 83 10000 1.54 350 05:55 31.08.2021
2426 Clouds 21 1015 78 10000 2.06 300 23:35 30.08.2021
2427 Clouds 22 1014 77 10000 5.14 290 21:53 30.08.2021
2428 Clouds 22 1014 75 10000 5.14 300 21:32 30.08.2021
2429 Clear 23 1013 72 10000 6.17 260 20:32 30.08.2021
2430 Clouds 24 1014 66 10000 4.63 310 19:29 30.08.2021
2431 Clouds 25 1014 63 10000 4.63 290 18:44 30.08.2021
2432 Clouds 25 1014 60 10000 4.63 310 17:47 30.08.2021
2433 Clouds 26 1014 62 10000 5.14 200 16:24 30.08.2021
2434 Clouds 26 1014 67 10000 4.12 140 15:39 30.08.2021
2435 Clouds 24 1015 69 10000 3.09 0 13:45 30.08.2021
2436 Clouds 22 1015 76 10000 2.57 300 12:40 30.08.2021
2437 Clouds 20 1015 85 10000 3.09 230 10:34 30.08.2021
2438 Clouds 21 1016 78 10000 4.12 250 23:29 29.08.2021
2439 Clouds 21 1015 70 10000 3.09 290 21:33 29.08.2021
2440 Clouds 22 1015 67 10000 4.12 280 20:27 29.08.2021
2441 Clouds 23 1015 63 10000 4.63 270 19:20 29.08.2021
2442 Clouds 24 1015 59 10000 4.12 280 17:53 29.08.2021
2443 Clouds 24 1016 56 10000 3.6 280 15:49 29.08.2021
2444 Clouds 25 1016 60 10000 3.09 280 14:21 29.08.2021
2445 Clouds 24 1016 61 10000 2.57 320 13:44 29.08.2021
2446 Clouds 22 1017 66 10000 3.09 270 12:40 29.08.2021
2447 Clouds 22 1017 68 10000 3.09 310 11:51 29.08.2021
2448 Clouds 22 1017 72 10000 2.57 330 11:27 29.08.2021
2449 Clouds 21 1017 78 10000 2.06 310 10:46 29.08.2021
2450 Clouds 21 1017 78 10000 2.06 300 10:26 29.08.2021
2451 Clouds 20 1017 84 10000 2.06 280 08:58 29.08.2021
2452 Clouds 20 1018 77 10000 5.66 330 00:37 29.08.2021
2453 Clouds 21 1017 73 10000 4.63 310 21:54 28.08.2021
2454 Clouds 23 1016 68 10000 4.63 220 20:28 28.08.2021
2455 Clouds 24 1016 65 10000 4.63 230 18:43 28.08.2021
2456 Clouds 24 1016 65 10000 4.63 240 18:20 28.08.2021
2457 Clouds 24 1017 69 10000 5.14 220 17:20 28.08.2021
2458 Clouds 24 1017 76 10000 4.12 240 15:46 28.08.2021
2459 Drizzle 23 1018 72 10000 3.6 180 14:26 28.08.2021
2460 Clouds 24 1018 71 10000 4.63 170 13:45 28.08.2021
2461 Clouds 23 1018 71 10000 2.06 0 12:44 28.08.2021
2462 Clouds 22 1018 71 10000 2.57 0 11:55 28.08.2021
2463 Clouds 21 1017 72 10000 2.06 70 10:42 28.08.2021
2464 Clouds 20 1017 75 10000 0 0 08:41 28.08.2021
2465 Clouds 20 1017 75 10000 0.51 0 07:24 28.08.2021
2466 Clear 21 1017 72 10000 2.57 280 22:42 27.08.2021
2467 Clear 21 1017 70 10000 3.6 290 21:19 27.08.2021
2468 Clouds 22 1016 68 10000 4.63 290 20:30 27.08.2021
2469 Clouds 23 1016 68 10000 6.17 230 18:58 27.08.2021
2470 Clouds 23 1016 66 10000 5.66 240 18:37 27.08.2021
2471 Clouds 23 1016 66 10000 7.2 230 17:20 27.08.2021
2472 Clouds 24 1016 62 10000 6.69 230 15:55 27.08.2021
2473 Clouds 24 1016 60 10000 7.2 210 14:43 27.08.2021
2474 Clouds 23 1016 62 10000 2.57 300 12:54 27.08.2021
2475 Clear 22 1016 67 10000 2.06 260 11:26 27.08.2021
2476 Clear 20 1016 68 10000 2.06 320 10:43 27.08.2021
2477 Clear 19 1015 76 10000 1.54 240 09:47 27.08.2021
2478 Clear 17 1015 81 10000 1.03 0 08:46 27.08.2021
2479 Clouds 18 1014 80 10000 3.09 250 06:58 27.08.2021
2480 Clouds 18 1015 79 10000 3.6 260 05:28 27.08.2021
2481 Clear 20 1015 72 10000 3.09 300 00:36 27.08.2021
2482 Clear 20 1014 71 10000 2.57 310 22:49 26.08.2021
2483 Clear 20 1014 71 10000 3.6 300 22:19 26.08.2021
2484 Clear 22 1013 66 10000 4.63 260 20:44 26.08.2021
2485 Clear 25 1013 58 10000 5.14 240 18:53 26.08.2021
2486 Clear 25 1014 60 10000 5.66 230 17:45 26.08.2021
2487 Clear 24 1015 60 10000 3.6 240 16:35 26.08.2021
2488 Clear 24 1015 62 10000 3.6 250 15:55 26.08.2021
2489 Clouds 24 1015 63 10000 3.6 180 13:48 26.08.2021
2490 Clouds 23 1015 65 10000 3.09 190 12:56 26.08.2021
2491 Clouds 22 1015 66 10000 2.57 160 12:30 26.08.2021
2492 Clouds 20 1014 76 10000 2.57 130 10:21 26.08.2021
2493 Clouds 19 1013 84 10000 2.06 210 08:34 26.08.2021
2494 Clouds 19 1013 83 10000 2.06 220 06:34 26.08.2021
2495 Clear 20 1012 80 10000 2.57 240 22:54 25.08.2021
2496 Clear 20 1012 80 10000 3.6 250 22:35 25.08.2021
2497 Clear 20 1012 79 10000 4.12 250 21:54 25.08.2021
2498 Clouds 21 1012 74 10000 5.14 240 20:49 25.08.2021
2499 Clouds 22 1012 72 10000 5.14 220 20:28 25.08.2021
2500 Clouds 23 1012 68 10000 5.66 230 18:45 25.08.2021
2501 Clouds 23 1013 66 10000 5.66 230 17:43 25.08.2021
2502 Clouds 23 1013 66 10000 4.63 210 15:45 25.08.2021
2503 Clouds 23 1013 67 10000 5.14 180 14:48 25.08.2021
2504 Clouds 23 1013 69 10000 5.66 190 14:30 25.08.2021
2505 Clouds 22 1014 73 10000 5.14 190 13:25 25.08.2021
2506 Clouds 20 1013 81 10000 4.63 180 11:28 25.08.2021
2507 Clouds 19 1013 82 10000 4.12 160 10:43 25.08.2021
2508 Clouds 20 1012 87 10000 4.12 190 09:58 25.08.2021
2509 Clouds 20 1012 87 10000 5.14 190 09:18 25.08.2021
2510 Clouds 19 1011 82 9000 4.63 190 08:30 25.08.2021
2511 Clouds 20 1011 81 10000 4.12 210 04:19 25.08.2021
2512 Clouds 20 1012 82 10000 3.09 230 00:53 25.08.2021
2513 Mist 20 1011 83 10000 3.09 250 22:50 24.08.2021
2514 Clouds 22 1011 83 10000 5.66 230 20:48 24.08.2021
2515 Clouds 23 1011 80 10000 5.14 230 19:52 24.08.2021
2516 Clouds 23 1011 79 10000 5.66 220 18:47 24.08.2021
2517 Clouds 24 1012 76 10000 4.63 220 17:46 24.08.2021
2518 Mist 24 1012 76 10000 5.14 220 17:19 24.08.2021
2519 Clouds 24 1013 74 10000 5.14 190 14:30 24.08.2021
2520 Clouds 23 1013 76 10000 3.09 160 13:29 24.08.2021
2521 Clouds 21 1012 84 10000 3.6 90 12:33 24.08.2021
2522 Fog 21 1012 86 10000 0 0 10:48 24.08.2021
2523 Fog 20 1012 85 10000 1.03 0 10:28 24.08.2021
2524 Fog 18 1012 87 10000 0 0 08:59 24.08.2021
2525 Clouds 19 1011 85 10000 2.06 350 06:55 24.08.2021
2526 Clouds 20 1012 79 10000 1.54 300 04:54 24.08.2021
2527 Clear 21 1012 78 10000 2.06 330 00:48 24.08.2021
2528 Clouds 21 1013 75 10000 3.6 320 23:21 23.08.2021
2529 Clouds 22 1012 76 10000 3.6 320 22:40 23.08.2021
2530 Clear 24 1012 63 10000 3.09 0 20:49 23.08.2021
2531 Clear 27 1012 53 10000 6.17 310 19:24 23.08.2021
2532 Clear 28 1013 52 10000 4.12 320 16:41 23.08.2021
2533 Clear 28 1013 52 10000 3.09 0 15:21 23.08.2021
2534 Clear 26 1015 58 10000 2.57 0 13:26 23.08.2021
2535 Clouds 24 1015 63 10000 3.09 320 12:20 23.08.2021
2536 Clouds 20 1015 74 10000 4.12 310 10:39 23.08.2021
2537 Clouds 19 1015 80 10000 5.14 310 09:48 23.08.2021
2538 Clouds 18 1015 85 10000 5.66 310 08:33 23.08.2021
2539 Clouds 18 1015 82 10000 5.66 310 06:51 23.08.2021
2540 Clear 18 1015 82 10000 5.66 310 06:33 23.08.2021
2541 Clear 19 1017 77 10000 6.69 320 00:55 23.08.2021
2542 Clear 20 1017 72 10000 7.2 310 22:46 22.08.2021
2543 Clouds 20 1017 72 10000 7.72 310 22:28 22.08.2021
2544 Clear 23 1017 59 10000 7.72 320 20:23 22.08.2021
2545 Clear 24 1017 53 10000 7.72 320 19:46 22.08.2021
2546 Clear 28 1017 44 10000 6.69 320 17:26 22.08.2021
2547 Clear 28 1018 45 10000 5.14 330 15:32 22.08.2021
2548 Clear 28 1018 44 10000 5.66 340 14:43 22.08.2021
2549 Clear 27 1019 50 10000 5.66 330 13:37 22.08.2021
2550 Clear 26 1019 50 10000 5.66 330 13:18 22.08.2021
2551 Clear 25 1019 56 10000 6.69 350 12:28 22.08.2021
2552 Clear 24 1019 59 10000 8.23 330 11:43 22.08.2021
2553 Clear 21 1019 67 10000 5.66 320 10:32 22.08.2021
2554 Clear 18 1018 72 10000 5.66 310 08:20 22.08.2021
2555 Clouds 20 1019 81 10000 4.12 340 04:58 22.08.2021
2556 Clouds 21 1020 79 10000 3.6 350 00:32 22.08.2021
2557 Clouds 21 1020 75 10000 5.66 340 22:34 21.08.2021
2558 Clear 24 1019 64 10000 6.69 310 20:38 21.08.2021
2559 Clear 27 1019 54 10000 7.2 320 18:46 21.08.2021
2560 Clear 27 1019 49 10000 7.2 330 17:59 21.08.2021
2561 Clear 28 1019 48 10000 6.69 340 16:55 21.08.2021
2562 Clear 28 1019 48 10000 5.14 320 16:28 21.08.2021
2563 Clear 28 1020 48 10000 5.14 330 15:36 21.08.2021
2564 Clear 27 1020 49 10000 5.66 340 14:47 21.08.2021
2565 Clear 26 1020 51 10000 4.63 340 13:32 21.08.2021
2566 Clouds 24 1020 59 10000 4.63 340 12:38 21.08.2021
2567 Clouds 18 1019 79 10000 3.09 330 09:31 21.08.2021
2568 Clouds 18 1018 79 10000 1.03 0 06:19 21.08.2021
2569 Clouds 19 1018 74 10000 3.6 350 23:45 20.08.2021
2570 Clouds 20 1017 70 10000 7.2 310 21:53 20.08.2021
2571 Clear 25 1016 53 10000 5.66 320 18:27 20.08.2021
2572 Clear 26 1016 49 10000 5.14 320 16:21 20.08.2021
2573 Clouds 24 1017 55 10000 5.14 340 13:48 20.08.2021
2574 Clear 21 1016 66 10000 3.6 330 11:41 20.08.2021
2575 Clouds 19 1016 69 10000 4.12 330 10:55 20.08.2021
2576 Clouds 17 1016 75 10000 1.54 330 09:42 20.08.2021
2577 Clouds 17 1015 80 10000 2.06 320 08:46 20.08.2021
2578 Clouds 17 1015 79 10000 3.09 330 07:45 20.08.2021
2579 Clouds 17 1015 78 10000 4.12 320 04:22 20.08.2021
2580 Clouds 18 1015 75 10000 2.06 340 00:20 20.08.2021
2581 Clouds 18 1015 73 10000 4.63 330 23:20 19.08.2021
2582 Clouds 18 1014 73 10000 7.2 320 22:33 19.08.2021
2583 Clear 20 1014 63 10000 9.26 310 20:48 19.08.2021
2584 Clear 23 1014 52 10000 7.72 320 19:44 19.08.2021
2585 Clear 24 1014 49 10000 5.66 330 17:27 19.08.2021
2586 Clear 24 1014 49 10000 6.69 330 16:30 19.08.2021
2587 Clear 24 1015 51 10000 4.12 310 13:58 19.08.2021
2588 Clouds 22 1015 59 10000 5.14 320 12:38 19.08.2021
2589 Clouds 20 1015 66 10000 4.12 320 11:36 19.08.2021
2590 Clouds 18 1015 73 10000 7.2 310 10:24 19.08.2021
2591 Clouds 18 1014 74 10000 8.23 310 09:48 19.08.2021
2592 Clouds 18 1014 77 10000 8.23 320 09:22 19.08.2021
2593 Clouds 17 1014 78 10000 3.09 310 07:40 19.08.2021
2594 Clouds 18 1016 79 10000 4.63 330 02:26 19.08.2021
2595 Clouds 18 1016 79 10000 5.66 330 01:55 19.08.2021
2596 Clouds 19 1015 75 10000 9.26 310 22:56 18.08.2021
2597 Clouds 20 1015 66 10000 5.66 310 21:41 18.08.2021
2598 Clouds 21 1015 60 10000 8.75 310 20:33 18.08.2021
2599 Clouds 22 1016 54 10000 9.26 320 19:51 18.08.2021
2600 Clouds 24 1016 48 10000 8.75 320 18:55 18.08.2021
2601 Clear 25 1016 41 10000 7.2 310 17:57 18.08.2021
2602 Clear 26 1016 38 10000 6.69 310 16:24 18.08.2021
2603 Clear 26 1017 41 10000 6.69 330 15:38 18.08.2021
2604 Clear 26 1017 40 10000 6.69 330 15:20 18.08.2021
2605 Clear 23 1018 52 10000 3.6 300 12:43 18.08.2021
2606 Clear 23 1018 55 10000 3.6 300 12:25 18.08.2021
2607 Clear 20 1017 64 10000 3.6 320 10:50 18.08.2021
2608 Clear 18 1017 72 10000 5.14 320 07:48 18.08.2021
2609 Clear 19 1019 71 10000 8.75 330 00:45 18.08.2021
2610 Clouds 20 1018 66 10000 9.26 320 22:30 17.08.2021
2611 Clear 22 1018 57 10000 5.14 300 21:29 17.08.2021
2612 Clear 24 1018 46 10000 4.12 290 20:45 17.08.2021
2613 Clear 27 1018 41 10000 7.2 320 19:19 17.08.2021
2614 Clear 29 1018 34 10000 7.2 330 17:33 17.08.2021
2615 Clear 30 1019 31 10000 8.75 330 16:40 17.08.2021
2616 Clear 31 1019 33 10000 8.75 340 15:38 17.08.2021
2617 Clear 29 1019 40 10000 6.69 320 14:29 17.08.2021
2618 Clouds 25 1020 50 10000 7.2 320 12:35 17.08.2021
2619 Clouds 18 1019 73 10000 8.23 330 09:22 17.08.2021
2620 Clear 18 1019 71 10000 5.66 340 07:54 17.08.2021
2621 Clear 19 1019 73 10000 7.2 320 05:48 17.08.2021
2622 Clear 20 1020 68 10000 11.32 330 23:18 16.08.2021
2623 Clear 20 1019 68 10000 11.32 330 22:46 16.08.2021
2624 Clear 20 1019 68 10000 11.32 330 22:27 16.08.2021
2625 Clear 22 1019 59 10000 10.8 340 21:36 16.08.2021
2626 Clear 23 1019 52 10000 9.77 320 20:50 16.08.2021
2627 Clear 26 1019 36 10000 9.77 320 19:25 16.08.2021
2628 Clear 28 1019 36 10000 8.75 320 18:25 16.08.2021
2629 Clear 28 1019 37 10000 8.23 330 17:51 16.08.2021
2630 Clear 29 1019 40 10000 8.23 330 15:53 16.08.2021
2631 Clear 28 1019 42 10000 7.72 330 14:57 16.08.2021
2632 Clear 26 1020 47 10000 7.72 340 13:39 16.08.2021
2633 Clear 25 1020 51 10000 7.72 340 12:56 16.08.2021
2634 Clear 23 1019 52 10000 6.69 340 11:29 16.08.2021
2635 Clouds 18 1019 81 10000 6.17 340 08:54 16.08.2021
2636 Clouds 18 1018 80 10000 6.69 340 07:45 16.08.2021
2637 Clouds 18 1018 81 10000 7.2 330 07:26 16.08.2021
2638 Clear 19 1019 77 10000 5.14 310 02:45 16.08.2021
2639 Clear 21 1019 69 10000 6.69 320 23:32 15.08.2021
2640 Clear 26 1018 39 10000 9.26 320 20:51 15.08.2021
2641 Clear 28 1017 36 10000 8.23 340 18:48 15.08.2021
2642 Clear 30 1017 33 10000 8.23 350 18:20 15.08.2021
2643 Clear 30 1018 34 10000 7.72 330 17:41 15.08.2021
2644 Clear 31 1018 35 10000 4.63 320 16:28 15.08.2021
2645 Clear 30 1018 37 10000 6.17 330 15:28 15.08.2021
2646 Clear 29 1018 38 10000 4.63 320 14:30 15.08.2021
2647 Clear 25 1018 53 10000 5.14 330 11:44 15.08.2021
2648 Clear 21 1017 64 10000 4.63 340 09:41 15.08.2021
2649 Clear 20 1017 78 10000 4.12 340 06:31 15.08.2021
2650 Clear 21 1018 70 10000 7.72 320 00:43 15.08.2021
2651 Clear 22 1018 64 10000 7.2 320 23:25 14.08.2021
2652 Clear 25 1017 57 10000 7.72 330 21:20 14.08.2021
2653 Clear 29 1017 47 10000 5.14 320 19:44 14.08.2021
2654 Clear 30 1017 43 10000 5.66 330 19:24 14.08.2021
2655 Clear 34 1017 29 10000 3.09 360 17:31 14.08.2021
2656 Clear 31 1018 42 10000 4.63 340 15:58 14.08.2021
2657 Clear 29 1019 46 10000 4.12 340 14:32 14.08.2021
2658 Clear 25 1019 54 10000 4.12 330 12:33 14.08.2021
2659 Clear 23 1018 63 10000 4.12 320 10:54 14.08.2021
2660 Clear 20 1018 71 10000 4.63 310 07:49 14.08.2021
2661 Clear 24 1018 62 10000 5.14 320 23:54 13.08.2021
2662 Clear 24 1018 63 10000 6.69 330 23:18 13.08.2021
2663 Clear 26 1018 60 10000 6.17 320 21:46 13.08.2021
2664 Clear 31 1018 45 10000 5.14 320 18:53 13.08.2021
2665 Clear 31 1018 44 10000 5.14 310 18:35 13.08.2021
2666 Clear 34 1019 34 10000 3.6 330 16:34 13.08.2021
2667 Clear 32 1019 42 10000 4.12 350 15:41 13.08.2021
2668 Clouds 23 1020 71 10000 4.12 330 11:21 13.08.2021
2669 Clouds 21 1019 77 10000 4.63 330 10:37 13.08.2021
2670 Clouds 19 1019 83 10000 4.12 330 08:37 13.08.2021
2671 Clouds 18 1019 82 10000 3.6 320 07:48 13.08.2021
2672 Clear 19 1019 76 10000 6.69 310 04:59 13.08.2021
2673 Clear 21 1019 65 10000 6.69 320 23:57 12.08.2021
2674 Clear 24 1018 54 10000 6.69 330 21:34 12.08.2021
2675 Clear 27 1018 46 10000 6.69 320 20:25 12.08.2021
2676 Clear 28 1018 43 10000 5.66 320 19:49 12.08.2021
2677 Clear 29 1018 38 10000 6.17 330 17:55 12.08.2021
2678 Clear 29 1019 36 10000 6.17 340 16:50 12.08.2021
2679 Clear 29 1019 41 10000 5.66 340 15:34 12.08.2021
2680 Clear 26 1019 52 10000 4.63 350 13:39 12.08.2021
2681 Clouds 21 1019 67 10000 3.6 330 11:33 12.08.2021
2682 Clouds 19 1018 76 10000 4.12 330 08:30 12.08.2021
2683 Clouds 18 1017 79 10000 4.63 330 06:41 12.08.2021
2684 Clouds 20 1016 76 10000 8.23 310 22:59 11.08.2021
2685 Clouds 20 1016 72 10000 7.2 310 21:37 11.08.2021
2686 Clouds 25 1015 55 10000 6.69 320 18:48 11.08.2021
2687 Clouds 26 1015 55 10000 6.17 320 18:24 11.08.2021
2688 Clouds 27 1016 51 10000 5.14 310 15:21 11.08.2021
2689 Clouds 26 1016 57 10000 5.66 340 14:25 11.08.2021
2690 Clouds 23 1017 67 10000 5.66 340 12:37 11.08.2021
2691 Clouds 22 1016 71 10000 5.14 320 11:57 11.08.2021
2692 Clouds 21 1016 74 10000 6.17 330 11:39 11.08.2021
2693 Clouds 21 1016 75 10000 6.17 330 11:18 11.08.2021
2694 Clouds 19 1015 82 10000 6.17 330 08:50 11.08.2021
2695 Clouds 19 1016 78 10000 6.17 330 02:40 11.08.2021
2696 Clouds 20 1015 75 10000 7.2 310 22:33 10.08.2021
2697 Clouds 21 1015 69 10000 7.72 310 21:38 10.08.2021
2698 Clear 23 1015 62 10000 7.2 310 20:49 10.08.2021
2699 Clear 26 1015 52 10000 6.69 330 19:25 10.08.2021
2700 Clear 28 1016 43 10000 5.14 330 16:51 10.08.2021
2701 Clear 28 1016 44 10000 4.63 350 15:22 10.08.2021
2702 Clear 27 1017 47 10000 4.63 350 14:39 10.08.2021
2703 Clouds 21 1017 69 10000 4.63 330 10:47 10.08.2021
2704 Clouds 17 1016 81 10000 3.09 330 08:41 10.08.2021
2705 Clear 17 1016 80 10000 4.63 320 05:24 10.08.2021
2706 Clear 19 1016 72 10000 6.17 320 00:37 10.08.2021
2707 Clear 19 1016 73 10000 7.2 330 23:24 09.08.2021
2708 Clear 20 1015 68 10000 7.2 320 21:52 09.08.2021
2709 Clear 21 1015 63 10000 7.2 320 21:19 09.08.2021
2710 Clouds 25 1016 48 10000 5.66 330 17:57 09.08.2021
2711 Clear 26 1016 47 10000 3.6 320 15:35 09.08.2021
2712 Clear 26 1016 47 10000 3.6 320 15:35 09.08.2021
2713 Clouds 25 1016 51 10000 3.6 320 14:37 09.08.2021
2714 Clouds 23 1017 56 10000 3.6 320 13:29 09.08.2021
2715 Clouds 21 1016 64 10000 5.14 350 11:48 09.08.2021
2716 Clouds 17 1016 79 10000 4.12 330 09:27 09.08.2021
2717 Clouds 17 1016 81 10000 2.06 320 08:18 09.08.2021
2718 Clouds 20 1015 57 10000 7.2 320 21:32 08.08.2021
2719 Clear 21 1015 51 10000 8.75 330 20:36 08.08.2021
2720 Clear 25 1016 40 10000 7.2 350 17:36 08.08.2021
2721 Clear 25 1016 44 10000 5.66 340 16:38 08.08.2021
2722 Clear 24 1016 44 10000 6.69 340 14:34 08.08.2021
2723 Clouds 23 1017 53 10000 7.72 330 12:47 08.08.2021
2724 Clouds 19 1016 68 10000 6.17 330 10:36 08.08.2021
2725 Clouds 17 1016 76 10000 6.17 330 06:41 08.08.2021
2726 Clouds 18 1017 74 10000 4.63 340 00:53 08.08.2021
2727 Clouds 19 1017 72 10000 4.63 340 00:24 08.08.2021
2728 Clouds 20 1016 67 10000 6.69 330 21:47 07.08.2021
2729 Clouds 20 1016 64 10000 6.17 320 21:47 07.08.2021
2730 Clouds 21 1016 63 10000 6.17 320 21:19 07.08.2021
2731 Clouds 23 1015 50 10000 6.17 300 18:22 07.08.2021
2732 Clouds 24 1015 47 10000 6.17 330 16:52 07.08.2021
2733 Clouds 24 1015 45 10000 5.14 320 15:36 07.08.2021
2734 Clouds 23 1015 49 10000 4.12 310 13:35 07.08.2021
2735 Clouds 22 1015 64 10000 5.66 350 11:37 07.08.2021
2736 Clouds 19 1013 76 10000 2.57 330 07:52 07.08.2021
2737 Clouds 19 1012 85 10000 3.09 250 04:45 07.08.2021
2738 Clouds 20 1012 72 10000 3.6 300 22:51 06.08.2021
2739 Clear 23 1012 56 10000 3.6 300 20:36 06.08.2021
2740 Clear 23 1012 56 10000 3.6 300 20:36 06.08.2021
2741 Clouds 23 1013 56 10000 4.63 310 19:59 06.08.2021
2742 Clear 24 1013 52 10000 4.63 320 19:38 06.08.2021
2743 Clear 24 1013 52 10000 4.63 320 19:38 06.08.2021
2744 Clear 26 1013 50 10000 5.66 350 17:44 06.08.2021
2745 Clear 24 1015 53 10000 4.12 330 13:33 06.08.2021
2746 Clouds 20 1014 64 10000 6.17 340 09:57 06.08.2021
2747 Clouds 19 1014 68 10000 3.6 340 08:29 06.08.2021
2748 Clouds 21 1015 79 10000 4.12 340 00:33 06.08.2021
2749 Clouds 21 1017 79 10000 5.14 330 23:18 05.08.2021
2750 Clouds 22 1015 78 10000 6.69 340 20:48 05.08.2021
2751 Clouds 25 1015 68 10000 6.17 330 19:49 05.08.2021
2752 Clouds 27 1016 60 10000 5.66 320 18:26 05.08.2021
2753 Clouds 27 1017 53 10000 6.17 350 15:43 05.08.2021
2754 Clouds 25 1018 59 10000 5.66 340 12:48 05.08.2021
2755 Clouds 19 1017 83 10000 4.63 340 08:52 05.08.2021
2756 Clouds 18 1018 81 10000 4.63 330 07:50 05.08.2021
2757 Clouds 19 1018 83 10000 4.63 350 02:19 05.08.2021
2758 Clouds 21 1019 79 10000 10.29 330 22:21 04.08.2021
2759 Clouds 22 1018 75 10000 7.72 320 21:26 04.08.2021
2760 Clouds 25 1017 65 10000 7.2 330 19:24 04.08.2021
2761 Clouds 27 1017 57 10000 5.66 330 17:22 04.08.2021
2762 Clouds 26 1018 62 10000 5.14 340 14:45 04.08.2021
2763 Clouds 23 1018 72 10000 4.63 330 12:21 04.08.2021
2764 Clouds 20 1016 85 10000 9.26 330 06:49 04.08.2021
2765 Clouds 20 1016 69 10000 8.23 330 20:58 03.08.2021
2766 Clear 22 1016 66 10000 8.75 320 20:26 03.08.2021
2767 Clouds 25 1016 50 10000 7.2 320 18:37 03.08.2021
2768 Clear 26 1016 48 10000 7.2 330 16:58 03.08.2021
2769 Clouds 25 1018 53 10000 5.14 350 13:57 03.08.2021
2770 Clouds 20 1018 71 10000 5.66 330 10:57 03.08.2021
2771 Clouds 18 1016 81 10000 5.66 330 09:42 03.08.2021
2772 Clouds 20 1015 72 10000 5.66 340 21:55 02.08.2021
2773 Clouds 25 1014 63 10000 4.12 320 16:40 02.08.2021
2774 Clouds 25 1014 61 10000 3.6 320 15:33 02.08.2021
2775 Clouds 22 1016 73 10000 3.6 330 12:40 02.08.2021
2776 Clouds 21 1015 77 10000 2.57 310 11:57 02.08.2021
2777 Fog 20 1015 82 10000 2.57 300 10:25 02.08.2021
2778 Clouds 20 1013 90 10000 1.54 280 06:22 02.08.2021
2779 Clouds 23 1016 71 10000 5.14 300 19:21 01.08.2021
2780 Clouds 23 1018 60 10000 4.12 290 15:44 01.08.2021
2781 Clouds 21 1020 65 10000 3.09 320 11:39 01.08.2021
2782 Clouds 21 1020 65 10000 3.09 320 11:39 01.08.2021
2783 Clouds 18 1019 77 10000 4.63 330 09:50 01.08.2021
2784 Clear 17 1018 80 10000 5.14 320 03:49 01.08.2021
2785 Clear 18 1019 72 10000 7.2 320 23:37 31.07.2021
2786 Clouds 19 1018 68 10000 8.75 330 21:45 31.07.2021
2787 Clouds 22 1018 52 10000 8.23 330 17:53 31.07.2021
2788 Clouds 22 1019 51 10000 9.26 340 16:37 31.07.2021
2789 Clouds 22 1019 52 10000 8.23 340 13:31 31.07.2021
2790 Clouds 19 1018 63 10000 8.23 330 10:28 31.07.2021
2791 Clouds 18 1017 77 10000 6.69 350 02:48 31.07.2021
2792 Clouds 22 1016 62 10000 6.69 330 20:54 30.07.2021
2793 Clouds 23 1016 61 10000 7.72 340 20:22 30.07.2021
2794 Clouds 24 1017 62 10000 7.2 340 14:18 30.07.2021
2795 Clouds 24 1014 58 10000 7.72 320 18:52 29.07.2021
2796 Clouds 17 1014 78 10000 6.69 340 07:41 29.07.2021
2797 Clouds 18 1012 82 10000 7.72 310 04:51 29.07.2021
2798 Clouds 20 1012 71 10000 8.23 320 22:21 28.07.2021
2799 Clear 26 1011 49 10000 7.2 330 17:47 28.07.2021
2800 Clouds 27 1012 52 10000 5.66 310 16:54 28.07.2021
2801 Clouds 19 1012 80 10000 6.17 330 09:29 28.07.2021
2802 Clouds 19 1013 75 10000 7.2 350 23:45 27.07.2021
2803 Clouds 22 1013 66 10000 7.2 320 21:31 27.07.2021
2804 Clear 27 1014 52 10000 6.69 350 14:53 27.07.2021
2805 Clouds 25 1014 58 10000 6.17 350 12:58 27.07.2021
2806 Clouds 20 1014 75 10000 5.66 330 10:20 27.07.2021
2807 Clouds 22 1014 65 10000 8.75 310 20:43 26.07.2021
2808 Clouds 25 1014 53 10000 6.69 330 15:32 26.07.2021
2809 Clouds 19 1014 85 10000 3.09 310 08:28 26.07.2021
2810 Clouds 22 1014 75 10000 4.12 300 20:57 25.07.2021
2811 Clouds 23 1013 73 10000 4.12 300 18:45 25.07.2021
2812 Clouds 23 1014 70 10000 4.63 310 16:22 25.07.2021
2813 Clouds 21 1014 84 10000 4.12 280 10:57 25.07.2021
2814 Clouds 20 1014 86 10000 3.09 300 08:20 25.07.2021
2815 Clouds 19 1015 81 10000 2.06 310 02:34 25.07.2021
2816 Clouds 23 1014 61 10000 6.69 330 20:20 24.07.2021
2817 Clouds 24 1014 55 10000 6.17 320 15:50 24.07.2021
2818 Clouds 18 1014 83 10000 4.63 340 04:21 24.07.2021
2819 Clear 24 1016 48 10000 6.07 309 14:46 23.07.2021
2820 Clouds 23 1017 58 10000 4.63 340 12:43 23.07.2021
2821 Clouds 18 1014 82 10000 2.06 330 07:34 23.07.2021
2822 Clear 20 1014 68 10000 7.72 310 22:44 22.07.2021
2823 Clouds 25 1018 59 10000 2.57 0 13:59 22.07.2021
2824 Clouds 17 1018 83 10000 4.12 330 09:58 22.07.2021
2825 Clouds 16 1016 86 10000 4.12 320 08:23 22.07.2021
2826 Clouds 16 1016 86 10000 4.12 320 08:23 22.07.2021
2827 Clouds 16 1016 86 10000 4.12 320 08:23 22.07.2021
2828 Clouds 18 1016 78 10000 6.17 320 22:33 21.07.2021
2829 Clouds 20 1016 72 10000 6.69 310 21:30 21.07.2021
2830 Clear 25 1016 52 10000 4.12 300 15:20 21.07.2021
2831 Clouds 18 1018 77 10000 6.69 330 09:50 21.07.2021
2832 Clouds 18 1017 79 10000 6.69 330 09:18 21.07.2021
2833 Clouds 19 1018 77 10000 4.63 320 23:55 20.07.2021
2834 Clear 24 1016 58 10000 5.66 310 17:46 20.07.2021
2835 Clear 25 1015 57 10000 5.66 320 16:33 20.07.2021
2836 Clouds 24 1016 58 10000 6.17 330 15:26 20.07.2021
2837 Clouds 20 1016 69 10000 5.14 350 11:18 20.07.2021
2838 Clouds 18 1014 81 10000 3.09 340 07:19 20.07.2021
2839 Clouds 18 1014 78 10000 6.17 340 22:35 19.07.2021
2840 Clouds 22 1016 66 10000 7.72 340 15:39 19.07.2021
2841 Clouds 20 1016 74 10000 5.66 330 12:37 19.07.2021
2842 Clouds 22 1017 67 10000 5.14 330 20:44 18.07.2021
2843 Clouds 25 1017 57 10000 4.63 310 15:20 18.07.2021
2844 Clouds 19 1018 77 10000 3.6 310 10:19 18.07.2021
2845 Clouds 22 1017 68 10000 6.17 300 22:28 17.07.2021
2846 Clear 23 1017 66 10000 5.66 300 21:55 17.07.2021
2847 Clear 24 1017 58 10000 5.14 300 21:37 17.07.2021
2848 Clear 28 1017 47 10000 3.09 310 12:34 17.07.2021
2849 Clouds 23 1015 66 10000 1.54 0 10:21 17.07.2021
2850 Clear 23 1013 58 10000 3.6 320 04:47 17.07.2021
2851 Clear 30 1015 42 10000 3.09 100 14:24 16.07.2021
2852 Clear 26 1015 58 10000 2.57 0 11:42 16.07.2021
2853 Clear 21 1013 60 10000 1.03 0 06:59 16.07.2021
2854 Clear 30 1014 37 10000 7.2 240 17:53 15.07.2021
2855 Clear 29 1015 38 10000 2.06 0 13:49 15.07.2021
2856 Clear 22 1013 62 10000 3.09 340 08:44 15.07.2021
2857 Clear 23 1014 48 10000 5.14 330 00:19 15.07.2021
2858 Clear 31 1015 39 10000 4.12 60 16:48 14.07.2021
2859 Clear 24 1018 59 10000 4.12 350 11:59 14.07.2021
2860 Clouds 17 1019 75 10000 6.69 340 01:18 14.07.2021
2861 Clouds 22 1019 53 10000 9.26 330 20:21 13.07.2021
2862 Clouds 23 1019 49 10000 7.2 330 19:42 13.07.2021
2863 Clouds 23 1019 48 10000 7.2 330 19:21 13.07.2021
2864 Clouds 23 1019 48 10000 7.72 340 18:43 13.07.2021
2865 Clear 23 1019 47 10000 9.26 340 18:23 13.07.2021
2866 Clear 24 1021 48 10000 10.29 330 14:33 13.07.2021
2867 Clouds 17 1022 72 10000 8.23 340 09:38 13.07.2021
2868 Clouds 18 1022 69 10000 5.66 350 22:45 12.07.2021
2869 Clouds 22 1021 55 10000 7.2 340 17:28 12.07.2021
2870 Clouds 22 1021 51 10000 8.23 350 14:50 12.07.2021
2871 Clouds 18 1017 76 10000 6.17 350 00:31 12.07.2021
2872 Clouds 21 1015 71 10000 7.2 330 20:53 11.07.2021
2873 Clear 28 1015 48 10000 8.23 340 15:30 11.07.2021
2874 Clear 24 1011 48 10000 4.63 340 01:27 11.07.2021
2875 Clear 35 1012 33 10000 4.63 350 17:19 10.07.2021
2876 Clear 19 1014 70 10000 4.12 350 07:52 10.07.2021
2877 Clear 20 1015 55 10000 2.57 310 02:27 10.07.2021
2878 Clear 28 1015 44 10000 6.69 320 19:47 09.07.2021
2879 Clear 28 1017 47 10000 5.66 340 14:50 09.07.2021
2880 Clear 25 1018 55 10000 4.63 350 12:48 09.07.2021
2881 Clear 17 1020 73 10000 8.23 320 23:55 08.07.2021
2882 Clear 18 1020 69 10000 8.23 320 22:49 08.07.2021
2883 Clear 23 1019 55 10000 8.75 320 19:49 08.07.2021
2884 Clear 24 1020 50 10000 8.75 330 18:23 08.07.2021
2885 Clouds 24 1021 56 10000 5.14 330 13:50 08.07.2021
2886 Clouds 23 1021 57 10000 5.66 340 13:30 08.07.2021
2887 Clouds 23 1021 57 10000 5.66 340 13:30 08.07.2021
2888 Clouds 23 1022 57 10000 5.14 350 12:34 08.07.2021
2889 Clouds 20 1023 62 10000 6.17 330 11:19 08.07.2021
2890 Clouds 16 1021 81 10000 8.23 340 06:52 08.07.2021
2891 Clear 17 1022 75 10000 6.69 340 03:52 08.07.2021
2892 Clouds 18 1021 72 10000 7.72 340 22:59 07.07.2021
2893 Clouds 19 1021 69 10000 6.17 350 22:20 07.07.2021
2894 Clouds 19 1021 65 10000 7.72 350 21:45 07.07.2021
2895 Clouds 20 1021 63 10000 7.72 350 21:24 07.07.2021
2896 Clouds 22 1021 58 10000 8.75 350 19:59 07.07.2021
2897 Clouds 22 1020 55 10000 8.23 350 19:30 07.07.2021
2898 Clouds 22 1020 55 10000 8.23 350 19:30 07.07.2021
2899 Clouds 22 1020 55 10000 8.23 350 19:30 07.07.2021
2900 Clouds 22 1021 54 10000 8.75 330 18:52 07.07.2021
2901 Clouds 23 1021 52 10000 7.2 360 15:55 07.07.2021
2902 Clouds 23 1021 52 10000 7.2 350 14:58 07.07.2021
2903 Clouds 20 1020 65 10000 5.14 350 11:24 07.07.2021
2904 Clouds 17 1018 83 10000 3.09 330 07:23 07.07.2021
2905 Clouds 17 1019 80 10000 4.12 330 05:51 07.07.2021
2906 Clouds 17 1018 78 10000 1.54 330 02:55 07.07.2021
2907 Clouds 21 1017 54 10000 5.66 320 20:18 06.07.2021
2908 Clouds 21 1017 57 10000 3.6 320 18:57 06.07.2021
2909 Clouds 21 1017 58 10000 3.6 300 18:37 06.07.2021
2910 Rain 21 1017 59 10000 4.12 320 17:43 06.07.2021
2911 Clouds 22 1017 59 10000 5.14 340 13:35 06.07.2021
2912 Clouds 20 1016 79 10000 4.12 310 09:44 06.07.2021
2913 Clouds 19 1015 84 10000 3.6 300 08:36 06.07.2021
2914 Clouds 19 1015 86 10000 3.09 300 07:39 06.07.2021
2915 Clouds 20 1016 85 10000 2.57 260 01:59 06.07.2021
2916 Clouds 20 1016 80 10000 3.09 260 23:57 05.07.2021
2917 Clouds 21 1016 77 10000 4.12 300 21:58 05.07.2021
2918 Clouds 23 1016 70 10000 4.63 280 17:21 05.07.2021
2919 Clouds 22 1018 69 10000 4.63 270 13:30 05.07.2021
2920 Clouds 19 1016 83 10000 3.09 300 05:59 05.07.2021
2921 Clouds 20 1016 83 10000 3.09 300 05:40 05.07.2021
2922 Clouds 20 1019 82 10000 4.12 300 00:32 05.07.2021
2923 Clouds 22 1018 67 10000 5.66 300 21:18 04.07.2021
2924 Clear 25 1018 53 10000 4.12 300 17:35 04.07.2021
2925 Clouds 24 1019 56 10000 3.09 290 15:22 04.07.2021
2926 Clouds 21 1021 68 10000 3.09 320 11:26 04.07.2021
2927 Clouds 18 1019 83 10000 2.06 300 07:34 04.07.2021
2928 Clouds 19 1018 79 10000 4.12 320 23:27 03.07.2021
2929 Clouds 22 1018 67 10000 4.12 300 21:40 03.07.2021
2930 Clouds 22 1019 85 10000 4.12 240 12:51 03.07.2021
2931 Clouds 21 1019 87 10000 3.6 230 11:57 03.07.2021
2932 Drizzle 20 1018 93 10000 3.09 250 09:28 03.07.2021
2933 Drizzle 20 1018 91 2500 2.06 260 08:45 03.07.2021
2934 Clouds 20 1018 81 10000 3.6 290 23:48 02.07.2021
2935 Clear 21 1018 62 10000 3.09 330 10:33 02.07.2021
2936 Clear 16 1016 71 10000 2.57 310 07:29 02.07.2021
2937 Clear 17 1018 73 10000 4.12 330 03:23 02.07.2021
2938 Clouds 18 1017 74 10000 6.69 310 22:32 01.07.2021
2939 Clear 21 1016 63 10000 4.12 300 21:37 01.07.2021
2940 Clear 24 1016 55 10000 4.63 300 20:22 01.07.2021
2941 Clear 25 1016 51 10000 4.12 300 19:21 01.07.2021
2942 Clear 25 1016 48 10000 5.14 310 18:48 01.07.2021
2943 Clear 26 1016 44 10000 4.12 330 17:48 01.07.2021
2944 Clear 25 1016 47 10000 4.12 320 16:43 01.07.2021
2945 Clear 25 1018 48 10000 1.54 0 15:24 01.07.2021
2946 Clear 24 1018 51 10000 2.57 130 14:21 01.07.2021
2947 Clear 19 1018 69 10000 4.63 330 10:55 01.07.2021
2948 Clouds 15 1016 80 10000 5.14 310 05:32 01.07.2021
2949 Clouds 16 1016 78 10000 6.17 330 23:19 30.06.2021
2950 Clouds 17 1016 74 10000 5.14 330 21:59 30.06.2021
2951 Clouds 19 1016 70 10000 6.17 320 21:21 30.06.2021
2952 Clouds 21 1015 64 10000 5.14 310 20:26 30.06.2021
2953 Clouds 24 1016 54 10000 4.12 310 17:21 30.06.2021
2954 Clouds 22 1017 61 10000 5.14 320 14:25 30.06.2021
2955 Clouds 22 1017 61 10000 5.14 320 14:25 30.06.2021
2956 Clouds 21 1017 62 10000 5.14 320 12:59 30.06.2021
2957 Clouds 15 1016 100 10000 5.66 340 07:57 30.06.2021
2958 Clouds 18 1018 67 10000 8.23 330 21:29 29.06.2021
2959 Clouds 21 1018 54 10000 6.69 320 18:36 29.06.2021
2960 Clouds 21 1018 54 10000 6.69 320 18:36 29.06.2021
2961 Clouds 21 1018 53 10000 7.72 330 17:30 29.06.2021
2962 Clear 22 1018 52 10000 7.2 330 15:52 29.06.2021
2963 Clouds 22 1019 49 10000 6.69 340 14:58 29.06.2021
2964 Clear 22 1019 49 10000 6.69 360 13:30 29.06.2021
2965 Clouds 20 1019 55 10000 7.2 340 12:19 29.06.2021
2966 Clouds 17 1022 73 10000 5.14 350 00:41 29.06.2021
2967 Clouds 18 1019 70 10000 7.72 340 21:47 28.06.2021
2968 Clouds 20 1019 57 10000 9.77 330 19:40 28.06.2021
2969 Clouds 22 1020 52 10000 7.72 350 17:29 28.06.2021
2970 Clouds 22 1020 53 10000 8.75 360 15:22 28.06.2021
2971 Clouds 20 1020 57 10000 8.75 350 12:58 28.06.2021
2972 Clouds 15 1019 79 10000 6.17 340 07:50 28.06.2021
2973 Clouds 16 1019 68 10000 4.12 340 23:45 27.06.2021
2974 Clouds 18 1018 66 10000 6.69 330 21:33 27.06.2021
2975 Clouds 21 1017 57 10000 5.66 350 19:40 27.06.2021
2976 Clouds 22 1018 60 10000 6.17 320 16:51 27.06.2021
2977 Clouds 21 1017 66 10000 4.63 330 13:31 27.06.2021
2978 Clouds 16 1015 79 10000 5.66 340 07:38 27.06.2021
2979 Clouds 18 1016 72 10000 4.12 320 22:58 26.06.2021
2980 Clouds 20 1015 68 10000 5.14 300 21:19 26.06.2021
2981 Clouds 21 1015 63 10000 5.14 300 20:40 26.06.2021
2982 Clouds 22 1015 59 10000 5.14 300 19:25 26.06.2021
2983 Clear 24 1015 54 10000 4.63 260 15:29 26.06.2021
2984 Clear 23 1017 59 10000 3.09 330 12:29 26.06.2021
2985 Clouds 18 1017 78 10000 2.57 320 09:29 26.06.2021
2986 Clear 17 1015 80 10000 2.57 270 05:41 26.06.2021
2987 Clear 25 1014 54 10000 6.69 310 21:21 25.06.2021
2988 Clear 28 1014 46 10000 5.66 310 19:44 25.06.2021
2989 Clear 30 1014 39 10000 5.14 320 17:53 25.06.2021
2990 Clear 29 1015 41 10000 3.6 270 16:51 25.06.2021
2991 Clear 29 1015 41 10000 2.06 0 14:59 25.06.2021
2992 Clear 28 1015 39 10000 3.09 110 13:18 25.06.2021
2993 Clear 22 1016 54 10000 1.03 0 09:35 25.06.2021
2994 Clear 20 1014 60 10000 3.09 320 07:21 25.06.2021
2995 Clear 21 1015 53 10000 2.06 330 03:55 25.06.2021
2996 Clear 25 1015 45 10000 5.66 330 22:48 24.06.2021
2997 Clear 25 1015 45 10000 5.66 330 22:48 24.06.2021
2998 Clear 27 1015 45 10000 6.17 330 21:47 24.06.2021
2999 Clear 29 1015 40 10000 4.63 300 20:41 24.06.2021
3000 Clear 30 1015 37 10000 4.12 290 18:51 24.06.2021
3001 Clear 29 1016 32 10000 2.57 0 16:37 24.06.2021
3002 Clear 28 1016 35 10000 3.09 110 15:22 24.06.2021
3003 Clear 28 1016 37 10000 2.57 0 14:49 24.06.2021
3004 Clear 25 1018 44 10000 4.63 60 12:25 24.06.2021
3005 Clouds 18 1017 71 10000 3.6 330 09:36 24.06.2021
3006 Clouds 16 1016 79 10000 4.12 320 08:24 24.06.2021
3007 Clear 16 1015 77 10000 5.14 310 05:41 24.06.2021
3008 Clear 17 1017 68 10000 5.14 320 23:28 23.06.2021
3009 Clear 19 1016 63 10000 6.17 330 21:46 23.06.2021
3010 Clouds 21 1017 55 10000 6.69 330 20:55 23.06.2021
3011 Clouds 23 1016 53 10000 6.69 310 18:40 23.06.2021
3012 Clouds 24 1016 50 10000 5.14 310 17:40 23.06.2021
3013 Clouds 24 1016 50 10000 5.66 330 16:51 23.06.2021
3014 Clear 24 1018 51 10000 3.6 320 14:30 23.06.2021
3015 Clouds 22 1019 57 10000 3.6 330 12:26 23.06.2021
3016 Clouds 19 1019 67 10000 5.14 320 10:39 23.06.2021
3017 Clouds 16 1018 76 10000 5.66 320 08:52 23.06.2021
3018 Clouds 16 1018 78 10000 6.69 320 08:27 23.06.2021
3019 Clouds 16 1016 81 10000 7.2 330 07:48 23.06.2021
3020 Clear 16 1017 80 10000 6.17 320 04:34 23.06.2021
3021 Clouds 17 1020 76 10000 4.12 310 00:47 23.06.2021
3022 Clouds 17 1018 79 10000 2.06 0 23:58 22.06.2021
3023 Clouds 17 1018 76 10000 9.26 340 22:47 22.06.2021
3024 Clouds 17 1017 74 10000 10.29 340 22:29 22.06.2021
3025 Clouds 18 1017 71 10000 9.26 350 21:39 22.06.2021
3026 Clouds 20 1016 67 10000 9.26 330 19:57 22.06.2021
3027 Clouds 21 1016 64 10000 9.77 340 18:57 22.06.2021
3028 Clouds 21 1016 65 10000 10.29 330 18:26 22.06.2021
3029 Clouds 21 1017 64 10000 9.26 340 17:22 22.06.2021
3030 Clouds 22 1017 62 10000 9.26 340 16:38 22.06.2021
3031 Clouds 21 1018 59 10000 7.72 340 14:44 22.06.2021
3032 Clouds 21 1018 58 10000 7.72 340 14:21 22.06.2021
3033 Clouds 21 1018 59 10000 7.72 330 12:59 22.06.2021
3034 Clouds 20 1017 66 10000 6.69 360 11:51 22.06.2021
3035 Clouds 18 1017 72 10000 7.2 350 10:31 22.06.2021
3036 Clouds 17 1018 79 10000 5.66 340 07:56 22.06.2021
3037 Clouds 17 1018 79 10000 4.63 320 00:50 22.06.2021
3038 Clouds 17 1018 78 10000 5.14 320 23:29 21.06.2021
3039 Clouds 17 1017 74 10000 5.66 320 22:29 21.06.2021
3040 Clouds 19 1016 71 10000 4.63 290 21:28 21.06.2021
3041 Clouds 19 1016 69 10000 4.63 300 20:46 21.06.2021
3042 Clouds 20 1016 65 10000 5.14 310 19:55 21.06.2021
3043 Clouds 20 1016 67 10000 4.63 300 18:57 21.06.2021
3044 Clouds 20 1015 67 10000 4.63 300 17:36 21.06.2021
3045 Clouds 20 1015 67 10000 5.66 290 16:46 21.06.2021
3046 Clouds 20 1015 67 10000 4.63 300 16:25 21.06.2021
3047 Clouds 20 1015 69 10000 4.12 300 15:45 21.06.2021
3048 Clouds 20 1016 68 10000 3.6 300 14:18 21.06.2021
3049 Clouds 20 1015 64 10000 4.12 310 13:34 21.06.2021
3050 Clouds 20 1015 64 10000 4.12 310 12:36 21.06.2021
3051 Clouds 20 1015 65 10000 4.12 300 11:52 21.06.2021
3052 Clouds 18 1015 76 10000 3.6 260 10:31 21.06.2021
3053 Clouds 18 1014 79 10000 4.12 270 09:29 21.06.2021
3054 Clouds 17 1014 80 10000 3.09 290 08:22 21.06.2021
3055 Clouds 17 1014 80 10000 3.6 260 07:20 21.06.2021
3056 Clouds 18 1015 74 10000 2.57 270 00:43 21.06.2021
3057 Clouds 18 1015 74 10000 4.12 260 23:35 20.06.2021
3058 Clouds 18 1014 72 10000 4.12 280 22:58 20.06.2021
3059 Clouds 18 1014 71 10000 4.12 270 22:18 20.06.2021
3060 Clouds 19 1014 68 10000 4.63 290 21:28 20.06.2021
3061 Clouds 20 1014 64 10000 6.17 280 19:47 20.06.2021
3062 Clouds 20 1013 67 10000 5.14 240 19:24 20.06.2021
3063 Clouds 21 1014 62 10000 6.17 270 18:21 20.06.2021
3064 Clouds 21 1012 59 10000 4.63 290 16:52 20.06.2021
3065 Clouds 21 1012 59 10000 4.12 290 15:55 20.06.2021
3066 Clouds 21 1012 58 10000 5.14 290 15:33 20.06.2021
3067 Clouds 21 1012 60 10000 5.66 310 14:48 20.06.2021
3068 Clouds 21 1012 61 10000 5.14 290 13:51 20.06.2021
3069 Clouds 20 1012 71 10000 5.14 290 12:58 20.06.2021
3070 Clouds 19 1012 76 10000 3.09 280 11:46 20.06.2021
3071 Clouds 18 1014 84 10000 4.63 300 10:46 20.06.2021
3072 Drizzle 17 1011 91 2500 5.14 250 09:47 20.06.2021
3073 Mist 17 1010 91 1200 7.2 220 07:47 20.06.2021
3074 Clouds 16 1016 74 10000 3.6 250 00:31 20.06.2021
3075 Clear 16 1015 73 10000 4.12 250 23:20 19.06.2021
3076 Clouds 17 1015 68 10000 3.6 280 21:59 19.06.2021
3077 Clouds 17 1016 68 10000 3.6 290 21:39 19.06.2021
3078 Clouds 19 1015 65 10000 6.17 320 18:56 19.06.2021
3079 Clouds 19 1015 65 10000 5.14 300 18:25 19.06.2021
3080 Clouds 20 1015 65 10000 6.17 310 17:27 19.06.2021
3081 Clouds 20 1015 62 10000 4.63 290 16:51 19.06.2021
3082 Clouds 20 1015 62 10000 5.66 300 15:42 19.06.2021
3083 Clouds 19 1016 69 10000 5.66 320 13:36 19.06.2021
3084 Clouds 18 1015 74 10000 5.66 330 12:40 19.06.2021
3085 Drizzle 17 1015 83 10000 3.6 320 10:49 19.06.2021
3086 Drizzle 17 1015 83 10000 3.6 320 10:49 19.06.2021
3087 Drizzle 17 1015 83 10000 3.6 320 10:49 19.06.2021
3088 Drizzle 17 1015 83 10000 3.6 320 10:49 19.06.2021
3089 Drizzle 17 1015 83 10000 3.6 320 10:49 19.06.2021
3090 Drizzle 17 1015 83 10000 3.6 320 10:49 19.06.2021
3091 Drizzle 17 1015 83 10000 3.6 320 10:49 19.06.2021
3092 Clouds 16 1015 85 8000 3.09 310 10:27 19.06.2021
3093 Clouds 16 1017 83 7000 3.09 310 09:59 19.06.2021
3094 Clouds 16 1017 84 7000 2.57 310 08:32 19.06.2021
3095 Drizzle 16 1016 84 10000 4.12 300 07:37 19.06.2021
3096 Drizzle 16 1016 79 10000 4.63 290 04:27 19.06.2021
3097 Mist 16 1014 83 10000 4.63 320 00:24 19.06.2021
3098 Clouds 16 1014 83 10000 4.63 310 23:58 18.06.2021
3099 Clouds 16 1013 83 10000 5.66 300 22:57 18.06.2021
3100 Clouds 16 1013 83 10000 4.63 310 22:36 18.06.2021
3101 Clouds 16 1012 83 10000 5.14 300 21:52 18.06.2021
3102 Clouds 16 1012 82 10000 5.66 310 21:27 18.06.2021
3103 Clouds 17 1011 81 10000 5.66 290 20:33 18.06.2021
3104 Clouds 19 1010 75 10000 5.14 290 18:50 18.06.2021
3105 Clouds 19 1011 74 10000 4.12 290 17:59 18.06.2021
3106 Clouds 20 1010 66 10000 3.6 220 16:48 18.06.2021
3107 Clouds 20 1011 67 10000 4.12 200 15:49 18.06.2021
3108 Clouds 20 1011 68 10000 4.12 210 14:51 18.06.2021
3109 Clouds 18 1011 74 10000 2.06 120 13:56 18.06.2021
3110 Clouds 18 1011 75 10000 3.6 250 13:23 18.06.2021
3111 Clouds 18 1014 73 10000 3.09 250 12:43 18.06.2021
3112 Clouds 17 1011 80 10000 2.57 330 11:48 18.06.2021
3113 Clouds 17 1011 78 10000 3.6 270 11:19 18.06.2021
3114 Clouds 17 1011 78 10000 3.6 320 10:42 18.06.2021
3115 Clouds 17 1011 79 10000 3.6 320 10:19 18.06.2021
3116 Clouds 16 1011 81 10000 2.57 0 09:23 18.06.2021
3117 Clouds 15 1013 88 10000 3.09 300 08:38 18.06.2021
3118 Clouds 16 1010 83 10000 3.09 310 07:43 18.06.2021
3119 Clouds 16 1009 82 10000 3.6 300 06:30 18.06.2021
3120 Clouds 16 1009 82 10000 3.6 300 06:30 18.06.2021
3121 Rain 16 1012 80 10000 6.17 340 00:40 18.06.2021
3122 Clouds 16 1012 81 10000 6.17 330 23:33 17.06.2021
3123 Drizzle 16 1012 82 10000 6.17 330 22:41 17.06.2021
3124 Drizzle 17 1012 82 10000 6.17 330 22:22 17.06.2021
3125 Clouds 17 1011 81 10000 7.2 330 21:37 17.06.2021
3126 Clouds 18 1011 77 10000 5.66 330 20:48 17.06.2021
3127 Clouds 18 1011 77 10000 5.66 330 20:23 17.06.2021
3128 Clouds 18 1011 76 10000 4.63 310 19:45 17.06.2021
3129 Clouds 19 1010 77 10000 6.69 340 18:24 17.06.2021
3130 Clouds 19 1010 76 10000 5.14 320 17:41 17.06.2021
3131 Clouds 19 1012 73 10000 5.14 320 17:18 17.06.2021
3132 Clouds 20 1010 74 10000 6.17 330 16:24 17.06.2021
3133 Clouds 20 1010 78 10000 3.6 320 14:58 17.06.2021
3134 Clouds 19 1010 76 10000 5.14 320 13:59 17.06.2021
3135 Drizzle 19 1009 82 9000 4.63 340 12:41 17.06.2021
3136 Drizzle 19 1009 81 9000 4.63 340 12:22 17.06.2021
3137 Drizzle 18 1010 86 6000 2.06 340 10:54 17.06.2021
3138 Drizzle 18 1009 85 6000 1.54 310 10:30 17.06.2021
3139 Drizzle 18 1009 85 6000 1.54 310 10:30 17.06.2021
3140 Rain 18 1009 86 7000 2.06 310 09:50 17.06.2021
3141 Rain 18 1009 87 7000 1.54 340 09:22 17.06.2021
3142 Clouds 18 1008 86 7000 1.54 90 07:59 17.06.2021
3143 Clouds 18 1008 85 10000 2.06 30 06:49 17.06.2021
3144 Clouds 18 1008 83 10000 1.54 230 03:45 17.06.2021
3145 Clouds 19 1010 81 10000 3.09 250 23:50 16.06.2021
3146 Clouds 19 1010 80 10000 3.09 240 23:27 16.06.2021
3147 Clouds 19 1009 77 10000 2.06 240 22:36 16.06.2021
3148 Clouds 20 1009 74 10000 3.09 230 21:47 16.06.2021
3149 Clouds 20 1009 73 10000 4.12 240 21:22 16.06.2021
3150 Clouds 20 1011 60 10000 4.63 220 20:45 16.06.2021
3151 Clouds 21 1009 68 10000 4.12 210 20:19 16.06.2021
3152 Clouds 22 1009 66 10000 5.14 220 19:43 16.06.2021
3153 Clouds 23 1009 65 10000 5.66 220 18:58 16.06.2021
3154 Clouds 23 1009 64 10000 4.63 240 18:32 16.06.2021
3155 Clouds 23 1009 63 10000 4.12 230 17:53 16.06.2021
3156 Clouds 23 1009 63 10000 4.12 230 17:53 16.06.2021
3157 Clouds 23 1009 63 10000 4.63 240 17:26 16.06.2021
3158 Clouds 22 1010 66 10000 5.14 210 16:44 16.06.2021
3159 Clouds 22 1010 66 10000 5.14 210 16:44 16.06.2021
3160 Clouds 22 1010 66 10000 5.14 210 16:44 16.06.2021
3161 Clouds 22 1010 66 10000 5.14 210 16:44 16.06.2021
3162 Clouds 22 1009 66 10000 5.14 210 16:21 16.06.2021
3163 Clouds 22 1010 69 10000 4.63 220 15:39 16.06.2021
3164 Clouds 22 1012 65 10000 4.12 230 14:51 16.06.2021
3165 Clouds 21 1012 60 10000 3.6 190 14:33 16.06.2021
3166 Clouds 21 1010 69 10000 4.12 170 13:57 16.06.2021
3167 Clouds 21 1010 70 10000 4.63 180 13:39 16.06.2021
3168 Clouds 21 1010 70 10000 4.63 180 13:20 16.06.2021
3169 Clouds 21 1010 70 10000 4.63 180 13:20 16.06.2021
3170 Clouds 21 1010 74 10000 4.12 170 12:33 16.06.2021
3171 Clouds 20 1010 79 10000 4.12 180 11:51 16.06.2021
3172 Clouds 19 1010 81 10000 3.6 160 11:18 16.06.2021
3173 Mist 18 1010 85 8000 3.09 170 10:40 16.06.2021
3174 Mist 18 1010 87 5000 3.09 150 09:43 16.06.2021
3175 Drizzle 17 1010 88 5000 1.54 180 08:44 16.06.2021
3176 Drizzle 17 1009 86 9000 2.57 200 07:49 16.06.2021
3177 Clouds 17 1009 86 10000 2.06 230 07:28 16.06.2021
3178 Clouds 18 1010 87 7000 6.17 210 02:49 16.06.2021
3179 Clouds 19 1012 78 10000 4.12 230 23:51 15.06.2021
3180 Clear 19 1010 79 10000 3.6 240 23:24 15.06.2021
3181 Clear 20 1010 75 10000 2.57 210 22:56 15.06.2021
3182 Clear 20 1010 75 10000 2.57 210 22:56 15.06.2021
3183 Clouds 20 1010 74 10000 0.51 0 22:37 15.06.2021
3184 Clouds 21 1010 70 10000 2.06 310 21:42 15.06.2021
3185 Clouds 23 1011 57 10000 4.12 310 20:48 15.06.2021
3186 Clouds 24 1009 60 10000 5.66 240 19:38 15.06.2021
3187 Clouds 26 1010 56 10000 4.63 230 18:32 15.06.2021
3188 Clear 26 1011 55 10000 5.14 230 16:54 15.06.2021
3189 Clear 27 1011 57 10000 5.14 230 16:25 15.06.2021
3190 Clear 27 1011 55 10000 2.57 90 15:39 15.06.2021
3191 Clear 27 1012 56 10000 2.57 100 14:46 15.06.2021
3192 Clear 27 1012 55 10000 3.6 120 13:45 15.06.2021
3193 Clear 27 1012 55 10000 2.06 230 13:21 15.06.2021
3194 Clear 26 1013 58 10000 2.06 0 12:45 15.06.2021
3195 Clear 25 1013 66 10000 2.06 80 11:51 15.06.2021
3196 Clear 24 1013 68 10000 1.54 0 11:19 15.06.2021
3197 Clear 23 1013 70 10000 2.57 10 10:53 15.06.2021
3198 Clear 21 1013 78 10000 2.57 10 10:34 15.06.2021
3199 Clouds 19 1015 79 10000 4.63 320 09:40 15.06.2021
3200 Fog 17 1013 84 10000 2.57 310 08:29 15.06.2021
3201 Fog 17 1012 82 10000 0 0 07:46 15.06.2021
3202 Clear 17 1012 82 10000 1.03 0 06:38 15.06.2021
3203 Clear 18 1013 80 10000 4.63 310 04:36 15.06.2021
3204 Clear 19 1015 76 10000 3.09 340 00:49 15.06.2021
3205 Clouds 20 1015 75 10000 4.63 320 00:25 15.06.2021
3206 Clouds 20 1015 77 10000 5.14 320 23:28 14.06.2021
3207 Clouds 20 1014 75 10000 6.17 310 22:43 14.06.2021
3208 Clouds 21 1015 70 10000 6.69 310 22:21 14.06.2021
3209 Clear 22 1014 66 10000 6.17 320 21:48 14.06.2021
3210 Clear 23 1015 63 10000 6.17 310 21:25 14.06.2021
3211 Clear 23 1014 61 10000 6.17 310 20:55 14.06.2021
3212 Clear 24 1014 62 10000 6.17 310 20:26 14.06.2021
3213 Clear 25 1015 63 10000 5.14 300 19:40 14.06.2021
3214 Clear 25 1015 62 10000 5.14 300 19:19 14.06.2021
3215 Clouds 26 1015 61 10000 5.14 300 18:43 14.06.2021
3216 Clouds 26 1015 60 10000 4.12 310 18:19 14.06.2021
3217 Clouds 27 1016 56 10000 3.6 180 17:30 14.06.2021
3218 Clouds 27 1016 56 10000 3.6 180 17:30 14.06.2021
3219 Clouds 27 1016 56 10000 3.6 170 16:36 14.06.2021
3220 Clouds 26 1017 57 10000 3.09 0 15:50 14.06.2021
3221 Clouds 26 1017 58 10000 3.6 170 15:31 14.06.2021
3222 Clouds 25 1017 59 10000 4.12 150 14:51 14.06.2021
3223 Clouds 26 1017 60 10000 2.57 0 13:44 14.06.2021
3224 Clouds 25 1017 62 10000 2.57 0 12:55 14.06.2021
3225 Clouds 25 1017 63 10000 2.06 100 12:37 14.06.2021
3226 Clear 24 1019 64 10000 1.03 0 11:51 14.06.2021
3227 Clear 21 1020 72 10000 2.06 150 10:57 14.06.2021
3228 Clear 20 1017 78 10000 0.51 0 09:46 14.06.2021
3229 Clear 19 1017 80 10000 2.06 330 09:25 14.06.2021
3230 Clear 17 1019 94 10000 3.6 310 08:42 14.06.2021
3231 Clouds 17 1016 85 10000 3.6 320 07:52 14.06.2021
3232 Clear 17 1016 85 10000 4.12 310 06:44 14.06.2021
3233 Clear 18 1016 79 10000 0.51 0 04:55 14.06.2021
3234 Clear 20 1017 71 10000 3.09 310 00:53 14.06.2021
3235 Clear 20 1017 72 10000 3.09 310 23:55 13.06.2021
3236 Clouds 21 1017 72 10000 3.6 330 23:23 13.06.2021
3237 Clouds 21 1017 69 10000 3.6 330 22:40 13.06.2021
3238 Clouds 21 1017 69 10000 3.6 330 22:19 13.06.2021
3239 Clear 22 1016 67 10000 4.12 330 21:48 13.06.2021
3240 Clear 22 1016 65 10000 4.12 320 21:30 13.06.2021
3241 Clear 22 1016 65 10000 4.12 320 21:30 13.06.2021
3242 Clear 22 1016 65 10000 4.12 320 21:30 13.06.2021
3243 Clear 22 1016 65 10000 4.12 320 21:30 13.06.2021
3244 Clouds 23 1016 63 10000 3.6 280 20:46 13.06.2021
3245 Clouds 23 1016 63 10000 4.63 260 20:28 13.06.2021
3246 Clouds 23 1016 64 10000 4.12 290 19:44 13.06.2021
3247 Clouds 24 1016 63 10000 4.12 300 19:25 13.06.2021
3248 Clouds 24 1016 62 10000 3.09 280 18:44 13.06.2021
3249 Clouds 24 1015 62 10000 4.12 270 18:20 13.06.2021
3250 Clouds 24 1016 62 10000 6.17 220 17:25 13.06.2021
3251 Clouds 24 1016 62 10000 4.63 230 16:34 13.06.2021
3252 Clouds 24 1016 65 10000 4.63 240 15:36 13.06.2021
3253 Clouds 24 1017 63 10000 3.6 230 14:41 13.06.2021
3254 Clouds 24 1017 64 10000 3.6 220 13:51 13.06.2021
3255 Clouds 24 1017 64 10000 3.09 0 13:24 13.06.2021
3256 Clouds 24 1016 68 10000 3.09 0 12:51 13.06.2021
3257 Clouds 22 1016 69 10000 2.57 0 12:28 13.06.2021
3258 Clouds 22 1017 74 10000 5.14 180 11:41 13.06.2021
3259 Fog 21 1017 79 10000 4.12 190 10:48 13.06.2021
3260 Fog 21 1017 79 10000 4.12 190 10:48 13.06.2021
3261 Mist 19 1017 84 10000 3.09 170 10:21 13.06.2021
3262 Fog 18 1016 88 10000 1.54 150 09:46 13.06.2021
3263 Fog 18 1016 86 10000 1.03 0 09:25 13.06.2021
3264 Clear 17 1018 94 10000 1.54 100 08:49 13.06.2021
3265 Clouds 17 1016 86 10000 1.54 70 08:29 13.06.2021
3266 Clouds 17 1015 86 10000 2.06 20 07:26 13.06.2021
3267 Clouds 19 1013 77 10000 1.54 250 03:31 13.06.2021
3268 Clouds 20 1014 72 10000 4.12 330 23:31 12.06.2021
3269 Clouds 21 1014 72 10000 3.09 320 22:49 12.06.2021
3270 Clouds 21 1014 71 10000 3.09 310 22:22 12.06.2021
3271 Clouds 22 1013 70 10000 3.6 250 21:43 12.06.2021
3272 Clouds 22 1014 71 10000 4.63 240 20:48 12.06.2021
3273 Clouds 22 1014 69 10000 6.17 250 20:20 12.06.2021
3274 Clouds 22 1013 70 10000 7.2 250 19:47 12.06.2021
3275 Clouds 22 1016 72 10000 8.75 210 18:44 12.06.2021
3276 Clouds 26 1015 59 10000 3.09 0 18:00 12.06.2021
3277 Clouds 24 1015 62 10000 2.06 130 17:31 12.06.2021
3278 Clouds 26 1013 57 10000 2.06 0 16:45 12.06.2021
3279 Clouds 27 1014 54 10000 3.09 90 15:39 12.06.2021
3280 Clouds 26 1014 56 10000 2.06 130 14:50 12.06.2021
3281 Clouds 25 1014 59 10000 2.57 120 14:30 12.06.2021
3282 Clouds 25 1014 61 10000 3.09 110 13:26 12.06.2021
3283 Clouds 23 1013 68 10000 3.6 90 12:39 12.06.2021
3284 Clouds 23 1014 70 10000 3.6 90 12:21 12.06.2021
3285 Clouds 22 1014 76 10000 3.09 50 11:31 12.06.2021
3286 Mist 21 1013 74 3000 3.09 70 10:42 12.06.2021
3287 Mist 19 1013 81 5000 3.6 60 10:24 12.06.2021
3288 Fog 18 1015 85 6000 3.09 20 09:40 12.06.2021
3289 Fog 16 1012 87 10000 1.54 0 08:25 12.06.2021
3290 Clouds 16 1011 85 10000 2.06 300 06:52 12.06.2021
3291 Clouds 17 1011 84 10000 3.6 310 03:57 12.06.2021
3292 Clouds 18 1012 82 10000 5.66 310 23:37 11.06.2021
3293 Clouds 18 1012 79 10000 4.63 320 22:25 11.06.2021
3294 Clouds 19 1011 80 10000 4.12 320 21:49 11.06.2021
3295 Clouds 19 1011 78 10000 5.14 310 21:30 11.06.2021
3296 Clouds 20 1011 74 10000 4.63 310 20:50 11.06.2021
3297 Clear 22 1011 69 10000 4.63 310 19:59 11.06.2021
3298 Clear 23 1011 65 10000 4.63 310 18:54 11.06.2021
3299 Clear 23 1012 65 10000 4.12 290 18:32 11.06.2021
3300 Clouds 23 1012 63 10000 4.63 320 17:35 11.06.2021
3301 Clouds 24 1014 62 10000 3.6 300 16:32 11.06.2021
3302 Clouds 23 1013 65 10000 5.14 330 15:24 11.06.2021
3303 Clouds 23 1013 65 10000 4.63 330 14:32 11.06.2021
3304 Clouds 22 1013 67 10000 4.63 330 13:33 11.06.2021
3305 Clouds 20 1013 73 10000 4.63 330 12:27 11.06.2021
3306 Clouds 19 1013 77 10000 2.57 310 11:37 11.06.2021
3307 Clouds 18 1016 80 10000 3.6 320 10:57 11.06.2021
3308 Clouds 17 1015 80 10000 3.6 310 09:33 11.06.2021
3309 Clouds 16 1015 88 10000 3.09 300 08:47 11.06.2021
3310 Clouds 16 1015 82 10000 4.12 330 07:39 11.06.2021
3311 Clouds 17 1016 80 10000 8.23 310 04:27 11.06.2021
3312 Clouds 17 1013 79 10000 8.23 320 23:43 10.06.2021
3313 Clouds 18 1014 77 10000 7.72 330 22:42 10.06.2021
3314 Clear 19 1014 71 10000 8.75 330 21:58 10.06.2021
3315 Clear 20 1014 64 10000 6.69 320 21:22 10.06.2021
3316 Clear 21 1014 63 10000 7.2 310 20:48 10.06.2021
3317 Clear 23 1014 57 10000 7.72 320 19:42 10.06.2021
3318 Clear 24 1014 55 10000 8.23 320 19:18 10.06.2021
3319 Clear 24 1015 52 10000 7.72 320 18:29 10.06.2021
3320 Clear 25 1015 49 10000 8.75 330 17:46 10.06.2021
3321 Clear 26 1017 45 10000 7.2 320 16:54 10.06.2021
3322 Clear 26 1017 47 10000 6.69 320 16:32 10.06.2021
3323 Clear 27 1017 46 10000 5.14 320 15:20 10.06.2021
3324 Clouds 25 1016 60 10000 6.69 340 13:23 10.06.2021
3325 Clouds 22 1016 68 10000 5.66 320 12:26 10.06.2021
3326 Clouds 21 1018 68 10000 3.6 310 11:26 10.06.2021
3327 Clouds 20 1016 75 10000 4.12 320 10:28 10.06.2021
3328 Clear 17 1014 77 10000 6.69 310 06:30 10.06.2021
3329 Clear 19 1018 65 10000 7.2 340 00:25 10.06.2021
3330 Clear 20 1018 64 10000 4.12 340 23:43 09.06.2021
3331 Clear 21 1017 60 10000 8.23 330 22:28 09.06.2021
3332 Clear 22 1017 54 10000 6.69 320 21:43 09.06.2021
3333 Clear 23 1017 54 10000 6.69 320 21:23 09.06.2021
3334 Clear 24 1017 50 10000 6.17 310 20:35 09.06.2021
3335 Clear 25 1017 46 10000 6.69 320 19:48 09.06.2021
3336 Clear 26 1017 44 10000 7.72 330 18:47 09.06.2021
3337 Clear 29 1018 39 10000 5.66 340 15:58 09.06.2021
3338 Clear 29 1018 40 10000 4.63 350 15:32 09.06.2021
3339 Clear 27 1019 41 10000 6.17 330 14:34 09.06.2021
3340 Clear 27 1019 41 10000 5.66 350 13:33 09.06.2021
3341 Clear 26 1019 42 10000 5.66 350 12:54 09.06.2021
3342 Clear 25 1019 43 10000 7.72 350 12:34 09.06.2021
3343 Clear 22 1020 49 10000 6.17 330 10:49 09.06.2021
3344 Clear 22 1020 49 10000 6.17 330 10:49 09.06.2021
3345 Clear 18 1018 66 10000 8.23 330 08:57 09.06.2021
3346 Clear 17 1017 70 10000 5.14 330 08:31 09.06.2021
3347 Clear 17 1017 67 10000 7.2 330 06:38 09.06.2021
3348 Clear 18 1018 57 10000 6.69 350 00:19 09.06.2021
3349 Clear 18 1017 61 10000 6.69 330 22:54 08.06.2021
3350 Clear 18 1017 61 10000 8.23 330 22:29 08.06.2021
3351 Clear 23 1017 45 10000 7.72 330 20:54 08.06.2021
3352 Clear 25 1017 38 10000 6.69 320 19:28 08.06.2021
3353 Clear 26 1017 38 10000 7.72 330 17:51 08.06.2021
3354 Clear 26 1018 38 10000 7.72 330 16:53 08.06.2021
3355 Clear 26 1018 43 10000 6.17 340 15:27 08.06.2021
3356 Clear 26 1018 43 10000 6.17 340 15:27 08.06.2021
3357 Clear 24 1018 47 10000 4.12 330 13:32 08.06.2021
3358 Clear 19 1020 61 10000 6.17 320 10:59 08.06.2021
3359 Clouds 14 1020 79 10000 6.17 320 07:33 08.06.2021
3360 Clear 15 1020 78 10000 5.14 330 04:25 08.06.2021
3361 Clouds 16 1018 77 10000 5.66 330 23:51 07.06.2021
3362 Clear 20 1019 65 10000 6.69 310 20:40 07.06.2021
3363 Clear 22 1019 57 10000 5.66 320 18:50 07.06.2021
3364 Clear 25 1020 48 10000 4.63 310 15:58 07.06.2021
3365 Clear 23 1020 57 10000 4.63 330 13:48 07.06.2021
3366 Clouds 20 1020 66 10000 5.66 340 11:38 07.06.2021
3367 Clouds 18 1020 72 10000 4.63 330 10:23 07.06.2021
3368 Clouds 17 1020 74 10000 4.12 330 09:52 07.06.2021
3369 Clouds 17 1020 75 10000 5.66 320 09:22 07.06.2021
3370 Clear 15 1019 82 10000 5.66 310 07:40 07.06.2021
3371 Clouds 18 1020 71 10000 7.2 310 21:50 06.06.2021
3372 Clouds 21 1020 60 10000 7.2 320 20:40 06.06.2021
3373 Clouds 24 1020 52 10000 6.69 320 18:21 06.06.2021
3374 Clouds 24 1021 51 10000 6.17 320 17:19 06.06.2021
3375 Clear 24 1022 41 10000 6.17 350 14:31 06.06.2021
3376 Clear 21 1023 58 10000 5.14 330 12:28 06.06.2021
3377 Clouds 20 1023 62 10000 4.12 320 11:50 06.06.2021
3378 Clouds 18 1022 71 10000 4.12 330 10:24 06.06.2021
3379 Clouds 17 1022 75 10000 4.12 330 09:29 06.06.2021
3380 Clouds 16 1022 77 10000 3.09 320 08:57 06.06.2021
3381 Clouds 15 1022 81 10000 4.12 340 07:44 06.06.2021
3382 Clouds 16 1022 79 10000 6.17 330 04:24 06.06.2021
3383 Clouds 17 1022 66 10000 6.17 320 23:19 05.06.2021
3384 Clouds 18 1022 67 10000 7.2 330 22:20 05.06.2021
3385 Clear 21 1021 54 10000 7.72 320 20:41 05.06.2021
3386 Clear 22 1021 52 10000 7.2 320 19:37 05.06.2021
3387 Clear 24 1021 51 10000 5.14 310 16:57 05.06.2021
3388 Clear 23 1021 53 10000 5.14 310 15:56 05.06.2021
3389 Clouds 22 1022 58 10000 5.14 320 13:40 05.06.2021
3390 Clouds 20 1022 64 10000 5.14 320 11:43 05.06.2021
3391 Clouds 18 1022 73 10000 5.14 310 10:24 05.06.2021
3392 Clouds 16 1021 76 10000 6.69 320 09:21 05.06.2021
3393 Clouds 15 1021 79 10000 7.2 320 06:27 05.06.2021
3394 Clear 16 1021 64 10000 7.72 320 22:49 04.06.2021
3395 Clear 17 1021 63 10000 9.26 330 22:20 04.06.2021
3396 Clouds 18 1021 59 10000 7.2 320 21:20 04.06.2021
3397 Clouds 20 1021 48 10000 8.75 330 19:41 04.06.2021
3398 Clouds 21 1021 46 10000 7.72 320 18:26 04.06.2021
3399 Clear 22 1021 40 10000 9.26 350 16:50 04.06.2021
3400 Clear 22 1021 40 10000 8.23 330 15:34 04.06.2021
3401 Clouds 19 1023 50 10000 7.2 340 11:50 04.06.2021
3402 Clouds 16 1022 67 10000 6.17 340 09:37 04.06.2021
3403 Clouds 14 1022 76 10000 6.17 330 07:23 04.06.2021
3404 Clouds 14 1022 75 10000 4.12 350 05:53 04.06.2021
3405 Clouds 15 1021 67 10000 6.17 340 23:24 03.06.2021
3406 Clouds 17 1020 57 10000 9.77 340 20:57 03.06.2021
3407 Clouds 18 1020 54 10000 7.2 330 20:23 03.06.2021
3408 Clouds 18 1020 50 10000 9.26 340 19:48 03.06.2021
3409 Clear 20 1019 42 10000 8.23 340 17:41 03.06.2021
3410 Clouds 20 1020 39 10000 8.75 350 15:35 03.06.2021
3411 Clouds 20 1020 43 10000 8.75 350 14:43 03.06.2021
3412 Clouds 18 1020 52 10000 9.26 340 12:44 03.06.2021
3413 Clouds 15 1019 67 10000 6.17 340 09:53 03.06.2021
3414 Clouds 15 1019 68 10000 6.17 350 09:21 03.06.2021
3415 Clouds 14 1018 76 10000 4.63 360 06:48 03.06.2021
3416 Clouds 16 1018 73 10000 5.66 350 23:22 02.06.2021
3417 Clouds 17 1017 71 10000 9.26 350 21:52 02.06.2021
3418 Clouds 18 1017 69 10000 7.2 330 21:20 02.06.2021
3419 Clouds 18 1017 68 10000 8.75 330 20:40 02.06.2021
3420 Clouds 19 1016 66 10000 7.72 330 19:31 02.06.2021
3421 Clouds 20 1016 69 10000 2.57 290 16:40 02.06.2021
3422 Clouds 19 1015 75 6000 5.66 260 15:34 02.06.2021
3423 Clouds 20 1015 68 10000 1.54 0 13:26 02.06.2021
3424 Clouds 19 1015 69 10000 2.57 230 11:50 02.06.2021
3425 Clouds 18 1014 71 10000 1.54 0 10:41 02.06.2021
3426 Clouds 17 1014 76 10000 2.06 210 09:58 02.06.2021
3427 Clouds 17 1014 78 10000 2.06 230 09:38 02.06.2021
3428 Clouds 15 1014 81 10000 1.03 250 08:43 02.06.2021
3429 Clear 14 1013 83 10000 0 0 06:57 02.06.2021
3430 Clear 15 1014 79 10000 0 0 03:50 02.06.2021
3431 Clouds 17 1014 74 10000 3.09 300 23:36 01.06.2021
3432 Clouds 18 1013 67 10000 3.09 300 21:42 01.06.2021
3433 Clouds 19 1013 63 10000 3.09 290 20:42 01.06.2021
3434 Clouds 20 1013 61 10000 3.6 220 18:32 01.06.2021
3435 Clouds 20 1013 60 10000 2.57 290 17:18 01.06.2021
3436 Clouds 19 1013 65 10000 4.12 250 15:18 01.06.2021
3437 Clouds 18 1013 70 10000 3.6 240 13:19 01.06.2021
3438 Clouds 18 1009 70 10000 2.06 280 12:27 01.06.2021
3439 Clouds 18 1009 71 10000 2.57 260 11:26 01.06.2021
3440 Clouds 18 1008 71 10000 2.57 270 10:55 01.06.2021
3441 Clouds 17 1013 73 10000 3.09 260 09:57 01.06.2021
3442 Clouds 17 1013 76 10000 2.57 260 08:41 01.06.2021
3443 Clouds 17 1012 74 10000 2.06 290 07:37 01.06.2021
3444 Clouds 17 1013 77 10000 3.09 260 00:45 01.06.2021
3445 Clouds 17 1012 75 10000 4.12 270 23:39 31.05.2021
3446 Clouds 17 1012 75 10000 4.12 270 23:18 31.05.2021
3447 Clouds 17 1012 75 10000 4.12 270 23:18 31.05.2021
3448 Clouds 18 1012 75 10000 4.12 280 22:22 31.05.2021
3449 Clouds 19 1011 68 10000 4.12 280 20:42 31.05.2021
3450 Clouds 20 1011 69 10000 5.14 260 19:42 31.05.2021
3451 Clouds 21 1011 68 10000 4.12 260 18:37 31.05.2021
3452 Clouds 21 1011 65 10000 5.14 220 17:43 31.05.2021
3453 Clouds 21 1012 66 10000 4.63 210 16:40 31.05.2021
3454 Clouds 21 1012 66 10000 2.57 120 14:48 31.05.2021
3455 Clouds 21 1012 66 10000 4.12 100 13:25 31.05.2021
3456 Clouds 21 1012 69 10000 3.09 100 12:52 31.05.2021
3457 Clouds 20 1012 71 10000 1.54 0 11:56 31.05.2021
3458 Clouds 20 1012 72 10000 1.54 0 11:34 31.05.2021
3459 Clouds 18 1012 76 10000 2.57 330 10:24 31.05.2021
3460 Clouds 17 1012 81 10000 2.06 320 09:19 31.05.2021
3461 Clouds 16 1012 83 10000 1.03 0 08:21 31.05.2021
3462 Clouds 16 1011 83 10000 4.12 330 07:39 31.05.2021
3463 Clear 16 1011 84 10000 5.14 310 06:24 31.05.2021
3464 Clear 19 1013 68 10000 4.63 320 23:36 30.05.2021
3465 Clear 19 1013 66 10000 4.63 320 23:18 30.05.2021
3466 Clear 20 1013 65 10000 5.66 330 22:33 30.05.2021
3467 Clear 21 1013 63 10000 5.66 300 21:44 30.05.2021
3468 Clear 21 1013 63 10000 5.66 300 21:44 30.05.2021
3469 Clear 22 1013 60 10000 6.17 310 21:22 30.05.2021
3470 Clear 22 1013 59 10000 6.69 310 20:49 30.05.2021
3471 Clear 23 1013 58 10000 6.17 310 20:29 30.05.2021
3472 Clear 24 1013 58 10000 5.14 310 19:34 30.05.2021
3473 Clear 26 1014 49 10000 4.12 320 18:41 30.05.2021
3474 Clear 27 1014 48 10000 3.09 300 17:44 30.05.2021
3475 Clear 26 1014 50 10000 4.12 320 16:51 30.05.2021
3476 Clear 26 1014 50 10000 3.6 330 16:30 30.05.2021
3477 Clear 25 1015 52 10000 2.06 0 15:48 30.05.2021
3478 Clear 25 1015 52 10000 2.06 0 15:48 30.05.2021
3479 Clear 24 1016 55 10000 2.57 300 14:20 30.05.2021
3480 Clouds 22 1016 63 10000 2.57 330 12:56 30.05.2021
3481 Clouds 19 1016 70 10000 4.12 320 11:47 30.05.2021
3482 Clouds 18 1016 75 10000 3.6 310 10:56 30.05.2021
3483 Clouds 18 1016 76 10000 4.63 320 10:32 30.05.2021
3484 Clouds 17 1014 80 10000 5.14 330 09:54 30.05.2021
3485 Clouds 16 1014 82 10000 4.63 330 09:35 30.05.2021
3486 Clouds 16 1014 83 10000 4.63 320 08:47 30.05.2021
3487 Clouds 15 1014 83 10000 5.14 320 07:31 30.05.2021
3488 Clouds 15 1015 81 10000 5.14 310 04:21 30.05.2021
3489 Clouds 16 1017 76 10000 7.2 330 00:38 30.05.2021
3490 Clouds 16 1016 77 10000 6.69 320 22:52 29.05.2021
3491 Clouds 17 1016 76 10000 7.72 310 22:24 29.05.2021
3492 Clouds 17 1015 74 10000 7.72 320 21:47 29.05.2021
3493 Clouds 18 1016 72 10000 8.23 320 21:18 29.05.2021
3494 Clouds 19 1015 67 10000 7.72 330 20:41 29.05.2021
3495 Clouds 20 1015 65 10000 7.72 330 20:21 29.05.2021
3496 Clouds 21 1015 61 10000 6.69 320 19:25 29.05.2021
3497 Clear 24 1016 55 10000 6.69 310 17:52 29.05.2021
3498 Clear 24 1016 55 10000 6.69 320 16:53 29.05.2021
3499 Clouds 23 1016 56 10000 5.66 310 15:46 29.05.2021
3500 Clouds 22 1019 60 10000 5.14 310 14:45 29.05.2021
3501 Clouds 22 1017 59 10000 5.14 330 13:42 29.05.2021
3502 Clouds 22 1017 59 10000 5.66 330 12:47 29.05.2021
3503 Clouds 21 1017 63 10000 6.17 320 12:27 29.05.2021
3504 Clouds 21 1017 62 10000 6.17 340 11:46 29.05.2021
3505 Clouds 19 1020 68 10000 6.17 340 11:23 29.05.2021
3506 Clouds 18 1020 69 10000 6.69 330 10:48 29.05.2021
3507 Clouds 17 1017 75 10000 6.17 340 09:47 29.05.2021
3508 Clouds 17 1017 76 10000 5.14 320 09:21 29.05.2021
3509 Clouds 15 1016 80 10000 7.2 320 08:41 29.05.2021
3510 Clouds 15 1016 80 10000 7.2 320 08:41 29.05.2021
3511 Clouds 15 1016 81 10000 6.17 320 06:59 29.05.2021
3512 Clouds 15 1016 80 10000 7.72 330 05:52 29.05.2021
3513 Clear 17 1019 70 10000 6.17 340 00:28 29.05.2021
3514 Clear 18 1016 67 10000 6.17 330 23:18 28.05.2021
3515 Clear 19 1014 65 10000 7.72 310 21:45 28.05.2021
3516 Clear 20 1014 62 10000 7.72 310 21:23 28.05.2021
3517 Clear 22 1014 57 10000 6.17 320 20:25 28.05.2021
3518 Clear 23 1016 54 10000 7.2 330 19:44 28.05.2021
3519 Clear 24 1013 47 10000 6.17 330 19:25 28.05.2021
3520 Clear 26 1016 44 10000 4.63 320 18:39 28.05.2021
3521 Clear 26 1013 43 10000 4.63 320 18:20 28.05.2021
3522 Clear 26 1016 42 10000 4.12 300 17:19 28.05.2021
3523 Clear 26 1013 42 10000 3.6 350 16:25 28.05.2021
3524 Clear 26 1014 41 10000 4.63 350 15:40 28.05.2021
3525 Clear 25 1016 41 10000 3.6 350 14:51 28.05.2021
3526 Clear 25 1014 44 10000 4.12 20 14:31 28.05.2021
3527 Clear 24 1017 48 10000 3.6 10 13:45 28.05.2021
3528 Clear 23 1017 49 10000 4.12 330 12:55 28.05.2021
3529 Clear 23 1017 49 10000 4.12 340 12:20 28.05.2021
3530 Clear 21 1017 54 10000 5.14 360 11:30 28.05.2021
3531 Clear 20 1017 57 10000 3.6 350 10:45 28.05.2021
3532 Clear 18 1017 64 10000 4.63 340 10:20 28.05.2021
3533 Clear 17 1014 66 10000 3.6 330 09:29 28.05.2021
3534 Clear 16 1013 71 10000 3.6 330 08:46 28.05.2021
3535 Clear 16 1012 70 10000 4.63 330 07:58 28.05.2021
3536 Clear 16 1012 70 10000 2.57 340 07:36 28.05.2021
3537 Clear 15 1013 68 10000 1.54 0 06:50 28.05.2021
3538 Clear 15 1016 69 10000 2.57 330 05:43 28.05.2021
3539 Clear 17 1016 58 10000 5.14 320 02:18 28.05.2021
3540 Clear 18 1016 54 10000 3.6 330 23:42 27.05.2021
3541 Clear 18 1016 54 10000 3.6 330 23:42 27.05.2021
3542 Clear 19 1016 56 10000 4.63 320 22:38 27.05.2021
3543 Clear 19 1016 56 10000 4.63 320 22:19 27.05.2021
3544 Clear 21 1015 54 10000 4.63 330 21:42 27.05.2021
3545 Clear 22 1015 50 10000 4.63 330 21:23 27.05.2021
3546 Clear 24 1015 46 10000 4.63 320 20:41 27.05.2021
3547 Clear 24 1015 46 10000 4.63 320 20:18 27.05.2021
3548 Clear 24 1015 47 10000 5.66 330 19:26 27.05.2021
3549 Clear 26 1015 43 10000 5.66 330 18:39 27.05.2021
3550 Clear 26 1015 42 10000 5.66 330 18:18 27.05.2021
3551 Clear 26 1015 36 10000 4.63 300 17:23 27.05.2021
3552 Clear 26 1015 35 10000 3.6 0 16:47 27.05.2021
3553 Clear 26 1015 36 10000 3.09 0 16:26 27.05.2021
3554 Clear 25 1015 42 10000 3.6 350 15:23 27.05.2021
3555 Clear 24 1015 41 10000 4.63 350 14:55 27.05.2021
3556 Clear 24 1015 43 10000 4.12 320 14:27 27.05.2021
3557 Clear 23 1015 46 10000 3.6 0 13:54 27.05.2021
3558 Clear 22 1015 46 10000 3.09 310 13:21 27.05.2021
3559 Clear 22 1016 49 10000 2.57 310 12:58 27.05.2021
3560 Clear 22 1016 48 10000 2.06 310 12:40 27.05.2021
3561 Clear 21 1016 51 10000 2.06 310 12:21 27.05.2021
3562 Clear 19 1016 58 10000 1.54 340 11:29 27.05.2021
3563 Clear 18 1016 61 10000 2.06 310 10:54 27.05.2021
3564 Clear 18 1015 62 10000 1.54 320 10:26 27.05.2021
3565 Clear 18 1013 61 10000 2.06 350 09:53 27.05.2021
3566 Clear 16 1012 67 10000 2.06 40 08:51 27.05.2021
3567 Clear 15 1014 71 10000 2.57 340 08:26 27.05.2021
3568 Clear 16 1012 69 10000 7.2 310 06:21 27.05.2021
3569 Clear 17 1016 53 10000 2.06 290 01:53 27.05.2021
3570 Clear 17 1016 54 10000 4.63 320 00:22 27.05.2021
3571 Clear 18 1014 57 10000 5.14 320 23:28 26.05.2021
3572 Clear 18 1016 59 10000 5.66 320 22:50 26.05.2021
3573 Clear 19 1016 56 10000 5.14 310 22:31 26.05.2021
3574 Clear 20 1016 55 10000 4.12 320 21:42 26.05.2021
3575 Clear 20 1013 55 10000 5.66 320 21:23 26.05.2021
3576 Clear 20 1016 58 10000 5.66 310 20:58 26.05.2021
3577 Clear 22 1016 56 10000 5.66 310 20:39 26.05.2021
3578 Clear 22 1013 56 10000 5.66 310 20:20 26.05.2021
3579 Clear 22 1016 55 10000 6.17 320 19:43 26.05.2021
3580 Clear 24 1013 51 10000 5.14 320 19:20 26.05.2021
3581 Clear 24 1016 50 10000 5.66 320 18:35 26.05.2021
3582 Clear 26 1014 46 10000 5.14 330 17:37 26.05.2021
3583 Clear 26 1014 44 10000 4.63 310 16:56 26.05.2021
3584 Clear 26 1014 44 10000 4.12 340 16:36 26.05.2021
3585 Clear 26 1014 42 10000 4.12 340 16:18 26.05.2021
3586 Clear 26 1017 46 10000 2.57 0 15:41 26.05.2021
3587 Clear 26 1017 47 10000 2.57 0 15:23 26.05.2021
3588 Clear 24 1018 50 10000 3.6 310 14:45 26.05.2021
3589 Clear 24 1018 52 10000 3.6 310 14:19 26.05.2021
3590 Clear 23 1018 53 10000 3.6 340 13:42 26.05.2021
3591 Clear 22 1018 58 10000 2.57 0 12:51 26.05.2021
3592 Clear 21 1018 61 10000 2.57 350 12:28 26.05.2021
3593 Clear 20 1019 65 10000 4.12 340 11:38 26.05.2021
3594 Clear 20 1019 66 10000 4.12 340 11:19 26.05.2021
3595 Clear 20 1019 66 10000 4.12 340 11:19 26.05.2021
3596 Clouds 18 1018 72 10000 4.12 320 10:38 26.05.2021
3597 Clouds 17 1016 75 10000 5.14 320 09:58 26.05.2021
3598 Clouds 17 1016 78 10000 5.66 320 09:40 26.05.2021
3599 Clouds 16 1016 79 10000 6.17 310 08:59 26.05.2021
3600 Clouds 16 1016 81 10000 6.17 310 08:35 26.05.2021
3601 Clear 15 1016 81 10000 6.69 310 07:35 26.05.2021
3602 Clear 15 1016 78 10000 4.63 310 06:24 26.05.2021
3603 Clear 16 1020 69 10000 4.12 320 01:46 26.05.2021
3604 Clear 16 1018 68 10000 7.2 330 23:50 25.05.2021
3605 Clear 17 1017 66 10000 7.2 320 22:55 25.05.2021
3606 Clear 17 1017 64 10000 7.2 320 22:26 25.05.2021
3607 Clear 18 1017 60 10000 6.69 320 21:52 25.05.2021
3608 Clear 18 1019 59 10000 6.69 310 21:29 25.05.2021
3609 Clear 19 1019 52 10000 8.23 320 20:44 25.05.2021
3610 Clear 20 1019 54 10000 7.2 320 20:25 25.05.2021
3611 Clouds 20 1019 52 10000 8.19 335 19:38 25.05.2021
3612 Clear 20 1019 53 10000 7.96 335 19:19 25.05.2021
3613 Clear 22 1020 50 10000 6.17 320 18:41 25.05.2021
3614 Clear 22 1020 49 10000 6.17 320 18:21 25.05.2021
3615 Clear 23 1020 45 10000 4.63 300 16:59 25.05.2021
3616 Clear 23 1020 44 10000 5.66 330 16:38 25.05.2021
3617 Clear 23 1021 42 10000 3.6 30 15:58 25.05.2021
3618 Clear 23 1021 42 10000 3.6 330 15:35 25.05.2021
3619 Clear 23 1021 43 10000 3.6 350 14:58 25.05.2021
3620 Clear 23 1022 43 10000 3.6 360 14:40 25.05.2021
3621 Clear 22 1022 44 10000 4.63 20 13:55 25.05.2021
3622 Clear 22 1022 42 10000 4.63 30 13:35 25.05.2021
3623 Clear 21 1022 41 10000 5.14 30 12:49 25.05.2021
3624 Clear 20 1023 45 10000 5.66 10 12:30 25.05.2021
3625 Clear 19 1023 48 10000 5.66 10 11:44 25.05.2021
3626 Clear 19 1023 50 10000 6.17 360 11:26 25.05.2021
3627 Clear 17 1023 55 10000 6.17 360 10:45 25.05.2021
3628 Clear 17 1023 57 10000 6.69 350 10:20 25.05.2021
3629 Clear 15 1023 67 10000 5.66 340 09:32 25.05.2021
3630 Clear 14 1023 72 10000 4.12 360 08:21 25.05.2021
3631 Clear 14 1023 80 10000 6.69 330 06:54 25.05.2021
3632 Clear 14 1024 74 10000 6.17 350 04:22 25.05.2021
3633 Clear 14 1025 74 10000 7.2 340 02:43 25.05.2021
3634 Clouds 15 1025 70 10000 6.69 350 23:55 24.05.2021
3635 Clouds 15 1025 70 10000 5.14 350 23:28 24.05.2021
3636 Clouds 15 1025 61 10000 6.17 340 22:42 24.05.2021
3637 Clouds 15 1025 59 10000 5.14 350 22:21 24.05.2021
3638 Clear 16 1024 49 10000 8.23 340 21:39 24.05.2021
3639 Clear 16 1024 49 10000 8.23 340 21:18 24.05.2021
3640 Clear 17 1024 45 10000 6.69 320 20:32 24.05.2021
3641 Clouds 18 1024 47 10000 7.72 340 19:54 24.05.2021
3642 Clouds 19 1024 49 10000 7.2 330 19:31 24.05.2021
3643 Clouds 19 1024 48 10000 6.69 330 18:59 24.05.2021
3644 Clouds 19 1024 48 10000 8.75 350 18:35 24.05.2021
3645 Clouds 20 1024 52 10000 7.2 350 17:59 24.05.2021
3646 Clouds 20 1024 47 10000 5.66 320 17:26 24.05.2021
3647 Clouds 20 1024 52 10000 5.66 310 16:49 24.05.2021
3648 Clouds 20 1025 57 10000 6.69 320 15:59 24.05.2021
3649 Clouds 20 1025 59 10000 6.17 310 15:40 24.05.2021
3650 Clouds 19 1025 62 10000 6.69 310 14:54 24.05.2021
3651 Clouds 20 1025 58 10000 5.66 310 14:28 24.05.2021
3652 Clouds 19 1025 67 10000 7.2 330 13:46 24.05.2021
3653 Clouds 19 1025 70 10000 6.69 330 13:25 24.05.2021
3654 Clouds 19 1025 68 10000 4.63 310 12:41 24.05.2021
3655 Clouds 18 1025 68 10000 4.63 310 12:21 24.05.2021
3656 Clouds 17 1025 83 10000 5.14 310 11:28 24.05.2021
3657 Clouds 17 1024 82 10000 3.6 300 10:57 24.05.2021
3658 Clouds 17 1024 80 10000 3.09 300 10:33 24.05.2021
3659 Clouds 17 1024 80 10000 4.12 300 09:45 24.05.2021
3660 Clouds 17 1024 80 10000 4.12 300 09:21 24.05.2021
3661 Clouds 16 1024 85 10000 3.6 310 08:39 24.05.2021
3662 Clouds 16 1023 83 10000 2.57 0 07:41 24.05.2021
3663 Clouds 15 1024 83 10000 2.57 250 05:44 24.05.2021
3664 Clouds 15 1024 82 10000 2.06 250 03:58 24.05.2021
3665 Clouds 15 1025 72 10000 2.06 280 01:28 24.05.2021
3666 Clouds 15 1025 68 10000 1.54 310 23:54 23.05.2021
3667 Clouds 15 1025 68 10000 2.57 310 23:27 23.05.2021
3668 Clouds 15 1025 61 10000 2.57 320 22:42 23.05.2021
3669 Clouds 15 1024 61 10000 4.12 330 22:22 23.05.2021
3670 Clouds 16 1024 53 10000 5.66 310 21:37 23.05.2021
3671 Clouds 16 1024 53 10000 5.66 310 21:18 23.05.2021
3672 Clouds 17 1023 53 10000 8.23 330 20:39 23.05.2021
3673 Clouds 17 1023 53 10000 8.23 330 20:21 23.05.2021
3674 Clouds 17 1023 51 10000 7.2 330 19:41 23.05.2021
3675 Clouds 18 1023 47 10000 8.23 330 18:59 23.05.2021
3676 Clouds 18 1022 47 10000 7.72 330 18:19 23.05.2021
3677 Clouds 18 1022 46 10000 7.72 330 17:43 23.05.2021
3678 Clouds 18 1022 44 10000 8.75 330 17:24 23.05.2021
3679 Clouds 18 1022 42 10000 8.23 310 16:45 23.05.2021
3680 Clouds 18 1022 42 10000 7.2 320 16:24 23.05.2021
3681 Clouds 19 1022 42 10000 8.23 320 15:57 23.05.2021
3682 Clouds 18 1022 39 10000 7.2 330 15:31 23.05.2021
3683 Clouds 18 1022 48 10000 8.23 340 14:51 23.05.2021
3684 Clouds 18 1022 48 10000 7.72 320 14:30 23.05.2021
3685 Clouds 18 1022 44 10000 8.75 350 13:34 23.05.2021
3686 Clouds 18 1022 44 10000 8.23 350 12:47 23.05.2021
3687 Clouds 18 1021 44 10000 8.75 340 12:22 23.05.2021
3688 Clouds 17 1021 57 10000 5.66 330 11:34 23.05.2021
3689 Clouds 16 1021 63 10000 7.2 350 10:53 23.05.2021
3690 Clouds 16 1021 65 10000 8.75 350 10:26 23.05.2021
3691 Clouds 16 1020 72 10000 7.72 350 09:54 23.05.2021
3692 Clouds 15 1020 82 10000 2.57 360 08:55 23.05.2021
3693 Clouds 13 1020 79 10000 3.09 320 07:50 23.05.2021
3694 Clouds 13 1020 79 10000 4.12 330 07:32 23.05.2021
3695 Clouds 13 1019 77 10000 4.12 330 06:48 23.05.2021
3696 Clear 13 1020 67 10000 4.63 330 01:51 23.05.2021
3697 Clear 13 1020 67 10000 4.63 330 01:51 23.05.2021
3698 Clear 14 1021 67 10000 3.6 340 00:33 23.05.2021
3699 Clouds 14 1017 62 10000 4.12 350 23:26 22.05.2021
3700 Clouds 15 1016 59 10000 4.63 350 22:53 22.05.2021
3701 Clouds 15 1016 59 10000 4.12 350 22:34 22.05.2021
3702 Clouds 16 1016 55 10000 5.66 350 21:50 22.05.2021
3703 Clouds 16 1016 54 10000 7.72 350 21:32 22.05.2021
3704 Clouds 16 1014 51 10000 5.66 320 20:55 22.05.2021
3705 Clouds 16 1014 51 10000 5.66 320 20:55 22.05.2021
3706 Clouds 17 1016 50 10000 6.17 310 20:29 22.05.2021
3707 Clouds 17 1019 53 10000 6.17 320 19:43 22.05.2021
3708 Clouds 17 1019 55 10000 6.69 350 19:24 22.05.2021
3709 Clouds 17 1015 52 10000 6.69 350 18:49 22.05.2021
3710 Clouds 17 1015 49 10000 5.66 350 18:21 22.05.2021
3711 Clouds 17 1016 49 10000 6.69 330 17:44 22.05.2021
3712 Clouds 17 1016 49 10000 6.69 330 17:25 22.05.2021
3713 Clouds 18 1016 48 10000 7.2 360 16:27 22.05.2021
3714 Clouds 18 1020 45 10000 6.69 340 15:35 22.05.2021
3715 Clouds 19 1016 42 10000 7.2 330 14:58 22.05.2021
3716 Clouds 18 1020 44 10000 7.2 340 14:28 22.05.2021
3717 Clouds 18 1020 44 10000 6.69 360 13:51 22.05.2021
3718 Clouds 19 1017 45 10000 6.69 350 13:21 22.05.2021
3719 Clouds 18 1016 49 10000 6.69 350 12:33 22.05.2021
3720 Clouds 17 1016 50 10000 7.72 350 11:56 22.05.2021
3721 Clouds 18 1016 52 10000 7.72 340 11:34 22.05.2021
3722 Clouds 16 1016 65 10000 5.14 350 10:38 22.05.2021
3723 Clouds 16 1016 65 10000 5.14 350 10:38 22.05.2021
3724 Clouds 16 1016 69 10000 4.63 350 09:51 22.05.2021
3725 Clear 15 1015 72 10000 3.6 340 08:38 22.05.2021
3726 Clear 15 1015 76 10000 3.09 340 07:59 22.05.2021
3727 Clear 15 1013 72 10000 3.6 340 07:30 22.05.2021
3728 Clear 15 1015 73 10000 3.6 350 05:23 22.05.2021
3729 Clouds 15 1016 78 10000 2.57 350 01:30 22.05.2021
3730 Clouds 16 1016 75 10000 5.14 350 23:40 21.05.2021
3731 Clouds 17 1014 72 10000 6.69 340 22:39 21.05.2021
3732 Clouds 17 1015 69 10000 6.69 340 22:20 21.05.2021
3733 Clouds 18 1014 67 10000 6.17 330 21:45 21.05.2021
3734 Clouds 18 1015 61 10000 7.72 340 21:23 21.05.2021
3735 Clouds 19 1018 58 10000 7.2 350 20:47 21.05.2021
3736 Clouds 19 1018 60 10000 6.69 330 20:26 21.05.2021
3737 Clouds 20 1018 60 10000 8.23 350 19:44 21.05.2021
3738 Clouds 20 1015 61 10000 7.2 330 19:24 21.05.2021
3739 Clouds 21 1015 61 10000 7.72 350 18:45 21.05.2021
3740 Clouds 21 1014 62 10000 6.69 320 17:56 21.05.2021
3741 Clouds 21 1015 60 10000 6.69 320 17:37 21.05.2021
3742 Clouds 22 1015 58 10000 5.14 330 16:54 21.05.2021
3743 Clouds 22 1015 59 10000 5.14 320 16:27 21.05.2021
3744 Clouds 22 1015 59 10000 6.17 340 15:49 21.05.2021
3745 Clouds 23 1015 58 10000 6.69 340 15:30 21.05.2021
3746 Clouds 22 1015 59 10000 6.17 330 14:56 21.05.2021
3747 Clouds 22 1016 59 10000 7.2 350 14:35 21.05.2021
3748 Clouds 22 1016 56 10000 6.17 340 13:41 21.05.2021
3749 Clouds 22 1016 56 10000 6.17 340 13:22 21.05.2021
3750 Clouds 22 1020 62 10000 5.14 350 12:22 21.05.2021
3751 Clouds 20 1020 68 10000 5.66 340 11:37 21.05.2021
3752 Clouds 20 1020 68 10000 5.66 340 11:18 21.05.2021
3753 Clouds 19 1016 66 10000 4.63 330 10:42 21.05.2021
3754 Clouds 17 1016 73 10000 4.12 340 09:38 21.05.2021
3755 Clouds 17 1016 73 10000 4.12 340 09:20 21.05.2021
3756 Clouds 16 1016 78 10000 4.63 340 08:29 21.05.2021
3757 Clouds 16 1016 77 10000 4.12 350 07:50 21.05.2021
3758 Clouds 16 1016 79 10000 5.66 340 06:50 21.05.2021
3759 Clouds 16 1015 83 10000 3.6 330 03:30 21.05.2021
3760 Clear 17 1021 65 10000 7.2 330 00:31 21.05.2021
3761 Clear 17 1017 51 10000 7.72 330 23:52 20.05.2021
3762 Clear 17 1016 58 10000 7.72 330 23:52 20.05.2021
3763 Clear 18 1015 41 10000 8.23 330 23:23 20.05.2021
3764 Clear 18 1017 39 10000 8.23 330 22:54 20.05.2021
3765 Clear 18 1017 39 10000 8.75 330 22:30 20.05.2021
3766 Clear 18 1017 39 10000 8.75 330 22:30 20.05.2021
3767 Clear 19 1015 38 10000 7.2 320 21:55 20.05.2021
3768 Clear 19 1015 38 10000 7.2 320 21:55 20.05.2021
3769 Clear 20 1016 39 10000 7.72 310 21:24 20.05.2021
3770 Clear 21 1015 37 10000 6.69 320 20:53 20.05.2021
3771 Clear 22 1020 36 10000 6.69 310 20:31 20.05.2021
3772 Clear 24 1020 36 10000 6.69 310 19:51 20.05.2021
3773 Clear 24 1016 38 10000 5.66 320 19:28 20.05.2021
3774 Clear 25 1020 44 10000 5.66 320 18:43 20.05.2021
3775 Clear 25 1016 43 10000 5.14 320 18:25 20.05.2021
3776 Clear 26 1016 43 10000 5.66 310 17:46 20.05.2021
3777 Clear 26 1016 42 10000 5.14 310 17:27 20.05.2021
3778 Clear 26 1016 41 10000 4.12 310 16:38 20.05.2021
3779 Clear 26 1016 40 10000 4.12 310 16:18 20.05.2021
3780 Clear 26 1017 38 10000 3.6 330 15:39 20.05.2021
3781 Clear 26 1017 37 10000 3.6 330 15:20 20.05.2021
3782 Clear 25 1021 39 10000 4.63 340 14:25 20.05.2021
3783 Clear 25 1021 40 10000 4.12 340 13:57 20.05.2021
3784 Clear 25 1021 42 10000 4.63 350 13:34 20.05.2021
3785 Clear 23 1022 45 10000 5.14 340 12:48 20.05.2021
3786 Clear 23 1022 45 10000 5.66 340 12:19 20.05.2021
3787 Clear 22 1022 46 10000 5.14 340 11:53 20.05.2021
3788 Clear 21 1022 46 10000 5.66 340 11:20 20.05.2021
3789 Clear 20 1022 54 10000 4.63 340 10:48 20.05.2021
3790 Clear 19 1022 55 10000 4.12 340 10:26 20.05.2021
3791 Clear 19 1022 55 10000 4.12 340 10:26 20.05.2021
3792 Clear 17 1022 61 10000 4.63 340 09:50 20.05.2021
3793 Clear 17 1022 63 10000 4.12 330 09:26 20.05.2021
3794 Clear 16 1022 67 10000 4.63 330 08:58 20.05.2021
3795 Clear 16 1022 69 10000 5.14 320 08:39 20.05.2021
3796 Clear 16 1022 69 10000 5.14 320 08:20 20.05.2021
3797 Clear 15 1021 77 10000 4.12 330 07:41 20.05.2021
3798 Clear 15 1021 74 10000 2.57 340 06:53 20.05.2021
3799 Clear 16 1021 67 10000 5.14 340 05:59 20.05.2021
3800 Clear 16 1021 65 10000 5.66 330 04:55 20.05.2021
3801 Clear 16 1022 61 10000 3.6 320 02:49 20.05.2021
3802 Clear 17 1019 43 10000 6.17 320 00:36 20.05.2021
3803 Clear 17 1019 41 10000 6.69 320 23:54 19.05.2021
3804 Clear 17 1022 40 10000 6.69 330 23:25 19.05.2021
3805 Clear 18 1022 40 10000 7.72 330 22:48 19.05.2021
3806 Clear 18 1022 39 10000 6.17 330 22:29 19.05.2021
3807 Clear 18 1022 32 10000 6.17 340 21:59 19.05.2021
3808 Clear 19 1022 35 10000 6.17 330 21:40 19.05.2021
3809 Clear 19 1018 36 10000 6.17 330 21:21 19.05.2021
3810 Clear 21 1022 36 10000 6.17 330 20:53 19.05.2021
3811 Clear 21 1022 38 10000 5.66 330 20:24 19.05.2021
3812 Clear 22 1022 34 10000 5.66 310 19:48 19.05.2021
3813 Clear 23 1016 32 10000 8.23 340 19:25 19.05.2021
3814 Clear 23 1018 31 10000 8.75 350 18:49 19.05.2021
3815 Clear 23 1018 31 10000 7.72 350 18:26 19.05.2021
3816 Clear 24 1018 32 10000 6.69 340 17:48 19.05.2021
3817 Clear 24 1017 33 10000 6.69 340 17:20 19.05.2021
3818 Clear 24 1022 31 10000 7.72 350 16:38 19.05.2021
3819 Clear 24 1022 31 10000 7.72 350 16:20 19.05.2021
3820 Clear 23 1022 33 10000 6.17 340 15:44 19.05.2021
3821 Clear 23 1023 38 10000 5.66 350 14:57 19.05.2021
3822 Clear 23 1023 38 10000 6.17 350 14:36 19.05.2021
3823 Clear 22 1023 40 10000 4.63 360 13:54 19.05.2021
3824 Clear 22 1023 41 10000 4.63 340 13:34 19.05.2021
3825 Clear 21 1023 47 10000 5.14 330 12:46 19.05.2021
3826 Clear 20 1023 52 10000 5.14 360 12:23 19.05.2021
3827 Clouds 20 1023 54 10000 6.17 360 11:59 19.05.2021
3828 Clouds 19 1024 61 10000 6.17 360 11:41 19.05.2021
3829 Clouds 19 1024 61 10000 6.17 360 11:21 19.05.2021
3830 Clouds 17 1023 70 10000 5.14 350 10:49 19.05.2021
3831 Clouds 17 1024 69 10000 5.14 350 10:30 19.05.2021
3832 Clouds 16 1024 82 10000 5.14 340 09:50 19.05.2021
3833 Clouds 16 1024 79 10000 5.14 360 09:20 19.05.2021
3834 Clouds 15 1023 85 10000 8.75 340 08:39 19.05.2021
3835 Clouds 14 1023 85 10000 8.75 340 08:20 19.05.2021
3836 Clear 14 1023 85 10000 8.75 340 07:31 19.05.2021
3837 Clouds 14 1018 84 10000 6.17 340 06:41 19.05.2021
3838 Clouds 14 1019 82 10000 4.12 360 05:40 19.05.2021
3839 Clear 14 1023 83 10000 5.14 360 03:18 19.05.2021
3840 Clear 15 1020 80 10000 3.09 360 00:35 19.05.2021
3841 Clouds 15 1020 82 10000 3.09 360 23:52 18.05.2021
3842 Clouds 16 1020 81 10000 4.12 350 23:28 18.05.2021
3843 Clouds 16 1019 78 10000 4.12 340 22:46 18.05.2021
3844 Clouds 17 1019 78 10000 4.12 340 22:25 18.05.2021
3845 Clouds 17 1023 77 10000 5.66 340 21:46 18.05.2021
3846 Clouds 18 1023 77 10000 7.2 340 21:28 18.05.2021
3847 Clouds 19 1023 72 10000 6.69 340 20:48 18.05.2021
3848 Clouds 20 1023 77 10000 6.17 340 20:20 18.05.2021
3849 Clouds 21 1023 75 10000 4.12 310 19:51 18.05.2021
3850 Clouds 21 1022 75 10000 4.12 320 19:31 18.05.2021
3851 Clouds 21 1022 76 10000 3.6 310 18:57 18.05.2021
3852 Clouds 21 1022 73 10000 4.63 310 18:37 18.05.2021
3853 Clouds 20 1022 73 10000 4.63 310 18:19 18.05.2021
3854 Clouds 21 1023 73 10000 5.14 300 17:37 18.05.2021
3855 Clouds 21 1013 69 10000 4.12 290 16:46 18.05.2021
3856 Clouds 21 1013 69 10000 4.63 290 16:26 18.05.2021
3857 Clouds 21 1023 69 10000 4.12 310 15:44 18.05.2021
3858 Clouds 21 1023 69 10000 4.63 300 15:22 18.05.2021
3859 Clouds 21 1023 69 10000 4.63 300 15:22 18.05.2021
3860 Clouds 21 1023 67 10000 4.63 310 14:46 18.05.2021
3861 Clouds 21 1023 64 10000 3.09 310 13:57 18.05.2021
3862 Clouds 20 1023 70 10000 4.12 290 12:59 18.05.2021
3863 Clouds 20 1023 70 10000 4.12 320 12:25 18.05.2021
3864 Clouds 19 1023 77 10000 4.12 310 11:44 18.05.2021
3865 Clouds 19 1023 74 10000 3.6 300 11:25 18.05.2021
3866 Clouds 18 1023 80 10000 3.09 310 10:46 18.05.2021
3867 Clouds 18 1023 82 10000 1.54 290 10:27 18.05.2021
3868 Clouds 18 1022 85 10000 1.54 0 09:45 18.05.2021
3869 Clouds 17 1022 94 10000 1.03 0 09:24 18.05.2021
3870 Clouds 16 1022 94 10000 2.06 300 08:20 18.05.2021
3871 Clouds 15 1022 94 10000 3.09 300 07:48 18.05.2021
3872 Clouds 15 1021 94 10000 1.03 0 06:58 18.05.2021
3873 Clear 16 1022 67 10000 1.54 340 02:45 18.05.2021
3874 Clear 16 1022 67 10000 1.54 340 02:45 18.05.2021
3875 Clear 15 1022 72 10000 1.03 0 02:25 18.05.2021
3876 Clear 16 1022 72 10000 0.51 0 00:58 18.05.2021
3877 Clear 16 1022 72 10000 2.06 310 00:27 18.05.2021
3878 Clear 16 1022 67 10000 2.57 320 23:54 17.05.2021
3879 Clear 16 1022 72 10000 2.57 330 23:22 17.05.2021
3880 Clear 17 1022 67 10000 4.12 310 22:56 17.05.2021
3881 Clear 17 1021 59 10000 4.12 310 22:38 17.05.2021
3882 Clear 17 1021 59 10000 4.12 310 22:19 17.05.2021
3883 Clear 19 1021 39 10000 4.63 310 21:23 17.05.2021
3884 Clear 19 1021 37 10000 5.14 310 20:57 17.05.2021
3885 Clear 20 1021 32 10000 4.63 310 20:38 17.05.2021
3886 Clear 20 1021 32 10000 4.63 310 20:18 17.05.2021
3887 Clear 21 1021 33 10000 4.12 310 19:40 17.05.2021
3888 Clear 22 1021 33 10000 4.12 310 19:20 17.05.2021
3889 Clear 23 1021 33 10000 5.14 320 18:44 17.05.2021
3890 Clear 22 1020 37 10000 4.63 320 18:26 17.05.2021
3891 Clear 23 1021 38 10000 5.14 340 17:42 17.05.2021
3892 Clear 22 1021 38 10000 5.14 310 17:21 17.05.2021
3893 Clear 23 1021 33 10000 4.63 340 16:33 17.05.2021
3894 Clear 23 1021 38 10000 4.63 330 15:58 17.05.2021
3895 Clear 23 1021 38 10000 4.63 360 15:25 17.05.2021
3896 Clear 22 1021 43 10000 4.63 330 14:50 17.05.2021
3897 Clear 22 1021 43 10000 6.17 350 14:31 17.05.2021
3898 Clear 22 1022 49 10000 4.12 20 13:57 17.05.2021
3899 Clear 21 1022 52 10000 4.12 20 13:25 17.05.2021
3900 Clouds 20 1022 56 10000 4.63 360 12:41 17.05.2021
3901 Clouds 20 1022 56 10000 4.63 360 12:21 17.05.2021
3902 Clouds 18 1022 67 10000 5.14 360 11:41 17.05.2021
3903 Clouds 18 1022 67 10000 5.14 360 11:41 17.05.2021
3904 Clouds 18 1022 67 10000 5.14 360 11:20 17.05.2021
3905 Clouds 17 1022 77 10000 4.12 10 10:41 17.05.2021
3906 Clear 16 1021 72 10000 4.63 10 10:21 17.05.2021
3907 Clouds 15 1021 88 10000 4.12 340 09:24 17.05.2021
3908 Clear 14 1020 88 10000 3.6 340 08:29 17.05.2021
3909 Clear 14 1020 88 10000 3.09 340 07:51 17.05.2021
3910 Clear 14 1020 88 10000 3.6 350 07:23 17.05.2021
3911 Clear 14 1020 82 10000 3.6 350 06:20 17.05.2021
3912 Clear 15 1020 82 10000 2.06 30 03:38 17.05.2021
3913 Clear 16 1020 82 10000 2.06 350 01:57 17.05.2021
3914 Clouds 16 1020 82 10000 4.63 330 00:43 17.05.2021
3915 Clouds 17 1020 77 10000 4.12 330 23:47 16.05.2021
3916 Clouds 17 1020 82 10000 5.66 330 23:20 16.05.2021
3917 Clouds 17 1019 82 10000 3.6 320 22:41 16.05.2021
3918 Clouds 18 1019 82 10000 3.6 320 22:22 16.05.2021
3919 Clouds 18 1019 82 10000 4.63 340 21:42 16.05.2021
3920 Clouds 18 1018 82 10000 2.06 300 21:22 16.05.2021
3921 Clouds 18 1019 82 10000 3.6 310 20:41 16.05.2021
3922 Clouds 19 1019 82 10000 3.6 310 20:21 16.05.2021
3923 Clouds 19 1019 82 10000 3.09 290 19:49 16.05.2021
3924 Clouds 19 1019 82 10000 4.12 310 19:22 16.05.2021
3925 Clouds 20 1019 77 10000 4.12 290 18:46 16.05.2021
3926 Clouds 20 1019 77 10000 4.63 300 18:27 16.05.2021
3927 Clouds 20 1019 77 10000 4.63 290 17:59 16.05.2021
3928 Clouds 20 1020 77 10000 5.14 300 17:40 16.05.2021
3929 Clouds 20 1020 77 10000 5.14 300 17:20 16.05.2021
3930 Clouds 20 1020 77 10000 4.63 300 16:49 16.05.2021
3931 Clouds 20 1020 77 10000 5.66 310 16:24 16.05.2021
3932 Clouds 20 1020 77 10000 5.66 310 15:48 16.05.2021
3933 Clouds 20 1020 77 10000 5.66 300 15:23 16.05.2021
3934 Clouds 20 1020 77 10000 5.14 300 14:49 16.05.2021
3935 Clouds 20 1020 77 10000 4.63 290 14:21 16.05.2021
3936 Clouds 20 1020 82 10000 3.6 290 13:57 16.05.2021
3937 Clouds 19 1020 82 10000 3.6 290 13:36 16.05.2021
3938 Clouds 19 1020 82 10000 4.12 300 13:18 16.05.2021
3939 Clouds 19 1020 82 10000 4.12 290 12:45 16.05.2021
3940 Clouds 19 1020 82 10000 4.63 270 12:22 16.05.2021
3941 Clouds 19 1019 82 10000 3.6 280 11:45 16.05.2021
3942 Clouds 19 1019 88 10000 3.09 280 10:59 16.05.2021
3943 Clouds 18 1019 82 10000 3.6 270 10:36 16.05.2021
3944 Clouds 18 1019 82 10000 3.6 270 10:18 16.05.2021
3945 Clouds 18 1019 82 10000 4.12 270 09:40 16.05.2021
3946 Clouds 17 1019 88 10000 3.6 270 09:21 16.05.2021
3947 Clouds 17 1019 88 10000 2.57 260 08:27 16.05.2021
3948 Clouds 17 1018 88 10000 2.57 260 07:55 16.05.2021
3949 Clouds 17 1018 82 10000 2.57 240 07:25 16.05.2021
3950 Clouds 17 1018 88 10000 2.57 300 05:38 16.05.2021
3951 Clouds 18 1020 88 10000 3.09 310 00:53 16.05.2021
3952 Clouds 18 1020 88 10000 2.57 320 00:19 16.05.2021
3953 Clouds 18 1020 88 10000 3.6 320 23:23 15.05.2021
3954 Clouds 18 1019 82 10000 4.12 330 22:59 15.05.2021
3955 Clouds 18 1019 82 10000 4.12 310 22:28 15.05.2021
3956 Clouds 18 1019 82 10000 3.6 310 21:43 15.05.2021
3957 Clouds 18 1019 82 10000 3.6 310 21:43 15.05.2021
3958 Clouds 19 1019 77 10000 3.09 310 21:21 15.05.2021
3959 Clouds 20 1019 73 10000 3.09 300 20:45 15.05.2021
3960 Clouds 20 1019 73 10000 4.12 320 20:21 15.05.2021
3961 Clouds 21 1019 68 10000 4.12 310 19:44 15.05.2021
3962 Clouds 21 1019 64 10000 5.14 310 18:50 15.05.2021
3963 Clouds 21 1019 64 10000 5.14 320 18:21 15.05.2021
3964 Clouds 22 1019 60 10000 4.12 300 17:42 15.05.2021
3965 Clouds 22 1019 64 10000 4.63 330 16:51 15.05.2021
3966 Clouds 22 1019 60 10000 3.6 310 16:28 15.05.2021
3967 Clouds 22 1019 64 10000 3.09 310 15:59 15.05.2021
3968 Clouds 21 1020 73 10000 3.6 310 15:24 15.05.2021
3969 Clouds 21 1020 64 10000 3.09 0 14:48 15.05.2021
3970 Clouds 21 1020 68 10000 2.57 320 14:26 15.05.2021
3971 Clouds 20 1020 68 10000 1.54 0 13:37 15.05.2021
3972 Clouds 19 1020 72 10000 2.06 290 12:51 15.05.2021
3973 Clouds 18 1021 77 10000 4.12 320 11:53 15.05.2021
3974 Clouds 18 1020 77 10000 3.6 310 11:18 15.05.2021
3975 Clouds 17 1020 82 10000 2.06 310 10:32 15.05.2021
3976 Clouds 16 1020 88 10000 1.54 280 09:45 15.05.2021
3977 Clouds 15 1019 94 10000 1.54 300 08:38 15.05.2021
3978 Clouds 15 1019 88 10000 0.51 0 07:54 15.05.2021
3979 Clouds 15 1019 94 10000 1.03 0 07:23 15.05.2021
3980 Clouds 15 1019 94 10000 1.54 280 06:51 15.05.2021
3981 Clouds 15 1019 94 10000 1.03 290 05:49 15.05.2021
3982 Clouds 15 1019 94 10000 2.57 240 04:19 15.05.2021
3983 Clear 16 1021 88 10000 3.09 310 00:22 15.05.2021
3984 Clear 16 1020 77 10000 4.12 310 23:36 14.05.2021
3985 Clouds 17 1020 77 10000 3.09 340 22:40 14.05.2021
3986 Clouds 17 1020 77 10000 3.09 340 22:22 14.05.2021
3987 Clouds 17 1019 72 10000 4.12 340 21:31 14.05.2021
3988 Clouds 18 1020 68 10000 4.12 330 20:55 14.05.2021
3989 Clouds 18 1020 68 10000 4.63 320 20:27 14.05.2021
3990 Clouds 19 1020 63 10000 6.69 340 19:48 14.05.2021
3991 Clouds 19 1020 63 10000 4.12 310 19:27 14.05.2021
3992 Clouds 19 1020 63 10000 4.12 310 18:47 14.05.2021
3993 Clouds 19 1020 63 10000 5.14 320 18:25 14.05.2021
3994 Clouds 20 1020 60 10000 4.63 310 17:43 14.05.2021
3995 Clouds 20 1020 56 10000 4.63 340 17:24 14.05.2021
3996 Clouds 21 1020 56 10000 4.12 340 16:44 14.05.2021
3997 Clouds 21 1020 52 10000 4.12 330 16:26 14.05.2021
3998 Clouds 20 1021 60 10000 4.63 320 15:31 14.05.2021
3999 Clouds 20 1021 60 10000 4.63 330 14:41 14.05.2021
4000 Clouds 19 1021 63 10000 3.6 330 13:55 14.05.2021
4001 Clouds 19 1021 68 10000 4.63 350 13:31 14.05.2021
4002 Clouds 18 1021 68 10000 4.63 350 12:51 14.05.2021
4003 Clouds 18 1021 72 10000 4.12 340 12:30 14.05.2021
4004 Clouds 17 1021 72 10000 4.12 330 11:49 14.05.2021
4005 Clouds 17 1021 82 10000 4.63 350 11:22 14.05.2021
4006 Clouds 16 1021 82 10000 3.09 330 10:38 14.05.2021
4007 Clouds 16 1021 88 10000 1.54 320 09:53 14.05.2021
4008 Clouds 16 1021 88 10000 1.54 320 09:53 14.05.2021
4009 Clouds 15 1021 94 10000 1.54 330 09:31 14.05.2021
4010 Clouds 14 1020 94 10000 3.96 338 08:48 14.05.2021
4011 Clouds 14 1020 94 10000 2.06 310 07:53 14.05.2021
4012 Clouds 14 1020 94 10000 1.54 270 06:47 14.05.2021
4013 Clouds 15 1021 88 10000 1.54 290 03:36 14.05.2021
4014 Clouds 15 1021 94 10000 0.51 0 02:31 14.05.2021
4015 Clouds 16 1021 82 10000 2.57 310 00:37 14.05.2021
4016 Clouds 16 1021 82 10000 2.57 290 23:48 13.05.2021
4017 Clouds 16 1021 88 10000 4.12 330 23:20 13.05.2021
4018 Clouds 16 1020 82 10000 3.09 310 22:48 13.05.2021
4019 Clouds 16 1020 82 10000 3.09 300 22:29 13.05.2021
4020 Clouds 17 1020 82 10000 4.12 300 21:47 13.05.2021
4021 Clouds 17 1019 68 10000 3.6 290 21:28 13.05.2021
4022 Clouds 18 1019 72 10000 4.63 300 20:53 13.05.2021
4023 Clouds 18 1019 72 10000 4.63 300 20:33 13.05.2021
4024 Clouds 18 1019 82 10000 5.66 300 19:45 13.05.2021
4025 Clouds 18 1020 85 5000 5.14 280 19:22 13.05.2021
4026 Clouds 18 1020 83 10000 5.14 280 18:56 13.05.2021
4027 Clouds 18 1020 83 10000 5.14 280 18:56 13.05.2021
4028 Clouds 18 1020 83 5000 4.12 280 18:31 13.05.2021
4029 Clouds 19 1020 80 10000 5.66 270 17:59 13.05.2021
4030 Clouds 19 1020 77 10000 4.63 290 17:39 13.05.2021
4031 Clouds 19 1020 77 10000 4.63 290 17:20 13.05.2021
4032 Clouds 19 1020 82 10000 4.63 280 16:37 13.05.2021
4033 Clouds 19 1020 82 10000 4.63 280 16:18 13.05.2021
4034 Clouds 19 1020 77 10000 4.12 280 15:45 13.05.2021
4035 Drizzle 17 1021 88 10000 5.14 260 15:21 13.05.2021
4036 Clouds 18 1021 77 10000 5.14 270 14:47 13.05.2021
4037 Clouds 18 1021 77 10000 5.14 270 14:28 13.05.2021
4038 Clouds 18 1021 72 10000 4.63 270 13:47 13.05.2021
4039 Clouds 19 1021 72 10000 4.12 270 13:29 13.05.2021
4040 Clouds 19 1021 70 10000 4.63 260 12:58 13.05.2021
4041 Clouds 19 1021 68 10000 4.12 280 12:39 13.05.2021
4042 Clouds 18 1022 73 10000 4.63 270 11:56 13.05.2021
4043 Clouds 18 1022 70 10000 5.14 260 11:35 13.05.2021
4044 Clouds 18 1021 65 10000 4.47 286 10:54 13.05.2021
4045 Clouds 17 1021 80 10000 4.63 270 10:33 13.05.2021
4046 Clouds 16 1021 85 10000 3.09 250 09:41 13.05.2021
4047 Clouds 16 1021 85 10000 3.09 250 09:20 13.05.2021
4048 Clouds 14 1021 91 10000 2.57 240 08:29 13.05.2021
4049 Clouds 14 1021 91 10000 2.57 230 07:55 13.05.2021
4050 Clouds 14 1021 94 10000 2.57 210 06:45 13.05.2021
4051 Clouds 14 1022 91 10000 2.06 250 05:48 13.05.2021
4052 Clouds 14 1023 85 10000 1.03 240 02:38 13.05.2021
4053 Clear 15 1024 80 10000 1.54 330 00:27 13.05.2021
4054 Clear 15 1024 75 10000 2.57 310 23:37 12.05.2021
4055 Clear 15 1024 72 10000 3.09 310 22:54 12.05.2021
4056 Clouds 15 1023 70 10000 3.09 290 22:18 12.05.2021
4057 Clouds 16 1023 65 10000 3.6 300 21:48 12.05.2021
4058 Clouds 17 1023 63 10000 4.12 300 20:57 12.05.2021
4059 Clouds 17 1023 55 10000 5.14 300 20:31 12.05.2021
4060 Clouds 17 1023 55 10000 5.14 300 19:49 12.05.2021
4061 Clouds 18 1022 52 10000 4.63 310 18:51 12.05.2021
4062 Clouds 18 1022 52 10000 5.14 300 18:24 12.05.2021
4063 Clouds 19 1022 51 10000 6.17 340 17:51 12.05.2021
4064 Clouds 19 1022 51 10000 5.14 300 17:33 12.05.2021
4065 Clouds 19 1022 52 10000 5.14 300 16:44 12.05.2021
4066 Clouds 19 1023 54 10000 4.63 300 16:21 12.05.2021
4067 Clouds 19 1023 72 10000 5.14 300 15:40 12.05.2021
4068 Clouds 19 1022 59 10000 5.14 310 14:57 12.05.2021
4069 Clouds 19 1022 55 10000 5.66 300 14:34 12.05.2021
4070 Clouds 19 1022 55 10000 5.66 300 14:34 12.05.2021
4071 Clouds 19 1022 59 10000 4.63 290 13:48 12.05.2021
4072 Clouds 19 1022 55 10000 4.63 310 13:26 12.05.2021
4073 Clouds 18 1022 67 10000 4.63 310 12:35 12.05.2021
4074 Clouds 18 1022 63 10000 4.63 310 11:47 12.05.2021
4075 Clouds 17 1022 67 10000 4.12 300 11:24 12.05.2021
4076 Clouds 17 1022 77 10000 4.12 290 10:58 12.05.2021
4077 Clouds 17 1022 77 10000 4.12 290 10:58 12.05.2021
4078 Clouds 17 1021 82 10000 3.6 310 10:28 12.05.2021
4079 Clouds 16 1021 82 10000 2.57 290 09:44 12.05.2021
4080 Clouds 16 1021 88 10000 3.09 300 09:26 12.05.2021
4081 Clouds 15 1021 88 10000 4.63 300 08:46 12.05.2021
4082 Clouds 15 1020 88 10000 4.63 310 08:27 12.05.2021
4083 Clouds 16 1020 100 7000 4.12 250 07:28 12.05.2021
4084 Clouds 15 1020 100 6000 4.12 230 05:43 12.05.2021
4085 Clouds 16 1023 72 10000 3.6 230 00:46 12.05.2021
4086 Clouds 16 1023 67 10000 4.12 240 00:28 12.05.2021
4087 Clouds 16 1023 67 10000 4.12 230 23:46 11.05.2021
4088 Clouds 16 1023 67 10000 4.12 230 23:28 11.05.2021
4089 Clouds 16 1023 67 10000 4.12 230 22:47 11.05.2021
4090 Clouds 16 1023 67 10000 5.14 230 22:20 11.05.2021
4091 Clouds 16 1023 63 10000 5.14 230 21:52 11.05.2021
4092 Clouds 16 1022 63 10000 4.63 240 21:33 11.05.2021
4093 Clouds 16 1022 63 10000 4.63 240 21:33 11.05.2021
4094 Clouds 16 1022 59 10000 5.14 230 20:56 11.05.2021
4095 Clouds 16 1022 59 10000 5.66 240 20:37 11.05.2021
4096 Clouds 17 1022 59 10000 5.66 240 20:19 11.05.2021
4097 Clouds 17 1022 59 10000 5.66 220 19:40 11.05.2021
4098 Clouds 17 1022 59 10000 5.66 220 19:21 11.05.2021
4099 Clouds 17 1022 55 10000 5.14 240 18:43 11.05.2021
4100 Clouds 18 1022 52 10000 6.69 230 18:24 11.05.2021
4101 Clouds 17 1022 55 10000 5.14 250 17:38 11.05.2021
4102 Clouds 17 1022 55 10000 5.14 250 17:19 11.05.2021
4103 Clear 18 1023 45 10000 4.12 260 16:41 11.05.2021
4104 Clear 18 1023 45 10000 4.12 260 16:20 11.05.2021
4105 Clouds 18 1023 45 10000 4.12 0 15:42 11.05.2021
4106 Clouds 18 1023 45 10000 4.12 290 15:19 11.05.2021
4107 Clouds 17 1023 48 10000 3.09 270 14:43 11.05.2021
4108 Clouds 18 1023 48 10000 4.63 270 14:22 11.05.2021
4109 Clouds 17 1024 55 10000 4.63 260 13:46 11.05.2021
4110 Clouds 17 1024 59 10000 3.6 280 13:22 11.05.2021
4111 Clouds 16 1023 63 10000 3.09 270 12:51 11.05.2021
4112 Clouds 17 1023 63 10000 3.09 270 12:31 11.05.2021
4113 Clouds 16 1023 63 10000 3.09 270 11:49 11.05.2021
4114 Clouds 17 1023 59 10000 2.06 290 11:27 11.05.2021
4115 Clouds 16 1023 67 10000 1.54 0 10:54 11.05.2021
4116 Clouds 15 1023 72 10000 1.54 310 10:32 11.05.2021
4117 Clouds 15 1022 72 10000 1.03 0 09:58 11.05.2021
4118 Clouds 15 1022 76 10000 1.54 190 09:39 11.05.2021
4119 Clouds 14 1022 76 10000 1.54 190 09:21 11.05.2021
4120 Clouds 13 1022 87 10000 2.06 240 08:47 11.05.2021
4121 Clouds 13 1021 87 10000 2.06 250 08:29 11.05.2021
4122 Clouds 12 1021 87 10000 2.57 240 07:53 11.05.2021
4123 Clouds 12 1021 87 10000 1.54 250 07:24 11.05.2021
4124 Clouds 12 1021 87 9000 3.09 250 05:42 11.05.2021
4125 Clouds 14 1019 67 10000 2.06 290 00:55 11.05.2021
4126 Clouds 14 1019 67 10000 2.57 300 00:36 11.05.2021
4127 Clouds 14 1019 67 10000 2.57 290 23:46 10.05.2021
4128 Clouds 14 1018 67 10000 3.09 300 23:21 10.05.2021
4129 Clouds 14 1017 67 10000 3.6 300 22:43 10.05.2021
4130 Clouds 14 1017 67 10000 3.6 300 22:19 10.05.2021
4131 Clouds 15 1017 67 10000 3.6 300 21:47 10.05.2021
4132 Clouds 15 1016 58 10000 5.14 300 21:26 10.05.2021
4133 Clouds 15 1015 63 10000 4.63 300 20:43 10.05.2021
4134 Clouds 16 1015 58 10000 6.17 310 20:20 10.05.2021
4135 Clouds 16 1015 63 10000 5.66 300 19:45 10.05.2021
4136 Clouds 16 1014 63 10000 6.17 300 19:24 10.05.2021
4137 Clouds 16 1014 59 10000 7.2 270 18:55 10.05.2021
4138 Clouds 17 1014 55 10000 6.17 300 18:26 10.05.2021
4139 Clouds 17 1013 59 10000 7.2 270 17:48 10.05.2021
4140 Clouds 17 1013 59 10000 7.2 280 17:30 10.05.2021
4141 Clouds 16 1013 72 10000 7.72 270 16:52 10.05.2021
4142 Clouds 16 1013 59 10000 7.2 270 16:26 10.05.2021
4143 Clouds 17 1013 63 10000 6.69 260 15:44 10.05.2021
4144 Clouds 16 1013 72 10000 6.69 270 15:25 10.05.2021
4145 Clouds 16 1013 67 10000 6.69 260 14:54 10.05.2021
4146 Clouds 16 1013 77 10000 6.17 260 14:25 10.05.2021
4147 Clouds 16 1013 88 10000 5.66 290 13:49 10.05.2021
4148 Clouds 17 1012 63 10000 5.66 250 12:54 10.05.2021
4149 Clouds 17 1012 63 10000 4.12 250 12:31 10.05.2021
4150 Clouds 15 1012 82 10000 3.09 210 11:51 10.05.2021
4151 Clouds 15 1012 94 10000 3.09 220 11:29 10.05.2021
4152 Clouds 15 1012 77 10000 3.6 220 10:59 10.05.2021
4153 Clouds 15 1012 82 10000 3.09 220 10:40 10.05.2021
4154 Clouds 15 1012 77 10000 2.57 220 09:54 10.05.2021
4155 Clouds 14 1012 88 10000 2.06 240 09:35 10.05.2021
4156 Clouds 13 1012 87 10000 3.6 230 08:42 10.05.2021
4157 Clouds 13 1012 88 8000 3.09 240 08:19 10.05.2021
4158 Clouds 13 1011 87 10000 2.06 230 07:48 10.05.2021
4159 Clouds 13 1011 82 10000 3.6 220 07:27 10.05.2021
4160 Clouds 14 1012 76 10000 2.57 230 06:47 10.05.2021
4161 Clouds 14 1013 82 10000 3.09 240 02:20 10.05.2021
4162 Clouds 15 1013 72 10000 2.57 240 00:29 10.05.2021
4163 Clouds 15 1012 67 10000 4.63 260 22:47 09.05.2021
4164 Clouds 16 1012 67 10000 3.6 270 22:22 09.05.2021
4165 Clouds 16 1011 63 10000 4.12 270 21:57 09.05.2021
4166 Clouds 16 1011 63 10000 5.14 260 21:39 09.05.2021
4167 Clouds 16 1011 63 10000 4.63 270 20:55 09.05.2021
4168 Clouds 17 1010 59 10000 4.63 290 20:35 09.05.2021
4169 Clouds 17 1010 55 10000 4.63 280 19:52 09.05.2021
4170 Clouds 17 1010 55 10000 6.17 270 19:28 09.05.2021
4171 Clouds 18 1010 45 10000 6.17 270 18:52 09.05.2021
4172 Clouds 18 1009 52 10000 6.17 280 18:29 09.05.2021
4173 Clouds 18 1009 52 10000 6.69 270 17:47 09.05.2021
4174 Clouds 18 1009 55 10000 6.17 270 16:45 09.05.2021
4175 Clouds 18 1009 55 10000 6.17 280 16:24 09.05.2021
4176 Clouds 18 1009 52 10000 5.66 290 15:49 09.05.2021
4177 Clouds 18 1009 55 10000 5.66 270 15:18 09.05.2021
4178 Clouds 18 1009 55 10000 5.66 270 15:18 09.05.2021
4179 Clouds 18 1008 63 10000 5.14 300 14:36 09.05.2021
4180 Clouds 17 1008 67 10000 4.63 290 13:46 09.05.2021
4181 Clouds 17 1008 67 10000 5.66 290 13:21 09.05.2021
4182 Clouds 17 1007 67 10000 4.63 280 12:30 09.05.2021
4183 Clouds 16 1007 72 10000 3.6 300 11:43 09.05.2021
4184 Clouds 16 1006 82 10000 4.63 300 11:20 09.05.2021
4185 Clouds 15 1005 94 10000 5.66 320 10:41 09.05.2021
4186 Clouds 15 1004 94 10000 5.66 300 09:49 09.05.2021
4187 Clouds 15 1003 100 1500 10.8 200 09:29 09.05.2021
4188 Clouds 16 1003 94 6000 9.26 190 08:54 09.05.2021
4189 Clouds 16 1004 94 10000 10.29 180 08:32 09.05.2021
4190 Clouds 16 1004 94 10000 8.75 180 07:56 09.05.2021
4191 Rain 16 1004 94 10000 8.23 180 07:24 09.05.2021
4192 Clouds 16 1005 88 10000 8.75 190 06:34 09.05.2021
4193 Clouds 16 1010 82 10000 4.63 230 00:52 09.05.2021
4194 Clouds 16 1010 82 10000 4.12 220 23:44 08.05.2021
4195 Clouds 16 1010 82 10000 4.63 240 23:26 08.05.2021
4196 Clouds 16 1010 77 10000 4.12 230 22:47 08.05.2021
4197 Clouds 17 1010 72 10000 4.12 260 22:20 08.05.2021
4198 Clouds 17 1010 72 10000 4.63 260 21:49 08.05.2021
4199 Clouds 17 1011 63 10000 5.14 250 21:19 08.05.2021
4200 Clouds 18 1011 63 10000 5.66 250 20:49 08.05.2021
4201 Clouds 18 1011 55 10000 5.66 240 20:21 08.05.2021
4202 Clouds 19 1011 46 10000 5.14 240 19:24 08.05.2021
4203 Clouds 19 1011 49 10000 5.14 230 18:54 08.05.2021
4204 Clouds 21 1011 49 10000 4.12 270 18:36 08.05.2021
4205 Clouds 21 1012 49 10000 3.6 270 17:54 08.05.2021
4206 Clouds 20 1012 49 10000 5.66 260 17:25 08.05.2021
4207 Clouds 21 1013 49 10000 4.12 250 16:31 08.05.2021
4208 Clouds 21 1013 53 10000 3.09 260 15:52 08.05.2021
4209 Clouds 21 1013 46 10000 5.14 210 15:31 08.05.2021
4210 Clouds 21 1013 49 10000 4.63 220 14:49 08.05.2021
4211 Clouds 21 1014 56 10000 4.12 230 14:24 08.05.2021
4212 Clouds 20 1014 60 10000 3.6 230 13:53 08.05.2021
4213 Clouds 20 1014 60 10000 3.09 310 13:22 08.05.2021
4214 Clouds 19 1014 63 10000 2.57 0 12:35 08.05.2021
4215 Clouds 18 1015 63 10000 1.54 270 11:45 08.05.2021
4216 Clouds 18 1015 72 10000 2.06 0 11:27 08.05.2021
4217 Clouds 17 1015 77 10000 2.06 310 10:42 08.05.2021
4218 Clouds 16 1015 77 10000 2.06 330 10:22 08.05.2021
4219 Clouds 16 1015 82 10000 1.54 320 09:50 08.05.2021
4220 Clouds 15 1015 88 10000 1.54 340 09:32 08.05.2021
4221 Clouds 13 1015 94 10000 2.57 330 08:30 08.05.2021
4222 Clear 14 1015 94 10000 2.57 330 07:41 08.05.2021
4223 Clear 14 1015 94 10000 2.57 330 07:21 08.05.2021
4224 Clear 14 1015 88 10000 3.09 320 06:38 08.05.2021
4225 Clear 16 1017 82 10000 5.14 320 01:55 08.05.2021
4226 Clear 16 1018 82 10000 5.14 320 00:51 08.05.2021
4227 Clear 16 1018 77 10000 6.17 310 00:30 08.05.2021
4228 Clear 17 1018 82 10000 6.17 310 23:31 07.05.2021
4229 Clear 17 1018 82 10000 6.17 310 22:51 07.05.2021
4230 Clear 17 1017 77 10000 5.66 310 22:24 07.05.2021
4231 Clear 18 1017 72 10000 4.63 310 21:43 07.05.2021
4232 Clouds 18 1017 72 10000 5.14 320 21:24 07.05.2021
4233 Clouds 19 1017 68 10000 5.14 310 20:48 07.05.2021
4234 Clouds 19 1017 68 10000 5.14 310 20:48 07.05.2021
4235 Clouds 20 1017 64 10000 5.66 310 20:28 07.05.2021
4236 Clouds 21 1017 60 10000 5.14 320 19:49 07.05.2021
4237 Clouds 21 1018 60 10000 5.14 310 19:27 07.05.2021
4238 Clouds 22 1017 56 10000 5.66 330 18:47 07.05.2021
4239 Clouds 22 1018 56 10000 5.66 330 18:28 07.05.2021
4240 Clouds 23 1018 56 10000 5.14 330 17:42 07.05.2021
4241 Clouds 23 1018 56 10000 4.12 350 17:20 07.05.2021
4242 Clouds 23 1019 56 10000 4.12 320 16:41 07.05.2021
4243 Clouds 23 1019 56 10000 4.12 320 16:22 07.05.2021
4244 Clouds 23 1019 53 10000 3.09 290 15:44 07.05.2021
4245 Clouds 23 1019 53 10000 3.6 0 15:26 07.05.2021
4246 Clouds 22 1020 53 10000 3.09 290 14:38 07.05.2021
4247 Clouds 22 1020 53 10000 3.09 290 14:20 07.05.2021
4248 Clouds 20 1020 60 10000 4.12 350 13:31 07.05.2021
4249 Clouds 20 1020 60 10000 3.6 290 12:52 07.05.2021
4250 Clouds 20 1020 60 10000 3.6 300 12:33 07.05.2021
4251 Clouds 19 1020 63 10000 3.6 310 11:52 07.05.2021
4252 Clouds 18 1020 72 10000 4.12 320 11:31 07.05.2021
4253 Clouds 17 1020 77 10000 5.14 340 10:52 07.05.2021
4254 Clouds 17 1020 77 10000 5.14 350 10:25 07.05.2021
4255 Clouds 17 1020 82 10000 5.14 330 09:59 07.05.2021
4256 Clouds 15 1019 88 10000 4.12 330 08:58 07.05.2021
4257 Clouds 15 1019 94 10000 4.12 330 08:40 07.05.2021
4258 Clouds 15 1019 94 10000 4.63 340 07:53 07.05.2021
4259 Clouds 15 1019 94 10000 4.12 340 06:46 07.05.2021
4260 Clouds 14 1020 88 10000 3.09 320 05:44 07.05.2021
4261 Clouds 15 1021 88 10000 4.63 330 01:54 07.05.2021
4262 Clouds 16 1020 82 10000 6.17 340 23:34 06.05.2021
4263 Clouds 16 1020 77 10000 5.66 340 22:38 06.05.2021
4264 Clouds 17 1020 77 10000 5.14 330 21:45 06.05.2021
4265 Clouds 17 1020 77 10000 5.14 330 21:45 06.05.2021
4266 Clouds 17 1019 68 10000 6.17 310 20:49 06.05.2021
4267 Clouds 17 1019 68 10000 6.17 310 20:49 06.05.2021
4268 Clouds 17 1019 68 10000 6.17 310 20:49 06.05.2021
4269 Clouds 18 1019 63 10000 6.17 310 20:26 06.05.2021
4270 Clouds 19 1019 63 10000 7.2 320 19:56 06.05.2021
4271 Clouds 19 1019 60 10000 5.66 310 19:36 06.05.2021
4272 Clouds 19 1019 60 10000 5.66 310 19:18 06.05.2021
4273 Clouds 21 1019 56 10000 5.66 310 18:36 06.05.2021
4274 Clouds 21 1019 52 10000 5.14 300 17:58 06.05.2021
4275 Clouds 21 1019 53 10000 5.66 330 17:39 06.05.2021
4276 Clouds 22 1019 53 10000 5.66 330 17:18 06.05.2021
4277 Clouds 21 1019 49 10000 5.66 340 16:46 06.05.2021
4278 Clouds 21 1019 53 10000 4.63 300 16:23 06.05.2021
4279 Clouds 22 1019 49 10000 4.12 320 15:42 06.05.2021
4280 Clouds 22 1019 53 10000 3.09 300 15:22 06.05.2021
4281 Clouds 21 1019 60 10000 2.06 300 14:27 06.05.2021
4282 Clouds 21 1020 64 10000 2.57 290 13:55 06.05.2021
4283 Clouds 21 1020 64 10000 2.57 290 13:55 06.05.2021
4284 Clouds 20 1020 63 10000 4.63 350 13:27 06.05.2021
4285 Clouds 19 1020 63 10000 4.12 340 12:55 06.05.2021
4286 Clouds 19 1020 68 10000 5.14 340 12:33 06.05.2021
4287 Clouds 18 1020 68 10000 5.66 360 11:49 06.05.2021
4288 Clouds 18 1020 68 10000 5.66 340 11:25 06.05.2021
4289 Clouds 17 1020 72 10000 6.17 350 10:52 06.05.2021
4290 Clouds 17 1019 77 10000 5.66 340 10:27 06.05.2021
4291 Clouds 16 1019 82 10000 5.66 340 09:52 06.05.2021
4292 Clouds 16 1019 88 10000 5.14 350 09:32 06.05.2021
4293 Clouds 15 1019 82 10000 3.09 350 08:54 06.05.2021
4294 Clouds 15 1018 88 10000 4.12 350 08:24 06.05.2021
4295 Clouds 15 1018 94 10000 5.14 340 07:54 06.05.2021
4296 Clouds 15 1018 88 10000 5.14 340 07:31 06.05.2021
4297 Clouds 15 1018 88 10000 4.63 330 06:28 06.05.2021
4298 Clouds 15 1018 88 10000 3.6 340 05:50 06.05.2021
4299 Clouds 15 1019 88 10000 4.63 350 04:36 06.05.2021
4300 Clouds 15 1019 88 10000 4.12 350 02:35 06.05.2021
4301 Clouds 15 1019 82 10000 6.17 340 00:46 06.05.2021
4302 Clouds 16 1019 72 10000 7.72 340 22:49 05.05.2021
4303 Clouds 16 1018 72 10000 7.72 330 22:24 05.05.2021
4304 Clouds 16 1018 72 10000 7.72 330 21:43 05.05.2021
4305 Clouds 17 1018 72 10000 7.2 330 21:21 05.05.2021
4306 Clouds 17 1017 68 10000 7.72 320 20:36 05.05.2021
4307 Clouds 18 1018 63 10000 7.2 320 19:56 05.05.2021
4308 Clouds 19 1018 60 10000 7.2 320 19:37 05.05.2021
4309 Clouds 19 1018 60 10000 7.2 320 19:18 05.05.2021
4310 Clouds 21 1017 53 10000 7.72 350 18:23 05.05.2021
4311 Clouds 21 1017 52 10000 7.72 330 17:54 05.05.2021
4312 Clouds 21 1018 49 10000 7.72 340 17:28 05.05.2021
4313 Clouds 21 1018 49 10000 7.72 340 16:55 05.05.2021
4314 Clouds 21 1018 52 10000 7.2 340 16:32 05.05.2021
4315 Clouds 21 1018 52 10000 8.75 340 15:55 05.05.2021
4316 Clouds 21 1018 49 10000 6.17 330 15:22 05.05.2021
4317 Clouds 21 1018 46 10000 5.66 340 14:44 05.05.2021
4318 Clouds 21 1018 49 10000 5.14 340 14:25 05.05.2021
4319 Clouds 20 1019 52 10000 5.66 340 13:48 05.05.2021
4320 Clouds 20 1019 52 10000 5.66 340 13:25 05.05.2021
4321 Clouds 19 1019 59 10000 7.2 340 12:37 05.05.2021
4322 Clear 18 1018 59 10000 6.69 10 12:18 05.05.2021
4323 Clouds 18 1019 67 10000 7.72 350 11:41 05.05.2021
4324 Clouds 17 1019 67 10000 7.72 350 11:18 05.05.2021
4325 Clouds 16 1019 67 10000 8.75 360 10:43 05.05.2021
4326 Clouds 15 1019 77 10000 7.2 350 09:54 05.05.2021
4327 Clouds 15 1019 82 10000 6.17 350 09:31 05.05.2021
4328 Clouds 14 1018 82 10000 5.66 350 08:43 05.05.2021
4329 Clouds 14 1018 88 10000 7.2 340 08:24 05.05.2021
4330 Clouds 14 1018 88 10000 7.2 340 07:48 05.05.2021
4331 Clouds 14 1018 88 10000 5.14 340 07:22 05.05.2021
4332 Clouds 14 1018 88 10000 7.72 340 06:37 05.05.2021
4333 Clear 13 1019 76 10000 3.09 10 02:21 05.05.2021
4334 Clouds 14 1019 76 10000 6.69 350 00:50 05.05.2021
4335 Clouds 14 1019 72 10000 7.2 330 23:39 04.05.2021
4336 Clouds 15 1019 72 10000 6.69 320 22:57 04.05.2021
4337 Clouds 15 1018 67 10000 7.2 320 22:39 04.05.2021
4338 Clouds 15 1018 67 10000 7.2 320 22:18 04.05.2021
4339 Clouds 16 1018 59 10000 7.2 310 21:42 04.05.2021
4340 Clouds 16 1018 55 10000 7.72 320 21:20 04.05.2021
4341 Clouds 18 1017 52 10000 8.23 320 20:45 04.05.2021
4342 Clear 19 1017 45 10000 8.23 320 20:23 04.05.2021
4343 Clear 19 1017 42 10000 7.2 320 19:44 04.05.2021
4344 Clouds 20 1018 35 10000 6.69 320 19:26 04.05.2021
4345 Clouds 21 1018 40 10000 6.69 320 18:53 04.05.2021
4346 Clouds 22 1018 40 10000 5.66 320 18:34 04.05.2021
4347 Clouds 22 1018 43 10000 5.66 320 17:51 04.05.2021
4348 Clouds 22 1018 43 10000 5.66 310 17:26 04.05.2021
4349 Clouds 22 1018 40 10000 5.14 320 16:48 04.05.2021
4350 Clouds 23 1018 40 10000 4.63 340 16:24 04.05.2021
4351 Clouds 22 1019 40 10000 4.12 320 15:46 04.05.2021
4352 Clouds 22 1019 46 10000 4.63 320 15:21 04.05.2021
4353 Clear 21 1019 52 10000 5.14 330 14:30 04.05.2021
4354 Clouds 20 1020 56 10000 4.12 340 13:42 04.05.2021
4355 Clouds 20 1020 56 10000 4.12 340 13:21 04.05.2021
4356 Clouds 20 1020 56 10000 4.12 320 12:53 04.05.2021
4357 Clouds 19 1019 55 10000 4.63 330 12:28 04.05.2021
4358 Clouds 18 1019 63 10000 4.12 320 11:45 04.05.2021
4359 Clouds 17 1019 67 10000 5.66 330 11:24 04.05.2021
4360 Clouds 16 1019 67 10000 6.17 330 10:44 04.05.2021
4361 Clouds 16 1019 67 10000 4.63 310 10:23 04.05.2021
4362 Clouds 14 1019 77 10000 5.14 320 09:42 04.05.2021
4363 Clouds 14 1019 77 10000 6.17 320 09:20 04.05.2021
4364 Clouds 14 1018 76 10000 5.66 310 08:48 04.05.2021
4365 Clouds 13 1018 71 10000 6.17 310 08:19 04.05.2021
4366 Clear 13 1018 67 10000 4.63 320 07:47 04.05.2021
4367 Clear 13 1018 67 10000 4.63 320 07:47 04.05.2021
4368 Clear 13 1018 76 10000 2.57 320 06:47 04.05.2021
4369 Clear 14 1018 71 10000 4.63 310 06:21 04.05.2021
4370 Clear 14 1018 54 10000 3.6 330 03:58 04.05.2021
4371 Clear 15 1019 58 10000 6.17 330 01:43 04.05.2021
4372 Clear 16 1019 58 10000 7.72 340 00:19 04.05.2021
4373 Clear 16 1018 51 10000 8.23 340 23:31 03.05.2021
4374 Clear 17 1018 42 10000 7.2 330 22:42 03.05.2021
4375 Clear 17 1018 42 10000 7.2 330 22:23 03.05.2021
4376 Clear 18 1017 42 10000 6.69 330 21:46 03.05.2021
4377 Clear 18 1017 42 10000 6.69 330 21:25 03.05.2021
4378 Clear 19 1017 42 10000 7.72 340 20:56 03.05.2021
4379 Clear 20 1017 42 10000 7.72 340 20:38 03.05.2021
4380 Clear 21 1016 43 10000 7.2 330 19:53 03.05.2021
4381 Clear 21 1016 40 10000 8.23 350 19:34 03.05.2021
4382 Clear 22 1016 43 10000 7.2 340 18:42 03.05.2021
4383 Clear 21 1016 46 10000 5.14 350 17:57 03.05.2021
4384 Clear 22 1016 27 10000 3.6 110 17:34 03.05.2021
4385 Clear 22 1016 25 10000 4.12 90 16:53 03.05.2021
4386 Clouds 22 1017 25 10000 2.57 0 16:32 03.05.2021
4387 Clouds 21 1017 28 10000 5.14 80 15:51 03.05.2021
4388 Clouds 21 1017 30 10000 4.63 90 15:31 03.05.2021
4389 Clouds 20 1017 40 10000 3.6 90 14:38 03.05.2021
4390 Clouds 20 1018 37 10000 4.12 70 14:18 03.05.2021
4391 Clouds 20 1018 45 10000 4.63 80 13:38 03.05.2021
4392 Clouds 20 1018 45 10000 4.63 80 13:20 03.05.2021
4393 Clouds 19 1018 55 10000 3.09 90 12:39 03.05.2021
4394 Clouds 19 1018 55 10000 3.09 90 12:19 03.05.2021
4395 Clear 17 1018 59 10000 3.6 10 11:38 03.05.2021
4396 Clouds 17 1018 63 10000 4.63 330 10:57 03.05.2021
4397 Clouds 16 1018 67 10000 5.14 340 10:38 03.05.2021
4398 Clouds 16 1018 67 10000 5.14 340 10:18 03.05.2021
4399 Clear 14 1017 67 10000 5.14 330 09:40 03.05.2021
4400 Clear 14 1017 71 10000 5.66 330 08:46 03.05.2021
4401 Clear 12 1017 71 10000 5.66 330 08:24 03.05.2021
4402 Clear 13 1017 71 10000 5.14 330 07:55 03.05.2021
4403 Clear 12 1017 71 10000 5.66 330 06:39 03.05.2021
4404 Clear 13 1017 71 10000 5.66 330 06:19 03.05.2021
4405 Clear 13 1017 71 10000 5.66 330 06:19 03.05.2021
4406 Clear 12 1017 71 10000 5.14 330 05:42 03.05.2021
4407 Clear 13 1018 71 10000 6.17 330 00:46 03.05.2021
4408 Clear 13 1018 67 10000 7.2 330 23:57 02.05.2021
4409 Clear 14 1018 67 10000 7.2 330 23:21 02.05.2021
4410 Clouds 13 1017 62 10000 6.17 330 22:41 02.05.2021
4411 Clouds 13 1017 62 10000 6.17 330 22:18 02.05.2021
4412 Clouds 14 1017 58 10000 7.2 330 21:44 02.05.2021
4413 Clouds 15 1017 54 10000 7.72 330 21:24 02.05.2021
4414 Clouds 16 1017 55 10000 6.17 320 20:26 02.05.2021
4415 Clouds 16 1017 51 10000 5.66 320 19:50 02.05.2021
4416 Clouds 16 1017 51 10000 6.69 320 19:23 02.05.2021
4417 Clouds 16 1017 48 10000 6.17 320 18:55 02.05.2021
4418 Clouds 17 1017 45 10000 6.69 330 18:37 02.05.2021
4419 Clouds 17 1017 45 10000 6.69 330 18:18 02.05.2021
4420 Clouds 17 1017 48 10000 6.17 320 17:44 02.05.2021
4421 Clouds 17 1018 48 10000 5.66 330 17:23 02.05.2021
4422 Clouds 17 1018 48 10000 6.17 330 16:46 02.05.2021
4423 Clouds 17 1018 48 10000 6.17 330 16:27 02.05.2021
4424 Clear 18 1018 42 10000 6.69 340 15:44 02.05.2021
4425 Clear 17 1018 45 10000 5.66 350 15:24 02.05.2021
4426 Clear 17 1018 42 10000 4.63 330 14:45 02.05.2021
4427 Clouds 18 1018 39 10000 4.63 360 14:26 02.05.2021
4428 Clouds 17 1019 45 10000 3.6 350 13:46 02.05.2021
4429 Clouds 17 1019 48 10000 5.14 340 13:23 02.05.2021
4430 Clouds 16 1019 55 10000 5.66 350 12:55 02.05.2021
4431 Clouds 16 1019 55 10000 5.66 350 12:37 02.05.2021
4432 Clouds 16 1019 55 10000 5.66 350 12:19 02.05.2021
4433 Clouds 15 1019 67 10000 4.63 350 11:39 02.05.2021
4434 Clouds 15 1019 67 10000 4.63 350 11:21 02.05.2021
4435 Clouds 14 1019 71 10000 2.57 20 10:22 02.05.2021
4436 Clouds 13 1019 71 10000 3.09 330 09:50 02.05.2021
4437 Clouds 13 1019 76 10000 2.06 310 09:30 02.05.2021
4438 Clouds 13 1019 76 10000 2.06 310 09:30 02.05.2021
4439 Clouds 10 1019 81 10000 2.06 320 08:58 02.05.2021
4440 Clouds 9 1019 81 10000 2.57 340 08:34 02.05.2021
4441 Clouds 9 1019 81 10000 2.57 340 08:34 02.05.2021
4442 Clouds 10 1018 81 10000 2.06 320 07:56 02.05.2021
4443 Clouds 10 1018 81 10000 1.54 280 07:24 02.05.2021
4444 Clouds 10 1019 81 10000 1.03 280 05:32 02.05.2021
4445 Clouds 10 1019 81 10000 0.51 0 03:56 02.05.2021
4446 Clouds 12 1019 71 10000 1.54 310 00:26 02.05.2021
4447 Clouds 13 1019 66 10000 2.57 320 23:37 01.05.2021
4448 Clouds 13 1019 66 10000 2.57 320 23:19 01.05.2021
4449 Clouds 13 1019 62 10000 3.09 320 22:39 01.05.2021
4450 Clouds 13 1019 62 10000 3.09 320 22:18 01.05.2021
4451 Clouds 14 1019 58 10000 4.12 320 21:42 01.05.2021
4452 Clouds 14 1018 54 10000 4.12 330 21:23 01.05.2021
4453 Clouds 15 1018 51 10000 5.66 330 20:52 01.05.2021
4454 Clouds 15 1018 51 10000 5.66 320 20:29 01.05.2021
4455 Clouds 16 1018 47 10000 6.69 330 19:56 01.05.2021
4456 Clouds 16 1018 51 10000 7.2 330 19:31 01.05.2021
4457 Clouds 16 1017 48 10000 6.17 310 18:55 01.05.2021
4458 Clouds 16 1017 44 10000 6.69 320 18:35 01.05.2021
4459 Clouds 16 1017 41 10000 6.17 330 17:54 01.05.2021
4460 Clouds 16 1017 41 10000 5.66 330 17:28 01.05.2021
4461 Clouds 17 1017 48 10000 6.69 330 16:47 01.05.2021
4462 Clouds 17 1017 48 10000 6.17 340 16:29 01.05.2021
4463 Clouds 16 1017 44 10000 6.17 330 15:49 01.05.2021
4464 Clouds 16 1017 44 10000 6.17 330 14:53 01.05.2021
4465 Clouds 16 1017 47 10000 5.14 310 13:41 01.05.2021
4466 Clouds 16 1017 47 10000 5.14 310 13:23 01.05.2021
4467 Clouds 16 1017 47 10000 5.14 300 12:39 01.05.2021
4468 Clouds 16 1017 47 10000 5.14 300 12:19 01.05.2021
4469 Clouds 15 1017 62 10000 3.09 300 11:42 01.05.2021
4470 Clouds 15 1017 62 10000 3.09 300 11:23 01.05.2021
4471 Clouds 14 1017 66 10000 4.63 300 10:54 01.05.2021
4472 Clouds 13 1017 62 10000 1.54 310 09:58 01.05.2021
4473 Clouds 13 1016 62 10000 3.6 310 09:39 01.05.2021
4474 Clouds 13 1016 62 10000 3.6 310 09:20 01.05.2021
4475 Clouds 12 1016 76 10000 1.03 0 08:18 01.05.2021
4476 Clouds 11 1015 76 10000 1.54 250 07:27 01.05.2021
4477 Clouds 11 1015 76 10000 1.03 0 05:33 01.05.2021
4478 Clouds 13 1015 76 10000 2.06 300 01:38 01.05.2021
4479 Clouds 13 1015 66 10000 2.06 300 00:28 01.05.2021
4480 Clouds 13 1015 66 10000 2.06 310 23:43 30.04.2021
4481 Clouds 13 1015 66 10000 2.57 310 22:47 30.04.2021
4482 Clouds 13 1014 62 10000 3.09 320 22:20 30.04.2021
4483 Clouds 14 1014 58 10000 4.63 320 21:46 30.04.2021
4484 Clouds 14 1014 62 10000 5.66 330 21:27 30.04.2021
4485 Clouds 15 1013 58 10000 4.63 310 20:51 30.04.2021
4486 Clouds 15 1013 51 10000 5.66 320 20:31 30.04.2021
4487 Clouds 16 1013 44 10000 5.66 310 19:47 30.04.2021
4488 Clouds 16 1013 44 10000 6.17 330 18:49 30.04.2021
4489 Clouds 16 1012 44 10000 6.69 330 18:29 30.04.2021
4490 Clouds 17 1013 42 10000 5.66 310 17:56 30.04.2021
4491 Clouds 17 1013 42 10000 6.69 340 17:33 30.04.2021
4492 Clouds 17 1013 45 10000 7.2 330 16:54 30.04.2021
4493 Clouds 17 1013 42 10000 6.17 310 16:33 30.04.2021
4494 Clouds 17 1013 42 10000 5.14 310 15:44 30.04.2021
4495 Clouds 17 1013 42 10000 6.17 320 15:26 30.04.2021
4496 Clouds 17 1013 39 10000 6.17 330 14:59 30.04.2021
4497 Clouds 17 1013 48 10000 5.66 340 14:40 30.04.2021
4498 Clouds 17 1013 55 10000 4.63 330 14:19 30.04.2021
4499 Clouds 17 1013 63 10000 4.63 350 13:41 30.04.2021
4500 Clouds 16 1013 63 10000 4.63 350 13:22 30.04.2021
4501 Clouds 16 1013 55 10000 5.66 360 12:38 30.04.2021
4502 Clouds 16 1013 55 10000 5.66 350 11:56 30.04.2021
4503 Clouds 16 1013 58 10000 5.66 340 11:23 30.04.2021
4504 Clouds 15 1013 58 10000 6.17 340 10:51 30.04.2021
4505 Clouds 14 1013 67 10000 3.6 330 10:33 30.04.2021
4506 Clouds 14 1012 71 10000 3.09 300 09:49 30.04.2021
4507 Clouds 13 1012 71 10000 2.57 300 09:21 30.04.2021
4508 Clouds 12 1012 76 10000 2.57 300 08:40 30.04.2021
4509 Clouds 12 1012 76 10000 2.57 300 07:43 30.04.2021
4510 Clear 12 1011 76 10000 3.09 310 07:21 30.04.2021
4511 Clear 11 1011 76 10000 2.57 320 06:45 30.04.2021
4512 Clear 11 1011 76 10000 2.06 310 06:23 30.04.2021
4513 Clear 12 1012 76 10000 2.06 310 03:50 30.04.2021
4514 Clear 12 1013 76 10000 0.51 0 01:56 30.04.2021
4515 Clear 12 1013 71 10000 2.06 320 01:38 30.04.2021
4516 Clouds 13 1012 71 10000 4.63 330 23:33 29.04.2021
4517 Clouds 14 1012 71 10000 4.63 330 22:59 29.04.2021
4518 Clouds 13 1011 71 10000 4.63 330 22:41 29.04.2021
4519 Clouds 14 1011 71 10000 4.63 330 22:21 29.04.2021
4520 Clouds 14 1011 62 10000 5.66 330 21:43 29.04.2021
4521 Clouds 14 1011 62 10000 5.14 330 21:22 29.04.2021
4522 Clouds 15 1011 58 10000 5.14 320 20:45 29.04.2021
4523 Clouds 15 1011 58 10000 5.14 320 20:27 29.04.2021
4524 Clouds 16 1011 55 10000 4.63 310 19:57 29.04.2021
4525 Clouds 16 1011 55 10000 6.17 320 19:38 29.04.2021
4526 Clouds 16 1011 55 10000 6.17 320 19:19 29.04.2021
4527 Clouds 17 1011 45 10000 5.14 310 18:41 29.04.2021
4528 Clouds 17 1011 48 10000 5.14 310 17:48 29.04.2021
4529 Clouds 17 1011 51 10000 5.66 320 17:27 29.04.2021
4530 Clouds 17 1011 45 10000 4.12 290 16:54 29.04.2021
4531 Clouds 17 1011 51 10000 5.66 320 16:27 29.04.2021
4532 Clouds 17 1011 48 10000 5.14 320 15:57 29.04.2021
4533 Clouds 17 1012 45 10000 4.63 300 15:28 29.04.2021
4534 Clouds 17 1012 39 10000 5.14 320 14:53 29.04.2021
4535 Clouds 17 1012 45 10000 5.14 310 14:28 29.04.2021
4536 Clouds 17 1012 48 10000 3.09 300 13:56 29.04.2021
4537 Clouds 16 1012 58 10000 4.12 310 13:35 29.04.2021
4538 Clouds 16 1012 58 10000 2.57 310 12:52 29.04.2021
4539 Clouds 16 1012 58 10000 4.63 310 12:31 29.04.2021
4540 Clouds 16 1012 62 10000 5.14 330 11:57 29.04.2021
4541 Clouds 15 1011 55 10000 4.63 300 11:37 29.04.2021
4542 Clouds 15 1011 62 10000 3.6 310 11:18 29.04.2021
4543 Clouds 15 1011 67 10000 3.09 310 10:40 29.04.2021
4544 Clouds 14 1011 71 10000 2.06 300 09:59 29.04.2021
4545 Clouds 14 1011 71 10000 2.06 300 09:59 29.04.2021
4546 Clouds 14 1011 67 10000 1.54 300 09:36 29.04.2021
4547 Clouds 13 1011 67 10000 1.54 300 09:18 29.04.2021
4548 Clouds 13 1010 71 10000 3.09 310 08:34 29.04.2021
4549 Clouds 12 1010 81 10000 1.54 240 07:54 29.04.2021
4550 Clouds 12 1010 71 10000 2.06 280 07:29 29.04.2021
4551 Clouds 13 1010 76 10000 1.54 270 06:36 29.04.2021
4552 Clouds 13 1011 76 10000 1.54 320 05:21 29.04.2021
4553 Clouds 13 1011 71 10000 1.54 300 00:27 29.04.2021
4554 Clouds 14 1011 71 10000 2.06 330 23:22 28.04.2021
4555 Clouds 14 1010 71 10000 3.09 330 22:53 28.04.2021
4556 Clouds 14 1010 71 10000 3.09 320 22:26 28.04.2021
4557 Clouds 14 1009 67 10000 5.66 330 21:51 28.04.2021
4558 Clouds 14 1009 72 10000 5.14 320 21:24 28.04.2021
4559 Clouds 15 1009 63 10000 6.17 330 20:57 28.04.2021
4560 Clouds 16 1009 63 10000 6.17 320 20:38 28.04.2021
4561 Clouds 16 1009 63 10000 6.17 320 20:38 28.04.2021
4562 Clouds 16 1009 63 10000 6.17 320 20:20 28.04.2021
4563 Clouds 16 1008 77 10000 5.66 300 19:32 28.04.2021
4564 Clouds 16 1008 77 10000 5.66 310 18:56 28.04.2021
4565 Clouds 16 1008 72 10000 6.17 300 18:38 28.04.2021
4566 Clouds 16 1008 72 10000 6.17 300 18:19 28.04.2021
4567 Clouds 16 1008 72 10000 6.17 300 17:44 28.04.2021
4568 Clouds 17 1008 68 10000 5.66 310 17:24 28.04.2021
4569 Clouds 17 1008 72 10000 5.14 300 16:22 28.04.2021
4570 Clouds 17 1008 72 10000 6.17 300 15:48 28.04.2021
4571 Clouds 17 1008 63 10000 4.63 290 15:30 28.04.2021
4572 Clouds 18 1008 59 10000 4.12 280 14:44 28.04.2021
4573 Clouds 17 1008 63 10000 5.14 280 14:21 28.04.2021
4574 Clouds 17 1008 67 10000 5.14 270 13:56 28.04.2021
4575 Clouds 17 1008 72 10000 4.12 280 13:24 28.04.2021
4576 Clouds 17 1008 72 10000 4.12 280 12:54 28.04.2021
4577 Clouds 17 1008 72 10000 3.09 290 12:28 28.04.2021
4578 Clouds 17 1008 77 10000 3.6 300 11:46 28.04.2021
4579 Clouds 16 1007 77 10000 3.6 290 11:26 28.04.2021
4580 Clouds 16 1007 82 10000 3.09 290 10:42 28.04.2021
4581 Clouds 16 1007 82 10000 3.09 290 10:42 28.04.2021
4582 Clouds 16 1007 88 10000 3.09 280 10:21 28.04.2021
4583 Clouds 15 1007 88 10000 4.12 250 09:56 28.04.2021
4584 Clouds 15 1006 88 10000 3.6 260 09:32 28.04.2021
4585 Clouds 15 1006 94 10000 3.09 260 08:53 28.04.2021
4586 Clouds 14 1006 88 10000 3.6 260 07:52 28.04.2021
4587 Clouds 14 1006 94 10000 2.06 250 07:25 28.04.2021
4588 Clouds 14 1007 94 10000 2.06 220 05:38 28.04.2021
4589 Clouds 14 1007 88 10000 2.57 250 03:45 28.04.2021
4590 Clouds 14 1008 82 10000 2.06 230 02:34 28.04.2021
4591 Clouds 15 1009 82 10000 2.06 240 00:43 28.04.2021
4592 Clouds 15 1009 82 10000 2.57 260 23:49 27.04.2021
4593 Clouds 15 1009 77 10000 3.09 270 23:27 27.04.2021
4594 Clouds 15 1009 77 10000 2.06 290 22:48 27.04.2021
4595 Clouds 15 1008 77 10000 2.57 290 22:29 27.04.2021
4596 Clouds 16 1008 77 10000 3.6 290 21:48 27.04.2021
4597 Clouds 16 1008 72 10000 3.09 300 21:29 27.04.2021
4598 Clouds 16 1007 72 10000 5.14 300 20:56 27.04.2021
4599 Clouds 17 1007 63 10000 5.14 300 20:38 27.04.2021
4600 Clouds 17 1007 67 10000 4.63 300 19:51 27.04.2021
4601 Clouds 18 1007 72 10000 4.12 300 19:26 27.04.2021
4602 Clouds 18 1007 72 10000 5.66 310 18:57 27.04.2021
4603 Clouds 18 1007 72 10000 5.14 320 18:39 27.04.2021
4604 Clouds 18 1007 72 10000 5.14 320 18:21 27.04.2021
4605 Clouds 19 1007 60 10000 4.63 280 17:30 27.04.2021
4606 Clouds 19 1007 60 10000 5.14 270 16:49 27.04.2021
4607 Clouds 19 1007 60 10000 5.66 270 16:31 27.04.2021
4608 Clouds 19 1007 59 10000 4.12 310 15:57 27.04.2021
4609 Clouds 19 1007 63 10000 3.09 310 15:37 27.04.2021
4610 Clouds 19 1007 63 10000 3.09 310 15:19 27.04.2021
4611 Clouds 19 1008 59 10000 3.09 310 14:41 27.04.2021
4612 Clouds 19 1008 59 10000 3.09 310 14:20 27.04.2021
4613 Clouds 19 1008 63 10000 3.6 330 13:43 27.04.2021
4614 Clouds 19 1008 68 10000 2.57 350 13:24 27.04.2021
4615 Clouds 18 1008 72 10000 4.12 340 12:30 27.04.2021
4616 Clouds 17 1008 72 10000 4.12 320 11:55 27.04.2021
4617 Clouds 17 1007 72 10000 4.12 330 11:26 27.04.2021
4618 Clouds 16 1007 77 10000 5.66 330 10:49 27.04.2021
4619 Clouds 16 1007 88 10000 4.63 310 10:23 27.04.2021
4620 Clouds 16 1007 82 10000 6.17 330 09:45 27.04.2021
4621 Clouds 15 1006 88 10000 4.12 310 08:54 27.04.2021
4622 Clouds 15 1006 88 10000 4.12 320 08:20 27.04.2021
4623 Clouds 15 1006 88 10000 4.12 320 07:42 27.04.2021
4624 Clouds 15 1006 94 10000 3.6 330 06:50 27.04.2021
4625 Clouds 15 1006 88 10000 3.6 320 06:20 27.04.2021
4626 Clouds 15 1006 94 10000 3.09 310 05:30 27.04.2021
4627 Clouds 16 1007 94 10000 1.54 30 01:56 27.04.2021
4628 Clouds 16 1006 94 10000 3.6 70 00:27 27.04.2021
4629 Clouds 16 1006 94 10000 2.06 40 23:43 26.04.2021
4630 Clouds 16 1006 94 10000 2.57 10 23:19 26.04.2021
4631 Clouds 16 1006 88 10000 3.6 20 22:50 26.04.2021
4632 Clouds 16 1006 88 10000 4.12 30 22:20 26.04.2021
4633 Clouds 17 1005 82 10000 3.6 80 21:42 26.04.2021
4634 Clouds 17 1005 82 10000 3.6 80 21:22 26.04.2021
4635 Clouds 18 1005 82 10000 2.57 40 20:41 26.04.2021
4636 Clouds 18 1005 82 10000 2.57 40 20:23 26.04.2021
4637 Clouds 18 1005 82 10000 2.57 350 19:45 26.04.2021
4638 Clouds 17 1005 88 10000 3.09 350 19:23 26.04.2021
4639 Clouds 17 1005 82 10000 3.6 340 18:43 26.04.2021
4640 Clouds 18 1005 77 10000 3.6 330 18:22 26.04.2021
4641 Rain 18 1005 77 10000 1.54 290 17:49 26.04.2021
4642 Rain 18 1005 82 10000 2.57 300 17:21 26.04.2021
4643 Clouds 18 1005 88 10000 2.06 310 16:46 26.04.2021
4644 Rain 18 1006 88 10000 4.12 210 16:25 26.04.2021
4645 Rain 19 1006 82 10000 4.63 110 15:44 26.04.2021
4646 Rain 19 1005 68 10000 3.09 130 15:22 26.04.2021
4647 Clouds 20 1005 68 10000 2.06 130 14:54 26.04.2021
4648 Clouds 19 1006 64 10000 3.6 110 14:34 26.04.2021
4649 Clouds 19 1006 72 10000 3.09 140 13:52 26.04.2021
4650 Clouds 19 1006 77 10000 2.57 130 13:28 26.04.2021
4651 Clouds 18 1006 82 10000 2.57 80 12:52 26.04.2021
4652 Clouds 16 1007 94 8000 3.09 0 11:55 26.04.2021
4653 Clouds 16 1007 100 8000 3.09 80 11:36 26.04.2021
4654 Clouds 16 1007 94 10000 3.6 70 10:50 26.04.2021
4655 Clouds 15 1007 94 10000 3.6 70 10:24 26.04.2021
4656 Clouds 15 1006 94 10000 3.6 70 09:48 26.04.2021
4657 Clouds 14 1006 94 8000 3.6 70 09:25 26.04.2021
4658 Clouds 14 1006 94 10000 3.09 70 08:55 26.04.2021
4659 Clouds 14 1006 94 10000 3.6 60 08:22 26.04.2021
4660 Clouds 14 1006 94 10000 3.6 60 07:53 26.04.2021
4661 Clouds 14 1006 94 10000 3.09 60 07:22 26.04.2021
4662 Clouds 14 1006 94 10000 3.09 60 07:22 26.04.2021
4663 Clouds 14 1006 94 10000 2.57 70 06:38 26.04.2021
4664 Clouds 15 1006 100 10000 2.06 70 05:37 26.04.2021
4665 Clouds 15 1007 100 10000 2.06 30 04:37 26.04.2021
4666 Clouds 16 1007 94 10000 2.06 100 02:51 26.04.2021
4667 Clouds 16 1008 94 10000 1.54 70 01:19 26.04.2021
4668 Clouds 17 1008 88 10000 2.06 120 00:44 26.04.2021
4669 Clouds 17 1007 82 10000 2.06 140 23:48 25.04.2021
4670 Clouds 17 1007 82 10000 2.57 170 23:26 25.04.2021
4671 Clouds 17 1007 82 10000 2.06 210 22:50 25.04.2021
4672 Clouds 17 1007 77 10000 3.09 220 22:22 25.04.2021
4673 Clouds 17 1007 77 10000 3.6 220 21:59 25.04.2021
4674 Clouds 18 1006 68 10000 4.12 210 21:41 25.04.2021
4675 Clouds 18 1006 72 10000 4.12 220 21:22 25.04.2021
4676 Clouds 18 1006 72 10000 4.12 220 20:47 25.04.2021
4677 Clouds 19 1006 63 10000 4.63 230 20:25 25.04.2021
4678 Clouds 19 1006 63 10000 5.66 210 19:46 25.04.2021
4679 Clouds 20 1006 60 10000 5.66 220 19:28 25.04.2021
4680 Clouds 20 1006 64 10000 5.66 220 18:51 25.04.2021
4681 Clouds 20 1006 60 10000 6.17 230 18:29 25.04.2021
4682 Clouds 20 1006 52 10000 5.66 210 17:48 25.04.2021
4683 Clouds 20 1006 60 10000 8.23 220 17:26 25.04.2021
4684 Clouds 20 1006 60 10000 6.69 210 16:58 25.04.2021
4685 Clouds 20 1006 68 10000 6.69 210 16:39 25.04.2021
4686 Clouds 20 1006 68 10000 6.69 210 16:21 25.04.2021
4687 Clouds 20 1006 56 10000 6.17 200 15:27 25.04.2021
4688 Clouds 19 1006 60 10000 5.14 220 14:50 25.04.2021
4689 Clouds 20 1006 56 10000 5.14 170 14:20 25.04.2021
4690 Clouds 19 1007 68 10000 5.66 180 13:50 25.04.2021
4691 Clouds 19 1007 68 10000 4.63 140 13:21 25.04.2021
4692 Clouds 19 1007 72 10000 3.6 120 12:49 25.04.2021
4693 Clouds 18 1007 82 10000 4.12 140 12:26 25.04.2021
4694 Clouds 18 1007 77 10000 3.09 110 11:47 25.04.2021
4695 Clouds 17 1007 82 10000 3.6 120 11:25 25.04.2021
4696 Clouds 16 1007 82 10000 3.09 100 10:46 25.04.2021
4697 Clouds 16 1007 82 10000 2.57 100 10:20 25.04.2021
4698 Clouds 15 1007 82 10000 2.57 80 09:46 25.04.2021
4699 Clouds 14 1007 94 10000 3.09 80 09:24 25.04.2021
4700 Clouds 14 1007 88 10000 2.57 90 08:20 25.04.2021
4701 Clear 15 1007 88 10000 2.06 120 07:38 25.04.2021
4702 Clear 15 1007 88 10000 2.06 120 07:19 25.04.2021
4703 Clear 15 1007 82 10000 2.57 210 06:30 25.04.2021
4704 Clouds 15 1007 88 10000 3.6 200 04:52 25.04.2021
4705 Clouds 15 1008 94 10000 3.09 150 04:34 25.04.2021
4706 Clouds 17 1009 94 10000 3.09 130 01:43 25.04.2021
4707 Clouds 17 1009 88 10000 5.14 170 00:58 25.04.2021
4708 Clouds 17 1009 82 10000 5.14 200 23:53 24.04.2021
4709 Clouds 17 1009 68 10000 3.09 180 23:35 24.04.2021
4710 Clouds 17 1009 68 10000 2.57 180 22:58 24.04.2021
4711 Clouds 17 1009 77 10000 3.6 200 22:36 24.04.2021
4712 Clouds 17 1009 77 10000 3.09 200 21:53 24.04.2021
4713 Clouds 18 1009 77 10000 5.66 210 21:27 24.04.2021
4714 Clouds 18 1008 68 10000 5.14 210 20:50 24.04.2021
4715 Clouds 18 1008 68 10000 5.14 210 20:30 24.04.2021
4716 Clouds 18 1009 63 10000 5.14 210 19:54 24.04.2021
4717 Clouds 19 1008 63 10000 6.17 190 19:25 24.04.2021
4718 Clouds 19 1008 63 10000 6.17 200 18:58 24.04.2021
4719 Clouds 19 1008 60 10000 6.17 200 18:29 24.04.2021
4720 Clouds 20 1009 68 10000 7.72 200 17:53 24.04.2021
4721 Clouds 20 1009 60 10000 7.72 210 17:26 24.04.2021
4722 Clouds 20 1009 60 10000 7.2 210 16:47 24.04.2021
4723 Clouds 20 1009 60 10000 7.72 210 16:27 24.04.2021
4724 Clouds 20 1009 52 10000 5.66 170 15:35 24.04.2021
4725 Clouds 20 1009 52 10000 5.66 170 15:35 24.04.2021
4726 Clouds 20 1009 60 10000 6.69 180 14:54 24.04.2021
4727 Clouds 20 1009 68 10000 6.69 170 14:29 24.04.2021
4728 Clouds 19 1009 68 10000 7.2 180 13:51 24.04.2021
4729 Clouds 19 1010 68 10000 6.69 180 13:25 24.04.2021
4730 Clouds 18 1010 88 10000 5.66 160 12:38 24.04.2021
4731 Clouds 18 1010 88 10000 5.66 160 12:18 24.04.2021
4732 Clouds 17 1010 94 10000 4.12 140 11:40 24.04.2021
4733 Clouds 16 1010 94 10000 4.12 150 10:52 24.04.2021
4734 Clouds 16 1010 94 10000 2.57 150 10:32 24.04.2021
4735 Clouds 16 1010 94 10000 3.09 150 09:56 24.04.2021
4736 Clouds 16 1009 94 10000 3.09 130 09:27 24.04.2021
4737 Clouds 16 1009 94 10000 3.09 120 07:44 24.04.2021
4738 Clouds 16 1009 94 10000 3.6 110 06:29 24.04.2021
4739 Clouds 16 1010 94 10000 3.09 150 03:24 24.04.2021
4740 Clouds 16 1011 94 10000 4.63 190 00:35 24.04.2021
4741 Clouds 16 1011 94 10000 3.09 210 23:30 23.04.2021
4742 Clouds 16 1011 94 10000 4.63 220 22:46 23.04.2021
4743 Clouds 16 1011 94 10000 5.66 210 22:20 23.04.2021
4744 Clouds 16 1011 88 10000 5.66 220 21:44 23.04.2021
4745 Clouds 16 1010 94 10000 7.2 200 21:25 23.04.2021
4746 Clouds 16 1010 88 10000 7.2 220 20:41 23.04.2021
4747 Rain 16 1010 88 10000 7.2 220 20:20 23.04.2021
4748 Clouds 16 1010 88 6000 7.72 210 19:52 23.04.2021
4749 Rain 16 1010 100 4000 7.72 220 19:27 23.04.2021
4750 Rain 16 1010 94 4000 8.23 220 18:50 23.04.2021
4751 Rain 16 1010 88 10000 8.23 230 18:28 23.04.2021
4752 Clouds 16 1010 88 10000 7.72 230 17:51 23.04.2021
4753 Clouds 16 1011 82 10000 6.69 220 17:28 23.04.2021
4754 Clouds 16 1011 82 10000 7.2 230 16:59 23.04.2021
4755 Clouds 16 1011 72 10000 8.75 220 16:33 23.04.2021
4756 Clouds 17 1011 77 10000 9.26 210 15:53 23.04.2021
4757 Clouds 17 1011 63 10000 9.77 190 15:34 23.04.2021
4758 Clouds 17 1011 72 10000 7.72 180 14:34 23.04.2021
4759 Clouds 17 1012 68 10000 6.17 170 13:39 23.04.2021
4760 Clouds 18 1011 63 10000 7.2 160 12:48 23.04.2021
4761 Clouds 18 1011 63 10000 7.72 160 12:23 23.04.2021
4762 Clouds 17 1011 72 10000 4.12 150 11:46 23.04.2021
4763 Clouds 17 1011 77 10000 3.6 180 11:27 23.04.2021
4764 Clouds 16 1011 77 10000 4.12 130 10:47 23.04.2021
4765 Clouds 16 1011 88 10000 5.14 110 10:22 23.04.2021
4766 Clouds 16 1011 88 10000 2.57 140 09:42 23.04.2021
4767 Clouds 15 1011 88 10000 2.06 140 08:49 23.04.2021
4768 Rain 15 1011 88 10000 2.06 130 08:29 23.04.2021
4769 Rain 15 1011 88 10000 3.6 140 07:39 23.04.2021
4770 Clouds 15 1011 94 10000 2.57 120 06:50 23.04.2021
4771 Clear 16 1011 88 10000 2.06 140 05:27 23.04.2021
4772 Clouds 16 1013 88 10000 2.57 150 02:59 23.04.2021
4773 Rain 16 1014 82 10000 3.09 230 00:49 23.04.2021
4774 Clear 16 1014 88 10000 2.06 220 23:52 22.04.2021
4775 Clear 16 1014 77 10000 2.57 250 22:46 22.04.2021
4776 Clear 16 1014 72 10000 2.57 220 22:21 22.04.2021
4777 Clear 17 1013 72 10000 2.06 230 21:54 22.04.2021
4778 Clouds 17 1013 67 10000 3.09 250 21:36 22.04.2021
4779 Clouds 17 1013 67 10000 3.09 250 21:18 22.04.2021
4780 Clouds 17 1013 63 10000 5.14 230 20:42 22.04.2021
4781 Clouds 17 1013 63 10000 5.14 230 20:23 22.04.2021
4782 Clouds 17 1013 52 10000 5.14 230 19:49 22.04.2021
4783 Clouds 17 1013 52 10000 5.14 230 19:49 22.04.2021
4784 Clouds 18 1013 52 10000 3.6 230 19:30 22.04.2021
4785 Clouds 19 1013 52 10000 5.14 210 18:43 22.04.2021
4786 Clouds 19 1013 52 10000 5.14 220 18:19 22.04.2021
4787 Clouds 19 1013 56 10000 3.09 210 17:40 22.04.2021
4788 Clouds 19 1013 56 10000 3.09 210 17:40 22.04.2021
4789 Clouds 20 1013 56 10000 3.09 210 17:19 22.04.2021
4790 Clouds 19 1014 56 10000 4.12 210 16:46 22.04.2021
4791 Clouds 19 1014 56 10000 4.12 210 16:46 22.04.2021
4792 Clouds 20 1014 59 10000 5.14 210 16:26 22.04.2021
4793 Clouds 20 1014 63 10000 3.09 220 15:48 22.04.2021
4794 Clouds 19 1014 63 10000 3.09 130 15:23 22.04.2021
4795 Clouds 19 1014 59 10000 3.6 140 14:45 22.04.2021
4796 Clouds 19 1014 63 10000 1.54 0 14:27 22.04.2021
4797 Clouds 18 1015 72 10000 3.09 120 13:42 22.04.2021
4798 Clouds 18 1014 55 10000 2.06 160 13:22 22.04.2021
4799 Clouds 18 1015 55 10000 2.06 0 12:52 22.04.2021
4800 Clouds 18 1015 67 10000 2.57 290 12:31 22.04.2021
4801 Clouds 17 1014 67 10000 2.57 320 11:50 22.04.2021
4802 Clouds 17 1014 77 10000 3.09 310 11:27 22.04.2021
4803 Clouds 16 1014 77 10000 3.09 300 10:59 22.04.2021
4804 Clouds 16 1014 88 10000 2.57 290 10:40 22.04.2021
4805 Clouds 16 1014 88 10000 2.57 290 10:19 22.04.2021
4806 Clouds 15 1013 94 10000 1.54 230 09:36 22.04.2021
4807 Clouds 14 1013 94 10000 1.54 250 08:51 22.04.2021
4808 Clouds 13 1013 94 10000 1.54 280 08:23 22.04.2021
4809 Clouds 14 1013 100 9000 2.57 260 07:49 22.04.2021
4810 Clouds 14 1012 94 10000 1.54 260 07:31 22.04.2021
4811 Clouds 14 1012 94 10000 1.54 250 06:46 22.04.2021
4812 Clouds 14 1012 88 10000 2.06 300 06:18 22.04.2021
4813 Clouds 14 1012 94 10000 2.06 270 05:23 22.04.2021
4814 Clouds 15 1012 88 10000 3.09 280 02:25 22.04.2021
4815 Clouds 15 1012 94 10000 5.14 260 00:23 22.04.2021
4816 Clouds 16 1012 94 10000 4.63 260 23:41 21.04.2021
4817 Clouds 16 1012 94 10000 4.63 260 23:20 21.04.2021
4818 Clouds 16 1011 88 10000 4.12 270 22:40 21.04.2021
4819 Clouds 16 1011 88 10000 4.12 270 22:20 21.04.2021
4820 Clouds 16 1010 94 10000 4.12 250 21:41 21.04.2021
4821 Clouds 16 1010 94 10000 4.12 250 21:22 21.04.2021
4822 Clouds 16 1010 94 8000 5.66 240 20:32 21.04.2021
4823 Clouds 16 1010 94 8000 5.66 240 20:32 21.04.2021
4824 Rain 16 1010 100 4000 5.66 230 19:57 21.04.2021
4825 Rain 16 1010 100 10000 7.2 230 19:38 21.04.2021
4826 Rain 16 1010 100 10000 7.2 230 19:18 21.04.2021
4827 Mist 16 1010 100 2000 4.63 220 18:42 21.04.2021
4828 Clouds 16 1011 94 6000 5.66 200 18:22 21.04.2021
4829 Rain 16 1011 94 4000 6.17 210 17:45 21.04.2021
4830 Rain 15 1011 94 10000 7.2 210 17:22 21.04.2021
4831 Rain 16 1012 82 10000 6.17 220 16:41 21.04.2021
4832 Clouds 16 1012 82 8000 7.2 210 15:52 21.04.2021
4833 Clouds 16 1012 77 10000 6.17 210 15:28 21.04.2021
4834 Clouds 17 1013 72 10000 7.72 210 14:46 21.04.2021
4835 Clouds 17 1013 77 10000 7.2 220 14:27 21.04.2021
4836 Clouds 17 1013 72 10000 6.17 210 13:50 21.04.2021
4837 Clouds 17 1013 72 10000 5.66 220 13:23 21.04.2021
4838 Clouds 17 1014 72 10000 5.66 210 12:48 21.04.2021
4839 Clouds 17 1014 67 10000 3.09 210 12:25 21.04.2021
4840 Clouds 17 1014 67 10000 3.6 240 11:46 21.04.2021
4841 Clouds 17 1014 77 10000 2.06 210 11:25 21.04.2021
4842 Clouds 16 1014 82 10000 0.51 0 10:40 21.04.2021
4843 Clouds 15 1014 88 10000 2.06 260 09:58 21.04.2021
4844 Clouds 15 1014 88 10000 3.09 240 09:33 21.04.2021
4845 Clouds 14 1014 94 10000 0.51 0 08:53 21.04.2021
4846 Clouds 14 1013 94 10000 2.57 330 08:27 21.04.2021
4847 Rain 14 1013 88 10000 2.57 280 07:58 21.04.2021
4848 Rain 14 1013 88 10000 1.03 0 07:29 21.04.2021
4849 Rain 15 1014 82 10000 2.57 270 06:23 21.04.2021
4850 Clouds 15 1014 82 10000 2.06 260 04:18 21.04.2021
4851 Clouds 15 1016 82 10000 2.06 300 00:49 21.04.2021
4852 Clouds 15 1016 82 10000 2.57 310 23:48 20.04.2021
4853 Clouds 15 1016 82 10000 3.09 320 22:56 20.04.2021
4854 Clouds 15 1016 82 10000 3.09 300 22:36 20.04.2021
4855 Clouds 15 1016 82 10000 3.09 300 22:18 20.04.2021
4856 Clouds 15 1015 77 10000 3.6 300 21:44 20.04.2021
4857 Clouds 16 1016 77 10000 4.63 310 21:23 20.04.2021
4858 Clouds 16 1016 67 10000 4.12 300 20:42 20.04.2021
4859 Clouds 16 1015 67 10000 5.14 320 20:22 20.04.2021
4860 Clouds 17 1015 67 10000 4.63 300 19:52 20.04.2021
4861 Clouds 17 1015 63 10000 4.63 300 19:33 20.04.2021
4862 Clouds 17 1015 59 10000 4.63 290 18:54 20.04.2021
4863 Clouds 17 1015 59 10000 6.17 300 18:35 20.04.2021
4864 Clouds 17 1016 59 10000 5.14 300 17:43 20.04.2021
4865 Clouds 18 1016 63 10000 5.14 300 17:18 20.04.2021
4866 Clouds 19 1016 48 10000 4.63 300 16:43 20.04.2021
4867 Clouds 18 1016 52 10000 4.63 310 15:43 20.04.2021
4868 Clouds 18 1016 59 10000 5.14 310 15:25 20.04.2021
4869 Clouds 18 1017 59 10000 4.63 300 14:57 20.04.2021
4870 Clouds 18 1017 63 10000 4.63 310 14:28 20.04.2021
4871 Clouds 17 1017 77 10000 4.63 310 13:32 20.04.2021
4872 Clouds 17 1017 72 10000 3.6 310 12:57 20.04.2021
4873 Clouds 17 1017 72 10000 3.6 300 12:34 20.04.2021
4874 Clouds 17 1017 88 10000 1.03 0 11:58 20.04.2021
4875 Clouds 16 1017 77 10000 2.06 320 11:39 20.04.2021
4876 Clouds 16 1017 94 6000 3.6 320 11:19 20.04.2021
4877 Clouds 16 1017 82 10000 2.57 310 10:42 20.04.2021
4878 Clouds 16 1017 88 10000 4.63 310 10:22 20.04.2021
4879 Clouds 15 1017 94 10000 1.54 300 09:20 20.04.2021
4880 Clouds 15 1017 94 10000 1.54 280 08:54 20.04.2021
4881 Clouds 14 1016 94 10000 2.06 290 08:19 20.04.2021
4882 Clouds 14 1017 94 10000 2.06 270 07:39 20.04.2021
4883 Clouds 15 1017 88 10000 1.54 280 06:35 20.04.2021
4884 Clouds 15 1017 88 10000 2.06 290 05:37 20.04.2021
4885 Clouds 15 1018 88 10000 2.57 290 04:41 20.04.2021
4886 Clouds 16 1019 88 10000 2.06 300 00:53 20.04.2021
4887 Clouds 16 1019 88 10000 2.06 290 00:27 20.04.2021
4888 Clouds 16 1019 82 10000 3.09 310 23:33 19.04.2021
4889 Clouds 16 1019 82 10000 2.57 300 22:51 19.04.2021
4890 Clouds 16 1019 82 10000 2.57 300 22:29 19.04.2021
4891 Clouds 17 1018 82 10000 3.09 290 21:47 19.04.2021
4892 Clouds 17 1018 77 10000 4.12 310 21:22 19.04.2021
4893 Clouds 17 1018 72 10000 4.12 300 20:42 19.04.2021
4894 Clouds 17 1018 72 10000 4.63 300 20:22 19.04.2021
4895 Clouds 18 1018 72 10000 5.66 300 19:50 19.04.2021
4896 Clouds 18 1018 68 10000 5.14 300 19:28 19.04.2021
4897 Clouds 18 1018 63 10000 5.66 300 18:59 19.04.2021
4898 Clouds 18 1018 59 10000 5.14 280 18:41 19.04.2021
4899 Clouds 18 1018 59 10000 5.14 280 18:19 19.04.2021
4900 Clouds 18 1018 59 10000 5.14 280 18:19 19.04.2021
4901 Clouds 19 1018 59 10000 4.12 300 17:44 19.04.2021
4902 Clouds 19 1018 59 10000 4.12 300 17:24 19.04.2021
4903 Clouds 19 1019 56 10000 3.6 300 16:45 19.04.2021
4904 Clouds 19 1019 49 10000 5.14 290 16:25 19.04.2021
4905 Clouds 20 1019 30 10000 5.14 300 15:43 19.04.2021
4906 Clouds 20 1019 35 10000 4.63 320 15:24 19.04.2021
4907 Clear 20 1019 37 10000 2.57 0 14:52 19.04.2021
4908 Clear 20 1019 40 10000 2.57 290 14:31 19.04.2021
4909 Clear 19 1019 42 10000 3.09 0 13:52 19.04.2021
4910 Clouds 19 1019 48 10000 2.57 0 13:28 19.04.2021
4911 Clouds 19 1020 55 10000 2.57 330 12:48 19.04.2021
4912 Clouds 19 1020 55 10000 2.57 330 12:48 19.04.2021
4913 Clouds 18 1020 63 10000 3.6 330 12:27 19.04.2021
4914 Clouds 17 1019 63 10000 3.09 310 11:59 19.04.2021
4915 Clouds 17 1019 67 10000 3.09 310 11:27 19.04.2021
4916 Clouds 16 1019 77 10000 3.6 320 10:55 19.04.2021
4917 Clouds 16 1019 82 10000 2.57 310 10:36 19.04.2021
4918 Clouds 16 1019 82 10000 2.57 310 10:18 19.04.2021
4919 Clouds 15 1019 88 10000 2.57 310 09:39 19.04.2021
4920 Clouds 15 1019 88 10000 2.57 310 09:20 19.04.2021
4921 Clouds 14 1019 94 10000 2.06 280 08:32 19.04.2021
4922 Clouds 14 1019 94 10000 1.82 327 07:49 19.04.2021
4923 Clear 14 1019 88 10000 2.09 321 07:21 19.04.2021
4924 Clear 14 1019 94 10000 2.09 321 06:45 19.04.2021
4925 Clear 15 1020 82 10000 2.06 260 02:41 19.04.2021
4926 Clear 15 1020 88 10000 2.57 310 01:40 19.04.2021
4927 Clear 15 1020 88 10000 3.6 310 00:33 19.04.2021
4928 Clear 15 1021 82 10000 5.14 310 23:19 18.04.2021
4929 Clear 15 1020 77 10000 4.63 310 22:53 18.04.2021
4930 Clear 15 1020 82 10000 5.14 310 22:31 18.04.2021
4931 Clear 16 1020 77 10000 3.6 310 21:45 18.04.2021
4932 Clear 17 1020 63 10000 3.6 310 21:23 18.04.2021
4933 Clear 18 1020 42 10000 4.63 240 20:41 18.04.2021
4934 Clear 18 1020 42 10000 4.63 240 20:21 18.04.2021
4935 Clear 20 1019 49 10000 4.12 240 19:56 18.04.2021
4936 Clear 20 1019 46 10000 5.14 240 19:36 18.04.2021
4937 Clouds 21 1019 46 10000 5.66 240 18:59 18.04.2021
4938 Clouds 21 1019 43 10000 5.14 230 18:38 18.04.2021
4939 Clouds 21 1019 43 10000 5.14 230 18:20 18.04.2021
4940 Clouds 21 1019 43 10000 5.66 220 17:42 18.04.2021
4941 Clouds 22 1019 40 10000 5.66 180 17:24 18.04.2021
4942 Clouds 21 1019 40 10000 5.14 190 16:45 18.04.2021
4943 Clouds 21 1020 43 10000 5.14 210 16:19 18.04.2021
4944 Clouds 21 1020 43 10000 4.12 220 15:41 18.04.2021
4945 Clouds 20 1020 40 10000 3.6 210 15:23 18.04.2021
4946 Clouds 20 1020 40 10000 3.6 210 14:42 18.04.2021
4947 Clouds 20 1020 46 10000 3.09 100 14:20 18.04.2021
4948 Clouds 20 1020 46 10000 1.54 0 13:54 18.04.2021
4949 Clear 19 1020 52 10000 2.06 80 13:32 18.04.2021
4950 Clear 19 1020 55 10000 2.06 100 12:44 18.04.2021
4951 Clear 19 1020 55 10000 2.06 100 12:44 18.04.2021
4952 Clear 18 1020 63 10000 2.57 60 12:24 18.04.2021
4953 Clear 16 1020 82 10000 2.57 80 11:41 18.04.2021
4954 Clear 16 1020 77 10000 2.06 100 11:20 18.04.2021
4955 Clear 16 1020 77 10000 2.06 100 10:46 18.04.2021
4956 Clouds 15 1020 82 10000 1.03 0 10:21 18.04.2021
4957 Fog 14 1020 94 10000 1.69 60 09:45 18.04.2021
4958 Fog 13 1019 93 10000 1.54 50 09:26 18.04.2021
4959 Clear 12 1019 82 10000 1.29 28 08:54 18.04.2021
4960 Clear 12 1019 76 10000 0.51 0 08:29 18.04.2021
4961 Clear 12 1019 82 10000 1.03 0 07:55 18.04.2021
4962 Clear 13 1019 82 10000 1.03 0 07:36 18.04.2021
4963 Clear 13 1018 82 10000 2.06 320 05:40 18.04.2021
4964 Clear 13 1018 82 10000 2.06 320 05:22 18.04.2021
4965 Clear 15 1019 77 10000 1.54 40 02:25 18.04.2021
4966 Clear 15 1019 77 10000 2.57 30 01:48 18.04.2021
4967 Clear 16 1019 77 10000 5.14 300 00:36 18.04.2021
4968 Clear 16 1019 77 10000 5.14 300 23:31 17.04.2021
4969 Clear 17 1018 63 10000 5.66 300 22:51 17.04.2021
4970 Clear 17 1018 59 10000 4.63 300 22:30 17.04.2021
4971 Clear 17 1018 59 10000 4.63 300 22:30 17.04.2021
4972 Clear 17 1018 55 10000 5.14 310 21:46 17.04.2021
4973 Clear 18 1018 52 10000 3.6 310 21:28 17.04.2021
4974 Clear 19 1018 42 10000 4.12 330 20:43 17.04.2021
4975 Clear 20 1017 49 10000 4.12 340 20:24 17.04.2021
4976 Clear 20 1017 46 10000 4.12 340 19:43 17.04.2021
4977 Clear 22 1017 43 10000 3.09 310 19:20 17.04.2021
4978 Clear 22 1017 43 10000 3.09 310 19:20 17.04.2021
4979 Clear 22 1017 49 10000 4.12 330 18:53 17.04.2021
4980 Clear 22 1017 53 10000 5.14 330 18:25 17.04.2021
4981 Clear 21 1017 31 10000 2.57 0 17:49 17.04.2021
4982 Clear 22 1018 25 10000 1.03 0 17:30 17.04.2021
4983 Clear 22 1018 27 10000 1.54 0 16:42 17.04.2021
4984 Clear 22 1018 28 10000 1.03 0 16:23 17.04.2021
4985 Clear 21 1018 32 10000 2.06 130 15:38 17.04.2021
4986 Clouds 20 1018 37 10000 2.57 50 14:44 17.04.2021
4987 Clouds 20 1019 45 10000 3.6 60 14:20 17.04.2021
4988 Clouds 20 1019 45 10000 4.12 90 13:44 17.04.2021
4989 Clear 19 1019 52 10000 4.63 70 13:18 17.04.2021
4990 Clear 17 1019 55 10000 5.14 50 12:35 17.04.2021
4991 Clear 17 1019 48 10000 4.63 60 11:58 17.04.2021
4992 Clear 17 1018 48 10000 5.14 50 11:38 17.04.2021
4993 Clear 16 1018 48 10000 5.14 50 11:19 17.04.2021
4994 Clear 16 1019 58 10000 4.12 50 10:39 17.04.2021
4995 Clear 15 1018 67 10000 3.6 40 09:51 17.04.2021
4996 Clouds 13 1018 87 10000 2.57 10 08:55 17.04.2021
4997 Clouds 12 1018 87 10000 1.03 320 08:33 17.04.2021
4998 Clouds 12 1018 87 10000 1.03 320 08:33 17.04.2021
4999 Clear 12 1017 87 10000 3.23 44 07:54 17.04.2021
5000 Clear 12 1017 82 10000 1.54 350 06:34 17.04.2021
5001 Clear 13 1017 82 10000 3.09 320 03:48 17.04.2021
5002 Clear 14 1017 72 10000 3.09 300 01:35 17.04.2021
5003 Clouds 14 1017 82 10000 3.6 310 00:40 17.04.2021
5004 Clouds 13 1017 88 10000 3.6 320 00:19 17.04.2021
5005 Clouds 13 1017 88 10000 2.06 320 23:35 16.04.2021
5006 Clouds 14 1017 82 10000 4.12 320 22:52 16.04.2021
5007 Clouds 14 1016 82 10000 5.14 320 22:25 16.04.2021
5008 Clouds 15 1016 77 10000 6.17 310 21:58 16.04.2021
5009 Clouds 15 1015 82 10000 6.17 310 21:40 16.04.2021
5010 Clouds 15 1015 82 10000 6.17 310 21:21 16.04.2021
5011 Clouds 16 1015 77 10000 5.66 300 20:45 16.04.2021
5012 Clouds 17 1015 68 10000 5.14 310 20:18 16.04.2021
5013 Clouds 18 1015 68 10000 5.14 310 19:47 16.04.2021
5014 Clouds 19 1015 63 10000 3.6 290 19:20 16.04.2021
5015 Clouds 20 1015 64 10000 5.14 320 18:28 16.04.2021
5016 Clouds 20 1015 60 10000 4.12 310 17:51 16.04.2021
5017 Clouds 21 1015 60 10000 3.6 320 17:20 16.04.2021
5018 Clouds 21 1015 64 10000 3.09 20 16:56 16.04.2021
5019 Clouds 21 1015 64 10000 2.57 300 16:38 16.04.2021
5020 Clouds 21 1015 64 10000 2.57 300 16:19 16.04.2021
5021 Clouds 20 1016 64 10000 3.09 160 15:39 16.04.2021
5022 Clouds 20 1016 64 10000 2.57 120 14:47 16.04.2021
5023 Clouds 20 1016 64 10000 2.06 140 14:28 16.04.2021
5024 Clouds 20 1016 60 10000 1.54 60 13:58 16.04.2021
5025 Clouds 20 1016 72 10000 2.06 0 13:36 16.04.2021
5026 Clouds 19 1016 72 10000 2.06 0 13:18 16.04.2021
5027 Clouds 19 1016 72 10000 2.06 30 12:42 16.04.2021
5028 Clouds 18 1016 77 10000 2.06 0 12:21 16.04.2021
5029 Clouds 18 1016 82 10000 3.6 340 11:42 16.04.2021
5030 Clouds 17 1016 88 10000 3.6 320 11:21 16.04.2021
5031 Clouds 16 1016 88 10000 3.09 330 10:42 16.04.2021
5032 Clouds 16 1016 88 10000 3.09 320 10:23 16.04.2021
5033 Clouds 16 1016 82 10000 3.6 310 09:44 16.04.2021
5034 Clouds 15 1015 88 10000 1.03 0 09:22 16.04.2021
5035 Clear 14 1015 82 10000 1.54 40 08:45 16.04.2021
5036 Clear 14 1015 82 10000 2.06 0 08:24 16.04.2021
5037 Clear 15 1015 82 10000 1.54 340 07:45 16.04.2021
5038 Clear 15 1014 77 10000 3.09 320 07:25 16.04.2021
5039 Clear 15 1014 82 10000 2.06 300 06:41 16.04.2021
5040 Clear 15 1014 82 10000 3.09 320 05:32 16.04.2021
5041 Clear 15 1015 88 10000 3.09 320 03:31 16.04.2021
5042 Clear 16 1015 88 10000 4.12 320 00:46 16.04.2021
5043 Clear 16 1015 88 10000 3.6 320 00:22 16.04.2021
5044 Clear 16 1015 94 10000 4.12 310 23:57 15.04.2021
5045 Clear 16 1015 94 10000 3.6 320 23:34 15.04.2021
5046 Clouds 16 1015 94 10000 4.12 320 22:50 15.04.2021
5047 Clouds 17 1014 88 10000 3.6 310 22:24 15.04.2021
5048 Clouds 17 1014 88 10000 3.09 330 21:47 15.04.2021
5049 Clouds 18 1014 82 10000 2.57 320 21:29 15.04.2021
5050 Clouds 18 1013 82 10000 2.57 320 20:56 15.04.2021
5051 Clouds 18 1013 82 10000 3.6 320 20:37 15.04.2021
5052 Clouds 18 1013 82 10000 3.6 320 20:18 15.04.2021
5053 Clouds 18 1013 82 10000 3.09 300 19:41 15.04.2021
5054 Clouds 18 1013 82 10000 3.09 300 19:21 15.04.2021
5055 Clouds 19 1013 82 10000 1.03 0 18:41 15.04.2021
5056 Clouds 19 1013 82 10000 1.03 0 18:19 15.04.2021
5057 Clouds 19 1013 77 10000 2.06 30 17:54 15.04.2021
5058 Clouds 19 1013 72 10000 2.06 60 17:31 15.04.2021
5059 Clouds 19 1013 68 10000 1.54 0 16:44 15.04.2021
5060 Clouds 18 1013 77 10000 2.06 0 16:25 15.04.2021
5061 Clouds 18 1014 77 10000 1.54 0 15:51 15.04.2021
5062 Clouds 17 1014 88 10000 1.54 70 15:28 15.04.2021
5063 Clouds 18 1014 88 10000 2.57 50 14:45 15.04.2021
5064 Clouds 18 1014 88 10000 2.57 70 14:27 15.04.2021
5065 Clouds 18 1014 94 10000 2.06 60 13:57 15.04.2021
5066 Clouds 18 1014 94 10000 2.06 40 13:39 15.04.2021
5067 Clouds 17 1014 100 10000 2.06 60 12:54 15.04.2021
5068 Clouds 17 1013 88 10000 2.06 310 12:27 15.04.2021
5069 Clouds 16 1014 100 8000 2.57 70 11:59 15.04.2021
5070 Clouds 16 1013 100 7000 2.57 60 11:39 15.04.2021
5071 Clouds 16 1013 100 7000 2.57 60 11:21 15.04.2021
5072 Clouds 16 1013 100 7000 2.57 60 11:21 15.04.2021
5073 Drizzle 16 1013 100 7000 2.57 70 10:43 15.04.2021
5074 Clouds 15 1013 100 6000 2.57 60 10:25 15.04.2021
5075 Rain 15 1013 100 6000 3.09 50 09:35 15.04.2021
5076 Rain 15 1012 100 10000 2.06 50 08:54 15.04.2021
5077 Rain 15 1012 100 7000 2.06 50 08:36 15.04.2021
5078 Rain 15 1012 94 10000 2.06 60 07:48 15.04.2021
5079 Clouds 15 1012 100 10000 1.54 80 07:22 15.04.2021
5080 Drizzle 15 1012 100 6000 1.54 70 06:37 15.04.2021
5081 Drizzle 15 1012 100 6000 1.54 70 06:19 15.04.2021
5082 Clouds 15 1012 100 10000 1.54 90 04:49 15.04.2021
5083 Clouds 15 1013 94 10000 1.03 240 00:24 15.04.2021
5084 Clouds 15 1013 100 10000 1.54 260 23:37 14.04.2021
5085 Clouds 15 1013 100 10000 1.54 260 23:18 14.04.2021
5086 Rain 15 1013 100 10000 2.06 220 22:43 14.04.2021
5087 Rain 15 1012 94 10000 3.09 230 22:22 14.04.2021
5088 Rain 15 1012 100 9000 3.6 230 21:43 14.04.2021
5089 Rain 15 1012 100 8000 4.12 220 21:23 14.04.2021
5090 Rain 16 1012 94 10000 5.14 200 20:55 14.04.2021
5091 Rain 16 1012 94 8000 4.12 210 20:32 14.04.2021
5092 Rain 16 1012 94 7000 3.09 130 19:51 14.04.2021
5093 Rain 17 1012 88 10000 3.09 50 19:20 14.04.2021
5094 Rain 17 1012 88 10000 3.09 50 18:56 14.04.2021
5095 Rain 17 1012 82 10000 2.57 70 18:21 14.04.2021
5096 Rain 17 1012 82 10000 1.54 90 17:58 14.04.2021
5097 Clouds 18 1012 88 10000 2.57 70 17:25 14.04.2021
5098 Clouds 18 1013 88 10000 2.57 80 16:54 14.04.2021
5099 Rain 18 1013 82 10000 2.57 90 16:25 14.04.2021
5100 Clouds 18 1013 82 10000 3.09 80 15:42 14.04.2021
5101 Clouds 18 1013 88 10000 3.6 70 15:24 14.04.2021
5102 Clouds 17 1013 88 10000 3.09 70 14:49 14.04.2021
5103 Clouds 17 1014 88 10000 3.09 40 14:25 14.04.2021
5104 Clouds 17 1014 88 10000 3.09 40 14:25 14.04.2021
5105 Clouds 17 1014 94 10000 2.57 50 13:57 14.04.2021
5106 Rain 17 1014 94 10000 2.57 50 13:36 14.04.2021
5107 Clouds 17 1015 94 10000 3.09 30 12:39 14.04.2021
5108 Rain 16 1015 94 8000 3.6 70 11:43 14.04.2021
5109 Rain 16 1015 94 8000 3.6 70 11:25 14.04.2021
5110 Clouds 16 1015 100 8000 2.57 70 10:55 14.04.2021
5111 Clouds 16 1015 94 7000 2.06 30 10:33 14.04.2021
5112 Clouds 16 1015 100 6000 2.06 20 09:42 14.04.2021
5113 Rain 16 1015 100 5000 1.54 40 09:21 14.04.2021
5114 Mist 16 1015 100 4500 2.06 40 08:46 14.04.2021
5115 Mist 16 1015 100 4500 2.57 60 08:22 14.04.2021
5116 Rain 16 1015 100 8000 1.03 0 07:25 14.04.2021
5117 Rain 16 1016 100 9000 1.54 30 06:26 14.04.2021
5118 Clouds 16 1016 100 10000 1.54 10 05:20 14.04.2021
5119 Clouds 16 1018 94 10000 1.54 20 01:54 14.04.2021
5120 Clouds 16 1018 94 10000 1.54 230 00:47 14.04.2021
5121 Clouds 16 1018 94 10000 1.54 300 23:59 13.04.2021
5122 Clouds 16 1018 94 10000 2.06 320 23:30 13.04.2021
5123 Clouds 16 1018 94 10000 1.54 290 22:44 13.04.2021
5124 Clouds 16 1018 94 10000 2.57 290 22:19 13.04.2021
5125 Clouds 16 1018 94 8000 3.6 270 21:47 13.04.2021
5126 Clouds 17 1018 82 10000 3.09 260 21:29 13.04.2021
5127 Clouds 17 1018 82 10000 3.6 250 20:43 13.04.2021
5128 Clouds 17 1018 77 10000 3.6 230 20:24 13.04.2021
5129 Clouds 17 1018 77 10000 4.63 230 19:50 13.04.2021
5130 Clouds 18 1018 68 10000 4.12 230 19:25 13.04.2021
5131 Clouds 18 1018 68 10000 4.12 230 19:25 13.04.2021
5132 Clouds 18 1018 68 10000 3.6 220 18:44 13.04.2021
5133 Clouds 18 1018 72 10000 4.12 250 18:25 13.04.2021
5134 Clouds 18 1019 72 10000 4.12 210 17:40 13.04.2021
5135 Clouds 18 1019 72 10000 4.12 210 17:18 13.04.2021
5136 Clouds 18 1019 77 10000 3.6 220 16:45 13.04.2021
5137 Clouds 18 1019 82 10000 3.09 190 16:23 13.04.2021
5138 Clouds 18 1019 82 10000 3.6 190 15:53 13.04.2021
5139 Clouds 17 1019 72 10000 3.6 170 15:34 13.04.2021
5140 Clouds 17 1019 72 10000 3.6 170 15:34 13.04.2021
5141 Clouds 17 1020 82 10000 2.57 170 14:47 13.04.2021
5142 Clouds 16 1020 82 10000 3.6 170 14:22 13.04.2021
5143 Clouds 16 1020 88 10000 2.57 0 13:45 13.04.2021
5144 Clouds 16 1020 94 10000 2.06 100 13:26 13.04.2021
5145 Clouds 16 1020 94 10000 2.57 110 12:58 13.04.2021
5146 Clouds 16 1020 100 10000 2.06 90 12:31 13.04.2021
5147 Clouds 15 1020 94 10000 1.54 110 11:59 13.04.2021
5148 Rain 15 1020 100 3500 1.54 110 11:31 13.04.2021
5149 Rain 14 1020 94 8000 1.54 120 10:56 13.04.2021
5150 Clouds 14 1020 94 4000 1.03 0 10:37 13.04.2021
5151 Clouds 14 1020 94 4000 1.03 0 10:18 13.04.2021
5152 Clouds 15 1020 88 10000 1.54 0 09:40 13.04.2021
5153 Clouds 15 1020 88 10000 1.54 0 09:18 13.04.2021
5154 Clouds 14 1019 94 10000 1.49 111 08:41 13.04.2021
5155 Clouds 14 1019 94 10000 1.36 135 08:20 13.04.2021
5156 Clouds 14 1019 94 10000 0.51 0 07:36 13.04.2021
5157 Clouds 14 1019 88 10000 1.03 0 06:51 13.04.2021
5158 Clouds 14 1019 88 10000 1.4 142 05:53 13.04.2021
5159 Clear 14 1020 88 10000 1.54 350 02:47 13.04.2021
5160 Rain 16 1020 82 10000 1.54 270 01:27 13.04.2021
5161 Clear 16 1020 77 10000 2.06 240 23:49 12.04.2021
5162 Clear 16 1020 77 10000 0.69 69 23:27 12.04.2021
5163 Clear 16 1020 77 10000 1.54 230 22:43 12.04.2021
5164 Clouds 16 1020 77 10000 2.57 200 22:23 12.04.2021
5165 Clouds 16 1020 77 10000 2.57 200 22:23 12.04.2021
5166 Clear 16 1020 82 10000 2.06 200 21:46 12.04.2021
5167 Clear 16 1020 82 10000 2.06 200 21:46 12.04.2021
5168 Clouds 16 1019 88 10000 3.09 340 21:21 12.04.2021
5169 Clouds 17 1020 72 10000 3.09 320 20:41 12.04.2021
5170 Rain 16 1020 72 10000 3.09 320 20:23 12.04.2021
5171 Clouds 17 1020 63 10000 2.06 260 19:57 12.04.2021
5172 Clouds 17 1020 63 10000 3.6 230 19:38 12.04.2021
5173 Clouds 18 1020 63 10000 3.6 230 19:19 12.04.2021
5174 Clouds 18 1020 63 10000 3.6 260 18:44 12.04.2021
5175 Clouds 17 1020 63 10000 3.09 260 18:25 12.04.2021
5176 Clouds 18 1020 55 10000 2.57 0 17:45 12.04.2021
5177 Clouds 18 1020 55 10000 2.57 0 17:24 12.04.2021
5178 Clouds 18 1020 55 10000 3.09 120 16:47 12.04.2021
5179 Clouds 18 1020 68 10000 2.57 190 16:27 12.04.2021
5180 Clouds 17 1021 67 10000 2.06 0 15:49 12.04.2021
5181 Clouds 17 1021 67 10000 1.54 0 15:31 12.04.2021
5182 Clouds 17 1021 72 10000 1.03 0 14:53 12.04.2021
5183 Clouds 16 1021 82 10000 2.57 90 14:35 12.04.2021
5184 Rain 16 1021 82 10000 2.06 70 13:49 12.04.2021
5185 Rain 15 1021 82 10000 1.03 0 13:30 12.04.2021
5186 Clouds 15 1021 88 10000 2.06 80 12:51 12.04.2021
5187 Clouds 15 1021 88 10000 2.57 60 12:27 12.04.2021
5188 Clouds 14 1021 94 10000 2.06 80 11:59 12.04.2021
5189 Clouds 13 1021 94 10000 1.54 70 11:24 12.04.2021
5190 Clouds 13 1020 93 10000 1.54 60 10:47 12.04.2021
5191 Clouds 12 1020 93 10000 1.54 60 10:27 12.04.2021
5192 Clouds 12 1020 93 10000 1.54 70 09:50 12.04.2021
5193 Clouds 11 1020 93 10000 1.54 60 09:21 12.04.2021
5194 Clouds 10 1019 93 10000 2.15 48 08:39 12.04.2021
5195 Clear 10 1019 93 10000 1.78 72 07:42 12.04.2021
5196 Clear 11 1019 93 10000 1.03 0 07:21 12.04.2021
5197 Clear 11 1019 87 10000 1.54 280 06:25 12.04.2021
5198 Clear 11 1019 87 10000 1.95 79 05:41 12.04.2021
5199 Clear 12 1019 76 10000 3.09 320 01:40 12.04.2021
5200 Clear 12 1019 76 10000 3.09 320 01:40 12.04.2021
5201 Clear 13 1019 82 10000 3.09 310 00:26 12.04.2021
5202 Clear 13 1019 82 10000 3.6 310 23:49 11.04.2021
5203 Clear 13 1019 82 10000 4.12 310 23:30 11.04.2021
5204 Clear 13 1019 76 10000 3.6 320 22:48 11.04.2021
5205 Clouds 14 1018 76 10000 4.12 320 22:26 11.04.2021
5206 Clouds 14 1018 76 10000 4.12 310 21:52 11.04.2021
5207 Clouds 14 1018 72 10000 5.14 310 21:30 11.04.2021
5208 Clouds 14 1018 72 10000 5.14 310 21:30 11.04.2021
5209 Clouds 15 1018 67 10000 5.14 310 20:58 11.04.2021
5210 Clouds 15 1017 67 10000 5.66 320 20:37 11.04.2021
5211 Clouds 15 1017 67 10000 5.66 320 20:18 11.04.2021
5212 Clouds 16 1017 59 10000 5.66 310 19:39 11.04.2021
5213 Clouds 17 1017 59 10000 5.66 310 19:19 11.04.2021
5214 Clouds 17 1017 63 10000 5.14 300 18:46 11.04.2021
5215 Clouds 17 1017 59 10000 5.14 310 18:26 11.04.2021
5216 Clouds 18 1016 59 10000 6.17 330 17:49 11.04.2021
5217 Clouds 18 1016 59 10000 4.63 320 17:29 11.04.2021
5218 Clouds 18 1017 59 10000 5.14 330 16:53 11.04.2021
5219 Clouds 18 1017 59 10000 4.12 340 16:27 11.04.2021
5220 Clouds 19 1017 55 10000 3.09 310 15:59 11.04.2021
5221 Clouds 18 1017 59 10000 3.09 310 15:40 11.04.2021
5222 Clouds 18 1017 59 10000 3.09 310 15:22 11.04.2021
5223 Clouds 18 1017 55 10000 4.12 310 14:47 11.04.2021
5224 Clouds 18 1017 59 10000 4.12 310 14:18 11.04.2021
5225 Clouds 17 1016 72 10000 5.14 330 13:39 11.04.2021
5226 Clouds 17 1016 72 10000 5.14 330 13:21 11.04.2021
5227 Clouds 16 1016 82 10000 6.69 340 12:25 11.04.2021
5228 Clouds 16 1016 88 10000 6.17 340 11:53 11.04.2021
5229 Clouds 16 1016 88 10000 5.66 340 11:33 11.04.2021
5230 Clouds 16 1015 88 10000 5.14 330 10:56 11.04.2021
5231 Clouds 15 1015 88 10000 5.14 330 10:38 11.04.2021
5232 Clouds 15 1015 88 10000 5.14 330 10:20 11.04.2021
5233 Clouds 15 1014 88 10000 3.09 320 09:38 11.04.2021
5234 Clouds 14 1014 88 10000 3.09 320 09:20 11.04.2021
5235 Clouds 14 1014 94 10000 3.09 310 08:38 11.04.2021
5236 Clouds 14 1013 94 10000 2.57 310 07:37 11.04.2021
5237 Clouds 14 1013 94 10000 2.57 310 07:18 11.04.2021
5238 Clouds 14 1012 94 10000 3.09 300 05:46 11.04.2021
5239 Clouds 14 1012 94 10000 2.57 300 05:22 11.04.2021
5240 Clouds 14 1012 94 10000 1.54 270 04:35 11.04.2021
5241 Clouds 14 1012 94 10000 1.54 280 03:20 11.04.2021
5242 Clouds 15 1012 94 10000 1.54 290 00:49 11.04.2021
5243 Clouds 15 1012 100 10000 2.06 280 00:25 11.04.2021
5244 Clouds 15 1011 94 10000 2.06 250 23:33 10.04.2021
5245 Clouds 15 1011 100 10000 2.57 250 22:54 10.04.2021
5246 Clouds 15 1011 94 10000 3.09 250 22:26 10.04.2021
5247 Clouds 15 1010 94 10000 3.09 240 21:52 10.04.2021
5248 Clouds 15 1010 94 9000 3.09 230 21:24 10.04.2021
5249 Clouds 16 1010 88 10000 4.12 230 20:53 10.04.2021
5250 Clouds 16 1010 88 10000 5.14 230 20:32 10.04.2021
5251 Clouds 17 1010 88 10000 5.14 230 19:49 10.04.2021
5252 Clouds 17 1010 88 10000 5.66 230 19:30 10.04.2021
5253 Clouds 17 1010 88 10000 7.2 220 18:57 10.04.2021
5254 Clouds 17 1010 88 10000 7.2 220 18:39 10.04.2021
5255 Clouds 17 1010 88 10000 7.2 220 18:20 10.04.2021
5256 Rain 18 1010 77 10000 7.72 220 17:34 10.04.2021
5257 Clouds 18 1010 77 10000 8.75 210 16:37 10.04.2021
5258 Clouds 18 1010 77 10000 8.75 210 16:19 10.04.2021
5259 Clouds 18 1011 72 10000 8.23 210 15:43 10.04.2021
5260 Clouds 18 1011 72 10000 7.72 210 14:52 10.04.2021
5261 Clouds 18 1011 72 10000 7.72 210 14:30 10.04.2021
5262 Clouds 18 1011 77 10000 7.2 200 13:54 10.04.2021
5263 Clouds 18 1011 77 10000 6.17 210 13:34 10.04.2021
5264 Clouds 18 1012 77 10000 4.12 220 12:39 10.04.2021
5265 Clouds 17 1012 77 10000 4.12 220 12:18 10.04.2021
5266 Clouds 17 1012 82 10000 2.06 200 11:44 10.04.2021
5267 Clouds 17 1012 88 10000 2.57 210 11:20 10.04.2021
5268 Clouds 16 1011 94 10000 1.54 200 10:44 10.04.2021
5269 Clouds 15 1011 94 10000 2.06 220 10:26 10.04.2021
5270 Clouds 15 1011 88 10000 5.66 190 09:37 10.04.2021
5271 Rain 15 1011 88 10000 5.66 190 09:18 10.04.2021
5272 Rain 16 1010 94 9000 4.63 160 08:33 10.04.2021
5273 Clouds 16 1011 94 10000 4.63 160 07:55 10.04.2021
5274 Clouds 16 1011 94 10000 3.6 170 07:25 10.04.2021
5275 Clouds 16 1011 94 10000 3.6 160 06:27 10.04.2021
5276 Clouds 16 1012 94 10000 3.09 160 05:28 10.04.2021
5277 Clouds 16 1013 88 10000 2.57 160 03:36 10.04.2021
5278 Clouds 16 1013 88 10000 3.09 180 02:42 10.04.2021
5279 Clouds 16 1014 88 10000 3.09 180 01:27 10.04.2021
5280 Clouds 16 1014 88 10000 2.57 150 00:31 10.04.2021
5281 Clouds 16 1014 88 10000 1.54 200 23:51 09.04.2021
5282 Clouds 16 1014 88 10000 1.54 230 23:30 09.04.2021
5283 Clouds 16 1014 88 10000 2.06 220 22:53 09.04.2021
5284 Clouds 16 1014 88 10000 2.06 220 22:34 09.04.2021
5285 Clouds 16 1014 82 10000 3.09 240 21:40 09.04.2021
5286 Clouds 16 1014 82 10000 3.09 240 21:21 09.04.2021
5287 Clouds 17 1013 82 10000 4.63 210 20:46 09.04.2021
5288 Clouds 17 1013 77 10000 5.14 220 20:24 09.04.2021
5289 Clouds 18 1013 68 10000 5.66 230 19:58 09.04.2021
5290 Clouds 18 1013 63 10000 5.14 230 19:40 09.04.2021
5291 Clouds 19 1013 63 10000 5.14 230 19:22 09.04.2021
5292 Clouds 19 1013 63 10000 5.14 230 19:22 09.04.2021
5293 Clouds 19 1014 63 10000 5.66 230 18:42 09.04.2021
5294 Clouds 19 1014 63 10000 5.66 230 18:23 09.04.2021
5295 Clouds 19 1014 63 10000 6.17 230 17:48 09.04.2021
5296 Clouds 19 1014 68 10000 5.14 220 17:29 09.04.2021
5297 Clouds 19 1014 68 10000 6.17 220 16:47 09.04.2021
5298 Clouds 19 1015 64 10000 5.66 220 16:28 09.04.2021
5299 Clouds 19 1015 68 10000 6.17 230 15:44 09.04.2021
5300 Clouds 19 1015 68 10000 6.69 230 15:24 09.04.2021
5301 Clouds 18 1015 72 10000 6.69 210 14:46 09.04.2021
5302 Clouds 18 1015 72 10000 5.66 220 14:22 09.04.2021
5303 Clouds 19 1016 68 10000 5.14 190 13:45 09.04.2021
5304 Clouds 18 1016 68 10000 5.66 200 13:22 09.04.2021
5305 Clouds 18 1016 68 10000 6.17 190 12:47 09.04.2021
5306 Clouds 18 1016 68 10000 6.17 190 12:47 09.04.2021
5307 Clouds 18 1016 68 10000 6.17 190 12:47 09.04.2021
5308 Clouds 17 1016 72 10000 5.66 220 12:23 09.04.2021
5309 Clouds 17 1016 72 10000 5.14 180 11:43 09.04.2021
5310 Clouds 17 1016 77 10000 5.14 180 11:20 09.04.2021
5311 Clouds 16 1015 88 10000 3.09 180 10:37 09.04.2021
5312 Clouds 16 1015 94 10000 2.06 170 09:58 09.04.2021
5313 Clouds 15 1015 88 10000 2.57 170 09:27 09.04.2021
5314 Clouds 15 1015 88 10000 2.57 140 08:56 09.04.2021
5315 Clouds 15 1015 94 10000 1.54 140 08:31 09.04.2021
5316 Clouds 15 1015 94 10000 3.6 170 07:22 09.04.2021
5317 Clouds 16 1015 88 10000 4.63 200 06:28 09.04.2021
5318 Clouds 16 1016 94 10000 4.63 200 05:36 09.04.2021
5319 Clouds 16 1016 88 10000 4.12 180 03:42 09.04.2021
5320 Clouds 16 1018 82 10000 3.09 250 00:39 09.04.2021
5321 Clouds 16 1018 82 10000 3.09 250 00:21 09.04.2021
5322 Clouds 16 1018 82 10000 3.09 250 00:21 09.04.2021
5323 Clouds 16 1017 88 10000 4.12 240 23:38 08.04.2021
5324 Clouds 16 1017 82 10000 3.09 260 22:56 08.04.2021
5325 Clouds 16 1017 82 10000 4.63 250 22:31 08.04.2021
5326 Clouds 16 1017 82 10000 4.12 240 21:59 08.04.2021
5327 Clouds 16 1017 77 10000 4.63 240 21:41 08.04.2021
5328 Clouds 17 1017 77 10000 4.63 240 21:22 08.04.2021
5329 Clouds 17 1017 77 10000 5.14 240 20:59 08.04.2021
5330 Clouds 17 1017 72 10000 5.14 240 20:40 08.04.2021
5331 Clouds 17 1017 72 10000 5.14 240 20:19 08.04.2021
5332 Clouds 18 1017 63 10000 4.12 240 19:40 08.04.2021
5333 Clouds 18 1017 63 10000 4.12 240 19:19 08.04.2021
5334 Clouds 19 1017 60 10000 5.14 230 18:42 08.04.2021
5335 Clouds 19 1017 56 10000 3.6 230 18:19 08.04.2021
5336 Clouds 19 1017 56 10000 3.6 240 17:42 08.04.2021
5337 Clouds 20 1017 56 10000 4.12 230 17:21 08.04.2021
5338 Clouds 20 1017 60 10000 4.63 270 16:45 08.04.2021
5339 Clouds 20 1018 68 10000 5.14 240 16:23 08.04.2021
5340 Clouds 20 1018 52 10000 3.6 260 15:46 08.04.2021
5341 Clouds 20 1018 59 10000 4.12 240 15:28 08.04.2021
5342 Clouds 19 1019 56 10000 3.6 230 14:43 08.04.2021
5343 Clouds 19 1019 63 10000 2.57 0 14:22 08.04.2021
5344 Clouds 18 1019 77 10000 2.57 80 13:49 08.04.2021
5345 Clouds 17 1019 82 10000 2.06 100 13:25 08.04.2021
5346 Clouds 16 1019 88 9000 2.57 80 12:58 08.04.2021
5347 Fog 17 1020 88 8000 2.06 50 12:34 08.04.2021
5348 Mist 16 1019 88 4500 2.57 70 11:57 08.04.2021
5349 Mist 15 1019 94 4500 2.06 70 11:29 08.04.2021
5350 Fog 15 1019 94 6000 2.57 60 10:56 08.04.2021
5351 Mist 13 1019 100 4000 1.54 50 10:26 08.04.2021
5352 Mist 13 1019 100 4000 1.54 50 10:26 08.04.2021
5353 Mist 13 1019 100 4000 1.54 50 10:26 08.04.2021
5354 Fog 12 1019 93 4500 1.54 50 09:49 08.04.2021
5355 Fog 11 1019 93 10000 1.54 50 09:30 08.04.2021
5356 Clouds 11 1018 93 10000 1.38 141 08:45 08.04.2021
5357 Clouds 11 1018 93 10000 1.31 160 08:22 08.04.2021
5358 Clouds 11 1018 93 10000 1.03 290 07:47 08.04.2021
5359 Clouds 11 1018 100 10000 1.54 280 06:46 08.04.2021
5360 Clear 13 1017 88 10000 3.6 290 01:28 08.04.2021
5361 Clear 14 1017 88 10000 3.09 290 00:32 08.04.2021
5362 Clear 14 1017 88 10000 3.6 300 23:50 07.04.2021
5363 Clear 14 1016 88 10000 3.09 300 23:27 07.04.2021
5364 Clear 14 1016 82 10000 4.12 300 22:58 07.04.2021
5365 Clear 14 1015 82 10000 4.63 310 22:39 07.04.2021
5366 Clear 15 1015 82 10000 4.63 310 22:21 07.04.2021
5367 Clear 16 1015 67 10000 3.6 310 21:35 07.04.2021
5368 Clear 17 1014 63 10000 4.12 310 20:59 07.04.2021
5369 Clear 18 1014 59 10000 4.12 310 20:40 07.04.2021
5370 Clear 18 1014 59 10000 4.12 310 20:19 07.04.2021
5371 Clear 18 1014 45 10000 4.12 300 19:41 07.04.2021
5372 Clear 19 1014 45 10000 4.12 300 19:22 07.04.2021
5373 Clouds 20 1014 33 10000 4.12 230 18:42 07.04.2021
5374 Clouds 20 1014 33 10000 4.12 230 18:18 07.04.2021
5375 Clouds 20 1014 30 10000 4.63 230 17:48 07.04.2021
5376 Clouds 20 1014 30 10000 5.14 200 17:30 07.04.2021
5377 Clouds 20 1014 30 10000 3.6 220 16:47 07.04.2021
5378 Clear 21 1014 30 10000 4.12 0 16:22 07.04.2021
5379 Clear 21 1014 52 10000 2.57 100 15:56 07.04.2021
5380 Clear 20 1014 52 10000 3.09 70 15:38 07.04.2021
5381 Clear 19 1014 56 10000 2.57 100 14:50 07.04.2021
5382 Clear 19 1014 63 10000 2.06 90 14:25 07.04.2021
5383 Clear 18 1015 72 10000 2.06 80 13:46 07.04.2021
5384 Clear 17 1015 72 10000 2.57 100 13:21 07.04.2021
5385 Clear 17 1015 77 10000 2.57 70 12:48 07.04.2021
5386 Clear 17 1014 77 10000 2.06 100 12:22 07.04.2021
5387 Clear 16 1014 77 10000 2.57 90 11:48 07.04.2021
5388 Clear 16 1014 63 10000 0.51 0 11:25 07.04.2021
5389 Clear 16 1014 72 10000 1.54 280 10:51 07.04.2021
5390 Clear 13 1013 82 10000 2.57 310 09:56 07.04.2021
5391 Fog 13 1013 87 10000 3.09 320 09:37 07.04.2021
5392 Fog 12 1013 87 10000 3.09 320 09:19 07.04.2021
5393 Clear 12 1012 87 10000 3.6 320 08:33 07.04.2021
5394 Clear 12 1012 82 10000 3.6 320 07:57 07.04.2021
5395 Clouds 12 1012 82 10000 4.12 310 07:29 07.04.2021
5396 Clear 12 1012 87 10000 4.12 320 06:59 07.04.2021
5397 Clear 12 1012 87 10000 4.12 320 06:18 07.04.2021
5398 Clear 13 1012 82 10000 1.54 0 03:35 07.04.2021
5399 Clear 16 1013 44 10000 4.12 300 23:52 06.04.2021
5400 Clear 16 1013 41 10000 4.63 310 23:23 06.04.2021
5401 Clear 16 1012 51 10000 5.14 310 22:59 06.04.2021
5402 Clear 16 1012 59 10000 5.66 310 22:22 06.04.2021
5403 Clear 17 1012 55 10000 5.66 310 21:59 06.04.2021
5404 Clear 17 1012 55 10000 5.66 310 21:59 06.04.2021
5405 Clear 17 1012 52 10000 4.12 310 21:39 06.04.2021
5406 Clear 17 1012 52 10000 4.12 310 21:21 06.04.2021
5407 Clear 19 1012 52 10000 4.63 310 20:51 06.04.2021
5408 Clear 20 1012 46 10000 3.6 300 20:21 06.04.2021
5409 Clear 20 1012 46 10000 4.63 310 19:49 06.04.2021
5410 Clear 21 1012 43 10000 4.63 320 19:31 06.04.2021
5411 Clear 22 1012 43 10000 3.6 300 18:48 06.04.2021
5412 Clear 23 1012 40 10000 3.6 310 18:24 06.04.2021
5413 Clear 23 1012 40 10000 4.12 320 17:52 06.04.2021
5414 Clear 23 1013 38 10000 2.57 280 17:30 06.04.2021
5415 Clear 23 1013 40 10000 3.09 280 16:59 06.04.2021
5416 Clear 23 1013 43 10000 3.6 280 16:39 06.04.2021
5417 Clear 22 1014 46 10000 4.12 260 15:44 06.04.2021
5418 Clear 21 1014 38 10000 3.6 190 15:22 06.04.2021
5419 Clear 20 1014 53 10000 2.57 100 14:39 06.04.2021
5420 Clear 20 1014 53 10000 2.57 100 14:19 06.04.2021
5421 Clear 20 1014 53 10000 2.06 80 13:44 06.04.2021
5422 Clear 19 1015 60 10000 2.06 90 13:25 06.04.2021
5423 Clear 19 1015 56 10000 1.54 90 12:42 06.04.2021
5424 Clear 18 1015 63 10000 2.06 100 12:22 06.04.2021
5425 Clear 18 1015 55 10000 2.06 110 11:52 06.04.2021
5426 Clear 18 1015 48 10000 1.54 220 11:21 06.04.2021
5427 Clear 17 1015 55 10000 1.03 110 10:48 06.04.2021
5428 Clear 16 1015 59 10000 0.9 48 10:29 06.04.2021
5429 Clear 15 1015 72 10000 0.9 48 09:57 06.04.2021
5430 Clear 14 1015 71 10000 0.51 0 09:36 06.04.2021
5431 Clear 12 1015 76 10000 1.03 280 08:45 06.04.2021
5432 Clear 12 1015 71 10000 1.13 29 08:19 06.04.2021
5433 Clear 13 1015 66 10000 1.03 0 06:56 06.04.2021
5434 Clear 13 1015 66 10000 0.51 0 06:20 06.04.2021
5435 Clear 15 1017 51 10000 2.06 310 02:59 06.04.2021
5436 Clear 15 1017 63 10000 1.54 300 00:46 06.04.2021
5437 Clear 16 1017 59 10000 3.6 320 00:21 06.04.2021
5438 Clear 15 1017 67 10000 4.12 320 23:44 05.04.2021
5439 Clear 15 1017 72 10000 4.63 310 23:22 05.04.2021
5440 Clear 16 1017 77 10000 5.14 330 22:48 05.04.2021
5441 Clear 16 1017 72 10000 6.17 310 22:27 05.04.2021
5442 Clear 17 1017 59 10000 4.12 300 21:45 05.04.2021
5443 Clear 17 1016 63 10000 3.6 310 21:22 05.04.2021
5444 Clear 18 1016 63 10000 4.12 250 20:45 05.04.2021
5445 Clear 19 1016 60 10000 4.12 240 20:27 05.04.2021
5446 Clear 19 1016 60 10000 4.63 240 19:44 05.04.2021
5447 Clear 19 1016 60 10000 4.63 240 19:24 05.04.2021
5448 Clouds 19 1016 56 10000 5.66 230 18:55 05.04.2021
5449 Clouds 20 1016 52 10000 5.14 220 18:36 05.04.2021
5450 Clouds 20 1016 52 10000 5.14 220 18:18 05.04.2021
5451 Clouds 20 1016 46 10000 4.63 210 17:43 05.04.2021
5452 Clouds 20 1017 52 10000 4.12 230 17:20 05.04.2021
5453 Clouds 20 1017 52 10000 4.12 230 16:44 05.04.2021
5454 Clouds 20 1017 49 10000 2.06 100 16:21 05.04.2021
5455 Clouds 21 1017 52 10000 2.06 0 15:52 05.04.2021
5456 Clouds 20 1017 52 10000 2.57 100 15:30 05.04.2021
5457 Clouds 19 1017 52 10000 2.57 80 14:54 05.04.2021
5458 Clear 18 1017 59 10000 2.06 90 14:34 05.04.2021
5459 Fog 18 1018 72 10000 1.54 0 13:32 05.04.2021
5460 Fog 18 1018 82 10000 2.06 90 12:51 05.04.2021
5461 Fog 16 1018 94 10000 2.06 80 12:28 05.04.2021
5462 Fog 17 1017 88 10000 2.57 70 11:56 05.04.2021
5463 Fog 17 1017 82 10000 1.54 90 11:36 05.04.2021
5464 Fog 17 1017 82 10000 1.54 90 11:18 05.04.2021
5465 Fog 16 1017 88 10000 1.54 60 10:45 05.04.2021
5466 Fog 15 1017 94 10000 1.03 0 10:26 05.04.2021
5467 Fog 13 1017 87 10000 1.03 60 09:47 05.04.2021
5468 Fog 12 1017 93 300 1.31 64 09:22 05.04.2021
5469 Fog 11 1016 87 10000 1.03 0 08:45 05.04.2021
5470 Fog 11 1016 81 10000 1.03 0 08:25 05.04.2021
5471 Clear 12 1016 82 10000 1.03 0 07:36 05.04.2021
5472 Clear 13 1015 93 10000 1.54 100 06:20 05.04.2021
5473 Clear 15 1017 72 10000 3.09 320 01:41 05.04.2021
5474 Clear 15 1016 67 10000 3.09 310 00:49 05.04.2021
5475 Clear 15 1016 72 10000 3.6 310 23:51 04.04.2021
5476 Clear 15 1016 72 10000 4.63 320 23:24 04.04.2021
5477 Clear 15 1016 77 10000 4.12 320 22:51 04.04.2021
5478 Clear 15 1015 72 10000 4.12 320 22:30 04.04.2021
5479 Clear 17 1015 72 10000 2.57 300 21:28 04.04.2021
5480 Clouds 18 1015 72 10000 3.09 320 20:57 04.04.2021
5481 Clouds 18 1014 64 10000 3.09 310 20:30 04.04.2021
5482 Clouds 19 1014 56 10000 3.6 310 19:57 04.04.2021
5483 Clouds 20 1014 60 10000 4.12 310 19:36 04.04.2021
5484 Clouds 20 1014 60 10000 4.12 310 19:18 04.04.2021
5485 Clouds 20 1014 60 10000 4.12 310 19:18 04.04.2021
5486 Clouds 20 1014 60 10000 4.63 320 18:42 04.04.2021
5487 Clouds 21 1014 56 10000 4.12 260 18:21 04.04.2021
5488 Clouds 21 1014 56 10000 4.12 260 18:21 04.04.2021
5489 Clouds 21 1014 56 10000 5.66 240 17:44 04.04.2021
5490 Clouds 21 1014 60 10000 5.66 230 17:23 04.04.2021
5491 Clouds 21 1014 60 10000 5.14 220 16:44 04.04.2021
5492 Clouds 21 1014 60 10000 4.12 210 16:19 04.04.2021
5493 Clouds 20 1015 64 10000 2.06 0 15:34 04.04.2021
5494 Clouds 19 1015 68 10000 2.57 110 14:46 04.04.2021
5495 Clear 18 1015 72 10000 1.54 0 14:27 04.04.2021
5496 Clouds 18 1016 77 10000 2.06 100 13:50 04.04.2021
5497 Clouds 18 1016 77 10000 2.06 100 13:24 04.04.2021
5498 Clouds 17 1016 82 10000 3.6 60 12:43 04.04.2021
5499 Clouds 17 1015 82 10000 3.09 70 12:24 04.04.2021
5500 Clouds 17 1015 77 10000 0.51 0 11:42 04.04.2021
5501 Clouds 16 1015 88 10000 2.57 330 11:23 04.04.2021
5502 Clouds 15 1015 94 10000 1.54 310 10:45 04.04.2021
5503 Clouds 13 1015 94 8000 3.09 300 09:57 04.04.2021
5504 Clouds 13 1015 100 7000 2.57 320 09:26 04.04.2021
5505 Clouds 13 1015 100 7000 2.57 320 09:26 04.04.2021
5506 Clouds 12 1015 94 7000 3.09 320 08:55 04.04.2021
5507 Clouds 12 1014 94 8000 3.09 320 08:37 04.04.2021
5508 Clouds 12 1014 94 8000 3.09 320 08:19 04.04.2021
5509 Clouds 12 1014 94 10000 3.6 310 06:38 04.04.2021
5510 Clouds 13 1014 94 10000 3.6 310 05:33 04.04.2021
5511 Clear 13 1015 88 10000 3.09 310 01:30 04.04.2021
5512 Clear 14 1015 88 10000 3.6 320 00:23 04.04.2021
5513 Clouds 14 1015 94 10000 3.6 310 23:51 03.04.2021
5514 Clouds 14 1015 88 10000 4.12 320 23:32 03.04.2021
5515 Clouds 14 1015 82 10000 4.12 300 22:53 03.04.2021
5516 Clouds 14 1014 82 10000 4.12 320 22:22 03.04.2021
5517 Clouds 14 1014 88 10000 5.66 330 21:55 03.04.2021
5518 Clouds 14 1014 82 10000 5.14 310 21:25 03.04.2021
5519 Clouds 15 1014 77 10000 6.17 310 20:59 03.04.2021
5520 Clouds 16 1014 82 10000 6.69 310 20:29 03.04.2021
5521 Clouds 16 1014 82 10000 7.2 310 19:51 03.04.2021
5522 Clouds 16 1014 77 10000 6.17 310 19:29 03.04.2021
5523 Clouds 16 1014 72 10000 6.17 310 18:54 03.04.2021
5524 Clouds 17 1014 72 10000 6.17 320 18:36 03.04.2021
5525 Clouds 17 1014 72 10000 6.69 310 17:57 03.04.2021
5526 Clouds 17 1014 77 10000 5.66 300 17:27 03.04.2021
5527 Clouds 17 1014 72 10000 5.14 310 16:58 03.04.2021
5528 Clouds 18 1014 68 10000 4.12 300 16:31 03.04.2021
5529 Clouds 18 1015 63 10000 3.09 300 15:53 03.04.2021
5530 Clouds 18 1015 63 10000 3.09 300 15:53 03.04.2021
5531 Clouds 18 1015 68 10000 2.57 320 15:32 03.04.2021
5532 Clouds 18 1015 72 10000 3.09 340 14:54 03.04.2021
5533 Clouds 18 1015 72 10000 3.6 330 14:27 03.04.2021
5534 Clouds 18 1015 72 10000 3.6 330 14:27 03.04.2021
5535 Clouds 17 1016 72 10000 4.12 330 13:59 03.04.2021
5536 Clouds 17 1016 72 10000 3.09 360 13:36 03.04.2021
5537 Clouds 17 1016 72 10000 3.09 360 13:18 03.04.2021
5538 Clouds 16 1016 82 10000 4.12 360 12:40 03.04.2021
5539 Clouds 16 1016 88 10000 4.12 340 12:19 03.04.2021
5540 Clouds 16 1016 82 10000 4.12 350 11:32 03.04.2021
5541 Clouds 15 1016 94 10000 3.6 350 10:49 03.04.2021
5542 Clouds 14 1016 88 10000 4.12 340 10:29 03.04.2021
5543 Clouds 14 1016 94 10000 4.12 340 09:50 03.04.2021
5544 Clouds 13 1016 88 10000 1.54 330 09:27 03.04.2021
5545 Clouds 13 1016 94 10000 2.57 320 08:38 03.04.2021
5546 Clouds 13 1015 88 10000 1.54 320 08:19 03.04.2021
5547 Clouds 13 1015 94 10000 3.09 310 07:27 03.04.2021
5548 Clouds 13 1016 88 10000 3.09 330 05:33 03.04.2021
5549 Clouds 14 1017 94 10000 1.03 0 03:18 03.04.2021
5550 Clouds 14 1017 88 10000 2.06 330 02:35 03.04.2021
5551 Clouds 14 1018 88 10000 2.06 320 01:44 03.04.2021
5552 Clouds 15 1018 88 10000 2.57 300 00:19 03.04.2021
5553 Clouds 15 1018 88 10000 1.03 0 23:46 02.04.2021
5554 Clouds 15 1018 88 10000 2.57 280 23:21 02.04.2021
5555 Clouds 15 1018 82 10000 2.06 290 22:50 02.04.2021
5556 Clouds 15 1018 82 10000 3.09 290 22:30 02.04.2021
5557 Clouds 15 1018 77 10000 3.6 290 21:42 02.04.2021
5558 Clouds 15 1018 82 10000 3.09 290 21:20 02.04.2021
5559 Clouds 15 1018 82 10000 3.6 270 20:48 02.04.2021
5560 Clouds 16 1018 77 10000 4.63 270 20:26 02.04.2021
5561 Clouds 16 1018 72 10000 4.12 290 19:43 02.04.2021
5562 Clouds 17 1018 63 10000 4.12 280 19:24 02.04.2021
5563 Clouds 17 1017 55 10000 4.63 260 18:56 02.04.2021
5564 Clouds 18 1017 59 10000 4.12 250 18:38 02.04.2021
5565 Clouds 18 1017 59 10000 4.12 250 18:19 02.04.2021
5566 Clouds 19 1018 55 10000 3.09 270 17:36 02.04.2021
5567 Clouds 18 1018 55 10000 3.09 230 16:44 02.04.2021
5568 Clouds 18 1018 55 10000 3.09 290 15:51 02.04.2021
5569 Clouds 18 1019 55 10000 3.6 280 15:32 02.04.2021
5570 Clouds 18 1019 63 10000 3.09 280 14:45 02.04.2021
5571 Clouds 17 1019 63 10000 4.12 280 14:21 02.04.2021
5572 Clouds 17 1019 63 10000 3.6 290 13:41 02.04.2021
5573 Clouds 17 1019 63 10000 3.6 290 13:19 02.04.2021
5574 Clouds 17 1019 63 10000 1.54 0 12:40 02.04.2021
5575 Clouds 16 1019 63 10000 1.54 0 12:20 02.04.2021
5576 Clouds 16 1019 67 10000 1.03 0 11:53 02.04.2021
5577 Clouds 16 1019 77 10000 0.51 0 11:20 02.04.2021
5578 Clouds 16 1019 77 10000 0.51 0 11:20 02.04.2021
5579 Clouds 15 1019 88 10000 1.54 150 10:45 02.04.2021
5580 Clouds 14 1019 94 10000 1.03 0 10:27 02.04.2021
5581 Clouds 14 1018 100 10000 2.06 330 09:52 02.04.2021
5582 Clouds 13 1018 94 10000 1.03 0 09:26 02.04.2021
5583 Clouds 13 1018 94 10000 1.54 250 08:51 02.04.2021
5584 Clouds 13 1017 94 10000 1.03 300 08:29 02.04.2021
5585 Clouds 13 1017 94 10000 1.03 30 07:23 02.04.2021
5586 Clouds 13 1017 94 10000 2.2 291 06:47 02.04.2021
5587 Clouds 13 1017 94 10000 2.2 291 06:47 02.04.2021
5588 Clouds 14 1017 94 10000 2.06 270 04:49 02.04.2021
5589 Clouds 14 1017 94 10000 2.57 250 02:27 02.04.2021
5590 Clouds 15 1017 94 10000 3.09 260 00:50 02.04.2021
5591 Clouds 15 1016 94 10000 2.06 240 00:18 02.04.2021
5592 Clouds 15 1016 94 10000 2.06 240 00:18 02.04.2021
5593 Clouds 15 1016 94 10000 2.06 250 23:35 01.04.2021
5594 Clouds 15 1015 88 10000 2.06 250 22:55 01.04.2021
5595 Clouds 15 1015 82 10000 2.57 260 22:19 01.04.2021
5596 Clouds 16 1015 82 10000 2.06 290 21:49 01.04.2021
5597 Clouds 16 1014 77 10000 2.57 270 21:26 01.04.2021
5598 Clouds 17 1014 82 10000 3.6 250 20:45 01.04.2021
5599 Clouds 16 1014 82 10000 4.12 240 20:24 01.04.2021
5600 Clouds 17 1013 77 10000 4.63 240 19:54 01.04.2021
5601 Clouds 17 1013 77 10000 6.69 230 19:35 01.04.2021
5602 Clouds 17 1013 77 10000 6.69 230 19:35 01.04.2021
5603 Clouds 17 1013 72 10000 6.69 240 18:45 01.04.2021
5604 Clouds 17 1013 77 10000 6.17 240 18:18 01.04.2021
5605 Clouds 18 1013 77 10000 6.69 230 17:51 01.04.2021
5606 Clouds 17 1013 82 10000 6.17 230 17:32 01.04.2021
5607 Clouds 17 1012 88 5000 6.17 230 16:51 01.04.2021
5608 Clouds 17 1012 82 10000 6.17 200 16:28 01.04.2021
5609 Clouds 18 1012 77 10000 6.69 200 15:47 01.04.2021
5610 Clouds 18 1012 77 10000 6.17 200 15:20 01.04.2021
5611 Clouds 18 1012 82 10000 6.17 200 14:45 01.04.2021
5612 Clouds 17 1012 82 10000 6.69 200 14:26 01.04.2021
5613 Clouds 17 1012 82 10000 6.69 200 13:56 01.04.2021
5614 Clouds 17 1012 94 10000 6.17 190 13:31 01.04.2021
5615 Clouds 17 1012 88 10000 4.63 170 12:54 01.04.2021
5616 Clouds 16 1012 94 10000 4.12 160 12:32 01.04.2021
5617 Clouds 16 1012 94 10000 3.6 180 11:55 01.04.2021
5618 Clouds 16 1011 88 6000 3.09 160 11:37 01.04.2021
5619 Clouds 16 1011 88 6000 3.09 160 11:18 01.04.2021
5620 Rain 16 1011 94 8000 4.12 160 10:42 01.04.2021
5621 Rain 15 1011 94 8000 4.12 160 10:22 01.04.2021
5622 Clouds 15 1011 94 9000 4.63 190 09:30 01.04.2021
5623 Clouds 15 1011 94 9000 4.63 190 09:30 01.04.2021
5624 Clouds 15 1010 94 10000 4.63 180 08:40 01.04.2021
5625 Clouds 15 1010 94 10000 4.63 180 08:19 01.04.2021
5626 Clouds 16 1010 94 10000 6.17 160 07:21 01.04.2021
5627 Clouds 16 1010 82 10000 5.66 170 06:54 01.04.2021
5628 Clouds 16 1010 82 10000 7.2 180 04:56 01.04.2021
5629 Clouds 16 1010 88 10000 9.26 190 02:29 01.04.2021
5630 Clouds 16 1009 72 10000 4.63 200 23:52 31.03.2021
5631 Clouds 17 1008 68 10000 2.57 170 23:32 31.03.2021
5632 Clear 17 1007 77 10000 5.25 169 22:43 31.03.2021
5633 Clear 17 1008 77 10000 1.54 210 22:21 31.03.2021
5634 Clear 17 1008 72 10000 4.12 210 21:47 31.03.2021
5635 Clear 17 1008 68 10000 5.14 200 21:24 31.03.2021
5636 Clear 18 1009 68 10000 6.17 220 20:58 31.03.2021
5637 Clear 18 1009 63 10000 6.17 230 20:40 31.03.2021
5638 Clear 18 1009 63 10000 6.17 230 20:19 31.03.2021
5639 Clear 19 1008 56 10000 5.66 240 19:42 31.03.2021
5640 Clear 19 1008 56 10000 5.66 240 19:42 31.03.2021
5641 Clear 19 1008 52 10000 6.69 240 19:19 31.03.2021
5642 Clear 20 1008 43 10000 6.17 240 18:52 31.03.2021
5643 Clear 21 1008 35 10000 5.66 230 18:26 31.03.2021
5644 Clear 24 1008 29 10000 6.17 150 17:38 31.03.2021
5645 Clear 24 1008 29 10000 6.17 150 17:19 31.03.2021
5646 Clear 26 1009 27 10000 6.69 150 16:50 31.03.2021
5647 Clear 26 1009 26 10000 6.17 140 16:30 31.03.2021
5648 Clear 26 1009 29 10000 4.63 100 15:52 31.03.2021
5649 Clear 25 1010 31 10000 5.14 110 15:20 31.03.2021
5650 Clear 24 1010 38 10000 3.6 100 14:49 31.03.2021
5651 Clear 23 1011 40 10000 3.6 70 14:24 31.03.2021
5652 Clear 22 1011 43 10000 4.63 80 13:53 31.03.2021
5653 Clear 21 1012 46 10000 5.14 70 13:22 31.03.2021
5654 Clear 20 1012 59 10000 5.66 70 12:40 31.03.2021
5655 Clear 20 1012 59 10000 5.66 70 12:18 31.03.2021
5656 Clear 17 1012 63 10000 5.66 60 11:22 31.03.2021
5657 Clear 17 1012 63 10000 5.66 60 11:22 31.03.2021
5658 Clear 17 1013 63 10000 5.14 60 10:50 31.03.2021
5659 Clear 16 1013 67 10000 5.14 60 10:27 31.03.2021
5660 Clear 16 1013 67 10000 4.12 60 09:54 31.03.2021
5661 Clear 15 1013 72 10000 3.09 50 09:29 31.03.2021
5662 Clear 15 1013 72 10000 3.09 50 08:46 31.03.2021
5663 Clear 15 1013 76 10000 2.57 40 08:26 31.03.2021
5664 Clear 14 1013 76 10000 0.51 0 07:36 31.03.2021
5665 Clear 15 1014 67 10000 2.06 50 04:46 31.03.2021
5666 Clear 18 1015 55 10000 4.12 70 02:37 31.03.2021
5667 Clear 19 1015 52 10000 4.63 60 00:54 31.03.2021
5668 Clear 19 1016 52 10000 5.14 50 00:25 31.03.2021
5669 Clear 18 1015 49 10000 5.14 50 23:57 30.03.2021
5670 Clear 19 1016 52 10000 4.63 50 23:25 30.03.2021
5671 Clear 20 1016 52 10000 4.63 60 22:50 30.03.2021
5672 Clear 20 1016 49 10000 5.14 60 22:30 30.03.2021
5673 Clouds 21 1016 49 10000 5.66 60 21:57 30.03.2021
5674 Clouds 21 1016 49 10000 5.66 60 21:31 30.03.2021
5675 Clouds 22 1015 46 10000 5.66 60 20:59 30.03.2021
5676 Clouds 22 1016 49 10000 4.63 50 20:40 30.03.2021
5677 Clouds 22 1016 49 10000 4.63 50 20:20 30.03.2021
5678 Clear 22 1016 49 10000 5.14 50 19:43 30.03.2021
5679 Clear 22 1016 53 10000 4.63 70 18:58 30.03.2021
5680 Clear 22 1016 53 10000 4.63 50 18:30 30.03.2021
5681 Clear 22 1017 52 10000 4.63 50 17:48 30.03.2021
5682 Clear 22 1017 56 10000 4.63 50 17:30 30.03.2021
5683 Clear 22 1017 52 10000 4.63 50 16:47 30.03.2021
5684 Clear 21 1018 56 10000 4.63 60 16:28 30.03.2021
5685 Clear 21 1018 56 10000 5.66 60 15:39 30.03.2021
5686 Clear 20 1018 56 10000 5.66 60 15:19 30.03.2021
5687 Clear 19 1019 68 10000 5.14 50 14:45 30.03.2021
5688 Clear 19 1019 68 10000 5.14 50 14:21 30.03.2021
5689 Clear 18 1019 68 10000 5.14 50 13:49 30.03.2021
5690 Clear 18 1019 68 10000 4.63 40 13:26 30.03.2021
5691 Clear 17 1020 77 10000 2.57 10 12:41 30.03.2021
5692 Clear 17 1020 77 10000 2.57 10 12:21 30.03.2021
5693 Clear 17 1020 72 10000 3.6 20 11:47 30.03.2021
5694 Clear 17 1020 77 10000 3.6 60 11:19 30.03.2021
5695 Clear 16 1020 77 10000 4.63 40 10:42 30.03.2021
5696 Clear 16 1020 77 10000 3.09 70 10:19 30.03.2021
5697 Clear 16 1019 72 10000 4.14 34 09:41 30.03.2021
5698 Clear 16 1019 82 10000 2.06 90 09:21 30.03.2021
5699 Clear 16 1019 77 10000 0.51 0 08:43 30.03.2021
5700 Rain 16 1019 72 10000 1.54 0 08:21 30.03.2021
5701 Clear 15 1019 82 10000 2.57 340 07:42 30.03.2021
5702 Clear 15 1019 88 10000 1.03 350 06:53 30.03.2021
5703 Clear 16 1019 82 10000 1.54 50 05:25 30.03.2021
5704 Clear 16 1021 77 10000 1.03 70 01:57 30.03.2021
5705 Clear 17 1020 72 10000 1.03 0 23:55 29.03.2021
5706 Clear 18 1020 63 10000 1.54 60 23:27 29.03.2021
5707 Clear 18 1020 63 10000 2.06 50 22:43 29.03.2021
5708 Clear 18 1019 63 10000 1.03 20 21:58 29.03.2021
5709 Clear 18 1020 59 10000 1.54 70 21:37 29.03.2021
5710 Clear 20 1019 56 10000 2.06 60 20:57 29.03.2021
5711 Clear 20 1019 56 10000 2.06 50 20:37 29.03.2021
5712 Rain 20 1019 56 10000 2.57 90 19:56 29.03.2021
5713 Clouds 19 1019 56 10000 2.57 0 19:32 29.03.2021
5714 Clouds 20 1020 56 10000 3.09 100 18:57 29.03.2021
5715 Clear 21 1020 52 10000 2.57 110 18:39 29.03.2021
5716 Clear 20 1020 52 10000 2.57 110 18:20 29.03.2021
5717 Clear 20 1020 52 10000 2.57 110 18:20 29.03.2021
5718 Clouds 21 1020 52 10000 3.6 150 17:38 29.03.2021
5719 Clouds 21 1020 52 10000 4.63 140 16:55 29.03.2021
5720 Clouds 21 1020 52 10000 3.09 130 16:34 29.03.2021
5721 Clouds 21 1020 56 10000 3.6 70 15:49 29.03.2021
5722 Clouds 21 1021 56 10000 3.09 70 15:31 29.03.2021
5723 Clear 21 1021 64 10000 3.6 70 14:54 29.03.2021
5724 Clear 21 1021 68 10000 5.14 50 14:31 29.03.2021
5725 Clear 20 1021 68 10000 4.63 60 13:47 29.03.2021
5726 Clear 20 1021 63 10000 4.63 70 13:24 29.03.2021
5727 Clear 18 1021 72 10000 4.63 60 12:50 29.03.2021
5728 Clear 16 1021 82 10000 4.12 50 11:50 29.03.2021
5729 Clouds 16 1021 82 10000 4.12 40 11:30 29.03.2021
5730 Clouds 15 1021 88 10000 2.57 60 10:59 29.03.2021
5731 Clouds 15 1021 82 10000 4.63 60 10:36 29.03.2021
5732 Clear 15 1021 82 10000 3.09 50 09:42 29.03.2021
5733 Clear 14 1020 82 10000 1.54 40 08:58 29.03.2021
5734 Clear 13 1020 87 10000 2.06 60 08:28 29.03.2021
5735 Rain 13 1020 88 10000 2.57 40 07:41 29.03.2021
5736 Clear 15 1019 88 10000 1.03 0 06:27 29.03.2021
5737 Clear 17 1020 59 10000 2.06 70 03:59 29.03.2021
5738 Clear 17 1020 59 10000 2.06 70 03:59 29.03.2021
5739 Clear 17 1021 55 10000 3.6 320 01:54 29.03.2021
5740 Clear 17 1021 48 10000 4.63 310 00:23 29.03.2021
5741 Clear 17 1021 52 10000 5.14 310 23:50 28.03.2021
5742 Clear 17 1021 52 10000 5.66 320 23:19 28.03.2021
5743 Clear 17 1021 52 10000 4.63 320 22:41 28.03.2021
5744 Clear 17 1021 52 10000 4.63 320 22:21 28.03.2021
5745 Clear 18 1021 45 10000 5.14 330 21:42 28.03.2021
5746 Clear 19 1021 52 10000 3.09 280 21:23 28.03.2021
5747 Clear 19 1021 49 10000 2.06 240 20:50 28.03.2021
5748 Clear 21 1021 46 10000 2.06 340 20:31 28.03.2021
5749 Clear 23 1021 43 10000 2.06 40 19:46 28.03.2021
5750 Clear 23 1021 40 10000 1.54 30 19:23 28.03.2021
5751 Clear 23 1021 46 10000 3.09 50 18:58 28.03.2021
5752 Clear 23 1021 43 10000 3.09 50 18:32 28.03.2021
5753 Clear 23 1021 43 10000 2.57 30 17:55 28.03.2021
5754 Clear 23 1021 46 10000 2.06 0 17:32 28.03.2021
5755 Clear 23 1021 43 10000 3.09 70 16:46 28.03.2021
5756 Clear 23 1021 43 10000 3.09 70 16:46 28.03.2021
5757 Clear 22 1022 46 10000 3.09 70 16:23 28.03.2021
5758 Clear 22 1022 52 10000 3.6 70 15:43 28.03.2021
5759 Clear 21 1023 56 10000 3.6 70 15:22 28.03.2021
5760 Clear 19 1023 63 10000 3.6 60 14:37 28.03.2021
5761 Clear 18 1023 63 10000 5.14 50 13:52 28.03.2021
5762 Clear 18 1024 63 10000 4.12 50 13:33 28.03.2021
5763 Clear 17 1024 67 10000 4.63 60 12:53 28.03.2021
5764 Clear 16 1024 67 10000 5.14 50 12:33 28.03.2021
5765 Clear 15 1024 67 10000 6.69 50 11:49 28.03.2021
5766 Clear 15 1023 67 10000 6.17 50 11:26 28.03.2021
5767 Clear 15 1023 67 10000 4.63 40 10:45 28.03.2021
5768 Clear 13 1023 67 10000 3.6 40 10:27 28.03.2021
5769 Clear 13 1022 71 10000 3.09 30 09:49 28.03.2021
5770 Clear 13 1022 82 10000 2.57 40 09:25 28.03.2021
5771 Clear 12 1022 82 10000 2.57 50 08:47 28.03.2021
5772 Clear 13 1022 71 10000 1.54 70 07:52 28.03.2021
5773 Clear 13 1022 62 10000 2.57 50 07:33 28.03.2021
5774 Clear 14 1022 58 10000 3.09 30 04:54 28.03.2021
5775 Clear 15 1023 58 10000 3.09 350 01:38 28.03.2021
5776 Clear 16 1023 58 10000 2.57 340 00:22 28.03.2021
5777 Clear 16 1023 58 10000 3.09 350 23:44 27.03.2021
5778 Clear 16 1022 58 10000 3.09 350 23:21 27.03.2021
5779 Clear 16 1022 63 10000 3.6 350 22:38 27.03.2021
5780 Clear 16 1022 63 10000 3.6 350 22:18 27.03.2021
5781 Clear 17 1022 59 10000 3.6 340 21:41 27.03.2021
5782 Clear 16 1022 59 10000 3.6 340 21:20 27.03.2021
5783 Clear 17 1021 55 10000 3.6 360 20:50 27.03.2021
5784 Clear 17 1021 48 10000 4.12 30 20:31 27.03.2021
5785 Clear 18 1021 45 10000 4.12 20 19:45 27.03.2021
5786 Clear 19 1021 45 10000 3.6 20 19:23 27.03.2021
5787 Clear 20 1021 42 10000 3.6 20 18:50 27.03.2021
5788 Clear 21 1021 37 10000 3.6 20 18:32 27.03.2021
5789 Clear 21 1021 35 10000 4.12 50 17:56 27.03.2021
5790 Clear 21 1021 32 10000 3.6 50 17:26 27.03.2021
5791 Clear 21 1021 32 10000 4.12 50 16:53 27.03.2021
5792 Clear 21 1021 28 10000 4.12 70 16:30 27.03.2021
5793 Clear 21 1021 26 10000 4.12 50 15:58 27.03.2021
5794 Clear 21 1022 32 10000 4.63 60 15:36 27.03.2021
5795 Clear 20 1022 34 10000 4.63 60 14:54 27.03.2021
5796 Clear 19 1022 48 10000 4.12 60 14:19 27.03.2021
5797 Clear 18 1023 55 10000 4.12 60 13:27 27.03.2021
5798 Clear 18 1023 55 10000 4.12 40 12:59 27.03.2021
5799 Clear 17 1023 59 10000 4.63 70 12:33 27.03.2021
5800 Clear 16 1023 58 10000 4.12 50 11:47 27.03.2021
5801 Clear 16 1023 58 10000 5.14 60 11:27 27.03.2021
5802 Clear 15 1023 62 10000 5.14 50 10:48 27.03.2021
5803 Clear 13 1023 71 10000 3.6 50 10:28 27.03.2021
5804 Clear 13 1023 82 10000 2.57 60 09:41 27.03.2021
5805 Clear 11 1023 82 10000 2.57 60 09:18 27.03.2021
5806 Clear 12 1022 81 10000 2.06 30 08:33 27.03.2021
5807 Clear 11 1022 76 10000 2.06 20 07:36 27.03.2021
5808 Clear 12 1022 76 10000 1.54 360 06:58 27.03.2021
5809 Clear 12 1022 76 10000 2.57 360 06:37 27.03.2021
5810 Clear 12 1023 76 10000 2.06 320 04:41 27.03.2021
5811 Clear 12 1024 82 10000 3.6 330 01:28 27.03.2021
5812 Clear 12 1025 71 10000 1.54 340 00:32 27.03.2021
5813 Clear 12 1024 66 10000 4.63 360 23:59 26.03.2021
5814 Clear 13 1024 66 10000 6.69 340 23:23 26.03.2021
5815 Clear 13 1025 76 10000 6.17 330 22:37 26.03.2021
5816 Clear 13 1025 71 10000 5.66 340 21:42 26.03.2021
5817 Clear 14 1024 71 10000 6.17 340 21:22 26.03.2021
5818 Clear 14 1024 71 10000 5.14 330 20:49 26.03.2021
5819 Clear 14 1024 67 10000 5.14 330 20:31 26.03.2021
5820 Clear 15 1024 58 10000 6.17 340 19:51 26.03.2021
5821 Clear 16 1024 55 10000 6.17 340 19:32 26.03.2021
5822 Clear 17 1024 55 10000 5.66 340 18:49 26.03.2021
5823 Clear 17 1024 51 10000 6.69 350 18:30 26.03.2021
5824 Clouds 17 1024 51 10000 6.69 350 17:50 26.03.2021
5825 Clouds 17 1024 55 10000 6.69 350 17:23 26.03.2021
5826 Clouds 18 1024 55 10000 5.66 360 16:36 26.03.2021
5827 Clouds 18 1024 52 10000 5.14 360 15:59 26.03.2021
5828 Clouds 18 1024 55 10000 4.12 350 15:35 26.03.2021
5829 Clouds 18 1024 55 10000 4.63 360 14:44 26.03.2021
5830 Clouds 17 1025 55 10000 4.12 10 13:51 26.03.2021
5831 Clouds 17 1025 63 10000 3.6 100 13:22 26.03.2021
5832 Clouds 16 1025 72 10000 3.6 90 12:35 26.03.2021
5833 Clouds 16 1025 72 10000 3.6 90 11:48 26.03.2021
5834 Clouds 15 1025 77 10000 3.6 50 11:29 26.03.2021
5835 Clouds 15 1025 72 10000 3.09 0 10:43 26.03.2021
5836 Clouds 14 1025 76 10000 2.06 60 10:19 26.03.2021
5837 Clear 12 1024 82 10000 3.6 350 09:41 26.03.2021
5838 Clear 11 1024 87 10000 2.57 360 08:49 26.03.2021
5839 Clear 10 1023 87 10000 1.54 360 08:30 26.03.2021
5840 Clear 10 1023 93 10000 2.06 360 07:56 26.03.2021
5841 Clear 10 1023 87 10000 3.09 10 07:22 26.03.2021
5842 Clear 11 1023 87 10000 2.06 360 06:56 26.03.2021
5843 Clear 11 1023 81 10000 3.6 340 05:32 26.03.2021
5844 Clear 11 1023 81 10000 3.09 350 04:18 26.03.2021
5845 Clear 12 1024 82 10000 2.57 330 00:52 26.03.2021
5846 Clear 12 1024 76 10000 4.12 330 23:53 25.03.2021
5847 Clear 12 1024 76 10000 5.14 330 23:33 25.03.2021
5848 Clear 13 1024 76 10000 5.14 330 22:41 25.03.2021
5849 Clear 13 1024 76 10000 5.14 330 22:20 25.03.2021
5850 Clear 13 1024 76 10000 5.14 330 21:47 25.03.2021
5851 Clear 13 1023 71 10000 5.66 330 21:29 25.03.2021
5852 Clear 14 1023 67 10000 4.63 320 20:41 25.03.2021
5853 Clear 14 1023 67 10000 4.63 320 20:23 25.03.2021
5854 Clear 15 1023 67 10000 4.12 310 19:40 25.03.2021
5855 Clear 15 1023 67 10000 4.12 310 19:22 25.03.2021
5856 Clouds 16 1023 63 10000 6.17 340 18:46 25.03.2021
5857 Clouds 16 1023 59 10000 4.63 330 18:26 25.03.2021
5858 Clouds 17 1023 59 10000 4.63 330 17:42 25.03.2021
5859 Clouds 18 1023 55 10000 2.06 0 17:23 25.03.2021
5860 Clouds 18 1023 55 10000 2.06 0 16:39 25.03.2021
5861 Clouds 18 1023 55 10000 2.06 0 16:20 25.03.2021
5862 Clouds 18 1024 48 10000 2.57 260 15:42 25.03.2021
5863 Clouds 18 1024 48 10000 2.57 260 15:19 25.03.2021
5864 Clouds 17 1024 52 10000 2.06 0 14:42 25.03.2021
5865 Clouds 16 1025 67 10000 2.06 0 13:41 25.03.2021
5866 Clouds 16 1025 67 10000 2.06 0 13:23 25.03.2021
5867 Clouds 15 1025 67 10000 2.57 110 12:41 25.03.2021
5868 Clouds 15 1025 67 10000 2.57 110 12:20 25.03.2021
5869 Clouds 15 1025 67 10000 2.57 100 11:48 25.03.2021
5870 Clouds 14 1025 67 10000 2.06 70 11:26 25.03.2021
5871 Clouds 14 1025 71 10000 2.57 20 10:52 25.03.2021
5872 Clouds 13 1025 82 10000 2.57 20 10:24 25.03.2021
5873 Clear 13 1025 82 10000 2.57 20 09:56 25.03.2021
5874 Clear 12 1025 82 10000 1.03 0 09:38 25.03.2021
5875 Clear 10 1025 93 10000 1.41 39 08:54 25.03.2021
5876 Clouds 9 1024 93 10000 1.45 35 08:21 25.03.2021
5877 Clear 9 1024 87 10000 1.03 310 07:19 25.03.2021
5878 Clear 9 1024 93 10000 2.06 340 06:25 25.03.2021
5879 Clear 9 1024 87 10000 1.54 330 05:49 25.03.2021
5880 Clear 11 1025 76 10000 4.63 330 02:48 25.03.2021
5881 Clear 11 1026 76 10000 5.66 330 00:34 25.03.2021
5882 Clear 11 1026 71 10000 5.66 330 23:53 24.03.2021
5883 Clear 11 1026 71 10000 5.66 330 23:29 24.03.2021
5884 Clear 12 1026 71 10000 6.69 330 22:50 24.03.2021
5885 Clear 12 1026 71 10000 6.69 330 22:28 24.03.2021
5886 Clear 12 1026 66 10000 6.17 330 21:46 24.03.2021
5887 Clouds 12 1026 71 10000 6.17 330 21:24 24.03.2021
5888 Clouds 13 1026 67 10000 5.14 320 20:45 24.03.2021
5889 Clouds 13 1025 71 10000 5.14 310 20:20 24.03.2021
5890 Clear 14 1025 62 10000 6.17 320 19:49 24.03.2021
5891 Clear 15 1025 58 10000 5.14 320 19:29 24.03.2021
5892 Clear 15 1025 58 10000 5.14 320 19:29 24.03.2021
5893 Clouds 15 1025 58 10000 5.66 320 18:51 24.03.2021
5894 Clouds 16 1025 55 10000 5.14 310 18:24 24.03.2021
5895 Clouds 16 1025 55 10000 5.66 330 17:52 24.03.2021
5896 Clouds 16 1025 55 10000 5.14 310 17:32 24.03.2021
5897 Clouds 17 1025 55 10000 4.63 330 16:53 24.03.2021
5898 Clouds 17 1025 55 10000 4.63 320 16:31 24.03.2021
5899 Clouds 17 1025 52 10000 3.09 0 15:55 24.03.2021
5900 Clouds 17 1025 48 10000 3.09 30 15:33 24.03.2021
5901 Clouds 17 1026 52 10000 2.57 350 14:48 24.03.2021
5902 Clouds 17 1026 55 10000 2.57 350 14:27 24.03.2021
5903 Clouds 17 1026 55 10000 2.57 310 13:57 24.03.2021
5904 Clouds 17 1026 59 10000 3.6 320 13:28 24.03.2021
5905 Clouds 16 1027 58 10000 3.09 10 12:45 24.03.2021
5906 Clouds 16 1027 63 10000 3.6 340 12:23 24.03.2021
5907 Clouds 15 1027 67 10000 3.6 350 11:49 24.03.2021
5908 Clouds 14 1026 71 10000 5.66 350 10:59 24.03.2021
5909 Clouds 13 1026 76 10000 5.66 340 10:41 24.03.2021
5910 Clouds 13 1026 76 10000 5.66 340 10:22 24.03.2021
5911 Clouds 12 1026 82 10000 3.6 340 09:53 24.03.2021
5912 Clouds 11 1026 82 10000 3.09 340 09:23 24.03.2021
5913 Clouds 11 1025 81 10000 1.54 340 08:55 24.03.2021
5914 Clouds 9 1025 87 10000 1.03 10 08:29 24.03.2021
5915 Clear 9 1025 87 10000 2.57 330 07:42 24.03.2021
5916 Clear 9 1024 87 10000 2.04 352 06:54 24.03.2021
5917 Clear 10 1024 87 10000 2.57 340 05:52 24.03.2021
5918 Clear 12 1025 82 10000 4.63 330 00:56 24.03.2021
5919 Clear 12 1025 82 10000 5.14 340 00:32 24.03.2021
5920 Clear 12 1025 87 10000 5.66 320 23:23 23.03.2021
5921 Clear 12 1024 82 10000 7.2 310 22:58 23.03.2021
5922 Clear 12 1024 82 10000 6.69 310 22:40 23.03.2021
5923 Clear 12 1024 82 10000 6.69 310 21:59 23.03.2021
5924 Clear 12 1023 82 10000 6.17 300 21:40 23.03.2021
5925 Clear 12 1023 82 10000 6.17 300 21:19 23.03.2021
5926 Clouds 13 1023 76 10000 6.69 310 20:42 23.03.2021
5927 Clouds 14 1023 72 10000 6.17 310 20:23 23.03.2021
5928 Clouds 16 1023 67 10000 6.17 320 19:45 23.03.2021
5929 Clouds 15 1023 67 10000 6.17 320 19:25 23.03.2021
5930 Clouds 16 1022 63 10000 5.66 330 18:43 23.03.2021
5931 Clouds 16 1022 63 10000 5.66 330 18:21 23.03.2021
5932 Clouds 17 1022 59 10000 4.63 320 17:44 23.03.2021
5933 Clouds 18 1022 55 10000 5.14 330 17:21 23.03.2021
5934 Clouds 19 1022 55 10000 4.63 330 16:26 23.03.2021
5935 Clouds 19 1023 55 10000 3.6 330 15:59 23.03.2021
5936 Clouds 19 1023 52 10000 2.06 30 15:38 23.03.2021
5937 Clouds 19 1023 52 10000 3.09 0 14:51 23.03.2021
5938 Clouds 18 1023 49 10000 1.54 0 14:21 23.03.2021
5939 Clouds 18 1023 52 10000 2.57 330 13:49 23.03.2021
5940 Clouds 18 1023 55 10000 1.54 0 13:25 23.03.2021
5941 Clouds 17 1024 59 10000 2.06 0 12:47 23.03.2021
5942 Clouds 17 1024 59 10000 2.06 0 12:27 23.03.2021
5943 Clouds 16 1024 59 10000 2.06 360 11:51 23.03.2021
5944 Clouds 16 1024 67 10000 3.09 330 11:33 23.03.2021
5945 Clouds 14 1024 72 10000 4.12 310 10:44 23.03.2021
5946 Clouds 14 1023 72 10000 4.63 310 10:22 23.03.2021
5947 Clouds 13 1023 82 10000 4.12 310 09:55 23.03.2021
5948 Clouds 12 1022 82 10000 3.6 310 09:29 23.03.2021
5949 Clouds 12 1022 82 10000 3.6 310 09:29 23.03.2021
5950 Clouds 12 1022 87 10000 3.6 310 08:58 23.03.2021
5951 Clouds 11 1022 93 10000 3.09 310 08:39 23.03.2021
5952 Clouds 11 1022 93 10000 3.09 310 08:20 23.03.2021
5953 Clear 11 1021 82 10000 3.6 310 07:28 23.03.2021
5954 Clear 11 1021 93 10000 3.6 300 06:57 23.03.2021
5955 Clear 11 1021 93 10000 3.6 300 06:57 23.03.2021
5956 Clear 11 1021 82 10000 4.63 320 06:18 23.03.2021
5957 Clear 12 1021 66 10000 4.63 320 03:20 23.03.2021
5958 Clear 13 1021 71 10000 4.63 330 00:42 23.03.2021
5959 Clear 13 1020 58 10000 5.66 310 23:33 22.03.2021
5960 Clear 13 1020 54 10000 5.14 300 22:46 22.03.2021
5961 Clear 14 1020 54 10000 5.14 300 22:23 22.03.2021
5962 Clear 14 1020 58 10000 5.14 300 21:52 22.03.2021
5963 Clear 14 1020 58 10000 5.66 310 21:29 22.03.2021
5964 Clear 15 1019 55 10000 5.14 300 20:57 22.03.2021
5965 Clear 16 1019 44 10000 5.14 310 20:37 22.03.2021
5966 Clear 15 1019 44 10000 5.14 310 20:18 22.03.2021
5967 Clear 18 1019 42 10000 4.12 310 19:40 22.03.2021
5968 Clear 17 1019 42 10000 4.12 310 19:21 22.03.2021
5969 Clear 18 1019 42 10000 5.66 330 18:45 22.03.2021
5970 Clear 18 1018 42 10000 4.63 320 18:27 22.03.2021
5971 Clear 19 1018 32 10000 1.54 0 17:51 22.03.2021
5972 Clear 20 1018 46 10000 1.54 0 17:24 22.03.2021
5973 Clear 19 1018 32 10000 1.54 90 16:59 22.03.2021
5974 Clear 19 1019 32 10000 3.09 140 16:40 22.03.2021
5975 Clear 19 1019 37 10000 2.57 160 15:58 22.03.2021
5976 Clear 19 1019 37 10000 3.09 110 15:37 22.03.2021
5977 Clear 18 1019 37 10000 3.09 110 15:18 22.03.2021
5978 Clear 18 1019 37 10000 2.06 0 14:49 22.03.2021
5979 Clear 17 1020 39 10000 2.06 80 14:29 22.03.2021
5980 Clear 17 1020 44 10000 3.09 80 13:39 22.03.2021
5981 Clear 16 1020 44 10000 3.09 80 13:19 22.03.2021
5982 Clear 15 1021 55 10000 2.57 100 12:45 22.03.2021
5983 Clear 15 1021 55 10000 2.57 100 12:22 22.03.2021
5984 Clear 15 1021 58 10000 2.57 60 11:46 22.03.2021
5985 Clear 14 1021 58 10000 2.57 60 11:22 22.03.2021
5986 Clear 15 1020 67 10000 0.51 0 10:43 22.03.2021
5987 Clear 12 1020 71 10000 1.03 0 10:24 22.03.2021
5988 Clear 12 1020 71 10000 0.51 0 09:39 22.03.2021
5989 Clear 12 1020 71 10000 0.51 0 09:21 22.03.2021
5990 Clear 11 1020 81 10000 2.06 60 08:43 22.03.2021
5991 Clear 10 1020 71 10000 2.57 310 08:24 22.03.2021
5992 Clear 10 1020 71 10000 3.6 310 07:44 22.03.2021
5993 Clear 9 1020 81 10000 2.06 340 06:52 22.03.2021
5994 Clear 10 1020 76 10000 2.57 320 06:27 22.03.2021
5995 Clear 11 1021 62 10000 4.12 310 02:32 22.03.2021
5996 Clear 11 1022 71 10000 4.12 310 00:29 22.03.2021
5997 Clear 11 1022 66 10000 4.12 310 23:54 21.03.2021
5998 Clear 12 1022 66 10000 3.6 300 23:19 21.03.2021
5999 Clear 12 1022 66 10000 4.63 310 22:56 21.03.2021
6000 Clear 12 1022 58 10000 5.66 330 21:59 21.03.2021
6001 Clear 13 1021 58 10000 4.12 320 21:40 21.03.2021
6002 Clear 13 1021 58 10000 4.12 320 21:22 21.03.2021
6003 Clear 13 1021 50 10000 4.12 320 20:43 21.03.2021
6004 Clear 13 1021 50 10000 4.12 320 20:43 21.03.2021
6005 Clear 13 1021 47 10000 3.6 300 20:24 21.03.2021
6006 Clear 15 1021 41 10000 4.63 330 19:53 21.03.2021
6007 Clear 15 1021 47 10000 4.63 340 19:21 21.03.2021
6008 Clear 16 1021 31 10000 1.03 0 18:48 21.03.2021
6009 Clear 17 1021 34 10000 1.54 0 18:27 21.03.2021
6010 Clear 17 1021 32 10000 1.54 0 17:48 21.03.2021
6011 Clear 17 1021 34 10000 2.57 70 17:21 21.03.2021
6012 Clear 17 1021 31 10000 2.57 80 16:59 21.03.2021
6013 Clear 17 1022 34 10000 2.57 0 16:40 21.03.2021
6014 Clear 17 1022 34 10000 2.57 0 16:21 21.03.2021
6015 Clear 16 1022 31 10000 2.06 0 15:41 21.03.2021
6016 Clear 16 1022 31 10000 2.06 0 15:20 21.03.2021
6017 Clear 16 1023 39 10000 2.57 0 14:46 21.03.2021
6018 Clear 16 1023 38 10000 2.06 30 14:26 21.03.2021
6019 Clear 15 1023 44 10000 3.6 40 13:54 21.03.2021
6020 Clear 14 1024 47 10000 3.6 70 13:25 21.03.2021
6021 Clear 13 1024 50 10000 4.12 70 12:42 21.03.2021
6022 Clear 12 1024 46 10000 5.66 80 12:23 21.03.2021
6023 Clear 12 1024 46 10000 5.66 80 12:23 21.03.2021
6024 Clear 11 1024 46 10000 6.17 60 11:37 21.03.2021
6025 Clear 10 1024 46 10000 6.17 60 11:19 21.03.2021
6026 Clear 10 1024 43 10000 5.14 60 10:43 21.03.2021
6027 Clear 10 1024 46 10000 5.14 50 10:23 21.03.2021
6028 Clear 9 1024 43 10000 6.17 40 09:46 21.03.2021
6029 Clear 9 1024 46 10000 6.17 40 09:28 21.03.2021
6030 Clear 8 1023 46 10000 5.14 50 08:44 21.03.2021
6031 Clear 8 1023 45 10000 4.63 40 08:26 21.03.2021
6032 Clear 8 1023 53 10000 4.63 50 07:39 21.03.2021
6033 Clear 8 1022 46 10000 4.12 50 06:56 21.03.2021
6034 Clear 10 1022 43 10000 4.12 50 05:54 21.03.2021
6035 Clear 10 1022 57 10000 3.09 350 02:34 21.03.2021
6036 Clear 11 1022 66 10000 4.12 330 00:43 21.03.2021
6037 Clear 11 1021 66 10000 4.12 330 00:24 21.03.2021
6038 Clear 11 1021 62 10000 4.63 330 23:50 20.03.2021
6039 Clear 11 1021 66 10000 4.12 330 23:24 20.03.2021
6040 Clear 12 1021 66 10000 4.63 320 22:57 20.03.2021
6041 Clear 12 1021 66 10000 5.14 320 22:24 20.03.2021
6042 Clear 12 1020 66 10000 5.14 340 21:47 20.03.2021
6043 Clear 12 1020 66 10000 5.66 340 21:25 20.03.2021
6044 Clear 13 1019 62 10000 4.63 330 20:48 20.03.2021
6045 Clear 13 1019 54 10000 3.6 360 20:23 20.03.2021
6046 Clear 14 1019 31 10000 4.63 50 19:51 20.03.2021
6047 Clear 15 1018 29 10000 5.66 50 19:29 20.03.2021
6048 Clear 16 1018 27 10000 7.2 50 18:51 20.03.2021
6049 Clear 16 1018 25 10000 7.2 50 18:28 20.03.2021
6050 Clear 16 1018 27 10000 6.17 50 17:58 20.03.2021
6051 Clear 17 1018 27 10000 7.72 60 17:40 20.03.2021
6052 Clear 16 1018 27 10000 7.72 60 17:20 20.03.2021
6053 Clear 16 1018 31 10000 7.2 30 16:39 20.03.2021
6054 Clear 16 1018 31 10000 7.2 30 16:18 20.03.2021
6055 Clear 16 1018 33 10000 7.2 40 15:40 20.03.2021
6056 Clear 16 1018 33 10000 7.2 40 15:22 20.03.2021
6057 Clear 15 1019 33 10000 7.72 60 14:32 20.03.2021
6058 Clear 15 1019 35 10000 8.23 50 13:59 20.03.2021
6059 Clear 14 1019 33 10000 8.23 50 13:30 20.03.2021
6060 Clear 14 1019 33 10000 9.77 50 12:39 20.03.2021
6061 Clear 13 1019 33 10000 9.77 50 12:20 20.03.2021
6062 Clear 13 1019 37 10000 10.29 40 11:43 20.03.2021
6063 Clear 12 1019 37 10000 10.29 50 11:21 20.03.2021
6064 Clear 12 1018 40 10000 9.26 40 10:45 20.03.2021
6065 Clear 11 1018 50 10000 7.72 40 10:23 20.03.2021
6066 Clear 10 1018 46 10000 8.75 50 09:48 20.03.2021
6067 Clear 10 1018 49 10000 8.23 40 09:22 20.03.2021
6068 Clear 9 1017 49 10000 8.23 50 08:53 20.03.2021
6069 Clear 10 1017 53 10000 8.23 40 08:19 20.03.2021
6070 Clear 10 1016 61 10000 7.2 50 07:48 20.03.2021
6071 Clear 10 1016 61 10000 8.75 50 07:29 20.03.2021
6072 Clear 10 1015 66 10000 7.2 50 06:41 20.03.2021
6073 Clear 12 1014 62 10000 6.17 50 05:29 20.03.2021
6074 Clear 12 1014 71 10000 4.12 350 03:45 20.03.2021
6075 Clear 13 1014 71 10000 4.63 330 01:43 20.03.2021
6076 Clear 13 1014 76 10000 8.23 330 23:48 19.03.2021
6077 Clear 13 1014 82 10000 6.69 330 23:21 19.03.2021
6078 Clouds 13 1014 87 10000 5.66 330 22:45 19.03.2021
6079 Clouds 13 1014 82 10000 6.17 330 22:24 19.03.2021
6080 Clouds 13 1014 82 10000 7.2 330 21:51 19.03.2021
6081 Clouds 13 1014 76 10000 4.63 300 21:21 19.03.2021
6082 Clouds 13 1014 71 10000 5.14 310 20:46 19.03.2021
6083 Clouds 13 1014 62 10000 5.14 310 20:27 19.03.2021
6084 Clear 13 1014 58 10000 3.6 290 19:52 19.03.2021
6085 Clear 14 1015 54 10000 6.69 330 19:24 19.03.2021
6086 Clear 15 1015 55 10000 6.69 340 18:56 19.03.2021
6087 Clear 15 1015 51 10000 7.2 340 18:36 19.03.2021
6088 Clear 15 1015 51 10000 7.2 340 18:18 19.03.2021
6089 Clear 16 1015 48 10000 6.69 340 17:42 19.03.2021
6090 Clear 16 1015 48 10000 6.17 330 17:22 19.03.2021
6091 Clear 17 1015 36 10000 4.63 330 16:44 19.03.2021
6092 Clear 18 1015 39 10000 3.09 320 16:26 19.03.2021
6093 Clear 17 1016 42 10000 4.63 90 15:34 19.03.2021
6094 Clear 17 1016 39 10000 4.12 70 14:54 19.03.2021
6095 Clear 16 1017 39 10000 4.12 50 14:35 19.03.2021
6096 Clear 16 1017 41 10000 4.63 50 13:54 19.03.2021
6097 Clear 16 1017 51 10000 4.63 40 13:21 19.03.2021
6098 Clear 15 1018 44 10000 5.66 50 12:48 19.03.2021
6099 Clear 14 1018 47 10000 6.69 50 12:29 19.03.2021
6100 Clear 14 1018 41 10000 7.2 40 11:36 19.03.2021
6101 Clear 13 1018 40 10000 5.66 30 10:53 19.03.2021
6102 Clear 11 1018 46 10000 5.14 30 10:26 19.03.2021
6103 Clear 12 1018 46 10000 4.12 40 09:47 19.03.2021
6104 Clear 11 1018 53 10000 3.6 30 09:27 19.03.2021
6105 Clear 9 1018 66 10000 2.57 50 08:53 19.03.2021
6106 Clear 10 1017 57 10000 4.12 40 08:30 19.03.2021
6107 Clear 11 1017 46 10000 4.12 40 07:52 19.03.2021
6108 Clear 9 1017 53 10000 3.6 10 07:34 19.03.2021
6109 Clear 10 1017 57 10000 3.09 360 06:36 19.03.2021
6110 Clear 13 1017 41 10000 5.66 30 02:45 19.03.2021
6111 Clear 14 1017 44 10000 4.63 30 23:58 18.03.2021
6112 Clear 14 1017 41 10000 5.14 20 23:30 18.03.2021
6113 Clear 15 1017 41 10000 5.14 30 22:58 18.03.2021
6114 Clear 15 1017 44 10000 5.66 10 22:38 18.03.2021
6115 Clear 14 1017 44 10000 5.66 10 22:18 18.03.2021
6116 Clear 14 1016 58 10000 5.66 350 21:39 18.03.2021
6117 Clear 15 1016 58 10000 5.66 340 20:44 18.03.2021
6118 Clear 15 1016 55 10000 5.14 340 20:25 18.03.2021
6119 Clear 16 1016 48 10000 5.66 340 19:45 18.03.2021
6120 Clear 17 1016 44 10000 7.2 340 19:25 18.03.2021
6121 Clear 18 1016 30 10000 4.63 60 18:57 18.03.2021
6122 Clear 18 1016 24 10000 5.14 40 18:33 18.03.2021
6123 Clear 19 1016 27 10000 6.17 50 17:50 18.03.2021
6124 Clear 19 1016 26 10000 6.69 50 17:25 18.03.2021
6125 Clear 19 1016 27 10000 6.69 40 16:48 18.03.2021
6126 Clear 19 1017 24 10000 7.2 40 16:29 18.03.2021
6127 Clear 19 1017 26 10000 7.72 40 15:47 18.03.2021
6128 Clear 19 1017 27 10000 7.72 40 15:26 18.03.2021
6129 Clear 19 1018 27 10000 7.72 40 14:55 18.03.2021
6130 Clear 19 1018 32 10000 7.2 40 14:32 18.03.2021
6131 Clear 18 1019 29 10000 7.2 40 13:53 18.03.2021
6132 Clear 18 1019 34 10000 7.72 40 13:26 18.03.2021
6133 Clear 17 1019 36 10000 8.23 30 12:45 18.03.2021
6134 Clear 17 1019 39 10000 8.75 50 12:26 18.03.2021
6135 Clear 16 1019 41 10000 7.72 40 11:55 18.03.2021
6136 Clear 16 1019 41 10000 7.2 50 11:34 18.03.2021
6137 Clear 15 1019 44 10000 8.23 40 10:49 18.03.2021
6138 Clear 14 1019 41 10000 6.69 40 10:28 18.03.2021
6139 Clear 14 1019 38 10000 7.72 50 09:58 18.03.2021
6140 Clear 13 1019 38 10000 8.23 40 09:30 18.03.2021
6141 Clear 14 1019 35 10000 7.72 50 08:57 18.03.2021
6142 Clear 13 1019 35 10000 7.72 40 08:33 18.03.2021
6143 Clear 13 1019 38 10000 6.69 40 07:57 18.03.2021
6144 Clear 13 1019 38 10000 7.2 40 07:39 18.03.2021
6145 Clear 13 1018 41 10000 5.14 40 06:40 18.03.2021
6146 Clear 13 1018 41 10000 5.14 40 06:19 18.03.2021
6147 Clear 14 1018 41 10000 8.23 40 04:42 18.03.2021
6148 Clear 16 1019 42 10000 6.17 30 00:39 18.03.2021
6149 Clear 17 1019 48 10000 3.6 340 23:18 17.03.2021
6150 Clear 17 1019 45 10000 2.57 10 22:38 17.03.2021
6151 Clear 17 1019 45 10000 2.57 10 22:19 17.03.2021
6152 Clear 17 1019 42 10000 3.6 30 21:48 17.03.2021
6153 Clear 18 1019 39 10000 5.14 30 21:30 17.03.2021
6154 Clear 18 1018 39 10000 5.14 30 20:45 17.03.2021
6155 Clear 19 1018 42 10000 4.63 20 20:26 17.03.2021
6156 Clear 20 1018 37 10000 5.66 30 19:57 17.03.2021
6157 Clear 20 1018 37 10000 6.69 40 19:25 17.03.2021
6158 Clear 22 1018 40 10000 6.69 40 18:59 17.03.2021
6159 Clear 22 1018 37 10000 7.2 40 18:40 17.03.2021
6160 Clear 22 1018 37 10000 6.69 40 17:59 17.03.2021
6161 Clear 22 1019 43 10000 6.69 30 17:32 17.03.2021
6162 Clear 22 1019 40 10000 6.69 40 16:57 17.03.2021
6163 Clear 22 1019 43 10000 6.69 40 16:38 17.03.2021
6164 Clear 22 1019 43 10000 6.69 40 16:19 17.03.2021
6165 Clear 22 1020 43 10000 6.17 40 15:40 17.03.2021
6166 Clear 21 1020 42 10000 6.69 60 14:46 17.03.2021
6167 Clear 21 1021 45 10000 6.17 60 14:28 17.03.2021
6168 Clear 21 1021 42 10000 6.69 60 13:58 17.03.2021
6169 Clear 20 1021 42 10000 7.2 70 13:40 17.03.2021
6170 Clear 19 1021 42 10000 7.2 70 13:18 17.03.2021
6171 Clear 19 1022 45 10000 7.2 60 12:36 17.03.2021
6172 Clear 18 1022 51 10000 7.2 70 12:18 17.03.2021
6173 Clear 18 1022 51 10000 7.2 70 12:18 17.03.2021
6174 Clear 17 1022 55 10000 5.66 40 11:37 17.03.2021
6175 Clear 16 1022 55 10000 8.23 60 11:18 17.03.2021
6176 Clear 15 1022 54 10000 6.69 50 10:40 17.03.2021
6177 Clear 15 1022 54 10000 6.69 50 10:19 17.03.2021
6178 Clear 14 1022 54 10000 6.17 40 09:42 17.03.2021
6179 Clear 13 1022 58 10000 6.69 40 09:20 17.03.2021
6180 Clear 14 1021 58 10000 4.63 40 08:45 17.03.2021
6181 Clear 13 1021 62 10000 4.63 40 08:25 17.03.2021
6182 Clear 12 1021 58 10000 5.14 40 07:38 17.03.2021
6183 Clear 12 1021 58 10000 4.12 50 06:48 17.03.2021
6184 Clear 13 1021 58 10000 4.12 50 06:27 17.03.2021
6185 Clear 15 1021 51 10000 4.12 50 03:32 17.03.2021
6186 Clear 16 1022 48 10000 5.14 40 01:58 17.03.2021
6187 Clear 16 1023 42 10000 5.66 30 00:33 17.03.2021
6188 Clear 16 1022 51 10000 3.6 340 23:27 16.03.2021
6189 Clear 17 1022 51 10000 3.09 330 22:45 16.03.2021
6190 Clear 17 1022 48 10000 3.6 330 22:26 16.03.2021
6191 Clear 17 1022 51 10000 2.57 330 21:44 16.03.2021
6192 Clear 18 1022 48 10000 3.6 340 21:26 16.03.2021
6193 Clear 18 1021 45 10000 4.12 340 20:57 16.03.2021
6194 Clear 18 1021 36 10000 3.6 20 20:20 16.03.2021
6195 Clear 20 1021 32 10000 5.14 30 19:51 16.03.2021
6196 Clear 21 1021 30 10000 4.63 40 19:29 16.03.2021
6197 Clear 21 1021 30 10000 5.66 30 18:58 16.03.2021
6198 Clear 22 1021 28 10000 6.69 50 18:39 16.03.2021
6199 Clear 23 1021 28 10000 6.69 50 18:20 16.03.2021
6200 Clear 23 1021 31 10000 5.66 30 17:41 16.03.2021
6201 Clear 23 1021 31 10000 5.66 30 17:22 16.03.2021
6202 Clear 23 1021 33 10000 5.66 30 16:49 16.03.2021
6203 Clear 23 1021 31 10000 5.66 40 16:25 16.03.2021
6204 Clear 23 1022 31 10000 6.17 60 15:46 16.03.2021
6205 Clear 23 1022 35 10000 5.66 60 15:21 16.03.2021
6206 Clear 22 1022 35 10000 6.17 40 14:57 16.03.2021
6207 Clear 22 1023 46 10000 6.17 40 14:39 16.03.2021
6208 Clear 22 1023 46 10000 6.17 40 14:19 16.03.2021
6209 Clear 21 1023 49 10000 5.14 50 13:46 16.03.2021
6210 Clear 19 1023 48 10000 4.63 50 13:23 16.03.2021
6211 Clear 19 1024 52 10000 5.66 40 12:48 16.03.2021
6212 Clear 18 1024 48 10000 6.17 50 12:29 16.03.2021
6213 Clear 17 1024 45 10000 5.14 50 11:41 16.03.2021
6214 Clear 17 1024 45 10000 5.14 50 11:21 16.03.2021
6215 Clear 15 1024 47 10000 6.69 40 10:27 16.03.2021
6216 Clear 15 1024 51 10000 5.14 50 09:49 16.03.2021
6217 Clear 14 1023 51 10000 5.14 40 09:30 16.03.2021
6218 Clear 13 1023 54 10000 4.12 40 08:59 16.03.2021
6219 Clear 13 1023 54 10000 4.12 50 08:40 16.03.2021
6220 Clear 13 1023 54 10000 4.12 50 08:20 16.03.2021
6221 Clear 13 1023 54 10000 4.12 40 07:36 16.03.2021
6222 Clear 13 1022 51 10000 3.6 50 06:39 16.03.2021
6223 Clear 13 1022 58 10000 4.12 30 05:52 16.03.2021
6224 Clear 12 1022 62 10000 3.09 10 05:34 16.03.2021
6225 Clear 14 1023 54 10000 2.57 20 02:45 16.03.2021
6226 Clear 14 1023 62 10000 3.09 10 02:24 16.03.2021
6227 Clear 15 1023 58 10000 3.6 330 23:58 15.03.2021
6228 Clear 15 1023 55 10000 4.63 330 23:29 15.03.2021
6229 Clear 15 1023 55 10000 4.63 330 23:29 15.03.2021
6230 Clear 15 1023 55 10000 5.14 330 22:53 15.03.2021
6231 Clear 15 1023 55 10000 5.66 330 22:34 15.03.2021
6232 Clear 16 1023 55 10000 6.69 330 21:55 15.03.2021
6233 Clear 16 1023 51 10000 6.69 330 21:36 15.03.2021
6234 Clear 16 1023 51 10000 6.69 330 21:18 15.03.2021
6235 Clear 17 1023 51 10000 5.66 330 20:40 15.03.2021
6236 Clear 17 1023 51 10000 5.66 330 20:22 15.03.2021
6237 Clear 18 1022 52 10000 5.14 350 19:51 15.03.2021
6238 Clear 19 1022 45 10000 4.63 10 19:33 15.03.2021
6239 Clear 20 1022 42 10000 4.12 40 18:57 15.03.2021
6240 Clear 21 1022 42 10000 4.63 30 18:32 15.03.2021
6241 Clear 21 1022 42 10000 5.14 40 17:56 15.03.2021
6242 Clear 21 1022 40 10000 5.14 30 17:33 15.03.2021
6243 Clear 21 1022 37 10000 4.63 50 16:56 15.03.2021
6244 Clear 21 1023 42 10000 5.14 60 16:35 15.03.2021
6245 Clear 20 1023 45 10000 5.66 30 15:47 15.03.2021
6246 Clear 20 1023 49 10000 5.14 30 15:27 15.03.2021
6247 Clear 20 1024 52 10000 4.12 40 14:45 15.03.2021
6248 Clear 19 1024 52 10000 4.12 40 14:27 15.03.2021
6249 Clear 18 1024 55 10000 4.63 60 13:55 15.03.2021
6250 Clear 18 1024 55 10000 4.12 60 13:34 15.03.2021
6251 Clear 17 1024 55 10000 4.63 50 12:51 15.03.2021
6252 Clear 16 1025 55 10000 5.66 60 12:20 15.03.2021
6253 Clear 16 1025 63 10000 4.63 60 11:57 15.03.2021
6254 Clear 16 1025 58 10000 5.14 60 11:38 15.03.2021
6255 Clear 15 1025 58 10000 5.14 60 11:18 15.03.2021
6256 Clear 14 1025 62 10000 4.63 40 10:34 15.03.2021
6257 Clear 14 1024 76 10000 3.09 50 09:59 15.03.2021
6258 Clear 13 1024 76 10000 3.6 30 09:40 15.03.2021
6259 Clear 13 1024 76 10000 3.6 30 09:20 15.03.2021
6260 Clear 12 1024 81 10000 2.06 30 08:41 15.03.2021
6261 Clear 12 1024 81 10000 2.06 30 08:19 15.03.2021
6262 Clear 11 1023 81 10000 2.06 350 07:33 15.03.2021
6263 Clear 11 1023 87 10000 1.54 360 06:45 15.03.2021
6264 Clear 11 1023 82 10000 2.06 10 05:35 15.03.2021
6265 Clear 12 1024 82 10000 2.57 320 03:19 15.03.2021
6266 Clear 13 1025 82 10000 4.63 330 00:21 15.03.2021
6267 Clear 13 1025 87 10000 5.14 320 23:23 14.03.2021
6268 Clear 13 1025 87 10000 4.63 320 22:49 14.03.2021
6269 Clear 13 1025 87 10000 4.12 320 22:28 14.03.2021
6270 Clear 13 1025 76 10000 4.63 320 21:52 14.03.2021
6271 Clear 13 1025 82 10000 5.14 330 21:23 14.03.2021
6272 Clear 13 1025 82 10000 5.14 330 20:52 14.03.2021
6273 Clear 14 1025 77 10000 5.66 340 20:29 14.03.2021
6274 Clear 14 1025 77 10000 6.17 330 19:58 14.03.2021
6275 Clear 15 1024 67 10000 6.17 330 19:40 14.03.2021
6276 Clear 15 1024 67 10000 6.17 330 19:18 14.03.2021
6277 Clear 16 1024 63 10000 7.2 330 18:36 14.03.2021
6278 Clear 18 1025 55 10000 4.63 360 17:54 14.03.2021
6279 Clear 18 1025 52 10000 5.14 350 17:36 14.03.2021
6280 Clear 18 1025 52 10000 5.14 350 17:18 14.03.2021
6281 Clear 19 1025 48 10000 5.14 20 16:40 14.03.2021
6282 Clear 19 1025 48 10000 5.14 20 16:19 14.03.2021
6283 Clear 19 1025 48 10000 4.63 10 15:42 14.03.2021
6284 Clear 19 1027 48 10000 4.12 50 14:51 14.03.2021
6285 Clear 18 1027 48 10000 5.66 20 14:30 14.03.2021
6286 Clear 18 1027 48 10000 6.17 40 13:53 14.03.2021
6287 Clear 18 1028 51 10000 6.17 30 13:34 14.03.2021
6288 Clear 17 1028 51 10000 6.69 30 12:58 14.03.2021
6289 Clear 17 1028 48 10000 7.72 30 12:40 14.03.2021
6290 Clear 17 1028 48 10000 7.72 30 12:22 14.03.2021
6291 Clear 15 1028 51 10000 6.17 30 11:38 14.03.2021
6292 Clear 15 1028 51 10000 6.17 30 11:19 14.03.2021
6293 Clear 14 1028 67 10000 5.14 360 10:38 14.03.2021
6294 Clear 14 1028 67 10000 5.14 360 10:19 14.03.2021
6295 Clear 13 1028 71 10000 5.14 360 09:56 14.03.2021
6296 Clear 12 1027 76 10000 5.14 350 09:38 14.03.2021
6297 Clear 12 1027 76 10000 5.14 350 09:20 14.03.2021
6298 Clear 11 1027 87 10000 4.12 360 08:36 14.03.2021
6299 Clear 10 1027 87 10000 4.12 360 07:56 14.03.2021
6300 Clear 10 1027 81 10000 5.66 350 07:27 14.03.2021
6301 Clear 11 1027 81 10000 5.66 360 05:34 14.03.2021
6302 Clear 11 1028 82 10000 6.17 340 01:26 14.03.2021
6303 Clear 11 1028 82 10000 6.17 340 00:20 14.03.2021
6304 Clear 12 1028 82 10000 6.17 340 23:59 13.03.2021
6305 Clear 12 1028 76 10000 6.69 340 23:40 13.03.2021
6306 Clear 12 1028 76 10000 6.69 340 23:18 13.03.2021
6307 Clear 12 1028 81 10000 4.12 350 22:46 13.03.2021
6308 Clear 12 1028 76 10000 3.09 350 22:21 13.03.2021
6309 Clear 13 1027 66 10000 6.69 340 21:35 13.03.2021
6310 Clear 13 1027 66 10000 5.66 350 20:59 13.03.2021
6311 Clear 13 1027 62 10000 7.72 350 20:41 13.03.2021
6312 Clear 13 1027 62 10000 7.72 350 20:23 13.03.2021
6313 Clear 13 1026 58 10000 7.2 350 19:40 13.03.2021
6314 Clear 14 1026 58 10000 7.2 350 19:22 13.03.2021
6315 Clouds 14 1026 58 10000 6.69 340 18:42 13.03.2021
6316 Clouds 15 1026 51 10000 6.69 350 18:20 13.03.2021
6317 Clouds 15 1026 51 10000 7.2 360 17:51 13.03.2021
6318 Clouds 16 1026 58 10000 6.69 340 17:31 13.03.2021
6319 Clouds 16 1026 63 10000 6.69 340 16:53 13.03.2021
6320 Clouds 16 1026 55 10000 7.2 330 16:35 13.03.2021
6321 Clouds 16 1026 51 10000 6.17 350 15:56 13.03.2021
6322 Clouds 16 1026 51 10000 7.2 340 15:18 13.03.2021
6323 Clouds 16 1027 58 10000 5.14 350 14:41 13.03.2021
6324 Clouds 15 1027 58 10000 5.14 350 14:21 13.03.2021
6325 Clouds 15 1027 58 10000 6.17 360 13:28 13.03.2021
6326 Clouds 15 1027 62 10000 6.69 20 12:53 13.03.2021
6327 Clouds 15 1027 58 10000 7.2 360 12:35 13.03.2021
6328 Clouds 14 1027 67 10000 6.17 360 11:57 13.03.2021
6329 Clouds 13 1027 71 10000 6.17 350 11:38 13.03.2021
6330 Clouds 13 1027 67 10000 5.66 20 11:19 13.03.2021
6331 Clouds 13 1027 71 10000 4.63 10 10:31 13.03.2021
6332 Clouds 11 1027 81 10000 3.09 350 09:59 13.03.2021
6333 Clouds 11 1026 81 10000 2.06 340 09:33 13.03.2021
6334 Clouds 10 1026 81 10000 2.06 330 08:54 13.03.2021
6335 Clouds 10 1026 81 10000 2.06 330 08:54 13.03.2021
6336 Clouds 10 1026 81 10000 1.54 320 08:26 13.03.2021
6337 Clouds 10 1025 87 10000 1.54 330 07:57 13.03.2021
6338 Clouds 10 1025 87 10000 2.06 310 07:38 13.03.2021
6339 Clouds 10 1025 87 10000 2.06 310 05:30 13.03.2021
6340 Clouds 11 1025 81 10000 4.63 320 02:42 13.03.2021
6341 Clouds 11 1026 82 10000 4.12 310 00:36 13.03.2021
6342 Clouds 11 1026 82 10000 4.12 310 23:46 12.03.2021
6343 Clouds 11 1026 82 10000 4.12 310 23:28 12.03.2021
6344 Clouds 12 1026 82 10000 5.66 320 22:41 12.03.2021
6345 Clouds 12 1026 82 10000 5.66 320 22:21 12.03.2021
6346 Clouds 12 1026 82 10000 4.63 310 21:39 12.03.2021
6347 Clouds 12 1026 82 10000 4.63 310 21:21 12.03.2021
6348 Clouds 12 1025 76 10000 5.14 310 20:55 12.03.2021
6349 Clouds 13 1025 76 10000 4.12 310 20:31 12.03.2021
6350 Clouds 13 1025 71 10000 4.63 320 19:54 12.03.2021
6351 Clouds 13 1025 71 10000 4.63 310 19:34 12.03.2021
6352 Clouds 13 1025 71 10000 5.14 310 18:54 12.03.2021
6353 Clouds 14 1025 67 10000 5.14 320 18:33 12.03.2021
6354 Clouds 14 1025 67 10000 5.14 320 17:47 12.03.2021
6355 Clouds 15 1025 63 10000 5.66 340 17:29 12.03.2021
6356 Clouds 15 1025 63 10000 6.17 340 16:54 12.03.2021
6357 Clouds 15 1025 58 10000 5.14 330 16:33 12.03.2021
6358 Clouds 16 1025 58 10000 5.66 340 15:51 12.03.2021
6359 Clouds 16 1026 55 10000 5.14 350 15:25 12.03.2021
6360 Clouds 16 1026 51 10000 5.14 320 14:47 12.03.2021
6361 Clouds 16 1027 51 10000 5.14 310 14:20 12.03.2021
6362 Clouds 16 1027 55 10000 6.69 330 13:42 12.03.2021
6363 Clouds 15 1027 58 10000 5.66 330 13:21 12.03.2021
6364 Clouds 16 1027 72 10000 6.17 360 12:56 12.03.2021
6365 Clouds 15 1028 82 10000 4.12 330 12:36 12.03.2021
6366 Clouds 15 1028 82 10000 4.12 330 12:18 12.03.2021
6367 Clouds 14 1028 88 10000 3.6 330 11:47 12.03.2021
6368 Clouds 14 1028 77 10000 4.63 330 11:19 12.03.2021
6369 Clouds 14 1027 82 10000 4.12 340 10:45 12.03.2021
6370 Clouds 14 1027 94 10000 2.57 340 10:22 12.03.2021
6371 Clouds 13 1027 94 10000 3.09 340 09:48 12.03.2021
6372 Clouds 13 1026 88 10000 2.06 360 09:19 12.03.2021
6373 Clouds 12 1026 94 10000 3.09 340 08:40 12.03.2021
6374 Clouds 13 1026 94 10000 3.6 340 07:51 12.03.2021
6375 Clouds 13 1026 94 10000 3.6 340 07:29 12.03.2021
6376 Clouds 13 1025 94 10000 3.09 340 06:44 12.03.2021
6377 Clouds 14 1025 100 10000 3.09 330 05:52 12.03.2021
6378 Clouds 13 1027 100 10000 2.06 290 00:59 12.03.2021
6379 Clouds 13 1028 94 10000 2.57 300 23:56 11.03.2021
6380 Clouds 13 1028 88 10000 3.09 300 22:59 11.03.2021
6381 Clouds 13 1028 88 10000 3.09 300 22:39 11.03.2021
6382 Clouds 13 1028 88 10000 3.09 300 22:20 11.03.2021
6383 Clouds 14 1027 88 10000 3.09 310 21:46 11.03.2021
6384 Clouds 14 1027 88 10000 3.6 310 21:25 11.03.2021
6385 Clouds 14 1027 82 10000 2.57 300 20:49 11.03.2021
6386 Clouds 14 1027 82 10000 3.09 300 20:23 11.03.2021
6387 Clouds 15 1027 72 10000 3.6 300 19:56 11.03.2021
6388 Clouds 15 1026 63 10000 2.57 300 19:36 11.03.2021
6389 Clouds 16 1026 63 10000 3.09 310 18:54 11.03.2021
6390 Clouds 16 1026 67 10000 3.6 350 18:35 11.03.2021
6391 Clouds 16 1026 67 10000 4.12 330 17:54 11.03.2021
6392 Clouds 16 1026 63 10000 3.6 340 17:36 11.03.2021
6393 Clouds 17 1026 63 10000 4.63 330 16:42 11.03.2021
6394 Clouds 17 1027 63 10000 3.6 320 16:24 11.03.2021
6395 Clouds 16 1027 67 10000 3.6 310 15:44 11.03.2021
6396 Clouds 16 1027 72 10000 1.54 0 15:21 11.03.2021
6397 Clouds 16 1028 88 10000 2.06 200 14:45 11.03.2021
6398 Clouds 16 1028 82 10000 1.03 0 14:19 11.03.2021
6399 Clouds 15 1028 82 10000 1.54 310 13:46 11.03.2021
6400 Clouds 15 1028 82 10000 2.06 310 13:22 11.03.2021
6401 Clouds 16 1028 77 10000 2.06 290 12:56 11.03.2021
6402 Clouds 15 1029 77 10000 1.03 0 12:30 11.03.2021
6403 Clouds 15 1029 77 10000 2.57 240 11:49 11.03.2021
6404 Clouds 15 1029 77 10000 2.06 280 11:31 11.03.2021
6405 Clouds 15 1028 77 10000 1.54 260 10:57 11.03.2021
6406 Clouds 14 1028 82 10000 2.06 320 10:28 11.03.2021
6407 Clouds 14 1028 94 10000 1.54 310 09:53 11.03.2021
6408 Clouds 13 1027 100 10000 2.06 320 09:34 11.03.2021
6409 Clouds 13 1027 100 10000 2.57 340 08:59 11.03.2021
6410 Clouds 13 1027 100 10000 2.06 270 08:40 11.03.2021
6411 Clouds 13 1027 100 10000 2.06 280 07:59 11.03.2021
6412 Clouds 13 1026 100 10000 1.54 280 07:21 11.03.2021
6413 Clouds 13 1026 88 10000 1.03 0 06:48 11.03.2021
6414 Clouds 13 1026 88 10000 1.54 230 06:23 11.03.2021
6415 Clouds 13 1027 94 10000 2.57 290 02:48 11.03.2021
6416 -273 0 0 0 0 0 00:45 11.03.2021
6417 Clear 13 1027 87 10000 3.09 310 23:23 10.03.2021
6418 Clear 13 1026 87 10000 2.57 290 22:43 10.03.2021
6419 Clear 13 1026 87 10000 3.09 300 22:23 10.03.2021
6420 Clouds 13 1026 82 10000 4.63 300 21:45 10.03.2021
6421 Clear 13 1026 82 10000 3.6 300 21:44 10.03.2021
6422 Clear 13 1026 82 10000 3.6 300 21:44 10.03.2021
6423 Clouds 13 1026 82 10000 4.63 300 21:21 10.03.2021
6424 Clouds 13 1026 82 10000 5.14 310 20:45 10.03.2021
6425 Clouds 13 1025 82 10000 4.63 310 20:27 10.03.2021
6426 Clouds 14 1025 77 10000 4.63 310 19:43 10.03.2021
6427 Clouds 15 1025 72 10000 4.12 310 19:24 10.03.2021
6428 Clouds 15 1025 67 10000 4.63 320 18:44 10.03.2021
6429 Clouds 15 1024 67 10000 5.14 320 18:24 10.03.2021
6430 Clouds 16 1024 67 10000 4.63 330 17:55 10.03.2021
6431 Clouds 16 1024 63 10000 3.09 300 17:36 10.03.2021
6432 Clouds 17 1024 63 10000 3.09 300 17:18 10.03.2021
6433 Clouds 17 1024 63 10000 3.09 350 16:41 10.03.2021
6434 Clouds 17 1024 63 10000 3.09 350 16:22 10.03.2021
6435 Clouds 16 1024 59 10000 2.57 300 15:44 10.03.2021
6436 Clouds 17 1025 63 10000 3.6 310 15:22 10.03.2021
6437 Clouds 17 1025 67 10000 2.57 10 14:46 10.03.2021
6438 Clouds 16 1025 67 10000 2.06 0 14:20 10.03.2021
6439 Clouds 16 1025 67 10000 2.06 0 14:20 10.03.2021
6440 Clouds 16 1025 63 10000 2.06 0 13:51 10.03.2021
6441 Clouds 16 1025 67 10000 2.57 110 13:27 10.03.2021
6442 Clouds 15 1025 63 10000 2.06 0 12:45 10.03.2021
6443 Clouds 15 1025 63 10000 4.12 20 12:19 10.03.2021
6444 Clouds 14 1026 71 10000 4.12 350 11:43 10.03.2021
6445 Clouds 14 1026 71 10000 4.12 360 11:19 10.03.2021
6446 Clouds 13 1025 76 10000 4.63 350 10:46 10.03.2021
6447 Clouds 12 1025 82 10000 4.12 340 10:28 10.03.2021
6448 Clouds 11 1025 76 10000 3.09 340 09:45 10.03.2021
6449 Clouds 11 1024 81 10000 3.6 330 09:24 10.03.2021
6450 Clouds 11 1024 81 10000 3.6 330 09:24 10.03.2021
6451 Clouds 11 1024 81 10000 3.6 330 09:24 10.03.2021
6452 Clouds 10 1024 81 10000 3.6 330 09:24 10.03.2021
6453 Clouds 10 1024 81 10000 3.09 320 08:57 10.03.2021
6454 Clear 9 1024 87 10000 2.57 320 08:39 10.03.2021
6455 Clear 9 1024 87 10000 2.57 320 08:20 10.03.2021
6456 Clear 9 1023 87 10000 2.06 310 07:33 10.03.2021
6457 Clear 9 1023 87 10000 3.09 320 06:57 10.03.2021
6458 Clear 9 1023 87 10000 3.09 340 06:32 10.03.2021
6459 Clear 10 1023 87 10000 3.6 330 02:42 10.03.2021
6460 Clear 11 1022 87 10000 6.17 330 23:52 09.03.2021
6461 Clear 11 1022 87 10000 5.66 320 23:25 09.03.2021
6462 Clear 11 1022 82 10000 6.17 320 22:44 09.03.2021
6463 Clear 12 1022 76 10000 6.17 320 22:26 09.03.2021
6464 Clear 12 1021 76 10000 6.17 320 21:55 09.03.2021
6465 Clear 12 1021 71 10000 7.2 330 21:36 09.03.2021
6466 Clear 12 1021 71 10000 7.2 330 21:18 09.03.2021
6467 Clear 12 1021 71 10000 5.66 320 20:43 09.03.2021
6468 Clear 13 1020 58 10000 4.63 310 20:21 09.03.2021
6469 Clear 13 1020 51 10000 6.17 330 19:53 09.03.2021
6470 Clear 14 1019 54 10000 7.2 330 19:27 09.03.2021
6471 Clear 15 1019 55 10000 5.66 320 18:51 09.03.2021
6472 Clear 16 1019 51 10000 6.17 330 18:28 09.03.2021
6473 Clear 16 1019 42 10000 4.12 310 17:54 09.03.2021
6474 Clear 17 1019 42 10000 3.6 360 17:34 09.03.2021
6475 Clouds 17 1019 45 10000 4.12 350 16:55 09.03.2021
6476 Clouds 17 1019 45 10000 2.57 70 16:37 09.03.2021
6477 Clouds 17 1019 45 10000 2.57 70 16:19 09.03.2021
6478 Clouds 17 1019 45 10000 3.6 110 15:44 09.03.2021
6479 Clouds 17 1019 44 10000 3.6 70 15:22 09.03.2021
6480 Clouds 16 1020 44 10000 5.14 90 14:36 09.03.2021
6481 Clouds 16 1020 44 10000 5.14 90 14:18 09.03.2021
6482 Clouds 16 1020 47 10000 3.6 60 13:38 09.03.2021
6483 Clouds 16 1020 47 10000 3.6 60 13:20 09.03.2021
6484 Clouds 15 1020 55 10000 3.09 70 12:40 09.03.2021
6485 Clouds 15 1020 55 10000 3.09 70 12:21 09.03.2021
6486 Clouds 14 1020 54 10000 3.09 10 11:42 09.03.2021
6487 Clouds 14 1020 62 10000 3.09 360 11:21 09.03.2021
6488 Clouds 13 1020 66 10000 2.57 360 10:56 09.03.2021
6489 Clouds 13 1020 71 10000 2.57 10 10:38 09.03.2021
6490 Clouds 13 1020 71 10000 2.57 10 10:19 09.03.2021
6491 Clouds 12 1020 76 10000 3.09 340 09:43 09.03.2021
6492 Clouds 11 1019 81 10000 3.09 330 09:24 09.03.2021
6493 Clouds 10 1019 87 10000 3.09 330 08:48 09.03.2021
6494 Clouds 11 1019 87 10000 3.6 330 08:28 09.03.2021
6495 Clear 11 1018 81 10000 2.57 310 07:40 09.03.2021
6496 Clear 10 1018 81 10000 2.57 310 07:21 09.03.2021
6497 Clear 11 1018 87 10000 3.09 310 06:18 09.03.2021
6498 Clear 11 1017 87 10000 3.09 320 05:46 09.03.2021
6499 Clouds 13 1018 82 10000 5.14 310 00:34 09.03.2021
6500 Clouds 12 1018 76 10000 5.66 310 23:45 08.03.2021
6501 Clouds 12 1018 82 10000 5.66 310 23:27 08.03.2021
6502 Clouds 12 1018 82 10000 6.17 320 22:51 08.03.2021
6503 Clouds 12 1017 82 10000 6.17 330 22:32 08.03.2021
6504 Clouds 12 1017 82 10000 5.66 320 21:57 08.03.2021
6505 Clouds 12 1017 82 10000 5.14 320 21:35 08.03.2021
6506 Clouds 12 1016 82 10000 5.14 320 20:48 08.03.2021
6507 Clouds 12 1016 82 10000 5.14 320 20:28 08.03.2021
6508 Clouds 12 1016 82 10000 5.14 320 20:28 08.03.2021
6509 Clouds 12 1016 76 10000 5.66 320 19:59 08.03.2021
6510 Clouds 12 1015 71 10000 5.66 310 19:37 08.03.2021
6511 Clouds 13 1015 67 10000 7.2 330 18:44 08.03.2021
6512 Clouds 13 1015 67 10000 7.2 330 18:23 08.03.2021
6513 Clouds 13 1015 71 10000 6.69 330 17:56 08.03.2021
6514 Clouds 13 1015 71 10000 5.66 330 17:38 08.03.2021
6515 Clouds 14 1015 71 10000 5.66 320 16:56 08.03.2021
6516 Clouds 14 1015 71 10000 6.17 340 16:33 08.03.2021
6517 Clouds 14 1015 71 10000 6.17 330 15:57 08.03.2021
6518 Clouds 14 1016 67 10000 6.69 330 15:31 08.03.2021
6519 Clouds 14 1016 62 10000 6.17 320 14:59 08.03.2021
6520 Clouds 14 1016 67 10000 5.66 310 14:21 08.03.2021
6521 Clouds 14 1017 67 10000 6.17 330 13:44 08.03.2021
6522 Clouds 14 1017 66 10000 6.69 340 13:22 08.03.2021
6523 Clouds 13 1017 58 10000 6.17 330 12:49 08.03.2021
6524 Clouds 13 1017 62 10000 8.23 340 12:29 08.03.2021
6525 Clouds 13 1017 62 10000 7.2 330 11:45 08.03.2021
6526 Clouds 13 1017 62 10000 8.23 330 11:20 08.03.2021
6527 Clouds 12 1017 62 10000 6.69 320 10:47 08.03.2021
6528 Clouds 12 1017 66 10000 5.14 330 10:28 08.03.2021
6529 Clouds 11 1016 66 10000 5.66 320 09:45 08.03.2021
6530 Clouds 11 1016 71 10000 3.6 330 09:25 08.03.2021
6531 Clouds 10 1016 71 10000 2.06 40 08:31 08.03.2021
6532 Clouds 9 1016 71 10000 1.54 0 07:49 08.03.2021
6533 Clouds 9 1016 71 10000 1.54 0 07:21 08.03.2021
6534 Clouds 10 1016 71 10000 3.09 310 05:19 08.03.2021
6535 Clouds 11 1017 76 10000 4.63 340 01:28 08.03.2021
6536 Clouds 11 1018 76 10000 4.63 340 00:41 08.03.2021
6537 Clouds 11 1018 76 10000 5.14 340 23:53 07.03.2021
6538 Clouds 12 1018 76 10000 4.12 330 23:20 07.03.2021
6539 Clouds 12 1018 76 10000 7.2 340 22:45 07.03.2021
6540 Clouds 12 1017 82 10000 4.63 330 22:26 07.03.2021
6541 Clouds 12 1017 82 10000 3.6 320 21:49 07.03.2021
6542 Clouds 12 1017 82 10000 4.12 330 21:31 07.03.2021
6543 Clouds 12 1017 76 10000 3.6 310 20:56 07.03.2021
6544 Clouds 12 1017 76 10000 4.63 330 20:37 07.03.2021
6545 Clouds 12 1017 76 10000 4.63 330 20:18 07.03.2021
6546 Clouds 13 1016 71 10000 5.14 320 19:39 07.03.2021
6547 Clouds 13 1016 71 10000 5.14 320 19:21 07.03.2021
6548 Clouds 14 1016 71 10000 5.14 320 18:50 07.03.2021
6549 Clouds 14 1016 67 10000 6.17 320 18:20 07.03.2021
6550 Clouds 14 1016 72 10000 6.17 330 17:56 07.03.2021
6551 Clouds 15 1016 67 10000 5.14 310 17:37 07.03.2021
6552 Clouds 15 1016 67 10000 5.14 310 17:18 07.03.2021
6553 Clouds 15 1016 67 10000 5.14 310 17:18 07.03.2021
6554 Clouds 16 1017 67 10000 4.63 310 16:42 07.03.2021
6555 Clouds 16 1017 67 10000 5.14 330 16:20 07.03.2021
6556 Clouds 16 1017 72 10000 5.14 330 15:46 07.03.2021
6557 Clouds 16 1017 67 10000 4.12 310 15:28 07.03.2021
6558 Clouds 16 1018 72 10000 3.6 300 14:46 07.03.2021
6559 Clouds 16 1018 77 10000 3.6 300 14:28 07.03.2021
6560 Clouds 16 1018 72 10000 3.6 310 13:44 07.03.2021
6561 Clouds 16 1019 72 10000 3.09 340 13:24 07.03.2021
6562 Clouds 15 1019 72 10000 3.6 330 12:47 07.03.2021
6563 Clouds 15 1019 77 10000 4.63 320 12:29 07.03.2021
6564 Clouds 15 1019 82 10000 5.14 340 11:52 07.03.2021
6565 Clouds 14 1019 77 10000 4.63 320 11:23 07.03.2021
6566 Clouds 14 1019 82 10000 4.63 310 10:50 07.03.2021
6567 Clouds 14 1019 88 10000 3.6 310 10:31 07.03.2021
6568 Clouds 13 1019 87 10000 4.12 310 09:51 07.03.2021
6569 Clouds 12 1018 87 10000 4.63 310 09:26 07.03.2021
6570 Clouds 12 1018 93 10000 5.14 310 08:48 07.03.2021
6571 Clouds 12 1018 93 10000 4.63 310 08:25 07.03.2021
6572 Clear 12 1018 93 10000 4.12 320 07:51 07.03.2021
6573 Clouds 13 1018 82 10000 5.14 310 02:44 07.03.2021
6574 Clear 14 1019 71 10000 4.63 310 01:45 07.03.2021
6575 Clear 14 1019 62 10000 3.09 320 23:56 06.03.2021
6576 Clear 14 1019 67 10000 3.09 320 23:37 06.03.2021
6577 Clear 14 1019 76 10000 3.09 320 22:57 06.03.2021
6578 Clear 14 1019 72 10000 3.09 310 22:38 06.03.2021
6579 Clear 14 1019 72 10000 3.09 310 22:19 06.03.2021
6580 Clear 14 1018 77 10000 4.12 310 21:25 06.03.2021
6581 Clear 14 1018 77 10000 3.6 320 20:59 06.03.2021
6582 Clear 14 1018 72 10000 3.6 320 20:40 06.03.2021
6583 Clouds 15 1018 67 10000 4.12 310 19:51 06.03.2021
6584 Clouds 16 1018 63 10000 4.12 310 19:23 06.03.2021
6585 Clouds 17 1017 63 10000 5.66 330 18:57 06.03.2021
6586 Clouds 18 1017 55 10000 3.6 10 18:38 06.03.2021
6587 Clouds 18 1017 55 10000 3.6 10 18:19 06.03.2021
6588 Clouds 19 1017 55 10000 4.12 70 17:47 06.03.2021
6589 Clouds 19 1017 59 10000 3.09 100 17:26 06.03.2021
6590 Clouds 20 1017 59 10000 3.09 110 16:53 06.03.2021
6591 Clouds 19 1017 59 10000 3.6 100 16:30 06.03.2021
6592 Clouds 19 1018 55 10000 2.57 70 15:55 06.03.2021
6593 Clouds 18 1018 55 10000 3.09 100 15:34 06.03.2021
6594 Clear 19 1018 59 10000 3.09 80 14:55 06.03.2021
6595 Clear 18 1018 55 10000 3.09 70 14:31 06.03.2021
6596 Clear 18 1019 59 10000 3.6 90 13:46 06.03.2021
6597 Clear 18 1019 59 10000 3.09 60 13:24 06.03.2021
6598 Clear 17 1019 63 10000 3.6 40 12:49 06.03.2021
6599 Clear 15 1019 67 10000 4.63 60 12:20 06.03.2021
6600 Clear 16 1019 67 10000 4.63 50 11:59 06.03.2021
6601 Clear 15 1019 72 10000 4.12 40 11:27 06.03.2021
6602 Clear 15 1019 72 10000 4.12 40 10:54 06.03.2021
6603 Clear 14 1019 76 10000 3.6 40 10:36 06.03.2021
6604 Clear 13 1018 76 10000 3.09 40 09:56 06.03.2021
6605 Clear 13 1018 76 10000 3.09 360 09:24 06.03.2021
6606 Clear 12 1018 87 10000 2.06 340 08:54 06.03.2021
6607 Clear 11 1018 82 10000 1.54 20 08:30 06.03.2021
6608 Clear 12 1017 82 10000 2.57 10 07:54 06.03.2021
6609 Clear 12 1017 82 10000 2.57 340 07:22 06.03.2021
6610 Clear 12 1017 76 10000 2.06 320 06:27 06.03.2021
6611 Clear 13 1017 82 10000 2.57 360 03:47 06.03.2021
6612 Clouds 13 1017 76 10000 3.6 330 01:42 06.03.2021
6613 Clouds 14 1017 82 10000 3.09 360 00:46 06.03.2021
6614 Clouds 14 1017 77 10000 4.63 20 23:49 05.03.2021
6615 Clouds 14 1017 77 10000 5.14 30 23:19 05.03.2021
6616 Clouds 14 1017 77 10000 5.14 30 23:19 05.03.2021
6617 Clouds 14 1016 77 10000 5.14 30 22:44 05.03.2021
6618 Clouds 14 1016 82 10000 4.12 30 22:22 05.03.2021
6619 Clouds 14 1016 82 10000 5.14 40 21:51 05.03.2021
6620 Clouds 14 1015 82 10000 5.66 40 21:31 05.03.2021
6621 Clouds 14 1015 82 10000 5.14 30 20:50 05.03.2021
6622 Clouds 14 1015 82 10000 5.14 30 20:26 05.03.2021
6623 Clouds 14 1014 88 10000 4.63 40 19:54 05.03.2021
6624 Clouds 14 1014 82 10000 5.66 60 19:26 05.03.2021
6625 Clouds 15 1014 82 10000 5.14 50 18:55 05.03.2021
6626 Clouds 15 1013 82 10000 6.69 60 18:36 05.03.2021
6627 Clouds 15 1013 82 10000 6.69 60 18:18 05.03.2021
6628 Clouds 15 1013 82 10000 6.69 60 17:33 05.03.2021
6629 Clouds 15 1013 82 10000 6.69 60 16:45 05.03.2021
6630 Clouds 15 1013 82 10000 7.2 60 16:24 05.03.2021
6631 Clouds 15 1013 77 10000 7.72 50 15:56 05.03.2021
6632 Clouds 15 1013 82 10000 6.69 50 15:29 05.03.2021
6633 Clouds 16 1013 82 10000 7.2 60